<?xml version="1.0" encoding="UTF-8"?>
<gpx version="1.1" creator="2bulu-scraper" xmlns="http://www.topografix.com/GPX/1/1">
  <metadata><name>峨眉山夜爬后山下</name><desc>source: 2bulu.com trackId=88595721; exported 2026-09-01T16:14:49.580Z</desc>
    <bounds minlat="29.48282" minlon="103.2823185" maxlat="29.5830727" maxlon="103.4525897"/>
    <link href="https://www.2bulu.com/track/t-86dvtkGaiqzp%252FR2KBg5Tzw%253D%253D.htm"><text>2bulu 源页面</text></link>
  </metadata>
  <wpt lat="29.5690306" lon="103.4437071"><ele>531</ele><name>wc</name></wpt>
  <wpt lat="29.5688011" lon="103.4199869"><ele>943</ele><name>3元矿泉水8元红牛</name></wpt>
  <wpt lat="29.5696504" lon="103.4193985"><ele>931</ele><name>wc</name></wpt>
  <wpt lat="29.5707406" lon="103.4159348"><ele>923</ele><name>3元水店</name></wpt>
  <wpt lat="29.5690926" lon="103.414547"><ele>931</ele><name>晚上都有人，还有雨衣卖也不贵，才十元</name></wpt>
  <wpt lat="29.5719958" lon="103.4010436"><ele>784</ele><name>检票口上锁了</name></wpt>
  <wpt lat="29.5826631" lon="103.3794273"><ele>1032</ele><name>五元水</name></wpt>
  <wpt lat="29.5806506" lon="103.3744168"><ele>1320</ele><name>wc</name></wpt>
  <wpt lat="29.5746867" lon="103.3623808"><ele>1587</ele><name>百分之五十二进度条</name></wpt>
  <wpt lat="29.5683206" lon="103.3596845"><ele>1747</ele><name>住宿</name></wpt>
  <wpt lat="29.5593377" lon="103.3436086"><ele>1999</ele><name>三分二打卡点</name></wpt>
  <wpt lat="29.5588706" lon="103.3443394"><ele>2021</ele><name>百分之74</name></wpt>
  <wpt lat="29.5587802" lon="103.3443008"><ele>2038</ele><name>洗象池</name></wpt>
  <wpt lat="29.557645" lon="103.3440738"><ele>2071</ele><name>猴</name></wpt>
  <wpt lat="29.5493357" lon="103.3420148"><ele>2286</ele><name>百分之八十</name></wpt>
  <wpt lat="29.5423487" lon="103.3321127"><ele>2423</ele><name>雷洞坪</name></wpt>
  <wpt lat="29.5227262" lon="103.335965"><ele>3071</ele><name>金顶</name></wpt>
  <wpt lat="29.5230642" lon="103.337083"><ele>3063</ele><name>日出这边拍，</name></wpt>
  <wpt lat="29.5240603" lon="103.3352222"><ele>3059</ele><name>可充电，</name></wpt>
  <wpt lat="29.5099159" lon="103.3323135"><ele>2964</ele><name>万佛顶</name></wpt>
  <wpt lat="29.5045736" lon="103.302319"><ele>2297</ele><name>机耕路</name></wpt>
  <wpt lat="29.5045806" lon="103.3028824"><ele>2325</ele><name>土路</name></wpt>
  <wpt lat="29.4992093" lon="103.2936401"><ele>2148</ele><name>机耕路，已经走了百多米</name></wpt>
  <wpt lat="29.4837988" lon="103.285223"><ele>1855</ele><name>泡脚</name></wpt>
  <wpt lat="29.4830558" lon="103.2844188"><ele>1833</ele><name>正常出去从这里走，我遇到又开车来撤退的搭车出去了</name></wpt>
  <wpt lat="29.4834398" lon="103.2823185"><ele>1881</ele><name>搭的撤退车走了，15892823765没车的可以打折这个电话试试在哪里接不清楚</name></wpt>
  <trk><name>峨眉山夜爬后山下</name>
      <trkseg>
        <trkpt lat="29.5712651" lon="103.4525897"><ele>486</ele><time>2026-08-18T03:11:40.000Z</time></trkpt>
        <trkpt lat="29.5712304" lon="103.4524777"><ele>485</ele><time>2026-08-18T03:11:49.000Z</time></trkpt>
        <trkpt lat="29.5711953" lon="103.4523688"><ele>485</ele><time>2026-08-18T03:11:59.000Z</time></trkpt>
        <trkpt lat="29.5711717" lon="103.4522621"><ele>484</ele><time>2026-08-18T03:12:09.000Z</time></trkpt>
        <trkpt lat="29.5711391" lon="103.4521634"><ele>484</ele><time>2026-08-18T03:12:19.000Z</time></trkpt>
        <trkpt lat="29.5711073" lon="103.4520588"><ele>491</ele><time>2026-08-18T03:12:31.000Z</time></trkpt>
        <trkpt lat="29.5710831" lon="103.45195"><ele>491</ele><time>2026-08-18T03:12:43.000Z</time></trkpt>
        <trkpt lat="29.5710572" lon="103.451829"><ele>491</ele><time>2026-08-18T03:12:55.000Z</time></trkpt>
        <trkpt lat="29.5710409" lon="103.4517177"><ele>503</ele><time>2026-08-18T03:13:05.000Z</time></trkpt>
        <trkpt lat="29.5710175" lon="103.4515982"><ele>503</ele><time>2026-08-18T03:13:15.000Z</time></trkpt>
        <trkpt lat="29.5709761" lon="103.4514876"><ele>506</ele><time>2026-08-18T03:13:25.000Z</time></trkpt>
        <trkpt lat="29.5709203" lon="103.4513957"><ele>502</ele><time>2026-08-18T03:13:34.000Z</time></trkpt>
        <trkpt lat="29.5708554" lon="103.4513163"><ele>502</ele><time>2026-08-18T03:13:44.000Z</time></trkpt>
        <trkpt lat="29.5707834" lon="103.4512447"><ele>502</ele><time>2026-08-18T03:13:54.000Z</time></trkpt>
        <trkpt lat="29.5706912" lon="103.4511965"><ele>499</ele><time>2026-08-18T03:14:06.000Z</time></trkpt>
        <trkpt lat="29.5706009" lon="103.4511494"><ele>499</ele><time>2026-08-18T03:14:16.000Z</time></trkpt>
        <trkpt lat="29.5705173" lon="103.4510988"><ele>499</ele><time>2026-08-18T03:14:26.000Z</time></trkpt>
        <trkpt lat="29.5704388" lon="103.4510453"><ele>499</ele><time>2026-08-18T03:14:52.000Z</time></trkpt>
        <trkpt lat="29.5703566" lon="103.4509808"><ele>497</ele><time>2026-08-18T03:15:38.000Z</time></trkpt>
        <trkpt lat="29.5702966" lon="103.4508917"><ele>489</ele><time>2026-08-18T03:15:50.000Z</time></trkpt>
        <trkpt lat="29.5702406" lon="103.4507981"><ele>489</ele><time>2026-08-18T03:16:00.000Z</time></trkpt>
        <trkpt lat="29.5702112" lon="103.4506887"><ele>490</ele><time>2026-08-18T03:16:10.000Z</time></trkpt>
        <trkpt lat="29.570185" lon="103.4505708"><ele>490</ele><time>2026-08-18T03:16:20.000Z</time></trkpt>
        <trkpt lat="29.5701643" lon="103.4504532"><ele>490</ele><time>2026-08-18T03:16:30.000Z</time></trkpt>
        <trkpt lat="29.570133" lon="103.4503423"><ele>491</ele><time>2026-08-18T03:16:40.000Z</time></trkpt>
        <trkpt lat="29.5700874" lon="103.4502493"><ele>491</ele><time>2026-08-18T03:16:50.000Z</time></trkpt>
        <trkpt lat="29.5700556" lon="103.4501439"><ele>491</ele><time>2026-08-18T03:17:00.000Z</time></trkpt>
        <trkpt lat="29.5700319" lon="103.4500395"><ele>496</ele><time>2026-08-18T03:17:10.000Z</time></trkpt>
        <trkpt lat="29.57002" lon="103.4499256"><ele>496</ele><time>2026-08-18T03:17:20.000Z</time></trkpt>
        <trkpt lat="29.5699945" lon="103.4498092"><ele>499</ele><time>2026-08-18T03:17:30.000Z</time></trkpt>
        <trkpt lat="29.5699745" lon="103.4496976"><ele>499</ele><time>2026-08-18T03:17:39.000Z</time></trkpt>
        <trkpt lat="29.5699407" lon="103.4495896"><ele>499</ele><time>2026-08-18T03:17:49.000Z</time></trkpt>
        <trkpt lat="29.5699066" lon="103.4494901"><ele>503</ele><time>2026-08-18T03:17:59.000Z</time></trkpt>
        <trkpt lat="29.5698768" lon="103.4493894"><ele>503</ele><time>2026-08-18T03:18:10.000Z</time></trkpt>
        <trkpt lat="29.5698499" lon="103.4492868"><ele>502</ele><time>2026-08-18T03:18:20.000Z</time></trkpt>
        <trkpt lat="29.5698272" lon="103.4491767"><ele>502</ele><time>2026-08-18T03:18:30.000Z</time></trkpt>
        <trkpt lat="29.5697959" lon="103.4490644"><ele>502</ele><time>2026-08-18T03:18:40.000Z</time></trkpt>
        <trkpt lat="29.5697759" lon="103.4489509"><ele>505</ele><time>2026-08-18T03:18:50.000Z</time></trkpt>
        <trkpt lat="29.5697538" lon="103.4488469"><ele>505</ele><time>2026-08-18T03:18:58.000Z</time></trkpt>
        <trkpt lat="29.5697286" lon="103.4487388"><ele>504</ele><time>2026-08-18T03:19:06.000Z</time></trkpt>
        <trkpt lat="29.5697042" lon="103.448629"><ele>504</ele><time>2026-08-18T03:19:14.000Z</time></trkpt>
        <trkpt lat="29.5696785" lon="103.4485194"><ele>504</ele><time>2026-08-18T03:19:22.000Z</time></trkpt>
        <trkpt lat="29.5696521" lon="103.4484163"><ele>509</ele><time>2026-08-18T03:19:30.000Z</time></trkpt>
        <trkpt lat="29.5696235" lon="103.4483169"><ele>509</ele><time>2026-08-18T03:19:38.000Z</time></trkpt>
        <trkpt lat="29.569589" lon="103.4482179"><ele>509</ele><time>2026-08-18T03:19:46.000Z</time></trkpt>
        <trkpt lat="29.5695479" lon="103.4481084"><ele>505</ele><time>2026-08-18T03:19:56.000Z</time></trkpt>
        <trkpt lat="29.5695232" lon="103.4480015"><ele>505</ele><time>2026-08-18T03:20:04.000Z</time></trkpt>
        <trkpt lat="29.5695072" lon="103.4478898"><ele>506</ele><time>2026-08-18T03:20:12.000Z</time></trkpt>
        <trkpt lat="29.5694848" lon="103.4477773"><ele>506</ele><time>2026-08-18T03:20:20.000Z</time></trkpt>
        <trkpt lat="29.5694597" lon="103.4476658"><ele>506</ele><time>2026-08-18T03:20:28.000Z</time></trkpt>
        <trkpt lat="29.5694349" lon="103.4475576"><ele>508</ele><time>2026-08-18T03:20:36.000Z</time></trkpt>
        <trkpt lat="29.5694098" lon="103.4474523"><ele>508</ele><time>2026-08-18T03:20:44.000Z</time></trkpt>
        <trkpt lat="29.5693869" lon="103.4473511"><ele>513</ele><time>2026-08-18T03:20:52.000Z</time></trkpt>
        <trkpt lat="29.5693587" lon="103.4472463"><ele>513</ele><time>2026-08-18T03:21:00.000Z</time></trkpt>
        <trkpt lat="29.5693254" lon="103.4471412"><ele>513</ele><time>2026-08-18T03:21:10.000Z</time></trkpt>
        <trkpt lat="29.5692877" lon="103.4470371"><ele>506</ele><time>2026-08-18T03:21:20.000Z</time></trkpt>
        <trkpt lat="29.5692582" lon="103.4469334"><ele>506</ele><time>2026-08-18T03:21:30.000Z</time></trkpt>
        <trkpt lat="29.5692368" lon="103.4468301"><ele>506</ele><time>2026-08-18T03:21:40.000Z</time></trkpt>
        <trkpt lat="29.5692102" lon="103.4467222"><ele>509</ele><time>2026-08-18T03:21:50.000Z</time></trkpt>
        <trkpt lat="29.5691854" lon="103.4466063"><ele>509</ele><time>2026-08-18T03:22:00.000Z</time></trkpt>
        <trkpt lat="29.5691602" lon="103.4464918"><ele>510</ele><time>2026-08-18T03:22:10.000Z</time></trkpt>
        <trkpt lat="29.5691204" lon="103.4463894"><ele>510</ele><time>2026-08-18T03:22:20.000Z</time></trkpt>
        <trkpt lat="29.5690892" lon="103.4462834"><ele>510</ele><time>2026-08-18T03:22:30.000Z</time></trkpt>
        <trkpt lat="29.5690655" lon="103.4461811"><ele>513</ele><time>2026-08-18T03:22:38.000Z</time></trkpt>
        <trkpt lat="29.5690509" lon="103.446062"><ele>513</ele><time>2026-08-18T03:22:48.000Z</time></trkpt>
        <trkpt lat="29.5690312" lon="103.4459365"><ele>513</ele><time>2026-08-18T03:22:58.000Z</time></trkpt>
        <trkpt lat="29.5690067" lon="103.445827"><ele>514</ele><time>2026-08-18T03:23:06.000Z</time></trkpt>
        <trkpt lat="29.5689839" lon="103.4457228"><ele>514</ele><time>2026-08-18T03:23:14.000Z</time></trkpt>
        <trkpt lat="29.5689499" lon="103.4456247"><ele>515</ele><time>2026-08-18T03:23:22.000Z</time></trkpt>
        <trkpt lat="29.5689253" lon="103.4455117"><ele>515</ele><time>2026-08-18T03:23:32.000Z</time></trkpt>
        <trkpt lat="29.5688963" lon="103.4453934"><ele>513</ele><time>2026-08-18T03:23:42.000Z</time></trkpt>
        <trkpt lat="29.568872" lon="103.4452749"><ele>513</ele><time>2026-08-18T03:23:52.000Z</time></trkpt>
        <trkpt lat="29.568808" lon="103.4451942"><ele>513</ele><time>2026-08-18T03:24:02.000Z</time></trkpt>
        <trkpt lat="29.5687083" lon="103.445177"><ele>512</ele><time>2026-08-18T03:24:12.000Z</time></trkpt>
        <trkpt lat="29.5686012" lon="103.4452016"><ele>512</ele><time>2026-08-18T03:24:22.000Z</time></trkpt>
        <trkpt lat="29.5685196" lon="103.4452427"><ele>512</ele><time>2026-08-18T03:24:32.000Z</time></trkpt>
        <trkpt lat="29.5684226" lon="103.4452952"><ele>515</ele><time>2026-08-18T03:24:42.000Z</time></trkpt>
        <trkpt lat="29.5684048" lon="103.4453325"><ele>515</ele><time>2026-08-18T03:24:58.000Z</time></trkpt>
        <trkpt lat="29.56845" lon="103.4452721"><ele>515</ele><time>2026-08-18T03:25:20.000Z</time></trkpt>
        <trkpt lat="29.5685573" lon="103.4452168"><ele>512</ele><time>2026-08-18T03:25:50.000Z</time></trkpt>
        <trkpt lat="29.56865" lon="103.4451422"><ele>512</ele><time>2026-08-18T03:26:02.000Z</time></trkpt>
        <trkpt lat="29.5687418" lon="103.4450365"><ele>513</ele><time>2026-08-18T03:26:26.000Z</time></trkpt>
        <trkpt lat="29.5687643" lon="103.4449231"><ele>515</ele><time>2026-08-18T03:26:36.000Z</time></trkpt>
        <trkpt lat="29.5687435" lon="103.4448016"><ele>516</ele><time>2026-08-18T03:26:46.000Z</time></trkpt>
        <trkpt lat="29.5687036" lon="103.4446784"><ele>516</ele><time>2026-08-18T03:26:56.000Z</time></trkpt>
        <trkpt lat="29.5686831" lon="103.4445625"><ele>514</ele><time>2026-08-18T03:27:04.000Z</time></trkpt>
        <trkpt lat="29.5686431" lon="103.4444509"><ele>514</ele><time>2026-08-18T03:27:13.000Z</time></trkpt>
        <trkpt lat="29.568615" lon="103.4443441"><ele>514</ele><time>2026-08-18T03:27:23.000Z</time></trkpt>
        <trkpt lat="29.5685797" lon="103.4442338"><ele>512</ele><time>2026-08-18T03:27:45.000Z</time></trkpt>
        <trkpt lat="29.5685309" lon="103.4441329"><ele>512</ele><time>2026-08-18T03:27:53.000Z</time></trkpt>
        <trkpt lat="29.568496" lon="103.4440291"><ele>512</ele><time>2026-08-18T03:28:03.000Z</time></trkpt>
        <trkpt lat="29.5684765" lon="103.4439145"><ele>520</ele><time>2026-08-18T03:28:13.000Z</time></trkpt>
        <trkpt lat="29.5684884" lon="103.443833"><ele>520</ele><time>2026-08-18T03:28:23.000Z</time></trkpt>
        <trkpt lat="29.5684668" lon="103.4437458"><ele>520</ele><time>2026-08-18T03:28:43.000Z</time></trkpt>
        <trkpt lat="29.5684067" lon="103.4436697"><ele>520</ele><time>2026-08-18T03:28:53.000Z</time></trkpt>
        <trkpt lat="29.5683775" lon="103.4435695"><ele>520</ele><time>2026-08-18T03:29:15.000Z</time></trkpt>
        <trkpt lat="29.568417" lon="103.4434641"><ele>526</ele><time>2026-08-18T03:29:25.000Z</time></trkpt>
        <trkpt lat="29.5684527" lon="103.4433595"><ele>526</ele><time>2026-08-18T03:29:35.000Z</time></trkpt>
        <trkpt lat="29.5685311" lon="103.4432797"><ele>529</ele><time>2026-08-18T03:29:47.000Z</time></trkpt>
        <trkpt lat="29.5685991" lon="103.4432267"><ele>529</ele><time>2026-08-18T03:29:57.000Z</time></trkpt>
        <trkpt lat="29.568697" lon="103.443191"><ele>533</ele><time>2026-08-18T03:30:37.000Z</time></trkpt>
        <trkpt lat="29.5687841" lon="103.4432302"><ele>531</ele><time>2026-08-18T03:30:51.000Z</time></trkpt>
        <trkpt lat="29.5688519" lon="103.443313"><ele>531</ele><time>2026-08-18T03:31:00.000Z</time></trkpt>
        <trkpt lat="29.5689139" lon="103.4434151"><ele>531</ele><time>2026-08-18T03:31:08.000Z</time></trkpt>
        <trkpt lat="29.5689619" lon="103.4435254"><ele>528</ele><time>2026-08-18T03:31:16.000Z</time></trkpt>
        <trkpt lat="29.5690137" lon="103.4436192"><ele>528</ele><time>2026-08-18T03:31:24.000Z</time></trkpt>
        <trkpt lat="29.5690059" lon="103.4437208"><ele>528</ele><time>2026-08-18T03:31:32.000Z</time></trkpt>
        <trkpt lat="29.5689902" lon="103.4438351"><ele>521</ele><time>2026-08-18T03:31:42.000Z</time></trkpt>
        <trkpt lat="29.5689681" lon="103.4439541"><ele>521</ele><time>2026-08-18T03:31:52.000Z</time></trkpt>
        <trkpt lat="29.5689359" lon="103.4440012"><ele>521</ele><time>2026-08-18T03:31:56.000Z</time></trkpt>
        <trkpt lat="29.5689653" lon="103.4439418"><ele>521</ele><time>2026-08-18T03:32:10.000Z</time></trkpt>
        <trkpt lat="29.5689822" lon="103.4439134"><ele>521</ele><time>2026-08-18T03:32:14.000Z</time></trkpt>
        <trkpt lat="29.5689822" lon="103.4439134"><ele>521</ele><time>2026-08-18T03:33:13.000Z</time></trkpt>
        <trkpt lat="29.5690306" lon="103.4437071"><ele>531</ele><time>2026-08-18T03:46:30.000Z</time></trkpt>
        <trkpt lat="29.5690306" lon="103.4437071"><ele>531</ele><time>2026-08-18T03:46:32.000Z</time></trkpt>
        <trkpt lat="29.5689546" lon="103.4436327"><ele>528</ele><time>2026-08-18T03:47:01.000Z</time></trkpt>
        <trkpt lat="29.5689221" lon="103.4435273"><ele>528</ele><time>2026-08-18T03:47:13.000Z</time></trkpt>
        <trkpt lat="29.5689221" lon="103.4435273"><ele>528</ele><time>2026-08-18T03:47:53.000Z</time></trkpt>
        <trkpt lat="29.5688702" lon="103.443427"><ele>531</ele><time>2026-08-18T03:48:31.000Z</time></trkpt>
        <trkpt lat="29.5688702" lon="103.443427"><ele>531</ele><time>2026-08-18T03:48:41.000Z</time></trkpt>
        <trkpt lat="29.5688338" lon="103.4433284"><ele>531</ele><time>2026-08-18T03:48:51.000Z</time></trkpt>
        <trkpt lat="29.5688071" lon="103.4432179"><ele>531</ele><time>2026-08-18T03:49:01.000Z</time></trkpt>
        <trkpt lat="29.568794" lon="103.4430942"><ele>530</ele><time>2026-08-18T03:49:11.000Z</time></trkpt>
        <trkpt lat="29.5688029" lon="103.4429745"><ele>530</ele><time>2026-08-18T03:49:21.000Z</time></trkpt>
        <trkpt lat="29.5688192" lon="103.4428673"><ele>533</ele><time>2026-08-18T03:49:29.000Z</time></trkpt>
        <trkpt lat="29.5688456" lon="103.4427513"><ele>533</ele><time>2026-08-18T03:49:39.000Z</time></trkpt>
        <trkpt lat="29.5688743" lon="103.4426344"><ele>535</ele><time>2026-08-18T03:49:49.000Z</time></trkpt>
        <trkpt lat="29.568892" lon="103.44251"><ele>535</ele><time>2026-08-18T03:49:59.000Z</time></trkpt>
        <trkpt lat="29.5689143" lon="103.4423993"><ele>535</ele><time>2026-08-18T03:50:07.000Z</time></trkpt>
        <trkpt lat="29.5689322" lon="103.4422856"><ele>531</ele><time>2026-08-18T03:50:17.000Z</time></trkpt>
        <trkpt lat="29.5689537" lon="103.4421639"><ele>531</ele><time>2026-08-18T03:50:27.000Z</time></trkpt>
        <trkpt lat="29.5689727" lon="103.4420433"><ele>528</ele><time>2026-08-18T03:50:37.000Z</time></trkpt>
        <trkpt lat="29.5689926" lon="103.4419361"><ele>528</ele><time>2026-08-18T03:50:45.000Z</time></trkpt>
        <trkpt lat="29.5690191" lon="103.4418344"><ele>528</ele><time>2026-08-18T03:50:53.000Z</time></trkpt>
        <trkpt lat="29.5690385" lon="103.441727"><ele>538</ele><time>2026-08-18T03:51:03.000Z</time></trkpt>
        <trkpt lat="29.5690418" lon="103.4416205"><ele>538</ele><time>2026-08-18T03:51:11.000Z</time></trkpt>
        <trkpt lat="29.5690565" lon="103.4415135"><ele>534</ele><time>2026-08-18T03:51:19.000Z</time></trkpt>
        <trkpt lat="29.5690845" lon="103.4414002"><ele>534</ele><time>2026-08-18T03:51:29.000Z</time></trkpt>
        <trkpt lat="29.5691095" lon="103.4412795"><ele>534</ele><time>2026-08-18T03:51:39.000Z</time></trkpt>
        <trkpt lat="29.5691195" lon="103.4411583"><ele>535</ele><time>2026-08-18T03:51:49.000Z</time></trkpt>
        <trkpt lat="29.5691317" lon="103.4410373"><ele>535</ele><time>2026-08-18T03:51:59.000Z</time></trkpt>
        <trkpt lat="29.5691474" lon="103.4409223"><ele>542</ele><time>2026-08-18T03:52:11.000Z</time></trkpt>
        <trkpt lat="29.5691099" lon="103.4408275"><ele>542</ele><time>2026-08-18T03:52:31.000Z</time></trkpt>
        <trkpt lat="29.5690741" lon="103.4407204"><ele>542</ele><time>2026-08-18T03:52:41.000Z</time></trkpt>
        <trkpt lat="29.5690542" lon="103.4405947"><ele>552</ele><time>2026-08-18T03:52:51.000Z</time></trkpt>
        <trkpt lat="29.5690293" lon="103.4404703"><ele>552</ele><time>2026-08-18T03:53:01.000Z</time></trkpt>
        <trkpt lat="29.5690208" lon="103.4403561"><ele>551</ele><time>2026-08-18T03:53:09.000Z</time></trkpt>
        <trkpt lat="29.5689977" lon="103.4402386"><ele>551</ele><time>2026-08-18T03:53:19.000Z</time></trkpt>
        <trkpt lat="29.568945" lon="103.4401384"><ele>564</ele><time>2026-08-18T03:53:29.000Z</time></trkpt>
        <trkpt lat="29.568876" lon="103.4400485"><ele>564</ele><time>2026-08-18T03:53:39.000Z</time></trkpt>
        <trkpt lat="29.5688075" lon="103.4399643"><ele>564</ele><time>2026-08-18T03:53:49.000Z</time></trkpt>
        <trkpt lat="29.5687525" lon="103.4398731"><ele>564</ele><time>2026-08-18T03:53:57.000Z</time></trkpt>
        <trkpt lat="29.5686882" lon="103.4397835"><ele>559</ele><time>2026-08-18T03:54:07.000Z</time></trkpt>
        <trkpt lat="29.5686232" lon="103.4396991"><ele>559</ele><time>2026-08-18T03:54:15.000Z</time></trkpt>
        <trkpt lat="29.5685645" lon="103.4396142"><ele>559</ele><time>2026-08-18T03:54:25.000Z</time></trkpt>
        <trkpt lat="29.5685031" lon="103.4395132"><ele>571</ele><time>2026-08-18T03:54:35.000Z</time></trkpt>
        <trkpt lat="29.5684258" lon="103.4394321"><ele>558</ele><time>2026-08-18T03:54:45.000Z</time></trkpt>
        <trkpt lat="29.5683491" lon="103.4393553"><ele>558</ele><time>2026-08-18T03:54:55.000Z</time></trkpt>
        <trkpt lat="29.5682677" lon="103.4392774"><ele>569</ele><time>2026-08-18T03:55:05.000Z</time></trkpt>
        <trkpt lat="29.5681849" lon="103.439199"><ele>564</ele><time>2026-08-18T03:55:15.000Z</time></trkpt>
        <trkpt lat="29.5681172" lon="103.4391181"><ele>564</ele><time>2026-08-18T03:55:25.000Z</time></trkpt>
        <trkpt lat="29.5680368" lon="103.4390472"><ele>564</ele><time>2026-08-18T03:55:33.000Z</time></trkpt>
        <trkpt lat="29.5679678" lon="103.4389749"><ele>570</ele><time>2026-08-18T03:55:41.000Z</time></trkpt>
        <trkpt lat="29.5679099" lon="103.4388925"><ele>560</ele><time>2026-08-18T03:55:51.000Z</time></trkpt>
        <trkpt lat="29.5678459" lon="103.438803"><ele>560</ele><time>2026-08-18T03:56:01.000Z</time></trkpt>
        <trkpt lat="29.5677673" lon="103.4387257"><ele>570</ele><time>2026-08-18T03:56:09.000Z</time></trkpt>
        <trkpt lat="29.5676974" lon="103.4386315"><ele>570</ele><time>2026-08-18T03:56:19.000Z</time></trkpt>
        <trkpt lat="29.5676445" lon="103.4385373"><ele>570</ele><time>2026-08-18T03:56:27.000Z</time></trkpt>
        <trkpt lat="29.5675947" lon="103.4384492"><ele>569</ele><time>2026-08-18T03:56:35.000Z</time></trkpt>
        <trkpt lat="29.5675344" lon="103.4383618"><ele>569</ele><time>2026-08-18T03:56:45.000Z</time></trkpt>
        <trkpt lat="29.5674652" lon="103.4382791"><ele>569</ele><time>2026-08-18T03:56:55.000Z</time></trkpt>
        <trkpt lat="29.567402" lon="103.4381879"><ele>582</ele><time>2026-08-18T03:57:05.000Z</time></trkpt>
        <trkpt lat="29.5673358" lon="103.4380934"><ele>573</ele><time>2026-08-18T03:57:15.000Z</time></trkpt>
        <trkpt lat="29.5672788" lon="103.437992"><ele>573</ele><time>2026-08-18T03:57:25.000Z</time></trkpt>
        <trkpt lat="29.5672201" lon="103.4378918"><ele>583</ele><time>2026-08-18T03:57:35.000Z</time></trkpt>
        <trkpt lat="29.5671585" lon="103.4377884"><ele>583</ele><time>2026-08-18T03:57:45.000Z</time></trkpt>
        <trkpt lat="29.5671031" lon="103.4376868"><ele>583</ele><time>2026-08-18T03:57:55.000Z</time></trkpt>
        <trkpt lat="29.5670496" lon="103.4375852"><ele>579</ele><time>2026-08-18T03:58:05.000Z</time></trkpt>
        <trkpt lat="29.5669992" lon="103.4374865"><ele>579</ele><time>2026-08-18T03:58:15.000Z</time></trkpt>
        <trkpt lat="29.5669357" lon="103.4373899"><ele>579</ele><time>2026-08-18T03:58:25.000Z</time></trkpt>
        <trkpt lat="29.5668768" lon="103.4372924"><ele>585</ele><time>2026-08-18T03:58:35.000Z</time></trkpt>
        <trkpt lat="29.5668067" lon="103.4372009"><ele>585</ele><time>2026-08-18T03:58:45.000Z</time></trkpt>
        <trkpt lat="29.5667402" lon="103.4371059"><ele>585</ele><time>2026-08-18T03:58:55.000Z</time></trkpt>
        <trkpt lat="29.5666854" lon="103.4370003"><ele>586</ele><time>2026-08-18T03:59:05.000Z</time></trkpt>
        <trkpt lat="29.5666355" lon="103.4368923"><ele>586</ele><time>2026-08-18T03:59:15.000Z</time></trkpt>
        <trkpt lat="29.5665826" lon="103.436789"><ele>594</ele><time>2026-08-18T03:59:25.000Z</time></trkpt>
        <trkpt lat="29.566525" lon="103.4366861"><ele>591</ele><time>2026-08-18T03:59:35.000Z</time></trkpt>
        <trkpt lat="29.5664768" lon="103.4365822"><ele>591</ele><time>2026-08-18T03:59:45.000Z</time></trkpt>
        <trkpt lat="29.5664303" lon="103.4364788"><ele>596</ele><time>2026-08-18T03:59:55.000Z</time></trkpt>
        <trkpt lat="29.5663913" lon="103.4363678"><ele>596</ele><time>2026-08-18T04:00:05.000Z</time></trkpt>
        <trkpt lat="29.566344" lon="103.436257"><ele>596</ele><time>2026-08-18T04:00:15.000Z</time></trkpt>
        <trkpt lat="29.5663123" lon="103.436146"><ele>607</ele><time>2026-08-18T04:00:25.000Z</time></trkpt>
        <trkpt lat="29.5662775" lon="103.4360419"><ele>607</ele><time>2026-08-18T04:00:35.000Z</time></trkpt>
        <trkpt lat="29.5662433" lon="103.4359248"><ele>590</ele><time>2026-08-18T04:00:45.000Z</time></trkpt>
        <trkpt lat="29.5662006" lon="103.4358192"><ele>590</ele><time>2026-08-18T04:00:55.000Z</time></trkpt>
        <trkpt lat="29.5661659" lon="103.4357169"><ele>590</ele><time>2026-08-18T04:01:05.000Z</time></trkpt>
        <trkpt lat="29.566132" lon="103.4356139"><ele>605</ele><time>2026-08-18T04:01:15.000Z</time></trkpt>
        <trkpt lat="29.5660927" lon="103.4355101"><ele>605</ele><time>2026-08-18T04:01:25.000Z</time></trkpt>
        <trkpt lat="29.5660594" lon="103.4354091"><ele>613</ele><time>2026-08-18T04:01:35.000Z</time></trkpt>
        <trkpt lat="29.5660206" lon="103.4352978"><ele>613</ele><time>2026-08-18T04:01:45.000Z</time></trkpt>
        <trkpt lat="29.5659828" lon="103.4351846"><ele>613</ele><time>2026-08-18T04:01:59.000Z</time></trkpt>
        <trkpt lat="29.5659447" lon="103.4350852"><ele>604</ele><time>2026-08-18T04:02:09.000Z</time></trkpt>
        <trkpt lat="29.5658744" lon="103.4349971"><ele>604</ele><time>2026-08-18T04:02:21.000Z</time></trkpt>
        <trkpt lat="29.5657891" lon="103.4349262"><ele>604</ele><time>2026-08-18T04:02:31.000Z</time></trkpt>
        <trkpt lat="29.5657137" lon="103.4348596"><ele>609</ele><time>2026-08-18T04:02:41.000Z</time></trkpt>
        <trkpt lat="29.5656503" lon="103.4347731"><ele>605</ele><time>2026-08-18T04:02:51.000Z</time></trkpt>
        <trkpt lat="29.565588" lon="103.4346935"><ele>605</ele><time>2026-08-18T04:03:03.000Z</time></trkpt>
        <trkpt lat="29.5655777" lon="103.4345754"><ele>604</ele><time>2026-08-18T04:03:13.000Z</time></trkpt>
        <trkpt lat="29.5655917" lon="103.4344506"><ele>604</ele><time>2026-08-18T04:03:23.000Z</time></trkpt>
        <trkpt lat="29.5656399" lon="103.4343334"><ele>604</ele><time>2026-08-18T04:03:35.000Z</time></trkpt>
        <trkpt lat="29.5657162" lon="103.434252"><ele>620</ele><time>2026-08-18T04:03:45.000Z</time></trkpt>
        <trkpt lat="29.5657723" lon="103.4341521"><ele>620</ele><time>2026-08-18T04:03:59.000Z</time></trkpt>
        <trkpt lat="29.5657767" lon="103.434046"><ele>620</ele><time>2026-08-18T04:04:09.000Z</time></trkpt>
        <trkpt lat="29.5657569" lon="103.4339427"><ele>623</ele><time>2026-08-18T04:04:19.000Z</time></trkpt>
        <trkpt lat="29.5657533" lon="103.4338268"><ele>623</ele><time>2026-08-18T04:04:31.000Z</time></trkpt>
        <trkpt lat="29.5657594" lon="103.4337156"><ele>621</ele><time>2026-08-18T04:04:41.000Z</time></trkpt>
        <trkpt lat="29.565775" lon="103.4336077"><ele>621</ele><time>2026-08-18T04:04:53.000Z</time></trkpt>
        <trkpt lat="29.565775" lon="103.4336077"><ele>621</ele><time>2026-08-18T04:05:57.000Z</time></trkpt>
        <trkpt lat="29.5657633" lon="103.4334886"><ele>621</ele><time>2026-08-18T04:06:09.000Z</time></trkpt>
        <trkpt lat="29.5657633" lon="103.4334886"><ele>621</ele><time>2026-08-18T04:06:21.000Z</time></trkpt>
        <trkpt lat="29.5657378" lon="103.4333703"><ele>618</ele><time>2026-08-18T04:06:31.000Z</time></trkpt>
        <trkpt lat="29.5657075" lon="103.4332517"><ele>618</ele><time>2026-08-18T04:06:43.000Z</time></trkpt>
        <trkpt lat="29.5656803" lon="103.4331357"><ele>613</ele><time>2026-08-18T04:06:53.000Z</time></trkpt>
        <trkpt lat="29.5656413" lon="103.4330295"><ele>613</ele><time>2026-08-18T04:07:05.000Z</time></trkpt>
        <trkpt lat="29.5655892" lon="103.4329248"><ele>613</ele><time>2026-08-18T04:07:17.000Z</time></trkpt>
        <trkpt lat="29.5655325" lon="103.4328384"><ele>613</ele><time>2026-08-18T04:07:27.000Z</time></trkpt>
        <trkpt lat="29.5654741" lon="103.4327567"><ele>613</ele><time>2026-08-18T04:07:37.000Z</time></trkpt>
        <trkpt lat="29.5654205" lon="103.4326634"><ele>613</ele><time>2026-08-18T04:07:47.000Z</time></trkpt>
        <trkpt lat="29.5653949" lon="103.4325632"><ele>608</ele><time>2026-08-18T04:07:55.000Z</time></trkpt>
        <trkpt lat="29.5653897" lon="103.4324529"><ele>608</ele><time>2026-08-18T04:08:03.000Z</time></trkpt>
        <trkpt lat="29.5653829" lon="103.4323298"><ele>615</ele><time>2026-08-18T04:08:13.000Z</time></trkpt>
        <trkpt lat="29.5653516" lon="103.4322198"><ele>615</ele><time>2026-08-18T04:08:21.000Z</time></trkpt>
        <trkpt lat="29.5653106" lon="103.4321123"><ele>615</ele><time>2026-08-18T04:08:31.000Z</time></trkpt>
        <trkpt lat="29.5652901" lon="103.4319982"><ele>621</ele><time>2026-08-18T04:08:41.000Z</time></trkpt>
        <trkpt lat="29.5653166" lon="103.4318781"><ele>621</ele><time>2026-08-18T04:08:51.000Z</time></trkpt>
        <trkpt lat="29.5653545" lon="103.4317636"><ele>626</ele><time>2026-08-18T04:09:01.000Z</time></trkpt>
        <trkpt lat="29.5653792" lon="103.4316569"><ele>626</ele><time>2026-08-18T04:09:11.000Z</time></trkpt>
        <trkpt lat="29.565407" lon="103.4315555"><ele>626</ele><time>2026-08-18T04:09:21.000Z</time></trkpt>
        <trkpt lat="29.5654435" lon="103.4314451"><ele>647</ele><time>2026-08-18T04:10:17.000Z</time></trkpt>
        <trkpt lat="29.5654829" lon="103.4313425"><ele>647</ele><time>2026-08-18T04:10:27.000Z</time></trkpt>
        <trkpt lat="29.565502" lon="103.4312337"><ele>647</ele><time>2026-08-18T04:10:37.000Z</time></trkpt>
        <trkpt lat="29.5655091" lon="103.4311264"><ele>647</ele><time>2026-08-18T04:10:49.000Z</time></trkpt>
        <trkpt lat="29.5655183" lon="103.4310189"><ele>647</ele><time>2026-08-18T04:10:59.000Z</time></trkpt>
        <trkpt lat="29.56548" lon="103.4309292"><ele>645</ele><time>2026-08-18T04:11:11.000Z</time></trkpt>
        <trkpt lat="29.5653974" lon="103.4308622"><ele>627</ele><time>2026-08-18T04:11:21.000Z</time></trkpt>
        <trkpt lat="29.5653627" lon="103.4307579"><ele>627</ele><time>2026-08-18T04:11:31.000Z</time></trkpt>
        <trkpt lat="29.56535" lon="103.4306438"><ele>635</ele><time>2026-08-18T04:11:41.000Z</time></trkpt>
        <trkpt lat="29.5653245" lon="103.4305291"><ele>635</ele><time>2026-08-18T04:11:51.000Z</time></trkpt>
        <trkpt lat="29.5653011" lon="103.4304062"><ele>653</ele><time>2026-08-18T04:12:01.000Z</time></trkpt>
        <trkpt lat="29.5652954" lon="103.4302953"><ele>653</ele><time>2026-08-18T04:12:11.000Z</time></trkpt>
        <trkpt lat="29.5652815" lon="103.4301745"><ele>653</ele><time>2026-08-18T04:12:23.000Z</time></trkpt>
        <trkpt lat="29.5652692" lon="103.430063"><ele>667</ele><time>2026-08-18T04:12:31.000Z</time></trkpt>
        <trkpt lat="29.5652634" lon="103.4299579"><ele>667</ele><time>2026-08-18T04:12:41.000Z</time></trkpt>
        <trkpt lat="29.5652347" lon="103.4298622"><ele>667</ele><time>2026-08-18T04:12:51.000Z</time></trkpt>
        <trkpt lat="29.5651901" lon="103.429755"><ele>689</ele><time>2026-08-18T04:13:01.000Z</time></trkpt>
        <trkpt lat="29.5651463" lon="103.4296556"><ele>689</ele><time>2026-08-18T04:13:11.000Z</time></trkpt>
        <trkpt lat="29.5651038" lon="103.4295459"><ele>708</ele><time>2026-08-18T04:13:21.000Z</time></trkpt>
        <trkpt lat="29.565047" lon="103.4294523"><ele>708</ele><time>2026-08-18T04:13:31.000Z</time></trkpt>
        <trkpt lat="29.5649918" lon="103.4293614"><ele>708</ele><time>2026-08-18T04:13:41.000Z</time></trkpt>
        <trkpt lat="29.5649567" lon="103.429258"><ele>727</ele><time>2026-08-18T04:13:51.000Z</time></trkpt>
        <trkpt lat="29.5649528" lon="103.4291434"><ele>727</ele><time>2026-08-18T04:14:01.000Z</time></trkpt>
        <trkpt lat="29.5649362" lon="103.4290289"><ele>727</ele><time>2026-08-18T04:14:11.000Z</time></trkpt>
        <trkpt lat="29.5649095" lon="103.4289206"><ele>728</ele><time>2026-08-18T04:14:21.000Z</time></trkpt>
        <trkpt lat="29.5648827" lon="103.4288189"><ele>728</ele><time>2026-08-18T04:14:31.000Z</time></trkpt>
        <trkpt lat="29.5648585" lon="103.4287136"><ele>742</ele><time>2026-08-18T04:14:41.000Z</time></trkpt>
        <trkpt lat="29.5648447" lon="103.4286017"><ele>742</ele><time>2026-08-18T04:14:51.000Z</time></trkpt>
        <trkpt lat="29.564831" lon="103.4284888"><ele>742</ele><time>2026-08-18T04:15:01.000Z</time></trkpt>
        <trkpt lat="29.5648756" lon="103.4283946"><ele>734</ele><time>2026-08-18T04:15:09.000Z</time></trkpt>
        <trkpt lat="29.5649518" lon="103.4283295"><ele>734</ele><time>2026-08-18T04:15:15.000Z</time></trkpt>
        <trkpt lat="29.5650418" lon="103.4282619"><ele>734</ele><time>2026-08-18T04:15:27.000Z</time></trkpt>
        <trkpt lat="29.56513" lon="103.4281931"><ele>733</ele><time>2026-08-18T04:15:39.000Z</time></trkpt>
        <trkpt lat="29.5652088" lon="103.4281221"><ele>733</ele><time>2026-08-18T04:15:49.000Z</time></trkpt>
        <trkpt lat="29.5652809" lon="103.4280526"><ele>733</ele><time>2026-08-18T04:15:59.000Z</time></trkpt>
        <trkpt lat="29.5653562" lon="103.4279768"><ele>733</ele><time>2026-08-18T04:16:09.000Z</time></trkpt>
        <trkpt lat="29.5654089" lon="103.4278836"><ele>732</ele><time>2026-08-18T04:16:21.000Z</time></trkpt>
        <trkpt lat="29.5653967" lon="103.4277737"><ele>732</ele><time>2026-08-18T04:16:33.000Z</time></trkpt>
        <trkpt lat="29.5653535" lon="103.4276681"><ele>732</ele><time>2026-08-18T04:16:43.000Z</time></trkpt>
        <trkpt lat="29.5653026" lon="103.427559"><ele>726</ele><time>2026-08-18T04:16:53.000Z</time></trkpt>
        <trkpt lat="29.5652647" lon="103.4274516"><ele>726</ele><time>2026-08-18T04:17:03.000Z</time></trkpt>
        <trkpt lat="29.565237" lon="103.4273416"><ele>723</ele><time>2026-08-18T04:17:13.000Z</time></trkpt>
        <trkpt lat="29.565206" lon="103.4272358"><ele>723</ele><time>2026-08-18T04:17:23.000Z</time></trkpt>
        <trkpt lat="29.5651659" lon="103.4271279"><ele>723</ele><time>2026-08-18T04:17:35.000Z</time></trkpt>
        <trkpt lat="29.565108" lon="103.4270406"><ele>719</ele><time>2026-08-18T04:17:47.000Z</time></trkpt>
        <trkpt lat="29.5650394" lon="103.4269672"><ele>719</ele><time>2026-08-18T04:17:57.000Z</time></trkpt>
        <trkpt lat="29.5649556" lon="103.4269245"><ele>719</ele><time>2026-08-18T04:18:09.000Z</time></trkpt>
        <trkpt lat="29.5649244" lon="103.4268285"><ele>719</ele><time>2026-08-18T04:18:19.000Z</time></trkpt>
        <trkpt lat="29.5649053" lon="103.4267196"><ele>709</ele><time>2026-08-18T04:18:31.000Z</time></trkpt>
        <trkpt lat="29.5648264" lon="103.4266756"><ele>715</ele><time>2026-08-18T04:18:43.000Z</time></trkpt>
        <trkpt lat="29.5647225" lon="103.4266633"><ele>715</ele><time>2026-08-18T04:18:55.000Z</time></trkpt>
        <trkpt lat="29.5646232" lon="103.4266555"><ele>715</ele><time>2026-08-18T04:19:05.000Z</time></trkpt>
        <trkpt lat="29.5645279" lon="103.4266577"><ele>715</ele><time>2026-08-18T04:19:15.000Z</time></trkpt>
        <trkpt lat="29.5644369" lon="103.4266329"><ele>715</ele><time>2026-08-18T04:19:27.000Z</time></trkpt>
        <trkpt lat="29.564348" lon="103.4265924"><ele>715</ele><time>2026-08-18T04:19:39.000Z</time></trkpt>
        <trkpt lat="29.5642574" lon="103.426561"><ele>713</ele><time>2026-08-18T04:19:51.000Z</time></trkpt>
        <trkpt lat="29.5641675" lon="103.426524"><ele>721</ele><time>2026-08-18T04:20:03.000Z</time></trkpt>
        <trkpt lat="29.5640687" lon="103.4265001"><ele>721</ele><time>2026-08-18T04:20:17.000Z</time></trkpt>
        <trkpt lat="29.5639706" lon="103.4264843"><ele>723</ele><time>2026-08-18T04:20:31.000Z</time></trkpt>
        <trkpt lat="29.56388" lon="103.4264478"><ele>723</ele><time>2026-08-18T04:20:47.000Z</time></trkpt>
        <trkpt lat="29.5638863" lon="103.4263593"><ele>723</ele><time>2026-08-18T04:21:01.000Z</time></trkpt>
        <trkpt lat="29.5639707" lon="103.4263055"><ele>723</ele><time>2026-08-18T04:21:15.000Z</time></trkpt>
        <trkpt lat="29.5640668" lon="103.4262547"><ele>721</ele><time>2026-08-18T04:21:29.000Z</time></trkpt>
        <trkpt lat="29.5641717" lon="103.4262064"><ele>728</ele><time>2026-08-18T04:21:45.000Z</time></trkpt>
        <trkpt lat="29.5642658" lon="103.426164"><ele>728</ele><time>2026-08-18T04:21:59.000Z</time></trkpt>
        <trkpt lat="29.5643585" lon="103.4261509"><ele>723</ele><time>2026-08-18T04:22:13.000Z</time></trkpt>
        <trkpt lat="29.564451" lon="103.4261475"><ele>723</ele><time>2026-08-18T04:22:29.000Z</time></trkpt>
        <trkpt lat="29.5644431" lon="103.4260797"><ele>723</ele><time>2026-08-18T04:22:53.000Z</time></trkpt>
        <trkpt lat="29.5643535" lon="103.42606"><ele>723</ele><time>2026-08-18T04:23:07.000Z</time></trkpt>
        <trkpt lat="29.5642402" lon="103.4260509"><ele>728</ele><time>2026-08-18T04:23:21.000Z</time></trkpt>
        <trkpt lat="29.5641328" lon="103.4260541"><ele>728</ele><time>2026-08-18T04:23:33.000Z</time></trkpt>
        <trkpt lat="29.5640284" lon="103.4260461"><ele>728</ele><time>2026-08-18T04:23:47.000Z</time></trkpt>
        <trkpt lat="29.5639246" lon="103.4260411"><ele>731</ele><time>2026-08-18T04:24:01.000Z</time></trkpt>
        <trkpt lat="29.563828" lon="103.4260278"><ele>731</ele><time>2026-08-18T04:24:17.000Z</time></trkpt>
        <trkpt lat="29.5637302" lon="103.4260167"><ele>728</ele><time>2026-08-18T04:24:35.000Z</time></trkpt>
        <trkpt lat="29.5636377" lon="103.4260005"><ele>728</ele><time>2026-08-18T04:24:49.000Z</time></trkpt>
        <trkpt lat="29.5635675" lon="103.4259396"><ele>728</ele><time>2026-08-18T04:25:05.000Z</time></trkpt>
        <trkpt lat="29.5635756" lon="103.4258404"><ele>728</ele><time>2026-08-18T04:25:19.000Z</time></trkpt>
        <trkpt lat="29.5636468" lon="103.425761"><ele>728</ele><time>2026-08-18T04:25:35.000Z</time></trkpt>
        <trkpt lat="29.5637456" lon="103.4257512"><ele>728</ele><time>2026-08-18T04:25:47.000Z</time></trkpt>
        <trkpt lat="29.5638489" lon="103.4257617"><ele>731</ele><time>2026-08-18T04:26:01.000Z</time></trkpt>
        <trkpt lat="29.5639457" lon="103.4257354"><ele>731</ele><time>2026-08-18T04:26:15.000Z</time></trkpt>
        <trkpt lat="29.5640321" lon="103.4256814"><ele>729</ele><time>2026-08-18T04:26:29.000Z</time></trkpt>
        <trkpt lat="29.564098" lon="103.4256029"><ele>729</ele><time>2026-08-18T04:26:43.000Z</time></trkpt>
        <trkpt lat="29.5641605" lon="103.4255139"><ele>729</ele><time>2026-08-18T04:26:57.000Z</time></trkpt>
        <trkpt lat="29.5642155" lon="103.4254139"><ele>731</ele><time>2026-08-18T04:27:07.000Z</time></trkpt>
        <trkpt lat="29.564273" lon="103.4253199"><ele>731</ele><time>2026-08-18T04:27:25.000Z</time></trkpt>
        <trkpt lat="29.5642155" lon="103.4253048"><ele>731</ele><time>2026-08-18T04:27:41.000Z</time></trkpt>
        <trkpt lat="29.5641255" lon="103.4253507"><ele>731</ele><time>2026-08-18T04:27:55.000Z</time></trkpt>
        <trkpt lat="29.5640176" lon="103.4253822"><ele>742</ele><time>2026-08-18T04:28:11.000Z</time></trkpt>
        <trkpt lat="29.5639066" lon="103.4253657"><ele>742</ele><time>2026-08-18T04:28:25.000Z</time></trkpt>
        <trkpt lat="29.5638075" lon="103.4253302"><ele>742</ele><time>2026-08-18T04:28:39.000Z</time></trkpt>
        <trkpt lat="29.5637058" lon="103.4253214"><ele>748</ele><time>2026-08-18T04:28:53.000Z</time></trkpt>
        <trkpt lat="29.5636118" lon="103.4253206"><ele>748</ele><time>2026-08-18T04:29:07.000Z</time></trkpt>
        <trkpt lat="29.5634966" lon="103.4253157"><ele>748</ele><time>2026-08-18T04:29:21.000Z</time></trkpt>
        <trkpt lat="29.5634027" lon="103.4252808"><ele>753</ele><time>2026-08-18T04:29:39.000Z</time></trkpt>
        <trkpt lat="29.5633195" lon="103.4252239"><ele>753</ele><time>2026-08-18T04:29:55.000Z</time></trkpt>
        <trkpt lat="29.56323" lon="103.4251821"><ele>753</ele><time>2026-08-18T04:30:11.000Z</time></trkpt>
        <trkpt lat="29.5631386" lon="103.4251524"><ele>757</ele><time>2026-08-18T04:30:25.000Z</time></trkpt>
        <trkpt lat="29.5630437" lon="103.4251243"><ele>789</ele><time>2026-08-18T04:30:39.000Z</time></trkpt>
        <trkpt lat="29.5629509" lon="103.4251075"><ele>789</ele><time>2026-08-18T04:30:53.000Z</time></trkpt>
        <trkpt lat="29.5628761" lon="103.4250433"><ele>772</ele><time>2026-08-18T04:31:03.000Z</time></trkpt>
        <trkpt lat="29.5627958" lon="103.4249857"><ele>772</ele><time>2026-08-18T04:31:19.000Z</time></trkpt>
        <trkpt lat="29.5627162" lon="103.4249317"><ele>772</ele><time>2026-08-18T04:31:35.000Z</time></trkpt>
        <trkpt lat="29.5626481" lon="103.4248583"><ele>786</ele><time>2026-08-18T04:31:45.000Z</time></trkpt>
        <trkpt lat="29.562574" lon="103.4247867"><ele>768</ele><time>2026-08-18T04:31:59.000Z</time></trkpt>
        <trkpt lat="29.5625148" lon="103.4246979"><ele>768</ele><time>2026-08-18T04:32:11.000Z</time></trkpt>
        <trkpt lat="29.5625185" lon="103.4245852"><ele>768</ele><time>2026-08-18T04:32:23.000Z</time></trkpt>
        <trkpt lat="29.5625578" lon="103.4244764"><ele>774</ele><time>2026-08-18T04:32:39.000Z</time></trkpt>
        <trkpt lat="29.5626087" lon="103.4243743"><ele>774</ele><time>2026-08-18T04:32:51.000Z</time></trkpt>
        <trkpt lat="29.562612" lon="103.4242715"><ele>780</ele><time>2026-08-18T04:33:09.000Z</time></trkpt>
        <trkpt lat="29.5625796" lon="103.4241642"><ele>780</ele><time>2026-08-18T04:33:27.000Z</time></trkpt>
        <trkpt lat="29.5625533" lon="103.4240529"><ele>780</ele><time>2026-08-18T04:33:45.000Z</time></trkpt>
        <trkpt lat="29.5625322" lon="103.4239463"><ele>786</ele><time>2026-08-18T04:33:59.000Z</time></trkpt>
        <trkpt lat="29.5625534" lon="103.4238398"><ele>786</ele><time>2026-08-18T04:34:15.000Z</time></trkpt>
        <trkpt lat="29.5626038" lon="103.4237495"><ele>792</ele><time>2026-08-18T04:34:27.000Z</time></trkpt>
        <trkpt lat="29.5626739" lon="103.4236588"><ele>802</ele><time>2026-08-18T04:34:37.000Z</time></trkpt>
        <trkpt lat="29.5627523" lon="103.423583"><ele>802</ele><time>2026-08-18T04:34:49.000Z</time></trkpt>
        <trkpt lat="29.5628377" lon="103.42353"><ele>802</ele><time>2026-08-18T04:34:59.000Z</time></trkpt>
        <trkpt lat="29.5629191" lon="103.4234669"><ele>806</ele><time>2026-08-18T04:35:15.000Z</time></trkpt>
        <trkpt lat="29.5629791" lon="103.4233748"><ele>806</ele><time>2026-08-18T04:35:27.000Z</time></trkpt>
        <trkpt lat="29.5630095" lon="103.4232674"><ele>806</ele><time>2026-08-18T04:35:41.000Z</time></trkpt>
        <trkpt lat="29.5630393" lon="103.4231588"><ele>800</ele><time>2026-08-18T04:36:03.000Z</time></trkpt>
        <trkpt lat="29.5630585" lon="103.4230451"><ele>800</ele><time>2026-08-18T04:36:15.000Z</time></trkpt>
        <trkpt lat="29.5631152" lon="103.4229654"><ele>800</ele><time>2026-08-18T04:36:27.000Z</time></trkpt>
        <trkpt lat="29.5631961" lon="103.4229125"><ele>810</ele><time>2026-08-18T04:36:41.000Z</time></trkpt>
        <trkpt lat="29.5632714" lon="103.4228454"><ele>810</ele><time>2026-08-18T04:36:55.000Z</time></trkpt>
        <trkpt lat="29.5633369" lon="103.4227699"><ele>810</ele><time>2026-08-18T04:37:09.000Z</time></trkpt>
        <trkpt lat="29.5633796" lon="103.4226761"><ele>810</ele><time>2026-08-18T04:37:25.000Z</time></trkpt>
        <trkpt lat="29.5633999" lon="103.4225704"><ele>816</ele><time>2026-08-18T04:37:37.000Z</time></trkpt>
        <trkpt lat="29.5634307" lon="103.4224706"><ele>816</ele><time>2026-08-18T04:37:49.000Z</time></trkpt>
        <trkpt lat="29.5634761" lon="103.422375"><ele>806</ele><time>2026-08-18T04:38:03.000Z</time></trkpt>
        <trkpt lat="29.5635016" lon="103.4222639"><ele>819</ele><time>2026-08-18T04:38:19.000Z</time></trkpt>
        <trkpt lat="29.5635374" lon="103.422158"><ele>819</ele><time>2026-08-18T04:38:33.000Z</time></trkpt>
        <trkpt lat="29.5635657" lon="103.4220539"><ele>825</ele><time>2026-08-18T04:38:47.000Z</time></trkpt>
        <trkpt lat="29.5635843" lon="103.421948"><ele>825</ele><time>2026-08-18T04:39:01.000Z</time></trkpt>
        <trkpt lat="29.5635983" lon="103.42184"><ele>825</ele><time>2026-08-18T04:39:15.000Z</time></trkpt>
        <trkpt lat="29.5636281" lon="103.4217295"><ele>831</ele><time>2026-08-18T04:39:29.000Z</time></trkpt>
        <trkpt lat="29.5636965" lon="103.4216612"><ele>831</ele><time>2026-08-18T04:39:41.000Z</time></trkpt>
        <trkpt lat="29.5637911" lon="103.4216326"><ele>826</ele><time>2026-08-18T04:39:57.000Z</time></trkpt>
        <trkpt lat="29.563842" lon="103.4215547"><ele>826</ele><time>2026-08-18T04:40:15.000Z</time></trkpt>
        <trkpt lat="29.5638463" lon="103.4214515"><ele>831</ele><time>2026-08-18T04:40:33.000Z</time></trkpt>
        <trkpt lat="29.5638642" lon="103.421349"><ele>831</ele><time>2026-08-18T04:40:47.000Z</time></trkpt>
        <trkpt lat="29.563865" lon="103.4212406"><ele>847</ele><time>2026-08-18T04:41:01.000Z</time></trkpt>
        <trkpt lat="29.5638428" lon="103.4211327"><ele>847</ele><time>2026-08-18T04:41:17.000Z</time></trkpt>
        <trkpt lat="29.5638015" lon="103.4210257"><ele>847</ele><time>2026-08-18T04:41:33.000Z</time></trkpt>
        <trkpt lat="29.5637643" lon="103.4209179"><ele>870</ele><time>2026-08-18T04:41:47.000Z</time></trkpt>
        <trkpt lat="29.5637732" lon="103.4208112"><ele>870</ele><time>2026-08-18T04:41:59.000Z</time></trkpt>
        <trkpt lat="29.5638381" lon="103.4207355"><ele>870</ele><time>2026-08-18T04:42:09.000Z</time></trkpt>
        <trkpt lat="29.5639215" lon="103.420659"><ele>870</ele><time>2026-08-18T04:42:21.000Z</time></trkpt>
        <trkpt lat="29.5640231" lon="103.4206096"><ele>870</ele><time>2026-08-18T04:42:33.000Z</time></trkpt>
        <trkpt lat="29.5641257" lon="103.4206107"><ele>864</ele><time>2026-08-18T04:42:43.000Z</time></trkpt>
        <trkpt lat="29.5642215" lon="103.4206337"><ele>864</ele><time>2026-08-18T04:42:53.000Z</time></trkpt>
        <trkpt lat="29.564322" lon="103.4206315"><ele>859</ele><time>2026-08-18T04:43:05.000Z</time></trkpt>
        <trkpt lat="29.5644035" lon="103.4205753"><ele>859</ele><time>2026-08-18T04:43:37.000Z</time></trkpt>
        <trkpt lat="29.5644475" lon="103.4204718"><ele>859</ele><time>2026-08-18T04:43:49.000Z</time></trkpt>
        <trkpt lat="29.5644739" lon="103.4203555"><ele>867</ele><time>2026-08-18T04:43:59.000Z</time></trkpt>
        <trkpt lat="29.5645377" lon="103.4202585"><ele>867</ele><time>2026-08-18T04:44:11.000Z</time></trkpt>
        <trkpt lat="29.5646107" lon="103.4201781"><ele>861</ele><time>2026-08-18T04:44:21.000Z</time></trkpt>
        <trkpt lat="29.5646606" lon="103.4200855"><ele>864</ele><time>2026-08-18T04:44:31.000Z</time></trkpt>
        <trkpt lat="29.5646912" lon="103.4199834"><ele>864</ele><time>2026-08-18T04:44:41.000Z</time></trkpt>
        <trkpt lat="29.5647171" lon="103.4198813"><ele>864</ele><time>2026-08-18T04:44:51.000Z</time></trkpt>
        <trkpt lat="29.5647884" lon="103.419814"><ele>882</ele><time>2026-08-18T04:45:01.000Z</time></trkpt>
        <trkpt lat="29.5648758" lon="103.4197823"><ele>874</ele><time>2026-08-18T04:45:11.000Z</time></trkpt>
        <trkpt lat="29.5649699" lon="103.4197398"><ele>874</ele><time>2026-08-18T04:45:33.000Z</time></trkpt>
        <trkpt lat="29.5650678" lon="103.4197505"><ele>874</ele><time>2026-08-18T04:45:43.000Z</time></trkpt>
        <trkpt lat="29.5651171" lon="103.4198358"><ele>874</ele><time>2026-08-18T04:45:53.000Z</time></trkpt>
        <trkpt lat="29.565141" lon="103.4199458"><ele>872</ele><time>2026-08-18T04:46:03.000Z</time></trkpt>
        <trkpt lat="29.5651667" lon="103.420063"><ele>872</ele><time>2026-08-18T04:46:15.000Z</time></trkpt>
        <trkpt lat="29.5651733" lon="103.4201838"><ele>864</ele><time>2026-08-18T04:46:25.000Z</time></trkpt>
        <trkpt lat="29.5651656" lon="103.4203074"><ele>864</ele><time>2026-08-18T04:46:33.000Z</time></trkpt>
        <trkpt lat="29.5651631" lon="103.4203569"><ele>864</ele><time>2026-08-18T04:46:43.000Z</time></trkpt>
        <trkpt lat="29.5651541" lon="103.4204399"><ele>851</ele><time>2026-08-18T04:46:55.000Z</time></trkpt>
        <trkpt lat="29.5651654" lon="103.4205396"><ele>851</ele><time>2026-08-18T04:47:07.000Z</time></trkpt>
        <trkpt lat="29.5652313" lon="103.4206254"><ele>851</ele><time>2026-08-18T04:47:19.000Z</time></trkpt>
        <trkpt lat="29.565323" lon="103.420661"><ele>851</ele><time>2026-08-18T04:47:29.000Z</time></trkpt>
        <trkpt lat="29.5654171" lon="103.4206399"><ele>850</ele><time>2026-08-18T04:47:39.000Z</time></trkpt>
        <trkpt lat="29.5654971" lon="103.4205609"><ele>850</ele><time>2026-08-18T04:47:51.000Z</time></trkpt>
        <trkpt lat="29.5655758" lon="103.420469"><ele>850</ele><time>2026-08-18T04:48:03.000Z</time></trkpt>
        <trkpt lat="29.5656673" lon="103.4204186"><ele>850</ele><time>2026-08-18T04:48:15.000Z</time></trkpt>
        <trkpt lat="29.5657626" lon="103.4203963"><ele>862</ele><time>2026-08-18T04:48:41.000Z</time></trkpt>
        <trkpt lat="29.5658544" lon="103.4203368"><ele>862</ele><time>2026-08-18T04:48:53.000Z</time></trkpt>
        <trkpt lat="29.565945" lon="103.4202909"><ele>862</ele><time>2026-08-18T04:49:03.000Z</time></trkpt>
        <trkpt lat="29.5660414" lon="103.4202624"><ele>857</ele><time>2026-08-18T04:49:13.000Z</time></trkpt>
        <trkpt lat="29.5660961" lon="103.4202521"><ele>857</ele><time>2026-08-18T04:49:19.000Z</time></trkpt>
        <trkpt lat="29.5661695" lon="103.4202784"><ele>857</ele><time>2026-08-18T04:49:41.000Z</time></trkpt>
        <trkpt lat="29.5662508" lon="103.4203256"><ele>855</ele><time>2026-08-18T04:49:53.000Z</time></trkpt>
        <trkpt lat="29.5663136" lon="103.4204182"><ele>855</ele><time>2026-08-18T04:50:05.000Z</time></trkpt>
        <trkpt lat="29.5663512" lon="103.4205235"><ele>855</ele><time>2026-08-18T04:50:19.000Z</time></trkpt>
        <trkpt lat="29.5663934" lon="103.420486"><ele>855</ele><time>2026-08-18T04:50:49.000Z</time></trkpt>
        <trkpt lat="29.5664419" lon="103.4203939"><ele>855</ele><time>2026-08-18T04:51:01.000Z</time></trkpt>
        <trkpt lat="29.5665114" lon="103.4202907"><ele>855</ele><time>2026-08-18T04:51:13.000Z</time></trkpt>
        <trkpt lat="29.5665738" lon="103.4201936"><ele>862</ele><time>2026-08-18T04:51:23.000Z</time></trkpt>
        <trkpt lat="29.5666311" lon="103.4200941"><ele>875</ele><time>2026-08-18T04:51:33.000Z</time></trkpt>
        <trkpt lat="29.5666623" lon="103.4199883"><ele>875</ele><time>2026-08-18T04:51:43.000Z</time></trkpt>
        <trkpt lat="29.5666829" lon="103.4198836"><ele>875</ele><time>2026-08-18T04:51:53.000Z</time></trkpt>
        <trkpt lat="29.5667566" lon="103.4198415"><ele>891</ele><time>2026-08-18T04:52:07.000Z</time></trkpt>
        <trkpt lat="29.5668575" lon="103.4198482"><ele>887</ele><time>2026-08-18T04:52:27.000Z</time></trkpt>
        <trkpt lat="29.5669415" lon="103.4199114"><ele>879</ele><time>2026-08-18T04:52:47.000Z</time></trkpt>
        <trkpt lat="29.5670212" lon="103.4199802"><ele>879</ele><time>2026-08-18T04:53:07.000Z</time></trkpt>
        <trkpt lat="29.5670526" lon="103.4200867"><ele>879</ele><time>2026-08-18T04:53:27.000Z</time></trkpt>
        <trkpt lat="29.5670393" lon="103.4202002"><ele>872</ele><time>2026-08-18T04:53:35.000Z</time></trkpt>
        <trkpt lat="29.5670606" lon="103.4203023"><ele>872</ele><time>2026-08-18T04:53:49.000Z</time></trkpt>
        <trkpt lat="29.5671119" lon="103.4203936"><ele>880</ele><time>2026-08-18T04:54:15.000Z</time></trkpt>
        <trkpt lat="29.5671918" lon="103.4204547"><ele>877</ele><time>2026-08-18T04:54:35.000Z</time></trkpt>
        <trkpt lat="29.5672851" lon="103.4204705"><ele>877</ele><time>2026-08-18T04:54:53.000Z</time></trkpt>
        <trkpt lat="29.5673826" lon="103.42046"><ele>884</ele><time>2026-08-18T04:55:17.000Z</time></trkpt>
        <trkpt lat="29.567474" lon="103.4204167"><ele>885</ele><time>2026-08-18T04:55:43.000Z</time></trkpt>
        <trkpt lat="29.5675601" lon="103.4203683"><ele>885</ele><time>2026-08-18T04:56:11.000Z</time></trkpt>
        <trkpt lat="29.567635" lon="103.4203043"><ele>885</ele><time>2026-08-18T04:56:37.000Z</time></trkpt>
        <trkpt lat="29.5677282" lon="103.4202523"><ele>898</ele><time>2026-08-18T04:57:03.000Z</time></trkpt>
        <trkpt lat="29.5677642" lon="103.4202303"><ele>898</ele><time>2026-08-18T04:57:09.000Z</time></trkpt>
        <trkpt lat="29.5678361" lon="103.420204"><ele>898</ele><time>2026-08-18T04:57:33.000Z</time></trkpt>
        <trkpt lat="29.5679162" lon="103.4201602"><ele>898</ele><time>2026-08-18T04:57:55.000Z</time></trkpt>
        <trkpt lat="29.5680055" lon="103.4201217"><ele>915</ele><time>2026-08-18T04:58:23.000Z</time></trkpt>
        <trkpt lat="29.5680982" lon="103.4200852"><ele>915</ele><time>2026-08-18T04:58:57.000Z</time></trkpt>
        <trkpt lat="29.5681901" lon="103.4200627"><ele>915</ele><time>2026-08-18T04:59:25.000Z</time></trkpt>
        <trkpt lat="29.5682813" lon="103.4200481"><ele>924</ele><time>2026-08-18T04:59:53.000Z</time></trkpt>
        <trkpt lat="29.5683703" lon="103.4200301"><ele>924</ele><time>2026-08-18T05:00:13.000Z</time></trkpt>
        <trkpt lat="29.5684598" lon="103.4200354"><ele>924</ele><time>2026-08-18T05:00:51.000Z</time></trkpt>
        <trkpt lat="29.568553" lon="103.4200264"><ele>935</ele><time>2026-08-18T05:01:25.000Z</time></trkpt>
        <trkpt lat="29.5686465" lon="103.4200401"><ele>935</ele><time>2026-08-18T05:02:23.000Z</time></trkpt>
        <trkpt lat="29.5687393" lon="103.4200177"><ele>935</ele><time>2026-08-18T05:02:39.000Z</time></trkpt>
        <trkpt lat="29.5688011" lon="103.4199869"><ele>943</ele><time>2026-08-18T05:02:55.000Z</time></trkpt>
        <trkpt lat="29.5688781" lon="103.4199365"><ele>943</ele><time>2026-08-18T05:03:35.000Z</time></trkpt>
        <trkpt lat="29.5689644" lon="103.4198883"><ele>943</ele><time>2026-08-18T05:03:51.000Z</time></trkpt>
        <trkpt lat="29.5690509" lon="103.4198443"><ele>946</ele><time>2026-08-18T05:04:05.000Z</time></trkpt>
        <trkpt lat="29.5691481" lon="103.4198228"><ele>946</ele><time>2026-08-18T05:04:15.000Z</time></trkpt>
        <trkpt lat="29.5692417" lon="103.4197787"><ele>946</ele><time>2026-08-18T05:04:27.000Z</time></trkpt>
        <trkpt lat="29.569327" lon="103.4197278"><ele>946</ele><time>2026-08-18T05:04:47.000Z</time></trkpt>
        <trkpt lat="29.5694122" lon="103.4196817"><ele>946</ele><time>2026-08-18T05:05:13.000Z</time></trkpt>
        <trkpt lat="29.569489" lon="103.4196121"><ele>946</ele><time>2026-08-18T05:05:45.000Z</time></trkpt>
        <trkpt lat="29.5695626" lon="103.4195322"><ele>945</ele><time>2026-08-18T05:06:09.000Z</time></trkpt>
        <trkpt lat="29.5696249" lon="103.4194469"><ele>931</ele><time>2026-08-18T05:06:21.000Z</time></trkpt>
        <trkpt lat="29.5696504" lon="103.4193985"><ele>931</ele><time>2026-08-18T05:06:29.000Z</time></trkpt>
        <trkpt lat="29.5696781" lon="103.4193128"><ele>931</ele><time>2026-08-18T05:06:57.000Z</time></trkpt>
        <trkpt lat="29.5697194" lon="103.4192224"><ele>935</ele><time>2026-08-18T05:07:07.000Z</time></trkpt>
        <trkpt lat="29.5697612" lon="103.4191229"><ele>935</ele><time>2026-08-18T05:07:19.000Z</time></trkpt>
        <trkpt lat="29.5697498" lon="103.4190066"><ele>935</ele><time>2026-08-18T05:07:31.000Z</time></trkpt>
        <trkpt lat="29.5697516" lon="103.4188955"><ele>935</ele><time>2026-08-18T05:08:03.000Z</time></trkpt>
        <trkpt lat="29.5697509" lon="103.4187817"><ele>935</ele><time>2026-08-18T05:08:19.000Z</time></trkpt>
        <trkpt lat="29.5697792" lon="103.41867"><ele>931</ele><time>2026-08-18T05:09:07.000Z</time></trkpt>
        <trkpt lat="29.5698083" lon="103.4185581"><ele>931</ele><time>2026-08-18T05:09:19.000Z</time></trkpt>
        <trkpt lat="29.569832" lon="103.418453"><ele>929</ele><time>2026-08-18T05:09:49.000Z</time></trkpt>
        <trkpt lat="29.5698216" lon="103.4183482"><ele>929</ele><time>2026-08-18T05:09:59.000Z</time></trkpt>
        <trkpt lat="29.5698399" lon="103.418248"><ele>929</ele><time>2026-08-18T05:10:09.000Z</time></trkpt>
        <trkpt lat="29.5698459" lon="103.4181459"><ele>926</ele><time>2026-08-18T05:10:19.000Z</time></trkpt>
        <trkpt lat="29.5698666" lon="103.4180335"><ele>929</ele><time>2026-08-18T05:10:31.000Z</time></trkpt>
        <trkpt lat="29.5699048" lon="103.4179261"><ele>929</ele><time>2026-08-18T05:10:43.000Z</time></trkpt>
        <trkpt lat="29.5699445" lon="103.4178253"><ele>922</ele><time>2026-08-18T05:10:53.000Z</time></trkpt>
        <trkpt lat="29.5699759" lon="103.4177194"><ele>922</ele><time>2026-08-18T05:11:05.000Z</time></trkpt>
        <trkpt lat="29.5699894" lon="103.417608"><ele>927</ele><time>2026-08-18T05:11:17.000Z</time></trkpt>
        <trkpt lat="29.5699741" lon="103.417492"><ele>927</ele><time>2026-08-18T05:11:29.000Z</time></trkpt>
        <trkpt lat="29.5699749" lon="103.4173702"><ele>927</ele><time>2026-08-18T05:11:41.000Z</time></trkpt>
        <trkpt lat="29.5699881" lon="103.4172538"><ele>929</ele><time>2026-08-18T05:11:53.000Z</time></trkpt>
        <trkpt lat="29.5699896" lon="103.4171384"><ele>929</ele><time>2026-08-18T05:12:03.000Z</time></trkpt>
        <trkpt lat="29.5700418" lon="103.4170498"><ele>934</ele><time>2026-08-18T05:12:13.000Z</time></trkpt>
        <trkpt lat="29.5701346" lon="103.4170156"><ele>934</ele><time>2026-08-18T05:12:23.000Z</time></trkpt>
        <trkpt lat="29.5702435" lon="103.4170093"><ele>923</ele><time>2026-08-18T05:12:33.000Z</time></trkpt>
        <trkpt lat="29.57035" lon="103.4170151"><ele>923</ele><time>2026-08-18T05:12:43.000Z</time></trkpt>
        <trkpt lat="29.570392" lon="103.4169408"><ele>923</ele><time>2026-08-18T05:12:55.000Z</time></trkpt>
        <trkpt lat="29.5704191" lon="103.4168401"><ele>902</ele><time>2026-08-18T05:13:07.000Z</time></trkpt>
        <trkpt lat="29.5703674" lon="103.416731"><ele>915</ele><time>2026-08-18T05:13:17.000Z</time></trkpt>
        <trkpt lat="29.5703467" lon="103.4166196"><ele>915</ele><time>2026-08-18T05:13:27.000Z</time></trkpt>
        <trkpt lat="29.5703433" lon="103.4165067"><ele>918</ele><time>2026-08-18T05:13:37.000Z</time></trkpt>
        <trkpt lat="29.5703687" lon="103.416401"><ele>918</ele><time>2026-08-18T05:13:47.000Z</time></trkpt>
        <trkpt lat="29.5703792" lon="103.4162838"><ele>918</ele><time>2026-08-18T05:14:01.000Z</time></trkpt>
        <trkpt lat="29.5704256" lon="103.4161784"><ele>925</ele><time>2026-08-18T05:14:13.000Z</time></trkpt>
        <trkpt lat="29.5705109" lon="103.4161296"><ele>925</ele><time>2026-08-18T05:14:25.000Z</time></trkpt>
        <trkpt lat="29.5706052" lon="103.4160961"><ele>925</ele><time>2026-08-18T05:14:37.000Z</time></trkpt>
        <trkpt lat="29.5706984" lon="103.41606"><ele>916</ele><time>2026-08-18T05:14:55.000Z</time></trkpt>
        <trkpt lat="29.5707744" lon="103.416002"><ele>916</ele><time>2026-08-18T05:15:19.000Z</time></trkpt>
        <trkpt lat="29.5707406" lon="103.4159348"><ele>923</ele><time>2026-08-18T05:15:33.000Z</time></trkpt>
        <trkpt lat="29.5706732" lon="103.4158584"><ele>926</ele><time>2026-08-18T05:16:15.000Z</time></trkpt>
        <trkpt lat="29.5705856" lon="103.4157969"><ele>926</ele><time>2026-08-18T05:16:41.000Z</time></trkpt>
        <trkpt lat="29.5704845" lon="103.4157816"><ele>926</ele><time>2026-08-18T05:17:03.000Z</time></trkpt>
        <trkpt lat="29.57042" lon="103.415712"><ele>926</ele><time>2026-08-18T05:17:13.000Z</time></trkpt>
        <trkpt lat="29.5703548" lon="103.4156306"><ele>923</ele><time>2026-08-18T05:17:23.000Z</time></trkpt>
        <trkpt lat="29.570274" lon="103.415562"><ele>923</ele><time>2026-08-18T05:17:33.000Z</time></trkpt>
        <trkpt lat="29.5701814" lon="103.4155393"><ele>923</ele><time>2026-08-18T05:17:47.000Z</time></trkpt>
        <trkpt lat="29.57008" lon="103.4155374"><ele>936</ele><time>2026-08-18T05:18:03.000Z</time></trkpt>
        <trkpt lat="29.569993" lon="103.4154839"><ele>936</ele><time>2026-08-18T05:18:17.000Z</time></trkpt>
        <trkpt lat="29.5699255" lon="103.4154067"><ele>928</ele><time>2026-08-18T05:18:29.000Z</time></trkpt>
        <trkpt lat="29.5698717" lon="103.4153034"><ele>928</ele><time>2026-08-18T05:18:41.000Z</time></trkpt>
        <trkpt lat="29.5698553" lon="103.4151917"><ele>937</ele><time>2026-08-18T05:18:53.000Z</time></trkpt>
        <trkpt lat="29.5698586" lon="103.4150779"><ele>922</ele><time>2026-08-18T05:19:03.000Z</time></trkpt>
        <trkpt lat="29.5698883" lon="103.414966"><ele>914</ele><time>2026-08-18T05:19:19.000Z</time></trkpt>
        <trkpt lat="29.5698369" lon="103.4148818"><ele>922</ele><time>2026-08-18T05:19:29.000Z</time></trkpt>
        <trkpt lat="29.5697521" lon="103.4148057"><ele>910</ele><time>2026-08-18T05:19:39.000Z</time></trkpt>
        <trkpt lat="29.5696671" lon="103.4147342"><ele>910</ele><time>2026-08-18T05:19:51.000Z</time></trkpt>
        <trkpt lat="29.5695702" lon="103.4147162"><ele>925</ele><time>2026-08-18T05:20:05.000Z</time></trkpt>
        <trkpt lat="29.5694731" lon="103.4147515"><ele>925</ele><time>2026-08-18T05:20:17.000Z</time></trkpt>
        <trkpt lat="29.5693796" lon="103.4147959"><ele>925</ele><time>2026-08-18T05:20:29.000Z</time></trkpt>
        <trkpt lat="29.5692917" lon="103.4148406"><ele>934</ele><time>2026-08-18T05:20:41.000Z</time></trkpt>
        <trkpt lat="29.5692021" lon="103.4148537"><ele>934</ele><time>2026-08-18T05:20:55.000Z</time></trkpt>
        <trkpt lat="29.569109" lon="103.4148667"><ele>934</ele><time>2026-08-18T05:21:07.000Z</time></trkpt>
        <trkpt lat="29.5690937" lon="103.4147896"><ele>934</ele><time>2026-08-18T05:21:39.000Z</time></trkpt>
        <trkpt lat="29.5690941" lon="103.4146805"><ele>934</ele><time>2026-08-18T05:21:51.000Z</time></trkpt>
        <trkpt lat="29.5691232" lon="103.4146239"><ele>934</ele><time>2026-08-18T05:22:09.000Z</time></trkpt>
        <trkpt lat="29.5691232" lon="103.4146239"><ele>934</ele><time>2026-08-18T05:22:09.000Z</time></trkpt>
        <trkpt lat="29.5691586" lon="103.4146191"><ele>934</ele><time>2026-08-18T05:22:23.000Z</time></trkpt>
        <trkpt lat="29.5691586" lon="103.4146191"><ele>934</ele><time>2026-08-18T05:22:24.000Z</time></trkpt>
        <trkpt lat="29.5691586" lon="103.4146191"><ele>934</ele><time>2026-08-18T05:22:57.000Z</time></trkpt>
        <trkpt lat="29.5690926" lon="103.414547"><ele>931</ele><time>2026-08-18T05:23:01.000Z</time></trkpt>
        <trkpt lat="29.5690926" lon="103.414547"><ele>931</ele><time>2026-08-18T05:23:12.000Z</time></trkpt>
        <trkpt lat="29.5690728" lon="103.4144373"><ele>931</ele><time>2026-08-18T05:23:38.000Z</time></trkpt>
        <trkpt lat="29.5690945" lon="103.4143183"><ele>931</ele><time>2026-08-18T05:23:58.000Z</time></trkpt>
        <trkpt lat="29.5691008" lon="103.4142022"><ele>917</ele><time>2026-08-18T05:24:16.000Z</time></trkpt>
        <trkpt lat="29.5691" lon="103.4140937"><ele>917</ele><time>2026-08-18T05:24:38.000Z</time></trkpt>
        <trkpt lat="29.5691126" lon="103.4139865"><ele>914</ele><time>2026-08-18T05:24:50.000Z</time></trkpt>
        <trkpt lat="29.5691462" lon="103.4138809"><ele>914</ele><time>2026-08-18T05:25:04.000Z</time></trkpt>
        <trkpt lat="29.5691178" lon="103.4137817"><ele>914</ele><time>2026-08-18T05:25:18.000Z</time></trkpt>
        <trkpt lat="29.5690627" lon="103.4136817"><ele>916</ele><time>2026-08-18T05:25:30.000Z</time></trkpt>
        <trkpt lat="29.5690153" lon="103.4135772"><ele>931</ele><time>2026-08-18T05:25:42.000Z</time></trkpt>
        <trkpt lat="29.5689779" lon="103.4134725"><ele>931</ele><time>2026-08-18T05:25:54.000Z</time></trkpt>
        <trkpt lat="29.5689564" lon="103.4133524"><ele>918</ele><time>2026-08-18T05:26:06.000Z</time></trkpt>
        <trkpt lat="29.5689576" lon="103.4132321"><ele>918</ele><time>2026-08-18T05:26:20.000Z</time></trkpt>
        <trkpt lat="29.5689885" lon="103.4131198"><ele>913</ele><time>2026-08-18T05:26:32.000Z</time></trkpt>
        <trkpt lat="29.5690618" lon="103.4130529"><ele>910</ele><time>2026-08-18T05:26:42.000Z</time></trkpt>
        <trkpt lat="29.569134" lon="103.4129826"><ele>910</ele><time>2026-08-18T05:26:58.000Z</time></trkpt>
        <trkpt lat="29.5691848" lon="103.412896"><ele>902</ele><time>2026-08-18T05:27:46.000Z</time></trkpt>
        <trkpt lat="29.5692461" lon="103.4128201"><ele>902</ele><time>2026-08-18T05:27:56.000Z</time></trkpt>
        <trkpt lat="29.5693173" lon="103.4127531"><ele>907</ele><time>2026-08-18T05:28:06.000Z</time></trkpt>
        <trkpt lat="29.5694028" lon="103.4126885"><ele>907</ele><time>2026-08-18T05:28:16.000Z</time></trkpt>
        <trkpt lat="29.5693924" lon="103.412603"><ele>906</ele><time>2026-08-18T05:28:28.000Z</time></trkpt>
        <trkpt lat="29.56934" lon="103.4125092"><ele>906</ele><time>2026-08-18T05:28:40.000Z</time></trkpt>
        <trkpt lat="29.569301" lon="103.4124066"><ele>899</ele><time>2026-08-18T05:28:54.000Z</time></trkpt>
        <trkpt lat="29.5692298" lon="103.4124232"><ele>899</ele><time>2026-08-18T05:29:30.000Z</time></trkpt>
        <trkpt lat="29.5692742" lon="103.4124629"><ele>899</ele><time>2026-08-18T05:29:46.000Z</time></trkpt>
        <trkpt lat="29.5693388" lon="103.4124192"><ele>906</ele><time>2026-08-18T05:30:00.000Z</time></trkpt>
        <trkpt lat="29.5693328" lon="103.4123329"><ele>905</ele><time>2026-08-18T05:30:18.000Z</time></trkpt>
        <trkpt lat="29.569345" lon="103.4122255"><ele>905</ele><time>2026-08-18T05:30:32.000Z</time></trkpt>
        <trkpt lat="29.5692803" lon="103.4122008"><ele>905</ele><time>2026-08-18T05:30:48.000Z</time></trkpt>
        <trkpt lat="29.5691847" lon="103.4122138"><ele>905</ele><time>2026-08-18T05:31:02.000Z</time></trkpt>
        <trkpt lat="29.5690726" lon="103.4122202"><ele>905</ele><time>2026-08-18T05:31:14.000Z</time></trkpt>
        <trkpt lat="29.5689995" lon="103.4121565"><ele>896</ele><time>2026-08-18T05:31:24.000Z</time></trkpt>
        <trkpt lat="29.5689282" lon="103.4120831"><ele>891</ele><time>2026-08-18T05:31:40.000Z</time></trkpt>
        <trkpt lat="29.5688714" lon="103.4119817"><ele>891</ele><time>2026-08-18T05:31:54.000Z</time></trkpt>
        <trkpt lat="29.5688138" lon="103.4118924"><ele>891</ele><time>2026-08-18T05:32:04.000Z</time></trkpt>
        <trkpt lat="29.5687303" lon="103.4118598"><ele>884</ele><time>2026-08-18T05:32:16.000Z</time></trkpt>
        <trkpt lat="29.5686801" lon="103.4118436"><ele>884</ele><time>2026-08-18T05:32:24.000Z</time></trkpt>
        <trkpt lat="29.5686006" lon="103.4118482"><ele>884</ele><time>2026-08-18T05:33:04.000Z</time></trkpt>
        <trkpt lat="29.5685269" lon="103.4117972"><ele>878</ele><time>2026-08-18T05:33:16.000Z</time></trkpt>
        <trkpt lat="29.5684536" lon="103.4117182"><ele>886</ele><time>2026-08-18T05:33:30.000Z</time></trkpt>
        <trkpt lat="29.568408" lon="103.4116172"><ele>886</ele><time>2026-08-18T05:33:42.000Z</time></trkpt>
        <trkpt lat="29.5683466" lon="103.4115356"><ele>886</ele><time>2026-08-18T05:33:52.000Z</time></trkpt>
        <trkpt lat="29.568352" lon="103.4114402"><ele>885</ele><time>2026-08-18T05:34:04.000Z</time></trkpt>
        <trkpt lat="29.5683951" lon="103.4113393"><ele>885</ele><time>2026-08-18T05:34:14.000Z</time></trkpt>
        <trkpt lat="29.5684499" lon="103.4112405"><ele>865</ele><time>2026-08-18T05:34:24.000Z</time></trkpt>
        <trkpt lat="29.5685037" lon="103.411144"><ele>872</ele><time>2026-08-18T05:34:34.000Z</time></trkpt>
        <trkpt lat="29.5685184" lon="103.4110412"><ele>872</ele><time>2026-08-18T05:34:44.000Z</time></trkpt>
        <trkpt lat="29.5685366" lon="103.4109273"><ele>863</ele><time>2026-08-18T05:34:56.000Z</time></trkpt>
        <trkpt lat="29.568566" lon="103.4108235"><ele>863</ele><time>2026-08-18T05:35:06.000Z</time></trkpt>
        <trkpt lat="29.5685976" lon="103.4107252"><ele>863</ele><time>2026-08-18T05:35:18.000Z</time></trkpt>
        <trkpt lat="29.568618" lon="103.4106156"><ele>879</ele><time>2026-08-18T05:35:38.000Z</time></trkpt>
        <trkpt lat="29.568627" lon="103.4105076"><ele>879</ele><time>2026-08-18T05:35:52.000Z</time></trkpt>
        <trkpt lat="29.5686389" lon="103.4103963"><ele>877</ele><time>2026-08-18T05:36:04.000Z</time></trkpt>
        <trkpt lat="29.5686251" lon="103.4102839"><ele>877</ele><time>2026-08-18T05:36:16.000Z</time></trkpt>
        <trkpt lat="29.5686227" lon="103.4101725"><ele>877</ele><time>2026-08-18T05:36:28.000Z</time></trkpt>
        <trkpt lat="29.5686438" lon="103.4100511"><ele>879</ele><time>2026-08-18T05:36:42.000Z</time></trkpt>
        <trkpt lat="29.5685899" lon="103.4099791"><ele>879</ele><time>2026-08-18T05:36:54.000Z</time></trkpt>
        <trkpt lat="29.5685079" lon="103.4099127"><ele>879</ele><time>2026-08-18T05:37:06.000Z</time></trkpt>
        <trkpt lat="29.5684372" lon="103.4098354"><ele>881</ele><time>2026-08-18T05:37:16.000Z</time></trkpt>
        <trkpt lat="29.5684383" lon="103.4099001"><ele>877</ele><time>2026-08-18T05:37:30.000Z</time></trkpt>
        <trkpt lat="29.5683741" lon="103.4098963"><ele>877</ele><time>2026-08-18T05:37:46.000Z</time></trkpt>
        <trkpt lat="29.5683167" lon="103.4098188"><ele>881</ele><time>2026-08-18T05:38:02.000Z</time></trkpt>
        <trkpt lat="29.5682756" lon="103.4097184"><ele>881</ele><time>2026-08-18T05:38:16.000Z</time></trkpt>
        <trkpt lat="29.5682429" lon="103.4096091"><ele>881</ele><time>2026-08-18T05:38:28.000Z</time></trkpt>
        <trkpt lat="29.5682068" lon="103.4094964"><ele>872</ele><time>2026-08-18T05:38:48.000Z</time></trkpt>
        <trkpt lat="29.5681546" lon="103.4093976"><ele>866</ele><time>2026-08-18T05:39:04.000Z</time></trkpt>
        <trkpt lat="29.5681037" lon="103.4093065"><ele>866</ele><time>2026-08-18T05:39:18.000Z</time></trkpt>
        <trkpt lat="29.5680642" lon="103.4092074"><ele>858</ele><time>2026-08-18T05:39:30.000Z</time></trkpt>
        <trkpt lat="29.568017" lon="103.4091077"><ele>858</ele><time>2026-08-18T05:39:42.000Z</time></trkpt>
        <trkpt lat="29.5679681" lon="103.4090111"><ele>847</ele><time>2026-08-18T05:39:58.000Z</time></trkpt>
        <trkpt lat="29.5679193" lon="103.4089203"><ele>847</ele><time>2026-08-18T05:40:14.000Z</time></trkpt>
        <trkpt lat="29.5678772" lon="103.4088118"><ele>837</ele><time>2026-08-18T05:40:34.000Z</time></trkpt>
        <trkpt lat="29.5678616" lon="103.4087033"><ele>830</ele><time>2026-08-18T05:40:48.000Z</time></trkpt>
        <trkpt lat="29.5678148" lon="103.4086068"><ele>830</ele><time>2026-08-18T05:41:02.000Z</time></trkpt>
        <trkpt lat="29.5677668" lon="103.4085142"><ele>830</ele><time>2026-08-18T05:41:16.000Z</time></trkpt>
        <trkpt lat="29.5676947" lon="103.4084451"><ele>827</ele><time>2026-08-18T05:41:30.000Z</time></trkpt>
        <trkpt lat="29.5676177" lon="103.4084037"><ele>820</ele><time>2026-08-18T05:41:50.000Z</time></trkpt>
        <trkpt lat="29.567601" lon="103.4084868"><ele>831</ele><time>2026-08-18T05:42:26.000Z</time></trkpt>
        <trkpt lat="29.5675743" lon="103.4085979"><ele>831</ele><time>2026-08-18T05:42:38.000Z</time></trkpt>
        <trkpt lat="29.5674993" lon="103.4086556"><ele>831</ele><time>2026-08-18T05:42:50.000Z</time></trkpt>
        <trkpt lat="29.567406" lon="103.4086487"><ele>831</ele><time>2026-08-18T05:43:00.000Z</time></trkpt>
        <trkpt lat="29.5673159" lon="103.4086009"><ele>833</ele><time>2026-08-18T05:43:10.000Z</time></trkpt>
        <trkpt lat="29.5672277" lon="103.4085405"><ele>833</ele><time>2026-08-18T05:43:20.000Z</time></trkpt>
        <trkpt lat="29.567139" lon="103.4084866"><ele>833</ele><time>2026-08-18T05:43:32.000Z</time></trkpt>
        <trkpt lat="29.5670391" lon="103.4084726"><ele>830</ele><time>2026-08-18T05:43:48.000Z</time></trkpt>
        <trkpt lat="29.5669418" lon="103.4084726"><ele>830</ele><time>2026-08-18T05:43:58.000Z</time></trkpt>
        <trkpt lat="29.5668408" lon="103.4084858"><ele>830</ele><time>2026-08-18T05:44:08.000Z</time></trkpt>
        <trkpt lat="29.5667448" lon="103.4084951"><ele>830</ele><time>2026-08-18T05:44:18.000Z</time></trkpt>
        <trkpt lat="29.5666837" lon="103.4084283"><ele>820</ele><time>2026-08-18T05:44:34.000Z</time></trkpt>
        <trkpt lat="29.56665" lon="103.4083261"><ele>820</ele><time>2026-08-18T05:44:44.000Z</time></trkpt>
        <trkpt lat="29.5666621" lon="103.4082066"><ele>820</ele><time>2026-08-18T05:44:54.000Z</time></trkpt>
        <trkpt lat="29.5666834" lon="103.408089"><ele>814</ele><time>2026-08-18T05:45:04.000Z</time></trkpt>
        <trkpt lat="29.5666798" lon="103.4079708"><ele>814</ele><time>2026-08-18T05:45:14.000Z</time></trkpt>
        <trkpt lat="29.5666536" lon="103.4078643"><ele>815</ele><time>2026-08-18T05:45:24.000Z</time></trkpt>
        <trkpt lat="29.5666235" lon="103.4077565"><ele>815</ele><time>2026-08-18T05:45:34.000Z</time></trkpt>
        <trkpt lat="29.5665803" lon="103.4076587"><ele>815</ele><time>2026-08-18T05:45:44.000Z</time></trkpt>
        <trkpt lat="29.5665401" lon="103.4075594"><ele>814</ele><time>2026-08-18T05:45:54.000Z</time></trkpt>
        <trkpt lat="29.5665395" lon="103.407453"><ele>814</ele><time>2026-08-18T05:46:04.000Z</time></trkpt>
        <trkpt lat="29.5664994" lon="103.4073452"><ele>822</ele><time>2026-08-18T05:46:14.000Z</time></trkpt>
        <trkpt lat="29.5664558" lon="103.407247"><ele>822</ele><time>2026-08-18T05:46:26.000Z</time></trkpt>
        <trkpt lat="29.5664268" lon="103.4071441"><ele>822</ele><time>2026-08-18T05:46:38.000Z</time></trkpt>
        <trkpt lat="29.566411" lon="103.4070298"><ele>826</ele><time>2026-08-18T05:46:48.000Z</time></trkpt>
        <trkpt lat="29.5664187" lon="103.4069177"><ele>826</ele><time>2026-08-18T05:46:58.000Z</time></trkpt>
        <trkpt lat="29.566456" lon="103.4068107"><ele>826</ele><time>2026-08-18T05:47:08.000Z</time></trkpt>
        <trkpt lat="29.5665218" lon="103.4067319"><ele>829</ele><time>2026-08-18T05:47:18.000Z</time></trkpt>
        <trkpt lat="29.5666" lon="103.4066703"><ele>822</ele><time>2026-08-18T05:47:28.000Z</time></trkpt>
        <trkpt lat="29.566674" lon="103.4065933"><ele>822</ele><time>2026-08-18T05:47:40.000Z</time></trkpt>
        <trkpt lat="29.5667542" lon="103.4065342"><ele>822</ele><time>2026-08-18T05:47:50.000Z</time></trkpt>
        <trkpt lat="29.5668195" lon="103.4064581"><ele>799</ele><time>2026-08-18T05:48:00.000Z</time></trkpt>
        <trkpt lat="29.56688" lon="103.4063592"><ele>799</ele><time>2026-08-18T05:48:12.000Z</time></trkpt>
        <trkpt lat="29.566928" lon="103.4062505"><ele>799</ele><time>2026-08-18T05:48:24.000Z</time></trkpt>
        <trkpt lat="29.5669737" lon="103.4061528"><ele>795</ele><time>2026-08-18T05:48:34.000Z</time></trkpt>
        <trkpt lat="29.5670369" lon="103.4060593"><ele>795</ele><time>2026-08-18T05:48:46.000Z</time></trkpt>
        <trkpt lat="29.5671003" lon="103.4059651"><ele>793</ele><time>2026-08-18T05:48:58.000Z</time></trkpt>
        <trkpt lat="29.5671497" lon="103.4058671"><ele>793</ele><time>2026-08-18T05:49:10.000Z</time></trkpt>
        <trkpt lat="29.5671264" lon="103.4057716"><ele>793</ele><time>2026-08-18T05:49:24.000Z</time></trkpt>
        <trkpt lat="29.5670539" lon="103.4057071"><ele>795</ele><time>2026-08-18T05:49:34.000Z</time></trkpt>
        <trkpt lat="29.5669594" lon="103.4056448"><ele>798</ele><time>2026-08-18T05:49:46.000Z</time></trkpt>
        <trkpt lat="29.5668728" lon="103.405565"><ele>798</ele><time>2026-08-18T05:49:58.000Z</time></trkpt>
        <trkpt lat="29.566802" lon="103.4054839"><ele>807</ele><time>2026-08-18T05:50:08.000Z</time></trkpt>
        <trkpt lat="29.5667485" lon="103.4053939"><ele>814</ele><time>2026-08-18T05:50:18.000Z</time></trkpt>
        <trkpt lat="29.5667252" lon="103.4052904"><ele>814</ele><time>2026-08-18T05:50:28.000Z</time></trkpt>
        <trkpt lat="29.5667219" lon="103.4051718"><ele>814</ele><time>2026-08-18T05:50:38.000Z</time></trkpt>
        <trkpt lat="29.566772" lon="103.4050749"><ele>820</ele><time>2026-08-18T05:50:48.000Z</time></trkpt>
        <trkpt lat="29.5668673" lon="103.4050637"><ele>812</ele><time>2026-08-18T05:50:58.000Z</time></trkpt>
        <trkpt lat="29.5669701" lon="103.405086"><ele>812</ele><time>2026-08-18T05:51:08.000Z</time></trkpt>
        <trkpt lat="29.5670735" lon="103.4050843"><ele>812</ele><time>2026-08-18T05:51:18.000Z</time></trkpt>
        <trkpt lat="29.5671705" lon="103.4050714"><ele>793</ele><time>2026-08-18T05:51:28.000Z</time></trkpt>
        <trkpt lat="29.5672661" lon="103.4050634"><ele>793</ele><time>2026-08-18T05:51:38.000Z</time></trkpt>
        <trkpt lat="29.5673676" lon="103.4050547"><ele>779</ele><time>2026-08-18T05:51:48.000Z</time></trkpt>
        <trkpt lat="29.5674618" lon="103.4050391"><ele>779</ele><time>2026-08-18T05:51:58.000Z</time></trkpt>
        <trkpt lat="29.5675531" lon="103.4050305"><ele>779</ele><time>2026-08-18T05:52:08.000Z</time></trkpt>
        <trkpt lat="29.5676426" lon="103.4050519"><ele>778</ele><time>2026-08-18T05:52:18.000Z</time></trkpt>
        <trkpt lat="29.5677345" lon="103.4050674"><ele>778</ele><time>2026-08-18T05:52:28.000Z</time></trkpt>
        <trkpt lat="29.5678282" lon="103.4050616"><ele>778</ele><time>2026-08-18T05:52:38.000Z</time></trkpt>
        <trkpt lat="29.5679208" lon="103.4050267"><ele>775</ele><time>2026-08-18T05:52:48.000Z</time></trkpt>
        <trkpt lat="29.5680083" lon="103.4049624"><ele>775</ele><time>2026-08-18T05:52:58.000Z</time></trkpt>
        <trkpt lat="29.5680886" lon="103.4048888"><ele>775</ele><time>2026-08-18T05:53:08.000Z</time></trkpt>
        <trkpt lat="29.5681761" lon="103.40483"><ele>785</ele><time>2026-08-18T05:53:18.000Z</time></trkpt>
        <trkpt lat="29.5682638" lon="103.4047853"><ele>790</ele><time>2026-08-18T05:53:28.000Z</time></trkpt>
        <trkpt lat="29.5683375" lon="103.4047131"><ele>790</ele><time>2026-08-18T05:53:40.000Z</time></trkpt>
        <trkpt lat="29.568396" lon="103.4046166"><ele>790</ele><time>2026-08-18T05:53:52.000Z</time></trkpt>
        <trkpt lat="29.5684426" lon="103.4045173"><ele>797</ele><time>2026-08-18T05:54:02.000Z</time></trkpt>
        <trkpt lat="29.5684952" lon="103.404413"><ele>796</ele><time>2026-08-18T05:54:14.000Z</time></trkpt>
        <trkpt lat="29.5685421" lon="103.4043151"><ele>796</ele><time>2026-08-18T05:54:24.000Z</time></trkpt>
        <trkpt lat="29.5685805" lon="103.4042886"><ele>801</ele><time>2026-08-18T05:54:30.000Z</time></trkpt>
        <trkpt lat="29.5686204" lon="103.404218"><ele>801</ele><time>2026-08-18T05:54:56.000Z</time></trkpt>
        <trkpt lat="29.5686653" lon="103.404128"><ele>801</ele><time>2026-08-18T05:55:06.000Z</time></trkpt>
        <trkpt lat="29.5687197" lon="103.4040307"><ele>801</ele><time>2026-08-18T05:55:16.000Z</time></trkpt>
        <trkpt lat="29.5687799" lon="103.4039457"><ele>807</ele><time>2026-08-18T05:55:28.000Z</time></trkpt>
        <trkpt lat="29.5688657" lon="103.4039043"><ele>807</ele><time>2026-08-18T05:55:40.000Z</time></trkpt>
        <trkpt lat="29.5689585" lon="103.4039235"><ele>807</ele><time>2026-08-18T05:55:52.000Z</time></trkpt>
        <trkpt lat="29.5690546" lon="103.4039388"><ele>804</ele><time>2026-08-18T05:56:02.000Z</time></trkpt>
        <trkpt lat="29.5691583" lon="103.4039287"><ele>804</ele><time>2026-08-18T05:56:14.000Z</time></trkpt>
        <trkpt lat="29.5692529" lon="103.4038801"><ele>804</ele><time>2026-08-18T05:56:26.000Z</time></trkpt>
        <trkpt lat="29.5693433" lon="103.4038305"><ele>797</ele><time>2026-08-18T05:56:36.000Z</time></trkpt>
        <trkpt lat="29.5694385" lon="103.4037804"><ele>797</ele><time>2026-08-18T05:56:48.000Z</time></trkpt>
        <trkpt lat="29.5695271" lon="103.4037108"><ele>798</ele><time>2026-08-18T05:57:00.000Z</time></trkpt>
        <trkpt lat="29.5696088" lon="103.4036513"><ele>783</ele><time>2026-08-18T05:57:10.000Z</time></trkpt>
        <trkpt lat="29.5696888" lon="103.4035771"><ele>783</ele><time>2026-08-18T05:57:22.000Z</time></trkpt>
        <trkpt lat="29.5697503" lon="103.4034882"><ele>783</ele><time>2026-08-18T05:57:34.000Z</time></trkpt>
        <trkpt lat="29.5698127" lon="103.4034091"><ele>790</ele><time>2026-08-18T05:57:44.000Z</time></trkpt>
        <trkpt lat="29.56987" lon="103.403329"><ele>780</ele><time>2026-08-18T05:57:54.000Z</time></trkpt>
        <trkpt lat="29.5699259" lon="103.4032466"><ele>780</ele><time>2026-08-18T05:58:04.000Z</time></trkpt>
        <trkpt lat="29.569985" lon="103.4031612"><ele>797</ele><time>2026-08-18T05:58:14.000Z</time></trkpt>
        <trkpt lat="29.5700237" lon="103.4030659"><ele>797</ele><time>2026-08-18T05:58:24.000Z</time></trkpt>
        <trkpt lat="29.5700589" lon="103.4029576"><ele>797</ele><time>2026-08-18T05:58:36.000Z</time></trkpt>
        <trkpt lat="29.570116" lon="103.4028521"><ele>815</ele><time>2026-08-18T05:58:48.000Z</time></trkpt>
        <trkpt lat="29.5701964" lon="103.4027905"><ele>798</ele><time>2026-08-18T05:58:58.000Z</time></trkpt>
        <trkpt lat="29.5702924" lon="103.4027765"><ele>798</ele><time>2026-08-18T05:59:08.000Z</time></trkpt>
        <trkpt lat="29.5703949" lon="103.4027778"><ele>798</ele><time>2026-08-18T05:59:18.000Z</time></trkpt>
        <trkpt lat="29.5704916" lon="103.4027691"><ele>781</ele><time>2026-08-18T05:59:28.000Z</time></trkpt>
        <trkpt lat="29.5705856" lon="103.4027603"><ele>781</ele><time>2026-08-18T05:59:38.000Z</time></trkpt>
        <trkpt lat="29.5706766" lon="103.4027577"><ele>781</ele><time>2026-08-18T05:59:48.000Z</time></trkpt>
        <trkpt lat="29.5707635" lon="103.4027329"><ele>774</ele><time>2026-08-18T05:59:58.000Z</time></trkpt>
        <trkpt lat="29.5708607" lon="103.4026962"><ele>774</ele><time>2026-08-18T06:00:10.000Z</time></trkpt>
        <trkpt lat="29.5709498" lon="103.4026503"><ele>774</ele><time>2026-08-18T06:00:20.000Z</time></trkpt>
        <trkpt lat="29.5710322" lon="103.4025916"><ele>778</ele><time>2026-08-18T06:00:30.000Z</time></trkpt>
        <trkpt lat="29.5710966" lon="103.4025162"><ele>778</ele><time>2026-08-18T06:00:40.000Z</time></trkpt>
        <trkpt lat="29.5711629" lon="103.4024403"><ele>778</ele><time>2026-08-18T06:00:50.000Z</time></trkpt>
        <trkpt lat="29.5712198" lon="103.4023463"><ele>780</ele><time>2026-08-18T06:01:02.000Z</time></trkpt>
        <trkpt lat="29.571269" lon="103.4022411"><ele>778</ele><time>2026-08-18T06:01:14.000Z</time></trkpt>
        <trkpt lat="29.5713312" lon="103.4021413"><ele>778</ele><time>2026-08-18T06:01:24.000Z</time></trkpt>
        <trkpt lat="29.5714135" lon="103.4020627"><ele>779</ele><time>2026-08-18T06:01:34.000Z</time></trkpt>
        <trkpt lat="29.5714864" lon="103.4019739"><ele>779</ele><time>2026-08-18T06:01:46.000Z</time></trkpt>
        <trkpt lat="29.5715606" lon="103.4018882"><ele>778</ele><time>2026-08-18T06:01:58.000Z</time></trkpt>
        <trkpt lat="29.5716466" lon="103.4018557"><ele>778</ele><time>2026-08-18T06:02:08.000Z</time></trkpt>
        <trkpt lat="29.5717412" lon="103.4018514"><ele>778</ele><time>2026-08-18T06:02:22.000Z</time></trkpt>
        <trkpt lat="29.5718058" lon="103.4017834"><ele>774</ele><time>2026-08-18T06:02:36.000Z</time></trkpt>
        <trkpt lat="29.5718561" lon="103.4016883"><ele>774</ele><time>2026-08-18T06:02:56.000Z</time></trkpt>
        <trkpt lat="29.5719195" lon="103.4016043"><ele>774</ele><time>2026-08-18T06:03:14.000Z</time></trkpt>
        <trkpt lat="29.5720039" lon="103.4015378"><ele>774</ele><time>2026-08-18T06:03:26.000Z</time></trkpt>
        <trkpt lat="29.5720541" lon="103.4014478"><ele>774</ele><time>2026-08-18T06:03:38.000Z</time></trkpt>
        <trkpt lat="29.572042" lon="103.4013465"><ele>774</ele><time>2026-08-18T06:04:06.000Z</time></trkpt>
        <trkpt lat="29.5720169" lon="103.4012402"><ele>784</ele><time>2026-08-18T06:04:20.000Z</time></trkpt>
        <trkpt lat="29.5719768" lon="103.4011375"><ele>784</ele><time>2026-08-18T06:04:34.000Z</time></trkpt>
        <trkpt lat="29.5719958" lon="103.4010436"><ele>784</ele><time>2026-08-18T06:04:46.000Z</time></trkpt>
        <trkpt lat="29.5719895" lon="103.401183"><ele>784</ele><time>2026-08-18T06:06:08.000Z</time></trkpt>
        <trkpt lat="29.5719922" lon="103.4012682"><ele>774</ele><time>2026-08-18T06:06:14.000Z</time></trkpt>
        <trkpt lat="29.5720152" lon="103.4013683"><ele>774</ele><time>2026-08-18T06:07:04.000Z</time></trkpt>
        <trkpt lat="29.5720152" lon="103.4013683"><ele>774</ele><time>2026-08-18T06:08:09.000Z</time></trkpt>
        <trkpt lat="29.5720152" lon="103.4013683"><ele>774</ele><time>2026-08-18T06:08:11.000Z</time></trkpt>
        <trkpt lat="29.5720152" lon="103.4013683"><ele>774</ele><time>2026-08-18T06:08:43.000Z</time></trkpt>
        <trkpt lat="29.5720152" lon="103.4013683"><ele>774</ele><time>2026-08-18T06:10:31.000Z</time></trkpt>
        <trkpt lat="29.5720152" lon="103.4013683"><ele>774</ele><time>2026-08-18T06:11:03.000Z</time></trkpt>
        <trkpt lat="29.5720152" lon="103.4013683"><ele>774</ele><time>2026-08-18T06:12:20.000Z</time></trkpt>
        <trkpt lat="29.5720152" lon="103.4013683"><ele>774</ele><time>2026-08-18T06:12:58.000Z</time></trkpt>
        <trkpt lat="29.5720284" lon="103.401477"><ele>774</ele><time>2026-08-18T06:14:48.000Z</time></trkpt>
        <trkpt lat="29.5720284" lon="103.401477"><ele>774</ele><time>2026-08-18T06:15:01.000Z</time></trkpt>
        <trkpt lat="29.5719983" lon="103.4015748"><ele>774</ele><time>2026-08-18T06:15:15.000Z</time></trkpt>
        <trkpt lat="29.5719236" lon="103.401634"><ele>774</ele><time>2026-08-18T06:15:27.000Z</time></trkpt>
        <trkpt lat="29.5718491" lon="103.4016972"><ele>774</ele><time>2026-08-18T06:15:39.000Z</time></trkpt>
        <trkpt lat="29.5717908" lon="103.4017829"><ele>778</ele><time>2026-08-18T06:15:51.000Z</time></trkpt>
        <trkpt lat="29.5717432" lon="103.4018544"><ele>778</ele><time>2026-08-18T06:16:07.000Z</time></trkpt>
        <trkpt lat="29.5718106" lon="103.401873"><ele>772</ele><time>2026-08-18T06:16:33.000Z</time></trkpt>
        <trkpt lat="29.5719038" lon="103.4018387"><ele>772</ele><time>2026-08-18T06:16:43.000Z</time></trkpt>
        <trkpt lat="29.5719821" lon="103.4017573"><ele>774</ele><time>2026-08-18T06:16:53.000Z</time></trkpt>
        <trkpt lat="29.5720585" lon="103.401669"><ele>774</ele><time>2026-08-18T06:17:03.000Z</time></trkpt>
        <trkpt lat="29.5720945" lon="103.4016035"><ele>772</ele><time>2026-08-18T06:17:11.000Z</time></trkpt>
        <trkpt lat="29.5721615" lon="103.4015488"><ele>772</ele><time>2026-08-18T06:17:51.000Z</time></trkpt>
        <trkpt lat="29.5722015" lon="103.4014484"><ele>776</ele><time>2026-08-18T06:18:29.000Z</time></trkpt>
        <trkpt lat="29.5722384" lon="103.4013343"><ele>776</ele><time>2026-08-18T06:18:41.000Z</time></trkpt>
        <trkpt lat="29.5723032" lon="103.4012583"><ele>776</ele><time>2026-08-18T06:18:49.000Z</time></trkpt>
        <trkpt lat="29.572347" lon="103.4011587"><ele>782</ele><time>2026-08-18T06:18:59.000Z</time></trkpt>
        <trkpt lat="29.5723383" lon="103.4010669"><ele>782</ele><time>2026-08-18T06:19:09.000Z</time></trkpt>
        <trkpt lat="29.5722999" lon="103.4009655"><ele>795</ele><time>2026-08-18T06:19:47.000Z</time></trkpt>
        <trkpt lat="29.5722625" lon="103.4008574"><ele>795</ele><time>2026-08-18T06:19:59.000Z</time></trkpt>
        <trkpt lat="29.5722111" lon="103.4007555"><ele>795</ele><time>2026-08-18T06:20:11.000Z</time></trkpt>
        <trkpt lat="29.5722666" lon="103.4008287"><ele>795</ele><time>2026-08-18T06:21:17.000Z</time></trkpt>
        <trkpt lat="29.5723033" lon="103.4009252"><ele>795</ele><time>2026-08-18T06:21:27.000Z</time></trkpt>
        <trkpt lat="29.5723288" lon="103.401028"><ele>782</ele><time>2026-08-18T06:21:37.000Z</time></trkpt>
        <trkpt lat="29.572352" lon="103.4011288"><ele>782</ele><time>2026-08-18T06:21:47.000Z</time></trkpt>
        <trkpt lat="29.5723566" lon="103.4012353"><ele>782</ele><time>2026-08-18T06:21:59.000Z</time></trkpt>
        <trkpt lat="29.5723087" lon="103.4013232"><ele>776</ele><time>2026-08-18T06:22:11.000Z</time></trkpt>
        <trkpt lat="29.5722405" lon="103.4014066"><ele>776</ele><time>2026-08-18T06:22:25.000Z</time></trkpt>
        <trkpt lat="29.5722006" lon="103.4015152"><ele>776</ele><time>2026-08-18T06:22:37.000Z</time></trkpt>
        <trkpt lat="29.5721484" lon="103.4016109"><ele>772</ele><time>2026-08-18T06:22:47.000Z</time></trkpt>
        <trkpt lat="29.5720657" lon="103.4016123"><ele>774</ele><time>2026-08-18T06:22:57.000Z</time></trkpt>
        <trkpt lat="29.57211" lon="103.4016061"><ele>772</ele><time>2026-08-18T06:23:49.000Z</time></trkpt>
        <trkpt lat="29.5721663" lon="103.4015187"><ele>776</ele><time>2026-08-18T06:23:59.000Z</time></trkpt>
        <trkpt lat="29.5722176" lon="103.4014064"><ele>776</ele><time>2026-08-18T06:24:09.000Z</time></trkpt>
        <trkpt lat="29.5722848" lon="103.4012946"><ele>776</ele><time>2026-08-18T06:24:19.000Z</time></trkpt>
        <trkpt lat="29.5723401" lon="103.4011849"><ele>782</ele><time>2026-08-18T06:24:29.000Z</time></trkpt>
        <trkpt lat="29.5723425" lon="103.4010698"><ele>782</ele><time>2026-08-18T06:24:39.000Z</time></trkpt>
        <trkpt lat="29.572315" lon="103.4009657"><ele>795</ele><time>2026-08-18T06:24:47.000Z</time></trkpt>
        <trkpt lat="29.5722729" lon="103.4008531"><ele>795</ele><time>2026-08-18T06:24:57.000Z</time></trkpt>
        <trkpt lat="29.5722174" lon="103.4007542"><ele>795</ele><time>2026-08-18T06:25:07.000Z</time></trkpt>
        <trkpt lat="29.5721689" lon="103.4007405"><ele>795</ele><time>2026-08-18T06:25:21.000Z</time></trkpt>
        <trkpt lat="29.5721008" lon="103.400806"><ele>795</ele><time>2026-08-18T06:26:19.000Z</time></trkpt>
        <trkpt lat="29.5720109" lon="103.4008595"><ele>789</ele><time>2026-08-18T06:26:35.000Z</time></trkpt>
        <trkpt lat="29.5719272" lon="103.4008257"><ele>789</ele><time>2026-08-18T06:27:29.000Z</time></trkpt>
        <trkpt lat="29.5718906" lon="103.4007314"><ele>789</ele><time>2026-08-18T06:27:43.000Z</time></trkpt>
        <trkpt lat="29.571864" lon="103.4006209"><ele>800</ele><time>2026-08-18T06:28:07.000Z</time></trkpt>
        <trkpt lat="29.5718606" lon="103.4005058"><ele>800</ele><time>2026-08-18T06:28:29.000Z</time></trkpt>
        <trkpt lat="29.5718718" lon="103.4003905"><ele>806</ele><time>2026-08-18T06:28:53.000Z</time></trkpt>
        <trkpt lat="29.5718451" lon="103.4002885"><ele>806</ele><time>2026-08-18T06:29:17.000Z</time></trkpt>
        <trkpt lat="29.5718353" lon="103.4001856"><ele>806</ele><time>2026-08-18T06:29:41.000Z</time></trkpt>
        <trkpt lat="29.5718376" lon="103.4000751"><ele>817</ele><time>2026-08-18T06:30:13.000Z</time></trkpt>
        <trkpt lat="29.5718228" lon="103.3999658"><ele>817</ele><time>2026-08-18T06:30:43.000Z</time></trkpt>
        <trkpt lat="29.5718266" lon="103.3998581"><ele>820</ele><time>2026-08-18T06:31:15.000Z</time></trkpt>
        <trkpt lat="29.571839" lon="103.3997768"><ele>820</ele><time>2026-08-18T06:31:43.000Z</time></trkpt>
        <trkpt lat="29.571839" lon="103.3997768"><ele>820</ele><time>2026-08-18T06:32:45.000Z</time></trkpt>
        <trkpt lat="29.571839" lon="103.3997768"><ele>820</ele><time>2026-08-18T06:33:38.000Z</time></trkpt>
        <trkpt lat="29.571839" lon="103.3997768"><ele>820</ele><time>2026-08-18T06:35:02.000Z</time></trkpt>
        <trkpt lat="29.571839" lon="103.3997768"><ele>820</ele><time>2026-08-18T06:38:56.000Z</time></trkpt>
        <trkpt lat="29.571839" lon="103.3997768"><ele>820</ele><time>2026-08-18T06:39:30.000Z</time></trkpt>
        <trkpt lat="29.5718584" lon="103.3996776"><ele>820</ele><time>2026-08-18T06:42:43.000Z</time></trkpt>
        <trkpt lat="29.5718584" lon="103.3996776"><ele>820</ele><time>2026-08-18T06:43:05.000Z</time></trkpt>
        <trkpt lat="29.5718162" lon="103.399579"><ele>827</ele><time>2026-08-18T06:43:19.000Z</time></trkpt>
        <trkpt lat="29.5717951" lon="103.3995547"><ele>835</ele><time>2026-08-18T06:43:23.000Z</time></trkpt>
        <trkpt lat="29.5718005" lon="103.3994545"><ele>835</ele><time>2026-08-18T06:43:37.000Z</time></trkpt>
        <trkpt lat="29.5718157" lon="103.3993364"><ele>827</ele><time>2026-08-18T06:43:47.000Z</time></trkpt>
        <trkpt lat="29.5717796" lon="103.3992283"><ele>847</ele><time>2026-08-18T06:43:59.000Z</time></trkpt>
        <trkpt lat="29.5717226" lon="103.3991339"><ele>847</ele><time>2026-08-18T06:44:19.000Z</time></trkpt>
        <trkpt lat="29.5716743" lon="103.3990307"><ele>847</ele><time>2026-08-18T06:44:31.000Z</time></trkpt>
        <trkpt lat="29.5716335" lon="103.398912"><ele>847</ele><time>2026-08-18T06:44:43.000Z</time></trkpt>
        <trkpt lat="29.5716097" lon="103.3987927"><ele>847</ele><time>2026-08-18T06:44:55.000Z</time></trkpt>
        <trkpt lat="29.5715888" lon="103.3986677"><ele>851</ele><time>2026-08-18T06:45:05.000Z</time></trkpt>
        <trkpt lat="29.5715885" lon="103.3985537"><ele>851</ele><time>2026-08-18T06:45:15.000Z</time></trkpt>
        <trkpt lat="29.5715739" lon="103.3984465"><ele>852</ele><time>2026-08-18T06:45:27.000Z</time></trkpt>
        <trkpt lat="29.5715634" lon="103.3983355"><ele>852</ele><time>2026-08-18T06:45:41.000Z</time></trkpt>
        <trkpt lat="29.5715647" lon="103.3982134"><ele>852</ele><time>2026-08-18T06:45:53.000Z</time></trkpt>
        <trkpt lat="29.5715789" lon="103.3981001"><ele>844</ele><time>2026-08-18T06:46:03.000Z</time></trkpt>
        <trkpt lat="29.571581" lon="103.3979921"><ele>844</ele><time>2026-08-18T06:46:13.000Z</time></trkpt>
        <trkpt lat="29.5715397" lon="103.3978955"><ele>836</ele><time>2026-08-18T06:46:25.000Z</time></trkpt>
        <trkpt lat="29.5715031" lon="103.3977826"><ele>848</ele><time>2026-08-18T06:46:39.000Z</time></trkpt>
        <trkpt lat="29.5714629" lon="103.3976726"><ele>848</ele><time>2026-08-18T06:46:53.000Z</time></trkpt>
        <trkpt lat="29.5714432" lon="103.3975592"><ele>842</ele><time>2026-08-18T06:47:05.000Z</time></trkpt>
        <trkpt lat="29.5714341" lon="103.3974458"><ele>842</ele><time>2026-08-18T06:47:17.000Z</time></trkpt>
        <trkpt lat="29.5714759" lon="103.3973436"><ele>842</ele><time>2026-08-18T06:47:29.000Z</time></trkpt>
        <trkpt lat="29.5715282" lon="103.3972468"><ele>825</ele><time>2026-08-18T06:47:41.000Z</time></trkpt>
        <trkpt lat="29.5715582" lon="103.3971374"><ele>825</ele><time>2026-08-18T06:47:55.000Z</time></trkpt>
        <trkpt lat="29.5716204" lon="103.397054"><ele>823</ele><time>2026-08-18T06:48:07.000Z</time></trkpt>
        <trkpt lat="29.5716785" lon="103.3969641"><ele>823</ele><time>2026-08-18T06:48:21.000Z</time></trkpt>
        <trkpt lat="29.5717385" lon="103.3968708"><ele>823</ele><time>2026-08-18T06:48:31.000Z</time></trkpt>
        <trkpt lat="29.5718259" lon="103.3967952"><ele>798</ele><time>2026-08-18T06:48:45.000Z</time></trkpt>
        <trkpt lat="29.5719193" lon="103.3967639"><ele>798</ele><time>2026-08-18T06:48:57.000Z</time></trkpt>
        <trkpt lat="29.5720119" lon="103.3967384"><ele>798</ele><time>2026-08-18T06:49:07.000Z</time></trkpt>
        <trkpt lat="29.5721103" lon="103.3967129"><ele>775</ele><time>2026-08-18T06:49:15.000Z</time></trkpt>
        <trkpt lat="29.5722085" lon="103.3966943"><ele>775</ele><time>2026-08-18T06:49:29.000Z</time></trkpt>
        <trkpt lat="29.5723011" lon="103.3966857"><ele>775</ele><time>2026-08-18T06:49:45.000Z</time></trkpt>
        <trkpt lat="29.5723539" lon="103.3966045"><ele>775</ele><time>2026-08-18T06:49:55.000Z</time></trkpt>
        <trkpt lat="29.5723593" lon="103.3964893"><ele>778</ele><time>2026-08-18T06:50:09.000Z</time></trkpt>
        <trkpt lat="29.572351" lon="103.3963751"><ele>778</ele><time>2026-08-18T06:50:17.000Z</time></trkpt>
        <trkpt lat="29.5723957" lon="103.3962812"><ele>768</ele><time>2026-08-18T06:50:27.000Z</time></trkpt>
        <trkpt lat="29.5723982" lon="103.396173"><ele>768</ele><time>2026-08-18T06:50:39.000Z</time></trkpt>
        <trkpt lat="29.5724244" lon="103.3960532"><ele>768</ele><time>2026-08-18T06:50:55.000Z</time></trkpt>
        <trkpt lat="29.5724836" lon="103.3959615"><ele>771</ele><time>2026-08-18T06:51:03.000Z</time></trkpt>
        <trkpt lat="29.5725651" lon="103.3958893"><ele>771</ele><time>2026-08-18T06:51:17.000Z</time></trkpt>
        <trkpt lat="29.5726551" lon="103.3958452"><ele>768</ele><time>2026-08-18T06:51:25.000Z</time></trkpt>
        <trkpt lat="29.5727408" lon="103.3957977"><ele>768</ele><time>2026-08-18T06:51:35.000Z</time></trkpt>
        <trkpt lat="29.572815" lon="103.3957094"><ele>768</ele><time>2026-08-18T06:51:45.000Z</time></trkpt>
        <trkpt lat="29.5728629" lon="103.3956048"><ele>770</ele><time>2026-08-18T06:51:53.000Z</time></trkpt>
        <trkpt lat="29.57291" lon="103.3954975"><ele>770</ele><time>2026-08-18T06:52:01.000Z</time></trkpt>
        <trkpt lat="29.5729539" lon="103.3953987"><ele>763</ele><time>2026-08-18T06:52:09.000Z</time></trkpt>
        <trkpt lat="29.5730155" lon="103.3953123"><ele>763</ele><time>2026-08-18T06:52:17.000Z</time></trkpt>
        <trkpt lat="29.5730156" lon="103.395197"><ele>763</ele><time>2026-08-18T06:52:27.000Z</time></trkpt>
        <trkpt lat="29.5729713" lon="103.3950953"><ele>757</ele><time>2026-08-18T06:52:35.000Z</time></trkpt>
        <trkpt lat="29.5729099" lon="103.3949889"><ele>770</ele><time>2026-08-18T06:52:47.000Z</time></trkpt>
        <trkpt lat="29.5729128" lon="103.3948842"><ele>770</ele><time>2026-08-18T06:53:03.000Z</time></trkpt>
        <trkpt lat="29.5728786" lon="103.3947815"><ele>766</ele><time>2026-08-18T06:53:19.000Z</time></trkpt>
        <trkpt lat="29.572839" lon="103.3946784"><ele>766</ele><time>2026-08-18T06:53:31.000Z</time></trkpt>
        <trkpt lat="29.5727502" lon="103.3946183"><ele>766</ele><time>2026-08-18T06:53:41.000Z</time></trkpt>
        <trkpt lat="29.5727136" lon="103.3945223"><ele>762</ele><time>2026-08-18T06:53:53.000Z</time></trkpt>
        <trkpt lat="29.5727418" lon="103.3944181"><ele>762</ele><time>2026-08-18T06:54:07.000Z</time></trkpt>
        <trkpt lat="29.57279" lon="103.3943196"><ele>762</ele><time>2026-08-18T06:54:19.000Z</time></trkpt>
        <trkpt lat="29.5728494" lon="103.3942323"><ele>758</ele><time>2026-08-18T06:54:31.000Z</time></trkpt>
        <trkpt lat="29.5728886" lon="103.3941352"><ele>758</ele><time>2026-08-18T06:54:41.000Z</time></trkpt>
        <trkpt lat="29.5729369" lon="103.3940185"><ele>750</ele><time>2026-08-18T06:54:53.000Z</time></trkpt>
        <trkpt lat="29.5729787" lon="103.3939151"><ele>750</ele><time>2026-08-18T06:55:03.000Z</time></trkpt>
        <trkpt lat="29.5730214" lon="103.3938155"><ele>750</ele><time>2026-08-18T06:55:13.000Z</time></trkpt>
        <trkpt lat="29.5730888" lon="103.393721"><ele>735</ele><time>2026-08-18T06:55:25.000Z</time></trkpt>
        <trkpt lat="29.5731905" lon="103.3936969"><ele>735</ele><time>2026-08-18T06:55:35.000Z</time></trkpt>
        <trkpt lat="29.5732947" lon="103.3937166"><ele>721</ele><time>2026-08-18T06:55:45.000Z</time></trkpt>
        <trkpt lat="29.5733656" lon="103.3936558"><ele>721</ele><time>2026-08-18T06:55:57.000Z</time></trkpt>
        <trkpt lat="29.5734419" lon="103.3935868"><ele>721</ele><time>2026-08-18T06:56:05.000Z</time></trkpt>
        <trkpt lat="29.5735339" lon="103.3935369"><ele>719</ele><time>2026-08-18T06:56:17.000Z</time></trkpt>
        <trkpt lat="29.5736273" lon="103.3934789"><ele>719</ele><time>2026-08-18T06:56:27.000Z</time></trkpt>
        <trkpt lat="29.5737152" lon="103.3934193"><ele>724</ele><time>2026-08-18T06:56:37.000Z</time></trkpt>
        <trkpt lat="29.5738017" lon="103.3933767"><ele>726</ele><time>2026-08-18T06:56:45.000Z</time></trkpt>
        <trkpt lat="29.5738908" lon="103.393313"><ele>726</ele><time>2026-08-18T06:56:55.000Z</time></trkpt>
        <trkpt lat="29.5739533" lon="103.3932114"><ele>726</ele><time>2026-08-18T06:57:05.000Z</time></trkpt>
        <trkpt lat="29.5740025" lon="103.3931065"><ele>732</ele><time>2026-08-18T06:57:15.000Z</time></trkpt>
        <trkpt lat="29.5740325" lon="103.3930001"><ele>727</ele><time>2026-08-18T06:57:25.000Z</time></trkpt>
        <trkpt lat="29.5740473" lon="103.3928841"><ele>728</ele><time>2026-08-18T06:57:37.000Z</time></trkpt>
        <trkpt lat="29.5740658" lon="103.3927725"><ele>728</ele><time>2026-08-18T06:57:51.000Z</time></trkpt>
        <trkpt lat="29.5740658" lon="103.3926645"><ele>728</ele><time>2026-08-18T06:58:11.000Z</time></trkpt>
        <trkpt lat="29.5740622" lon="103.3925539"><ele>722</ele><time>2026-08-18T06:58:23.000Z</time></trkpt>
        <trkpt lat="29.5740251" lon="103.3924448"><ele>736</ele><time>2026-08-18T06:58:35.000Z</time></trkpt>
        <trkpt lat="29.5740872" lon="103.3923993"><ele>722</ele><time>2026-08-18T06:58:49.000Z</time></trkpt>
        <trkpt lat="29.5741683" lon="103.3923389"><ele>721</ele><time>2026-08-18T06:59:01.000Z</time></trkpt>
        <trkpt lat="29.5742593" lon="103.3922833"><ele>721</ele><time>2026-08-18T06:59:47.000Z</time></trkpt>
        <trkpt lat="29.5742353" lon="103.3921983"><ele>721</ele><time>2026-08-18T07:00:03.000Z</time></trkpt>
        <trkpt lat="29.5741789" lon="103.3921108"><ele>721</ele><time>2026-08-18T07:00:11.000Z</time></trkpt>
        <trkpt lat="29.5741934" lon="103.3921685"><ele>721</ele><time>2026-08-18T07:00:57.000Z</time></trkpt>
        <trkpt lat="29.5742717" lon="103.3921631"><ele>721</ele><time>2026-08-18T07:01:13.000Z</time></trkpt>
        <trkpt lat="29.5743536" lon="103.39213"><ele>711</ele><time>2026-08-18T07:01:25.000Z</time></trkpt>
        <trkpt lat="29.5744502" lon="103.3921045"><ele>711</ele><time>2026-08-18T07:01:49.000Z</time></trkpt>
        <trkpt lat="29.5745531" lon="103.3921011"><ele>711</ele><time>2026-08-18T07:02:21.000Z</time></trkpt>
        <trkpt lat="29.574654" lon="103.3920942"><ele>708</ele><time>2026-08-18T07:02:37.000Z</time></trkpt>
        <trkpt lat="29.5747547" lon="103.3920961"><ele>708</ele><time>2026-08-18T07:02:55.000Z</time></trkpt>
        <trkpt lat="29.5748471" lon="103.3920731"><ele>714</ele><time>2026-08-18T07:03:11.000Z</time></trkpt>
        <trkpt lat="29.5749381" lon="103.3920467"><ele>715</ele><time>2026-08-18T07:03:25.000Z</time></trkpt>
        <trkpt lat="29.575028" lon="103.3920252"><ele>715</ele><time>2026-08-18T07:03:47.000Z</time></trkpt>
        <trkpt lat="29.5751225" lon="103.3920112"><ele>715</ele><time>2026-08-18T07:04:05.000Z</time></trkpt>
        <trkpt lat="29.5752054" lon="103.3919418"><ele>712</ele><time>2026-08-18T07:04:21.000Z</time></trkpt>
        <trkpt lat="29.5752864" lon="103.3918832"><ele>712</ele><time>2026-08-18T07:04:37.000Z</time></trkpt>
        <trkpt lat="29.5753759" lon="103.3918424"><ele>712</ele><time>2026-08-18T07:04:57.000Z</time></trkpt>
        <trkpt lat="29.5754742" lon="103.3918429"><ele>715</ele><time>2026-08-18T07:05:23.000Z</time></trkpt>
        <trkpt lat="29.5755677" lon="103.3918746"><ele>715</ele><time>2026-08-18T07:05:47.000Z</time></trkpt>
        <trkpt lat="29.5756607" lon="103.3918856"><ele>715</ele><time>2026-08-18T07:06:13.000Z</time></trkpt>
        <trkpt lat="29.5757524" lon="103.3919004"><ele>715</ele><time>2026-08-18T07:06:35.000Z</time></trkpt>
        <trkpt lat="29.5758421" lon="103.3918614"><ele>715</ele><time>2026-08-18T07:07:09.000Z</time></trkpt>
        <trkpt lat="29.5759341" lon="103.3918501"><ele>715</ele><time>2026-08-18T07:07:25.000Z</time></trkpt>
        <trkpt lat="29.5760135" lon="103.3918939"><ele>727</ele><time>2026-08-18T07:07:37.000Z</time></trkpt>
        <trkpt lat="29.5760923" lon="103.3919119"><ele>727</ele><time>2026-08-18T07:07:51.000Z</time></trkpt>
        <trkpt lat="29.5761835" lon="103.3919314"><ele>727</ele><time>2026-08-18T07:08:09.000Z</time></trkpt>
        <trkpt lat="29.5762793" lon="103.3919487"><ele>736</ele><time>2026-08-18T07:08:29.000Z</time></trkpt>
        <trkpt lat="29.5763796" lon="103.3919554"><ele>736</ele><time>2026-08-18T07:08:55.000Z</time></trkpt>
        <trkpt lat="29.5763796" lon="103.3919554"><ele>736</ele><time>2026-08-18T07:09:42.000Z</time></trkpt>
        <trkpt lat="29.5764752" lon="103.3919399"><ele>736</ele><time>2026-08-18T07:11:59.000Z</time></trkpt>
        <trkpt lat="29.5764752" lon="103.3919399"><ele>736</ele><time>2026-08-18T07:12:17.000Z</time></trkpt>
        <trkpt lat="29.5765791" lon="103.3919185"><ele>757</ele><time>2026-08-18T07:12:31.000Z</time></trkpt>
        <trkpt lat="29.5766685" lon="103.3918736"><ele>757</ele><time>2026-08-18T07:12:45.000Z</time></trkpt>
        <trkpt lat="29.5767458" lon="103.3918056"><ele>757</ele><time>2026-08-18T07:12:59.000Z</time></trkpt>
        <trkpt lat="29.576793" lon="103.3917085"><ele>761</ele><time>2026-08-18T07:13:11.000Z</time></trkpt>
        <trkpt lat="29.57683" lon="103.3916089"><ele>781</ele><time>2026-08-18T07:13:25.000Z</time></trkpt>
        <trkpt lat="29.5768697" lon="103.3915025"><ele>778</ele><time>2026-08-18T07:13:39.000Z</time></trkpt>
        <trkpt lat="29.5769126" lon="103.3913946"><ele>778</ele><time>2026-08-18T07:13:53.000Z</time></trkpt>
        <trkpt lat="29.5769669" lon="103.3912932"><ele>778</ele><time>2026-08-18T07:14:07.000Z</time></trkpt>
        <trkpt lat="29.5770276" lon="103.3911987"><ele>787</ele><time>2026-08-18T07:14:23.000Z</time></trkpt>
        <trkpt lat="29.5770845" lon="103.3911122"><ele>794</ele><time>2026-08-18T07:14:37.000Z</time></trkpt>
        <trkpt lat="29.5771415" lon="103.3910283"><ele>794</ele><time>2026-08-18T07:14:49.000Z</time></trkpt>
        <trkpt lat="29.5772062" lon="103.3909479"><ele>794</ele><time>2026-08-18T07:15:03.000Z</time></trkpt>
        <trkpt lat="29.5772987" lon="103.3909283"><ele>794</ele><time>2026-08-18T07:15:15.000Z</time></trkpt>
        <trkpt lat="29.5773946" lon="103.3909529"><ele>802</ele><time>2026-08-18T07:15:29.000Z</time></trkpt>
        <trkpt lat="29.5774867" lon="103.3909924"><ele>803</ele><time>2026-08-18T07:15:45.000Z</time></trkpt>
        <trkpt lat="29.5775852" lon="103.3910283"><ele>803</ele><time>2026-08-18T07:16:01.000Z</time></trkpt>
        <trkpt lat="29.5776797" lon="103.3910532"><ele>811</ele><time>2026-08-18T07:16:13.000Z</time></trkpt>
        <trkpt lat="29.5777684" lon="103.3910983"><ele>811</ele><time>2026-08-18T07:16:29.000Z</time></trkpt>
        <trkpt lat="29.5778636" lon="103.3911162"><ele>811</ele><time>2026-08-18T07:16:53.000Z</time></trkpt>
        <trkpt lat="29.5779172" lon="103.391041"><ele>818</ele><time>2026-08-18T07:17:07.000Z</time></trkpt>
        <trkpt lat="29.5779501" lon="103.3909316"><ele>819</ele><time>2026-08-18T07:17:19.000Z</time></trkpt>
        <trkpt lat="29.5779897" lon="103.3908269"><ele>819</ele><time>2026-08-18T07:17:29.000Z</time></trkpt>
        <trkpt lat="29.5780467" lon="103.3907387"><ele>819</ele><time>2026-08-18T07:17:39.000Z</time></trkpt>
        <trkpt lat="29.578102" lon="103.3906518"><ele>814</ele><time>2026-08-18T07:17:49.000Z</time></trkpt>
        <trkpt lat="29.5781527" lon="103.3905552"><ele>814</ele><time>2026-08-18T07:17:59.000Z</time></trkpt>
        <trkpt lat="29.5782025" lon="103.3904523"><ele>832</ele><time>2026-08-18T07:18:09.000Z</time></trkpt>
        <trkpt lat="29.5782521" lon="103.3903574"><ele>824</ele><time>2026-08-18T07:18:19.000Z</time></trkpt>
        <trkpt lat="29.5783014" lon="103.3902657"><ele>824</ele><time>2026-08-18T07:18:29.000Z</time></trkpt>
        <trkpt lat="29.5783422" lon="103.390172"><ele>824</ele><time>2026-08-18T07:18:39.000Z</time></trkpt>
        <trkpt lat="29.5783873" lon="103.3900761"><ele>818</ele><time>2026-08-18T07:18:51.000Z</time></trkpt>
        <trkpt lat="29.5784285" lon="103.3899816"><ele>818</ele><time>2026-08-18T07:19:03.000Z</time></trkpt>
        <trkpt lat="29.5784703" lon="103.3898756"><ele>818</ele><time>2026-08-18T07:19:15.000Z</time></trkpt>
        <trkpt lat="29.578488" lon="103.38976"><ele>849</ele><time>2026-08-18T07:19:27.000Z</time></trkpt>
        <trkpt lat="29.5785078" lon="103.3896445"><ele>849</ele><time>2026-08-18T07:19:43.000Z</time></trkpt>
        <trkpt lat="29.5785014" lon="103.3895293"><ele>842</ele><time>2026-08-18T07:19:55.000Z</time></trkpt>
        <trkpt lat="29.5784926" lon="103.3894143"><ele>842</ele><time>2026-08-18T07:20:09.000Z</time></trkpt>
        <trkpt lat="29.5784652" lon="103.3893083"><ele>822</ele><time>2026-08-18T07:20:19.000Z</time></trkpt>
        <trkpt lat="29.5783822" lon="103.3892612"><ele>825</ele><time>2026-08-18T07:20:29.000Z</time></trkpt>
        <trkpt lat="29.5783276" lon="103.3891783"><ele>825</ele><time>2026-08-18T07:20:41.000Z</time></trkpt>
        <trkpt lat="29.578331" lon="103.3890796"><ele>825</ele><time>2026-08-18T07:20:55.000Z</time></trkpt>
        <trkpt lat="29.5783581" lon="103.3889651"><ele>828</ele><time>2026-08-18T07:21:11.000Z</time></trkpt>
        <trkpt lat="29.5784098" lon="103.388859"><ele>828</ele><time>2026-08-18T07:21:23.000Z</time></trkpt>
        <trkpt lat="29.5785029" lon="103.3888024"><ele>832</ele><time>2026-08-18T07:21:35.000Z</time></trkpt>
        <trkpt lat="29.5786085" lon="103.3888056"><ele>832</ele><time>2026-08-18T07:21:47.000Z</time></trkpt>
        <trkpt lat="29.5787157" lon="103.3888129"><ele>832</ele><time>2026-08-18T07:21:57.000Z</time></trkpt>
        <trkpt lat="29.5788104" lon="103.3887845"><ele>835</ele><time>2026-08-18T07:22:07.000Z</time></trkpt>
        <trkpt lat="29.5788903" lon="103.3887175"><ele>837</ele><time>2026-08-18T07:22:17.000Z</time></trkpt>
        <trkpt lat="29.5789651" lon="103.3886451"><ele>837</ele><time>2026-08-18T07:22:31.000Z</time></trkpt>
        <trkpt lat="29.5790048" lon="103.3885498"><ele>837</ele><time>2026-08-18T07:22:45.000Z</time></trkpt>
        <trkpt lat="29.5789907" lon="103.3884315"><ele>842</ele><time>2026-08-18T07:22:57.000Z</time></trkpt>
        <trkpt lat="29.5789669" lon="103.3883079"><ele>842</ele><time>2026-08-18T07:23:11.000Z</time></trkpt>
        <trkpt lat="29.5789763" lon="103.3881933"><ele>845</ele><time>2026-08-18T07:23:25.000Z</time></trkpt>
        <trkpt lat="29.5790025" lon="103.3880868"><ele>845</ele><time>2026-08-18T07:23:47.000Z</time></trkpt>
        <trkpt lat="29.5789873" lon="103.3879848"><ele>845</ele><time>2026-08-18T07:24:03.000Z</time></trkpt>
        <trkpt lat="29.578959" lon="103.3878822"><ele>838</ele><time>2026-08-18T07:24:21.000Z</time></trkpt>
        <trkpt lat="29.5789407" lon="103.3877664"><ele>838</ele><time>2026-08-18T07:24:37.000Z</time></trkpt>
        <trkpt lat="29.5789266" lon="103.3876553"><ele>838</ele><time>2026-08-18T07:24:47.000Z</time></trkpt>
        <trkpt lat="29.5789123" lon="103.3875336"><ele>814</ele><time>2026-08-18T07:24:59.000Z</time></trkpt>
        <trkpt lat="29.5789175" lon="103.3874169"><ele>814</ele><time>2026-08-18T07:25:09.000Z</time></trkpt>
        <trkpt lat="29.578923" lon="103.3872992"><ele>815</ele><time>2026-08-18T07:25:21.000Z</time></trkpt>
        <trkpt lat="29.5789307" lon="103.3871877"><ele>815</ele><time>2026-08-18T07:25:35.000Z</time></trkpt>
        <trkpt lat="29.5789778" lon="103.3871008"><ele>815</ele><time>2026-08-18T07:25:45.000Z</time></trkpt>
        <trkpt lat="29.5790424" lon="103.3870239"><ele>872</ele><time>2026-08-18T07:26:03.000Z</time></trkpt>
        <trkpt lat="29.5791091" lon="103.386943"><ele>872</ele><time>2026-08-18T07:26:23.000Z</time></trkpt>
        <trkpt lat="29.5791738" lon="103.3868633"><ele>872</ele><time>2026-08-18T07:26:43.000Z</time></trkpt>
        <trkpt lat="29.5792473" lon="103.386797"><ele>886</ele><time>2026-08-18T07:27:03.000Z</time></trkpt>
        <trkpt lat="29.5793229" lon="103.3867325"><ele>889</ele><time>2026-08-18T07:27:25.000Z</time></trkpt>
        <trkpt lat="29.579353" lon="103.3866382"><ele>889</ele><time>2026-08-18T07:27:49.000Z</time></trkpt>
        <trkpt lat="29.5793497" lon="103.3865263"><ele>892</ele><time>2026-08-18T07:28:07.000Z</time></trkpt>
        <trkpt lat="29.5793705" lon="103.3864218"><ele>892</ele><time>2026-08-18T07:28:29.000Z</time></trkpt>
        <trkpt lat="29.5793926" lon="103.3863166"><ele>892</ele><time>2026-08-18T07:28:53.000Z</time></trkpt>
        <trkpt lat="29.5793783" lon="103.3862089"><ele>894</ele><time>2026-08-18T07:29:11.000Z</time></trkpt>
        <trkpt lat="29.5793849" lon="103.3861021"><ele>894</ele><time>2026-08-18T07:29:31.000Z</time></trkpt>
        <trkpt lat="29.5793852" lon="103.3859974"><ele>894</ele><time>2026-08-18T07:29:57.000Z</time></trkpt>
        <trkpt lat="29.5794271" lon="103.3858953"><ele>895</ele><time>2026-08-18T07:30:09.000Z</time></trkpt>
        <trkpt lat="29.5795028" lon="103.38583"><ele>895</ele><time>2026-08-18T07:30:25.000Z</time></trkpt>
        <trkpt lat="29.5795765" lon="103.3857477"><ele>895</ele><time>2026-08-18T07:30:43.000Z</time></trkpt>
        <trkpt lat="29.5796342" lon="103.3856589"><ele>905</ele><time>2026-08-18T07:31:03.000Z</time></trkpt>
        <trkpt lat="29.5796804" lon="103.3855571"><ele>905</ele><time>2026-08-18T07:31:25.000Z</time></trkpt>
        <trkpt lat="29.5797444" lon="103.3854808"><ele>905</ele><time>2026-08-18T07:31:55.000Z</time></trkpt>
        <trkpt lat="29.5798084" lon="103.3854065"><ele>918</ele><time>2026-08-18T07:32:17.000Z</time></trkpt>
        <trkpt lat="29.5798779" lon="103.3853365"><ele>928</ele><time>2026-08-18T07:32:35.000Z</time></trkpt>
        <trkpt lat="29.579965" lon="103.3853035"><ele>928</ele><time>2026-08-18T07:32:57.000Z</time></trkpt>
        <trkpt lat="29.5800436" lon="103.3852404"><ele>928</ele><time>2026-08-18T07:33:23.000Z</time></trkpt>
        <trkpt lat="29.580115" lon="103.3851694"><ele>928</ele><time>2026-08-18T07:33:33.000Z</time></trkpt>
        <trkpt lat="29.5801618" lon="103.3850746"><ele>942</ele><time>2026-08-18T07:33:41.000Z</time></trkpt>
        <trkpt lat="29.5802239" lon="103.3849801"><ele>942</ele><time>2026-08-18T07:33:51.000Z</time></trkpt>
        <trkpt lat="29.5802992" lon="103.3848915"><ele>942</ele><time>2026-08-18T07:34:03.000Z</time></trkpt>
        <trkpt lat="29.5803664" lon="103.3848056"><ele>934</ele><time>2026-08-18T07:34:19.000Z</time></trkpt>
        <trkpt lat="29.5804275" lon="103.3847219"><ele>943</ele><time>2026-08-18T07:34:33.000Z</time></trkpt>
        <trkpt lat="29.5804878" lon="103.3846342"><ele>943</ele><time>2026-08-18T07:34:45.000Z</time></trkpt>
        <trkpt lat="29.5805454" lon="103.3845418"><ele>946</ele><time>2026-08-18T07:34:59.000Z</time></trkpt>
        <trkpt lat="29.5805863" lon="103.3844449"><ele>946</ele><time>2026-08-18T07:35:19.000Z</time></trkpt>
        <trkpt lat="29.5806576" lon="103.3843795"><ele>946</ele><time>2026-08-18T07:35:39.000Z</time></trkpt>
        <trkpt lat="29.580732" lon="103.384318"><ele>960</ele><time>2026-08-18T07:36:03.000Z</time></trkpt>
        <trkpt lat="29.5808199" lon="103.384271"><ele>956</ele><time>2026-08-18T07:36:21.000Z</time></trkpt>
        <trkpt lat="29.5808894" lon="103.3841941"><ele>956</ele><time>2026-08-18T07:36:49.000Z</time></trkpt>
        <trkpt lat="29.580976" lon="103.3841481"><ele>973</ele><time>2026-08-18T07:37:03.000Z</time></trkpt>
        <trkpt lat="29.5810578" lon="103.3841807"><ele>973</ele><time>2026-08-18T07:37:21.000Z</time></trkpt>
        <trkpt lat="29.5811362" lon="103.3842481"><ele>973</ele><time>2026-08-18T07:38:07.000Z</time></trkpt>
        <trkpt lat="29.5812212" lon="103.3842971"><ele>973</ele><time>2026-08-18T07:38:47.000Z</time></trkpt>
        <trkpt lat="29.5813159" lon="103.3843351"><ele>975</ele><time>2026-08-18T07:39:31.000Z</time></trkpt>
        <trkpt lat="29.5814073" lon="103.3843076"><ele>975</ele><time>2026-08-18T07:39:49.000Z</time></trkpt>
        <trkpt lat="29.5815019" lon="103.3842902"><ele>973</ele><time>2026-08-18T07:40:07.000Z</time></trkpt>
        <trkpt lat="29.5815963" lon="103.3842868"><ele>969</ele><time>2026-08-18T07:40:39.000Z</time></trkpt>
        <trkpt lat="29.5816957" lon="103.3842863"><ele>969</ele><time>2026-08-18T07:41:33.000Z</time></trkpt>
        <trkpt lat="29.5816957" lon="103.3842863"><ele>969</ele><time>2026-08-18T07:42:29.000Z</time></trkpt>
        <trkpt lat="29.5816957" lon="103.3842863"><ele>969</ele><time>2026-08-18T07:42:37.000Z</time></trkpt>
        <trkpt lat="29.5816957" lon="103.3842863"><ele>969</ele><time>2026-08-18T07:43:14.000Z</time></trkpt>
        <trkpt lat="29.5816957" lon="103.3842863"><ele>969</ele><time>2026-08-18T07:45:43.000Z</time></trkpt>
        <trkpt lat="29.5816957" lon="103.3842863"><ele>969</ele><time>2026-08-18T07:46:17.000Z</time></trkpt>
        <trkpt lat="29.5816957" lon="103.3842863"><ele>969</ele><time>2026-08-18T07:47:09.000Z</time></trkpt>
        <trkpt lat="29.5816957" lon="103.3842863"><ele>969</ele><time>2026-08-18T07:47:41.000Z</time></trkpt>
        <trkpt lat="29.5816112" lon="103.3842555"><ele>969</ele><time>2026-08-18T07:49:15.000Z</time></trkpt>
        <trkpt lat="29.5816112" lon="103.3842555"><ele>969</ele><time>2026-08-18T07:49:51.000Z</time></trkpt>
        <trkpt lat="29.5815555" lon="103.3841626"><ele>969</ele><time>2026-08-18T07:50:11.000Z</time></trkpt>
        <trkpt lat="29.5814908" lon="103.3840821"><ele>973</ele><time>2026-08-18T07:50:41.000Z</time></trkpt>
        <trkpt lat="29.5814539" lon="103.3839834"><ele>974</ele><time>2026-08-18T07:50:59.000Z</time></trkpt>
        <trkpt lat="29.581424" lon="103.3838811"><ele>974</ele><time>2026-08-18T07:51:21.000Z</time></trkpt>
        <trkpt lat="29.5813966" lon="103.38378"><ele>974</ele><time>2026-08-18T07:51:43.000Z</time></trkpt>
        <trkpt lat="29.5813602" lon="103.3836752"><ele>971</ele><time>2026-08-18T07:52:01.000Z</time></trkpt>
        <trkpt lat="29.5814058" lon="103.3837006"><ele>971</ele><time>2026-08-18T07:52:45.000Z</time></trkpt>
        <trkpt lat="29.5814938" lon="103.3836869"><ele>971</ele><time>2026-08-18T07:52:57.000Z</time></trkpt>
        <trkpt lat="29.5815807" lon="103.3836371"><ele>973</ele><time>2026-08-18T07:53:25.000Z</time></trkpt>
        <trkpt lat="29.5816498" lon="103.3835461"><ele>973</ele><time>2026-08-18T07:53:37.000Z</time></trkpt>
        <trkpt lat="29.5817329" lon="103.3834805"><ele>973</ele><time>2026-08-18T07:53:55.000Z</time></trkpt>
        <trkpt lat="29.5817866" lon="103.3833839"><ele>982</ele><time>2026-08-18T07:54:15.000Z</time></trkpt>
        <trkpt lat="29.5818504" lon="103.3833027"><ele>979</ele><time>2026-08-18T07:54:35.000Z</time></trkpt>
        <trkpt lat="29.5819164" lon="103.3832275"><ele>979</ele><time>2026-08-18T07:54:47.000Z</time></trkpt>
        <trkpt lat="29.581945" lon="103.38318"><ele>991</ele><time>2026-08-18T07:54:55.000Z</time></trkpt>
        <trkpt lat="29.5818958" lon="103.3831167"><ele>991</ele><time>2026-08-18T07:55:05.000Z</time></trkpt>
        <trkpt lat="29.5818645" lon="103.3830174"><ele>991</ele><time>2026-08-18T07:55:25.000Z</time></trkpt>
        <trkpt lat="29.5818223" lon="103.3829148"><ele>1002</ele><time>2026-08-18T07:55:39.000Z</time></trkpt>
        <trkpt lat="29.5818292" lon="103.3828005"><ele>1002</ele><time>2026-08-18T07:56:09.000Z</time></trkpt>
        <trkpt lat="29.5818521" lon="103.3827197"><ele>1002</ele><time>2026-08-18T07:56:21.000Z</time></trkpt>
        <trkpt lat="29.5819033" lon="103.3826265"><ele>1008</ele><time>2026-08-18T07:56:35.000Z</time></trkpt>
        <trkpt lat="29.5819357" lon="103.3825181"><ele>1008</ele><time>2026-08-18T07:56:45.000Z</time></trkpt>
        <trkpt lat="29.5819692" lon="103.382411"><ele>1008</ele><time>2026-08-18T07:56:55.000Z</time></trkpt>
        <trkpt lat="29.5820161" lon="103.3823053"><ele>1020</ele><time>2026-08-18T07:57:07.000Z</time></trkpt>
        <trkpt lat="29.5820676" lon="103.3822006"><ele>1020</ele><time>2026-08-18T07:57:19.000Z</time></trkpt>
        <trkpt lat="29.5820951" lon="103.3820829"><ele>1012</ele><time>2026-08-18T07:57:37.000Z</time></trkpt>
        <trkpt lat="29.5821319" lon="103.3819792"><ele>1012</ele><time>2026-08-18T07:57:51.000Z</time></trkpt>
        <trkpt lat="29.5822043" lon="103.3819132"><ele>1012</ele><time>2026-08-18T07:58:03.000Z</time></trkpt>
        <trkpt lat="29.5822872" lon="103.3818603"><ele>1012</ele><time>2026-08-18T07:58:15.000Z</time></trkpt>
        <trkpt lat="29.5823575" lon="103.3817862"><ele>1015</ele><time>2026-08-18T07:58:27.000Z</time></trkpt>
        <trkpt lat="29.5824014" lon="103.3816913"><ele>1007</ele><time>2026-08-18T07:58:45.000Z</time></trkpt>
        <trkpt lat="29.5824559" lon="103.3816"><ele>1007</ele><time>2026-08-18T07:59:01.000Z</time></trkpt>
        <trkpt lat="29.5825038" lon="103.3814996"><ele>1010</ele><time>2026-08-18T07:59:13.000Z</time></trkpt>
        <trkpt lat="29.582561" lon="103.3814068"><ele>1010</ele><time>2026-08-18T07:59:25.000Z</time></trkpt>
        <trkpt lat="29.5826091" lon="103.3813035"><ele>1010</ele><time>2026-08-18T07:59:37.000Z</time></trkpt>
        <trkpt lat="29.5826669" lon="103.3812064"><ele>1005</ele><time>2026-08-18T07:59:51.000Z</time></trkpt>
        <trkpt lat="29.5827278" lon="103.3811124"><ele>1005</ele><time>2026-08-18T08:00:03.000Z</time></trkpt>
        <trkpt lat="29.5827353" lon="103.3810034"><ele>1005</ele><time>2026-08-18T08:00:15.000Z</time></trkpt>
        <trkpt lat="29.5827175" lon="103.3808838"><ele>1011</ele><time>2026-08-18T08:00:25.000Z</time></trkpt>
        <trkpt lat="29.5827266" lon="103.3807679"><ele>1011</ele><time>2026-08-18T08:00:35.000Z</time></trkpt>
        <trkpt lat="29.5827541" lon="103.3806482"><ele>1014</ele><time>2026-08-18T08:00:47.000Z</time></trkpt>
        <trkpt lat="29.582781" lon="103.3805393"><ele>1014</ele><time>2026-08-18T08:00:57.000Z</time></trkpt>
        <trkpt lat="29.5828214" lon="103.3804366"><ele>1014</ele><time>2026-08-18T08:01:09.000Z</time></trkpt>
        <trkpt lat="29.5828637" lon="103.3803352"><ele>1012</ele><time>2026-08-18T08:01:21.000Z</time></trkpt>
        <trkpt lat="29.5829159" lon="103.3802477"><ele>1012</ele><time>2026-08-18T08:01:33.000Z</time></trkpt>
        <trkpt lat="29.5829762" lon="103.3801656"><ele>1008</ele><time>2026-08-18T08:01:45.000Z</time></trkpt>
        <trkpt lat="29.5830187" lon="103.3800657"><ele>1012</ele><time>2026-08-18T08:01:57.000Z</time></trkpt>
        <trkpt lat="29.5830727" lon="103.3799665"><ele>1012</ele><time>2026-08-18T08:02:09.000Z</time></trkpt>
        <trkpt lat="29.583064" lon="103.379865"><ele>1012</ele><time>2026-08-18T08:02:21.000Z</time></trkpt>
        <trkpt lat="29.583027" lon="103.3797561"><ele>1016</ele><time>2026-08-18T08:02:35.000Z</time></trkpt>
        <trkpt lat="29.5829786" lon="103.3796549"><ele>1016</ele><time>2026-08-18T08:02:49.000Z</time></trkpt>
        <trkpt lat="29.5829439" lon="103.3795528"><ele>1024</ele><time>2026-08-18T08:03:07.000Z</time></trkpt>
        <trkpt lat="29.5829858" lon="103.37947"><ele>1024</ele><time>2026-08-18T08:03:29.000Z</time></trkpt>
        <trkpt lat="29.5829335" lon="103.3794369"><ele>1024</ele><time>2026-08-18T08:03:49.000Z</time></trkpt>
        <trkpt lat="29.5828585" lon="103.3794852"><ele>1032</ele><time>2026-08-18T08:04:01.000Z</time></trkpt>
        <trkpt lat="29.582768" lon="103.3795498"><ele>1032</ele><time>2026-08-18T08:04:13.000Z</time></trkpt>
        <trkpt lat="29.5826902" lon="103.3795219"><ele>1032</ele><time>2026-08-18T08:04:31.000Z</time></trkpt>
        <trkpt lat="29.5826631" lon="103.3794273"><ele>1032</ele><time>2026-08-18T08:04:45.000Z</time></trkpt>
        <trkpt lat="29.5826904" lon="103.3793174"><ele>1032</ele><time>2026-08-18T08:05:03.000Z</time></trkpt>
        <trkpt lat="29.5827842" lon="103.3792588"><ele>1038</ele><time>2026-08-18T08:05:17.000Z</time></trkpt>
        <trkpt lat="29.5828826" lon="103.3792066"><ele>1038</ele><time>2026-08-18T08:05:35.000Z</time></trkpt>
        <trkpt lat="29.5829526" lon="103.3791304"><ele>1033</ele><time>2026-08-18T08:05:49.000Z</time></trkpt>
        <trkpt lat="29.5829904" lon="103.3790332"><ele>1033</ele><time>2026-08-18T08:05:59.000Z</time></trkpt>
        <trkpt lat="29.583026" lon="103.3789345"><ele>1040</ele><time>2026-08-18T08:06:15.000Z</time></trkpt>
        <trkpt lat="29.5829992" lon="103.3788267"><ele>1040</ele><time>2026-08-18T08:06:29.000Z</time></trkpt>
        <trkpt lat="29.5829764" lon="103.3787448"><ele>1040</ele><time>2026-08-18T08:06:51.000Z</time></trkpt>
        <trkpt lat="29.5829272" lon="103.378662"><ele>1040</ele><time>2026-08-18T08:07:19.000Z</time></trkpt>
        <trkpt lat="29.5828485" lon="103.3785971"><ele>1072</ele><time>2026-08-18T08:07:49.000Z</time></trkpt>
        <trkpt lat="29.5827615" lon="103.378547"><ele>1072</ele><time>2026-08-18T08:08:17.000Z</time></trkpt>
        <trkpt lat="29.5826767" lon="103.3784947"><ele>1072</ele><time>2026-08-18T08:08:35.000Z</time></trkpt>
        <trkpt lat="29.5826042" lon="103.3784229"><ele>1087</ele><time>2026-08-18T08:08:57.000Z</time></trkpt>
        <trkpt lat="29.5825218" lon="103.3783611"><ele>1087</ele><time>2026-08-18T08:09:23.000Z</time></trkpt>
        <trkpt lat="29.5824336" lon="103.3783118"><ele>1087</ele><time>2026-08-18T08:09:51.000Z</time></trkpt>
        <trkpt lat="29.5824056" lon="103.3782212"><ele>1087</ele><time>2026-08-18T08:10:17.000Z</time></trkpt>
        <trkpt lat="29.5823748" lon="103.3781233"><ele>1100</ele><time>2026-08-18T08:10:41.000Z</time></trkpt>
        <trkpt lat="29.5823453" lon="103.3780148"><ele>1098</ele><time>2026-08-18T08:11:09.000Z</time></trkpt>
        <trkpt lat="29.5823333" lon="103.3779036"><ele>1104</ele><time>2026-08-18T08:11:25.000Z</time></trkpt>
        <trkpt lat="29.5823366" lon="103.3777887"><ele>1104</ele><time>2026-08-18T08:11:37.000Z</time></trkpt>
        <trkpt lat="29.5823481" lon="103.3776762"><ele>1104</ele><time>2026-08-18T08:11:57.000Z</time></trkpt>
        <trkpt lat="29.5823381" lon="103.3775697"><ele>1112</ele><time>2026-08-18T08:12:21.000Z</time></trkpt>
        <trkpt lat="29.5823435" lon="103.37746"><ele>1112</ele><time>2026-08-18T08:12:45.000Z</time></trkpt>
        <trkpt lat="29.5823377" lon="103.3773517"><ele>1119</ele><time>2026-08-18T08:14:05.000Z</time></trkpt>
        <trkpt lat="29.5822664" lon="103.3772852"><ele>1119</ele><time>2026-08-18T08:14:27.000Z</time></trkpt>
        <trkpt lat="29.5822135" lon="103.3771991"><ele>1119</ele><time>2026-08-18T08:14:51.000Z</time></trkpt>
        <trkpt lat="29.582152" lon="103.3771168"><ele>1119</ele><time>2026-08-18T08:15:33.000Z</time></trkpt>
        <trkpt lat="29.5820741" lon="103.3771297"><ele>1126</ele><time>2026-08-18T08:15:59.000Z</time></trkpt>
        <trkpt lat="29.5820515" lon="103.3770555"><ele>1123</ele><time>2026-08-18T08:16:25.000Z</time></trkpt>
        <trkpt lat="29.5820502" lon="103.3769885"><ele>1123</ele><time>2026-08-18T08:16:53.000Z</time></trkpt>
        <trkpt lat="29.5820566" lon="103.3768836"><ele>1123</ele><time>2026-08-18T08:17:29.000Z</time></trkpt>
        <trkpt lat="29.5820591" lon="103.3768445"><ele>1123</ele><time>2026-08-18T08:17:33.000Z</time></trkpt>
        <trkpt lat="29.5820655" lon="103.3767614"><ele>1121</ele><time>2026-08-18T08:18:13.000Z</time></trkpt>
        <trkpt lat="29.5819931" lon="103.3766902"><ele>1121</ele><time>2026-08-18T08:19:19.000Z</time></trkpt>
        <trkpt lat="29.582011" lon="103.3765833"><ele>1121</ele><time>2026-08-18T08:20:29.000Z</time></trkpt>
        <trkpt lat="29.5819208" lon="103.3765628"><ele>1121</ele><time>2026-08-18T08:21:21.000Z</time></trkpt>
        <trkpt lat="29.5818331" lon="103.3765358"><ele>1121</ele><time>2026-08-18T08:21:57.000Z</time></trkpt>
        <trkpt lat="29.5817528" lon="103.3764798"><ele>1143</ele><time>2026-08-18T08:22:39.000Z</time></trkpt>
        <trkpt lat="29.5817468" lon="103.3763608"><ele>1143</ele><time>2026-08-18T08:24:27.000Z</time></trkpt>
        <trkpt lat="29.5818271" lon="103.376293"><ele>1129</ele><time>2026-08-18T08:25:05.000Z</time></trkpt>
        <trkpt lat="29.5818004" lon="103.3761999"><ele>1161</ele><time>2026-08-18T08:25:25.000Z</time></trkpt>
        <trkpt lat="29.5817334" lon="103.3762324"><ele>1161</ele><time>2026-08-18T08:25:53.000Z</time></trkpt>
        <trkpt lat="29.5816437" lon="103.3762778"><ele>1143</ele><time>2026-08-18T08:26:25.000Z</time></trkpt>
        <trkpt lat="29.5815511" lon="103.3763309"><ele>1143</ele><time>2026-08-18T08:27:09.000Z</time></trkpt>
        <trkpt lat="29.581445" lon="103.376347"><ele>1160</ele><time>2026-08-18T08:28:09.000Z</time></trkpt>
        <trkpt lat="29.5813467" lon="103.3763394"><ele>1160</ele><time>2026-08-18T08:29:19.000Z</time></trkpt>
        <trkpt lat="29.5812707" lon="103.3764099"><ele>1160</ele><time>2026-08-18T08:30:11.000Z</time></trkpt>
        <trkpt lat="29.5812181" lon="103.3764981"><ele>1173</ele><time>2026-08-18T08:30:57.000Z</time></trkpt>
        <trkpt lat="29.5811469" lon="103.3764371"><ele>1173</ele><time>2026-08-18T08:32:01.000Z</time></trkpt>
        <trkpt lat="29.5811469" lon="103.3764371"><ele>1173</ele><time>2026-08-18T08:32:55.000Z</time></trkpt>
        <trkpt lat="29.58107" lon="103.376514"><ele>1173</ele><time>2026-08-18T08:33:12.000Z</time></trkpt>
        <trkpt lat="29.58107" lon="103.376514"><ele>1173</ele><time>2026-08-18T08:33:25.000Z</time></trkpt>
        <trkpt lat="29.5810096" lon="103.3764373"><ele>1173</ele><time>2026-08-18T08:34:15.000Z</time></trkpt>
        <trkpt lat="29.5809217" lon="103.3764126"><ele>1175</ele><time>2026-08-18T08:35:15.000Z</time></trkpt>
        <trkpt lat="29.5809379" lon="103.3763317"><ele>1175</ele><time>2026-08-18T08:36:05.000Z</time></trkpt>
        <trkpt lat="29.5809465" lon="103.3762294"><ele>1180</ele><time>2026-08-18T08:36:49.000Z</time></trkpt>
        <trkpt lat="29.5808814" lon="103.3762151"><ele>1180</ele><time>2026-08-18T08:37:47.000Z</time></trkpt>
        <trkpt lat="29.5807963" lon="103.3762549"><ele>1175</ele><time>2026-08-18T08:38:05.000Z</time></trkpt>
        <trkpt lat="29.5807351" lon="103.376274"><ele>1175</ele><time>2026-08-18T08:38:21.000Z</time></trkpt>
        <trkpt lat="29.5807351" lon="103.376274"><ele>1175</ele><time>2026-08-18T08:38:52.000Z</time></trkpt>
        <trkpt lat="29.5807351" lon="103.376274"><ele>1175</ele><time>2026-08-18T08:39:32.000Z</time></trkpt>
        <trkpt lat="29.5807351" lon="103.376274"><ele>1175</ele><time>2026-08-18T08:40:04.000Z</time></trkpt>
        <trkpt lat="29.5806508" lon="103.3763376"><ele>1184</ele><time>2026-08-18T08:42:35.000Z</time></trkpt>
        <trkpt lat="29.5806508" lon="103.3763376"><ele>1184</ele><time>2026-08-18T08:43:43.000Z</time></trkpt>
        <trkpt lat="29.5805543" lon="103.3763626"><ele>1184</ele><time>2026-08-18T08:43:57.000Z</time></trkpt>
        <trkpt lat="29.5804605" lon="103.3763578"><ele>1184</ele><time>2026-08-18T08:44:09.000Z</time></trkpt>
        <trkpt lat="29.5803685" lon="103.3763524"><ele>1189</ele><time>2026-08-18T08:44:19.000Z</time></trkpt>
        <trkpt lat="29.5802771" lon="103.376328"><ele>1189</ele><time>2026-08-18T08:44:29.000Z</time></trkpt>
        <trkpt lat="29.5801794" lon="103.3763073"><ele>1189</ele><time>2026-08-18T08:44:41.000Z</time></trkpt>
        <trkpt lat="29.5800825" lon="103.3762921"><ele>1212</ele><time>2026-08-18T08:44:53.000Z</time></trkpt>
        <trkpt lat="29.5800039" lon="103.3762382"><ele>1216</ele><time>2026-08-18T08:45:05.000Z</time></trkpt>
        <trkpt lat="29.5799418" lon="103.3761479"><ele>1216</ele><time>2026-08-18T08:45:17.000Z</time></trkpt>
        <trkpt lat="29.5799044" lon="103.3760302"><ele>1216</ele><time>2026-08-18T08:45:29.000Z</time></trkpt>
        <trkpt lat="29.5798585" lon="103.3759271"><ele>1232</ele><time>2026-08-18T08:45:39.000Z</time></trkpt>
        <trkpt lat="29.5798165" lon="103.3758254"><ele>1232</ele><time>2026-08-18T08:45:49.000Z</time></trkpt>
        <trkpt lat="29.5797816" lon="103.3757164"><ele>1232</ele><time>2026-08-18T08:46:01.000Z</time></trkpt>
        <trkpt lat="29.5798197" lon="103.3756166"><ele>1250</ele><time>2026-08-18T08:46:17.000Z</time></trkpt>
        <trkpt lat="29.5799056" lon="103.3755585"><ele>1236</ele><time>2026-08-18T08:46:35.000Z</time></trkpt>
        <trkpt lat="29.580005" lon="103.3755236"><ele>1236</ele><time>2026-08-18T08:46:59.000Z</time></trkpt>
        <trkpt lat="29.5801039" lon="103.37551"><ele>1236</ele><time>2026-08-18T08:47:33.000Z</time></trkpt>
        <trkpt lat="29.5802001" lon="103.3755182"><ele>1218</ele><time>2026-08-18T08:48:09.000Z</time></trkpt>
        <trkpt lat="29.580293" lon="103.3755369"><ele>1218</ele><time>2026-08-18T08:49:07.000Z</time></trkpt>
        <trkpt lat="29.5803856" lon="103.3755396"><ele>1218</ele><time>2026-08-18T08:49:35.000Z</time></trkpt>
        <trkpt lat="29.5804777" lon="103.3755019"><ele>1211</ele><time>2026-08-18T08:49:59.000Z</time></trkpt>
        <trkpt lat="29.5805265" lon="103.375416"><ele>1241</ele><time>2026-08-18T08:50:27.000Z</time></trkpt>
        <trkpt lat="29.580532" lon="103.3754135"><ele>1241</ele><time>2026-08-18T08:50:31.000Z</time></trkpt>
        <trkpt lat="29.5805926" lon="103.3753929"><ele>1241</ele><time>2026-08-18T08:51:07.000Z</time></trkpt>
        <trkpt lat="29.580686" lon="103.3753703"><ele>1241</ele><time>2026-08-18T08:51:33.000Z</time></trkpt>
        <trkpt lat="29.5807171" lon="103.375286"><ele>1219</ele><time>2026-08-18T08:51:55.000Z</time></trkpt>
        <trkpt lat="29.5807002" lon="103.3752548"><ele>1219</ele><time>2026-08-18T08:52:05.000Z</time></trkpt>
        <trkpt lat="29.5806849" lon="103.3751677"><ele>1241</ele><time>2026-08-18T08:52:43.000Z</time></trkpt>
        <trkpt lat="29.5806978" lon="103.3750525"><ele>1257</ele><time>2026-08-18T08:53:47.000Z</time></trkpt>
        <trkpt lat="29.58071" lon="103.3750325"><ele>1257</ele><time>2026-08-18T08:53:59.000Z</time></trkpt>
        <trkpt lat="29.5806965" lon="103.3749245"><ele>1257</ele><time>2026-08-18T08:55:35.000Z</time></trkpt>
        <trkpt lat="29.5806965" lon="103.3749245"><ele>1257</ele><time>2026-08-18T08:56:26.000Z</time></trkpt>
        <trkpt lat="29.5806787" lon="103.374823"><ele>1314</ele><time>2026-08-18T08:56:26.000Z</time></trkpt>
        <trkpt lat="29.5806787" lon="103.374823"><ele>1314</ele><time>2026-08-18T08:56:35.000Z</time></trkpt>
        <trkpt lat="29.5806304" lon="103.3747317"><ele>1314</ele><time>2026-08-18T08:57:13.000Z</time></trkpt>
        <trkpt lat="29.5806336" lon="103.3746275"><ele>1314</ele><time>2026-08-18T08:57:57.000Z</time></trkpt>
        <trkpt lat="29.5806448" lon="103.3745222"><ele>1320</ele><time>2026-08-18T08:58:47.000Z</time></trkpt>
        <trkpt lat="29.5806506" lon="103.3744168"><ele>1320</ele><time>2026-08-18T08:59:21.000Z</time></trkpt>
        <trkpt lat="29.5806497" lon="103.3743083"><ele>1320</ele><time>2026-08-18T09:00:21.000Z</time></trkpt>
        <trkpt lat="29.5806582" lon="103.3742771"><ele>1325</ele><time>2026-08-18T09:00:25.000Z</time></trkpt>
        <trkpt lat="29.5806701" lon="103.374199"><ele>1325</ele><time>2026-08-18T09:01:17.000Z</time></trkpt>
        <trkpt lat="29.5806521" lon="103.3741007"><ele>1325</ele><time>2026-08-18T09:01:55.000Z</time></trkpt>
        <trkpt lat="29.5806521" lon="103.3741007"><ele>1325</ele><time>2026-08-18T09:04:47.000Z</time></trkpt>
        <trkpt lat="29.5806521" lon="103.3741007"><ele>1325</ele><time>2026-08-18T09:16:01.000Z</time></trkpt>
        <trkpt lat="29.5806521" lon="103.3741007"><ele>1325</ele><time>2026-08-18T09:16:33.000Z</time></trkpt>
        <trkpt lat="29.5806413" lon="103.3739882"><ele>1336</ele><time>2026-08-18T09:28:45.000Z</time></trkpt>
        <trkpt lat="29.5806413" lon="103.3739882"><ele>1336</ele><time>2026-08-18T09:29:04.000Z</time></trkpt>
        <trkpt lat="29.580582" lon="103.373909"><ele>1336</ele><time>2026-08-18T09:29:18.000Z</time></trkpt>
        <trkpt lat="29.5805155" lon="103.373836"><ele>1336</ele><time>2026-08-18T09:29:36.000Z</time></trkpt>
        <trkpt lat="29.5804335" lon="103.3737929"><ele>1336</ele><time>2026-08-18T09:29:52.000Z</time></trkpt>
        <trkpt lat="29.5803708" lon="103.3737201"><ele>1353</ele><time>2026-08-18T09:30:04.000Z</time></trkpt>
        <trkpt lat="29.5803005" lon="103.3736521"><ele>1353</ele><time>2026-08-18T09:30:16.000Z</time></trkpt>
        <trkpt lat="29.5802275" lon="103.3735747"><ele>1353</ele><time>2026-08-18T09:30:28.000Z</time></trkpt>
        <trkpt lat="29.5801666" lon="103.373484"><ele>1353</ele><time>2026-08-18T09:30:40.000Z</time></trkpt>
        <trkpt lat="29.5800918" lon="103.3734059"><ele>1361</ele><time>2026-08-18T09:30:56.000Z</time></trkpt>
        <trkpt lat="29.5800186" lon="103.373334"><ele>1361</ele><time>2026-08-18T09:31:12.000Z</time></trkpt>
        <trkpt lat="29.5799606" lon="103.3732541"><ele>1361</ele><time>2026-08-18T09:31:30.000Z</time></trkpt>
        <trkpt lat="29.5798865" lon="103.3731935"><ele>1354</ele><time>2026-08-18T09:31:58.000Z</time></trkpt>
        <trkpt lat="29.5798206" lon="103.3731208"><ele>1362</ele><time>2026-08-18T09:32:38.000Z</time></trkpt>
        <trkpt lat="29.5797577" lon="103.3730386"><ele>1362</ele><time>2026-08-18T09:33:20.000Z</time></trkpt>
        <trkpt lat="29.5797055" lon="103.3729496"><ele>1362</ele><time>2026-08-18T09:34:08.000Z</time></trkpt>
        <trkpt lat="29.5796317" lon="103.3728818"><ele>1369</ele><time>2026-08-18T09:35:06.000Z</time></trkpt>
        <trkpt lat="29.5795574" lon="103.372815"><ele>1376</ele><time>2026-08-18T09:35:28.000Z</time></trkpt>
        <trkpt lat="29.5794691" lon="103.3728057"><ele>1376</ele><time>2026-08-18T09:35:52.000Z</time></trkpt>
        <trkpt lat="29.5794338" lon="103.3727925"><ele>1376</ele><time>2026-08-18T09:35:58.000Z</time></trkpt>
        <trkpt lat="29.5793876" lon="103.3727295"><ele>1376</ele><time>2026-08-18T09:36:20.000Z</time></trkpt>
        <trkpt lat="29.5793252" lon="103.3726395"><ele>1376</ele><time>2026-08-18T09:36:38.000Z</time></trkpt>
        <trkpt lat="29.5792495" lon="103.3725712"><ele>1395</ele><time>2026-08-18T09:37:02.000Z</time></trkpt>
        <trkpt lat="29.5791614" lon="103.3725096"><ele>1395</ele><time>2026-08-18T09:37:18.000Z</time></trkpt>
        <trkpt lat="29.5790685" lon="103.3724835"><ele>1395</ele><time>2026-08-18T09:37:38.000Z</time></trkpt>
        <trkpt lat="29.5789806" lon="103.3724395"><ele>1399</ele><time>2026-08-18T09:37:54.000Z</time></trkpt>
        <trkpt lat="29.5789118" lon="103.3723639"><ele>1399</ele><time>2026-08-18T09:38:16.000Z</time></trkpt>
        <trkpt lat="29.5788355" lon="103.3722907"><ele>1427</ele><time>2026-08-18T09:38:52.000Z</time></trkpt>
        <trkpt lat="29.5787435" lon="103.3722338"><ele>1411</ele><time>2026-08-18T09:39:06.000Z</time></trkpt>
        <trkpt lat="29.5786586" lon="103.3721666"><ele>1411</ele><time>2026-08-18T09:39:18.000Z</time></trkpt>
        <trkpt lat="29.5786104" lon="103.372075"><ele>1428</ele><time>2026-08-18T09:39:30.000Z</time></trkpt>
        <trkpt lat="29.5785445" lon="103.3720081"><ele>1428</ele><time>2026-08-18T09:39:48.000Z</time></trkpt>
        <trkpt lat="29.5784669" lon="103.3719558"><ele>1420</ele><time>2026-08-18T09:40:22.000Z</time></trkpt>
        <trkpt lat="29.5784315" lon="103.3719186"><ele>1420</ele><time>2026-08-18T09:40:28.000Z</time></trkpt>
        <trkpt lat="29.5783918" lon="103.3718455"><ele>1420</ele><time>2026-08-18T09:41:10.000Z</time></trkpt>
        <trkpt lat="29.5783461" lon="103.371752"><ele>1425</ele><time>2026-08-18T09:41:28.000Z</time></trkpt>
        <trkpt lat="29.578301" lon="103.3716532"><ele>1425</ele><time>2026-08-18T09:41:44.000Z</time></trkpt>
        <trkpt lat="29.5782283" lon="103.3715866"><ele>1425</ele><time>2026-08-18T09:42:02.000Z</time></trkpt>
        <trkpt lat="29.5781334" lon="103.3715411"><ele>1431</ele><time>2026-08-18T09:43:08.000Z</time></trkpt>
        <trkpt lat="29.5780722" lon="103.3714573"><ele>1443</ele><time>2026-08-18T09:44:12.000Z</time></trkpt>
        <trkpt lat="29.577995" lon="103.3713936"><ele>1443</ele><time>2026-08-18T09:45:22.000Z</time></trkpt>
        <trkpt lat="29.5779113" lon="103.3713548"><ele>1447</ele><time>2026-08-18T09:46:10.000Z</time></trkpt>
        <trkpt lat="29.5779113" lon="103.3713548"><ele>1447</ele><time>2026-08-18T09:46:52.000Z</time></trkpt>
        <trkpt lat="29.5778334" lon="103.3712831"><ele>1447</ele><time>2026-08-18T09:46:58.000Z</time></trkpt>
        <trkpt lat="29.5778334" lon="103.3712831"><ele>1447</ele><time>2026-08-18T09:47:14.000Z</time></trkpt>
        <trkpt lat="29.5777557" lon="103.3712299"><ele>1455</ele><time>2026-08-18T09:48:12.000Z</time></trkpt>
        <trkpt lat="29.5776962" lon="103.3711519"><ele>1455</ele><time>2026-08-18T09:48:36.000Z</time></trkpt>
        <trkpt lat="29.5776567" lon="103.3710558"><ele>1455</ele><time>2026-08-18T09:49:18.000Z</time></trkpt>
        <trkpt lat="29.5776126" lon="103.3709467"><ele>1462</ele><time>2026-08-18T09:49:30.000Z</time></trkpt>
        <trkpt lat="29.5775746" lon="103.370832"><ele>1462</ele><time>2026-08-18T09:49:42.000Z</time></trkpt>
        <trkpt lat="29.5775439" lon="103.3707161"><ele>1462</ele><time>2026-08-18T09:49:52.000Z</time></trkpt>
        <trkpt lat="29.5774847" lon="103.37062"><ele>1461</ele><time>2026-08-18T09:50:04.000Z</time></trkpt>
        <trkpt lat="29.5774103" lon="103.3705522"><ele>1461</ele><time>2026-08-18T09:50:16.000Z</time></trkpt>
        <trkpt lat="29.5773294" lon="103.3704867"><ele>1463</ele><time>2026-08-18T09:50:28.000Z</time></trkpt>
        <trkpt lat="29.5772533" lon="103.3704113"><ele>1458</ele><time>2026-08-18T09:50:40.000Z</time></trkpt>
        <trkpt lat="29.5771774" lon="103.3703446"><ele>1458</ele><time>2026-08-18T09:50:52.000Z</time></trkpt>
        <trkpt lat="29.5770951" lon="103.3703"><ele>1458</ele><time>2026-08-18T09:51:04.000Z</time></trkpt>
        <trkpt lat="29.5770272" lon="103.370224"><ele>1458</ele><time>2026-08-18T09:51:16.000Z</time></trkpt>
        <trkpt lat="29.5769827" lon="103.3701312"><ele>1452</ele><time>2026-08-18T09:51:26.000Z</time></trkpt>
        <trkpt lat="29.5769499" lon="103.3700314"><ele>1452</ele><time>2026-08-18T09:51:38.000Z</time></trkpt>
        <trkpt lat="29.5769347" lon="103.369913"><ele>1452</ele><time>2026-08-18T09:51:52.000Z</time></trkpt>
        <trkpt lat="29.5769266" lon="103.3697961"><ele>1445</ele><time>2026-08-18T09:52:06.000Z</time></trkpt>
        <trkpt lat="29.5769182" lon="103.3696878"><ele>1445</ele><time>2026-08-18T09:52:16.000Z</time></trkpt>
        <trkpt lat="29.5769497" lon="103.3695812"><ele>1440</ele><time>2026-08-18T09:52:30.000Z</time></trkpt>
        <trkpt lat="29.5769536" lon="103.3694745"><ele>1440</ele><time>2026-08-18T09:52:42.000Z</time></trkpt>
        <trkpt lat="29.5769455" lon="103.3693685"><ele>1440</ele><time>2026-08-18T09:52:54.000Z</time></trkpt>
        <trkpt lat="29.576931" lon="103.3692631"><ele>1435</ele><time>2026-08-18T09:53:08.000Z</time></trkpt>
        <trkpt lat="29.5769214" lon="103.3691545"><ele>1435</ele><time>2026-08-18T09:53:24.000Z</time></trkpt>
        <trkpt lat="29.5769205" lon="103.3690476"><ele>1435</ele><time>2026-08-18T09:53:42.000Z</time></trkpt>
        <trkpt lat="29.5769365" lon="103.3689346"><ele>1441</ele><time>2026-08-18T09:53:58.000Z</time></trkpt>
        <trkpt lat="29.5769357" lon="103.3688209"><ele>1441</ele><time>2026-08-18T09:54:12.000Z</time></trkpt>
        <trkpt lat="29.5769377" lon="103.3687093"><ele>1443</ele><time>2026-08-18T09:54:24.000Z</time></trkpt>
        <trkpt lat="29.5769514" lon="103.3685918"><ele>1443</ele><time>2026-08-18T09:54:36.000Z</time></trkpt>
        <trkpt lat="29.5769721" lon="103.3684779"><ele>1443</ele><time>2026-08-18T09:54:48.000Z</time></trkpt>
        <trkpt lat="29.5769959" lon="103.3683641"><ele>1449</ele><time>2026-08-18T09:55:04.000Z</time></trkpt>
        <trkpt lat="29.5770124" lon="103.3682505"><ele>1449</ele><time>2026-08-18T09:55:22.000Z</time></trkpt>
        <trkpt lat="29.5770138" lon="103.3681393"><ele>1459</ele><time>2026-08-18T09:55:52.000Z</time></trkpt>
        <trkpt lat="29.5770258" lon="103.3680357"><ele>1459</ele><time>2026-08-18T09:56:52.000Z</time></trkpt>
        <trkpt lat="29.5770258" lon="103.3680357"><ele>1459</ele><time>2026-08-18T09:57:28.000Z</time></trkpt>
        <trkpt lat="29.577108" lon="103.3679706"><ele>1459</ele><time>2026-08-18T09:57:47.000Z</time></trkpt>
        <trkpt lat="29.577108" lon="103.3679706"><ele>1459</ele><time>2026-08-18T09:58:36.000Z</time></trkpt>
        <trkpt lat="29.5771565" lon="103.3678755"><ele>1464</ele><time>2026-08-18T09:59:24.000Z</time></trkpt>
        <trkpt lat="29.5772023" lon="103.3677778"><ele>1464</ele><time>2026-08-18T10:00:18.000Z</time></trkpt>
        <trkpt lat="29.5772183" lon="103.3676693"><ele>1464</ele><time>2026-08-18T10:01:06.000Z</time></trkpt>
        <trkpt lat="29.5771629" lon="103.3675919"><ele>1471</ele><time>2026-08-18T10:01:28.000Z</time></trkpt>
        <trkpt lat="29.5770833" lon="103.3675279"><ele>1480</ele><time>2026-08-18T10:01:40.000Z</time></trkpt>
        <trkpt lat="29.5770236" lon="103.3674323"><ele>1480</ele><time>2026-08-18T10:01:54.000Z</time></trkpt>
        <trkpt lat="29.5769465" lon="103.3673546"><ele>1478</ele><time>2026-08-18T10:02:08.000Z</time></trkpt>
        <trkpt lat="29.5768668" lon="103.3672772"><ele>1478</ele><time>2026-08-18T10:02:22.000Z</time></trkpt>
        <trkpt lat="29.5767795" lon="103.3672349"><ele>1485</ele><time>2026-08-18T10:02:34.000Z</time></trkpt>
        <trkpt lat="29.5767056" lon="103.3671729"><ele>1485</ele><time>2026-08-18T10:02:46.000Z</time></trkpt>
        <trkpt lat="29.5766466" lon="103.3670838"><ele>1485</ele><time>2026-08-18T10:02:58.000Z</time></trkpt>
        <trkpt lat="29.5765967" lon="103.3669814"><ele>1483</ele><time>2026-08-18T10:03:10.000Z</time></trkpt>
        <trkpt lat="29.576538" lon="103.3668819"><ele>1483</ele><time>2026-08-18T10:03:22.000Z</time></trkpt>
        <trkpt lat="29.5764547" lon="103.366829"><ele>1481</ele><time>2026-08-18T10:03:34.000Z</time></trkpt>
        <trkpt lat="29.5764034" lon="103.3667401"><ele>1480</ele><time>2026-08-18T10:03:44.000Z</time></trkpt>
        <trkpt lat="29.5763458" lon="103.3666539"><ele>1480</ele><time>2026-08-18T10:03:56.000Z</time></trkpt>
        <trkpt lat="29.5762953" lon="103.3665464"><ele>1480</ele><time>2026-08-18T10:04:10.000Z</time></trkpt>
        <trkpt lat="29.5762561" lon="103.3664419"><ele>1484</ele><time>2026-08-18T10:04:22.000Z</time></trkpt>
        <trkpt lat="29.5762202" lon="103.3663403"><ele>1484</ele><time>2026-08-18T10:04:38.000Z</time></trkpt>
        <trkpt lat="29.5762111" lon="103.3662226"><ele>1479</ele><time>2026-08-18T10:04:52.000Z</time></trkpt>
        <trkpt lat="29.5761825" lon="103.3661148"><ele>1479</ele><time>2026-08-18T10:05:24.000Z</time></trkpt>
        <trkpt lat="29.5761309" lon="103.366029"><ele>1479</ele><time>2026-08-18T10:05:40.000Z</time></trkpt>
        <trkpt lat="29.5760672" lon="103.365944"><ele>1486</ele><time>2026-08-18T10:05:56.000Z</time></trkpt>
        <trkpt lat="29.5759954" lon="103.3658714"><ele>1486</ele><time>2026-08-18T10:06:12.000Z</time></trkpt>
        <trkpt lat="29.5759185" lon="103.3657988"><ele>1479</ele><time>2026-08-18T10:06:28.000Z</time></trkpt>
        <trkpt lat="29.5758237" lon="103.3657637"><ele>1479</ele><time>2026-08-18T10:06:40.000Z</time></trkpt>
        <trkpt lat="29.5757394" lon="103.3657122"><ele>1479</ele><time>2026-08-18T10:06:54.000Z</time></trkpt>
        <trkpt lat="29.5756543" lon="103.3656725"><ele>1478</ele><time>2026-08-18T10:07:04.000Z</time></trkpt>
        <trkpt lat="29.5755834" lon="103.365601"><ele>1478</ele><time>2026-08-18T10:07:20.000Z</time></trkpt>
        <trkpt lat="29.5754977" lon="103.3655695"><ele>1478</ele><time>2026-08-18T10:07:52.000Z</time></trkpt>
        <trkpt lat="29.575405" lon="103.3655441"><ele>1472</ele><time>2026-08-18T10:08:40.000Z</time></trkpt>
        <trkpt lat="29.5753489" lon="103.3654699"><ele>1472</ele><time>2026-08-18T10:09:32.000Z</time></trkpt>
        <trkpt lat="29.5752796" lon="103.3654086"><ele>1477</ele><time>2026-08-18T10:10:26.000Z</time></trkpt>
        <trkpt lat="29.5752682" lon="103.3653877"><ele>1477</ele><time>2026-08-18T10:10:32.000Z</time></trkpt>
        <trkpt lat="29.5752682" lon="103.3653877"><ele>1477</ele><time>2026-08-18T10:12:05.000Z</time></trkpt>
        <trkpt lat="29.5752682" lon="103.3653877"><ele>1477</ele><time>2026-08-18T10:17:57.000Z</time></trkpt>
        <trkpt lat="29.5752682" lon="103.3653877"><ele>1477</ele><time>2026-08-18T10:18:29.000Z</time></trkpt>
        <trkpt lat="29.5752005" lon="103.3653668"><ele>1477</ele><time>2026-08-18T10:19:47.000Z</time></trkpt>
        <trkpt lat="29.5752005" lon="103.3653668"><ele>1477</ele><time>2026-08-18T10:19:58.000Z</time></trkpt>
        <trkpt lat="29.5751632" lon="103.3652705"><ele>1477</ele><time>2026-08-18T10:20:22.000Z</time></trkpt>
        <trkpt lat="29.5750885" lon="103.3652055"><ele>1466</ele><time>2026-08-18T10:21:00.000Z</time></trkpt>
        <trkpt lat="29.5750216" lon="103.3651315"><ele>1479</ele><time>2026-08-18T10:21:18.000Z</time></trkpt>
        <trkpt lat="29.5749861" lon="103.3650352"><ele>1479</ele><time>2026-08-18T10:21:30.000Z</time></trkpt>
        <trkpt lat="29.5749658" lon="103.3649318"><ele>1479</ele><time>2026-08-18T10:21:46.000Z</time></trkpt>
        <trkpt lat="29.5749306" lon="103.3648348"><ele>1501</ele><time>2026-08-18T10:22:12.000Z</time></trkpt>
        <trkpt lat="29.5748525" lon="103.3647694"><ele>1497</ele><time>2026-08-18T10:23:26.000Z</time></trkpt>
        <trkpt lat="29.5747967" lon="103.3646808"><ele>1497</ele><time>2026-08-18T10:24:14.000Z</time></trkpt>
        <trkpt lat="29.5747729" lon="103.3645791"><ele>1530</ele><time>2026-08-18T10:25:08.000Z</time></trkpt>
        <trkpt lat="29.5747729" lon="103.3645791"><ele>1530</ele><time>2026-08-18T10:25:49.000Z</time></trkpt>
        <trkpt lat="29.5747131" lon="103.3645012"><ele>1530</ele><time>2026-08-18T10:25:59.000Z</time></trkpt>
        <trkpt lat="29.5747131" lon="103.3645012"><ele>1530</ele><time>2026-08-18T10:26:46.000Z</time></trkpt>
        <trkpt lat="29.5746547" lon="103.3644168"><ele>1530</ele><time>2026-08-18T10:27:28.000Z</time></trkpt>
        <trkpt lat="29.5746589" lon="103.3643125"><ele>1530</ele><time>2026-08-18T10:27:54.000Z</time></trkpt>
        <trkpt lat="29.5746084" lon="103.3642325"><ele>1553</ele><time>2026-08-18T10:28:10.000Z</time></trkpt>
        <trkpt lat="29.5745313" lon="103.3641705"><ele>1548</ele><time>2026-08-18T10:28:24.000Z</time></trkpt>
        <trkpt lat="29.5744562" lon="103.3641004"><ele>1548</ele><time>2026-08-18T10:28:40.000Z</time></trkpt>
        <trkpt lat="29.5744264" lon="103.3639893"><ele>1572</ele><time>2026-08-18T10:28:54.000Z</time></trkpt>
        <trkpt lat="29.5744524" lon="103.3638801"><ele>1572</ele><time>2026-08-18T10:29:14.000Z</time></trkpt>
        <trkpt lat="29.5744574" lon="103.3638482"><ele>1572</ele><time>2026-08-18T10:29:20.000Z</time></trkpt>
        <trkpt lat="29.5743961" lon="103.3638257"><ele>1572</ele><time>2026-08-18T10:29:48.000Z</time></trkpt>
        <trkpt lat="29.5743759" lon="103.3638241"><ele>1572</ele><time>2026-08-18T10:29:50.000Z</time></trkpt>
        <trkpt lat="29.5743877" lon="103.3637509"><ele>1572</ele><time>2026-08-18T10:30:30.000Z</time></trkpt>
        <trkpt lat="29.5744902" lon="103.3636954"><ele>1585</ele><time>2026-08-18T10:31:42.000Z</time></trkpt>
        <trkpt lat="29.5745886" lon="103.3636933"><ele>1588</ele><time>2026-08-18T10:32:44.000Z</time></trkpt>
        <trkpt lat="29.5745886" lon="103.3636933"><ele>1588</ele><time>2026-08-18T10:33:52.000Z</time></trkpt>
        <trkpt lat="29.5746214" lon="103.3635952"><ele>1588</ele><time>2026-08-18T10:34:15.000Z</time></trkpt>
        <trkpt lat="29.5746214" lon="103.3635952"><ele>1588</ele><time>2026-08-18T10:35:02.000Z</time></trkpt>
        <trkpt lat="29.5746174" lon="103.3634753"><ele>1588</ele><time>2026-08-18T10:35:20.000Z</time></trkpt>
        <trkpt lat="29.5746052" lon="103.3633676"><ele>1592</ele><time>2026-08-18T10:35:34.000Z</time></trkpt>
        <trkpt lat="29.5745919" lon="103.3632641"><ele>1592</ele><time>2026-08-18T10:35:52.000Z</time></trkpt>
        <trkpt lat="29.5746158" lon="103.3631535"><ele>1597</ele><time>2026-08-18T10:36:42.000Z</time></trkpt>
        <trkpt lat="29.5745726" lon="103.3630669"><ele>1606</ele><time>2026-08-18T10:37:30.000Z</time></trkpt>
        <trkpt lat="29.5745364" lon="103.3630127"><ele>1606</ele><time>2026-08-18T10:37:46.000Z</time></trkpt>
        <trkpt lat="29.5745268" lon="103.3629202"><ele>1606</ele><time>2026-08-18T10:38:00.000Z</time></trkpt>
        <trkpt lat="29.5745974" lon="103.3628699"><ele>1598</ele><time>2026-08-18T10:38:08.000Z</time></trkpt>
        <trkpt lat="29.5746894" lon="103.3628889"><ele>1598</ele><time>2026-08-18T10:38:18.000Z</time></trkpt>
        <trkpt lat="29.5747482" lon="103.3628719"><ele>1598</ele><time>2026-08-18T10:38:32.000Z</time></trkpt>
        <trkpt lat="29.574827" lon="103.3628284"><ele>1598</ele><time>2026-08-18T10:39:14.000Z</time></trkpt>
        <trkpt lat="29.5748636" lon="103.3627312"><ele>1587</ele><time>2026-08-18T10:39:56.000Z</time></trkpt>
        <trkpt lat="29.574932" lon="103.3626567"><ele>1587</ele><time>2026-08-18T10:40:10.000Z</time></trkpt>
        <trkpt lat="29.5749016" lon="103.3625761"><ele>1581</ele><time>2026-08-18T10:40:26.000Z</time></trkpt>
        <trkpt lat="29.5748515" lon="103.3624817"><ele>1587</ele><time>2026-08-18T10:40:46.000Z</time></trkpt>
        <trkpt lat="29.5747839" lon="103.362399"><ele>1587</ele><time>2026-08-18T10:41:06.000Z</time></trkpt>
        <trkpt lat="29.5746867" lon="103.3623808"><ele>1587</ele><time>2026-08-18T10:41:26.000Z</time></trkpt>
        <trkpt lat="29.5745848" lon="103.3624588"><ele>1587</ele><time>2026-08-18T10:42:38.000Z</time></trkpt>
        <trkpt lat="29.5744845" lon="103.3624963"><ele>1602</ele><time>2026-08-18T10:42:52.000Z</time></trkpt>
        <trkpt lat="29.5743931" lon="103.3625157"><ele>1602</ele><time>2026-08-18T10:43:02.000Z</time></trkpt>
        <trkpt lat="29.574303" lon="103.3625189"><ele>1617</ele><time>2026-08-18T10:43:12.000Z</time></trkpt>
        <trkpt lat="29.574207" lon="103.3625231"><ele>1617</ele><time>2026-08-18T10:43:24.000Z</time></trkpt>
        <trkpt lat="29.5741038" lon="103.3625238"><ele>1617</ele><time>2026-08-18T10:43:36.000Z</time></trkpt>
        <trkpt lat="29.5740064" lon="103.3625386"><ele>1623</ele><time>2026-08-18T10:43:48.000Z</time></trkpt>
        <trkpt lat="29.5739206" lon="103.3625012"><ele>1623</ele><time>2026-08-18T10:44:04.000Z</time></trkpt>
        <trkpt lat="29.5738487" lon="103.3624334"><ele>1623</ele><time>2026-08-18T10:44:18.000Z</time></trkpt>
        <trkpt lat="29.5737773" lon="103.3623665"><ele>1623</ele><time>2026-08-18T10:44:40.000Z</time></trkpt>
        <trkpt lat="29.5737082" lon="103.3622961"><ele>1630</ele><time>2026-08-18T10:45:02.000Z</time></trkpt>
        <trkpt lat="29.5736487" lon="103.3622147"><ele>1630</ele><time>2026-08-18T10:45:50.000Z</time></trkpt>
        <trkpt lat="29.5735777" lon="103.3621519"><ele>1630</ele><time>2026-08-18T10:46:16.000Z</time></trkpt>
        <trkpt lat="29.5735777" lon="103.3621519"><ele>1630</ele><time>2026-08-18T10:47:13.000Z</time></trkpt>
        <trkpt lat="29.5735253" lon="103.3620691"><ele>1619</ele><time>2026-08-18T10:51:44.000Z</time></trkpt>
        <trkpt lat="29.5735253" lon="103.3620691"><ele>1619</ele><time>2026-08-18T10:52:10.000Z</time></trkpt>
        <trkpt lat="29.5734533" lon="103.3620018"><ele>1648</ele><time>2026-08-18T10:52:34.000Z</time></trkpt>
        <trkpt lat="29.5733806" lon="103.3619361"><ele>1648</ele><time>2026-08-18T10:53:28.000Z</time></trkpt>
        <trkpt lat="29.5732962" lon="103.361904"><ele>1648</ele><time>2026-08-18T10:54:12.000Z</time></trkpt>
        <trkpt lat="29.5732291" lon="103.3618399"><ele>1648</ele><time>2026-08-18T10:55:00.000Z</time></trkpt>
        <trkpt lat="29.5731431" lon="103.3618073"><ele>1656</ele><time>2026-08-18T10:55:16.000Z</time></trkpt>
        <trkpt lat="29.5730605" lon="103.3617629"><ele>1644</ele><time>2026-08-18T10:55:34.000Z</time></trkpt>
        <trkpt lat="29.5729888" lon="103.3616826"><ele>1644</ele><time>2026-08-18T10:55:48.000Z</time></trkpt>
        <trkpt lat="29.5729127" lon="103.3616176"><ele>1668</ele><time>2026-08-18T10:56:02.000Z</time></trkpt>
        <trkpt lat="29.5728206" lon="103.3615925"><ele>1668</ele><time>2026-08-18T10:56:14.000Z</time></trkpt>
        <trkpt lat="29.5727242" lon="103.361594"><ele>1668</ele><time>2026-08-18T10:56:26.000Z</time></trkpt>
        <trkpt lat="29.572627" lon="103.3616135"><ele>1676</ele><time>2026-08-18T10:56:40.000Z</time></trkpt>
        <trkpt lat="29.5725227" lon="103.3616428"><ele>1676</ele><time>2026-08-18T10:56:54.000Z</time></trkpt>
        <trkpt lat="29.5724411" lon="103.3617077"><ele>1676</ele><time>2026-08-18T10:57:52.000Z</time></trkpt>
        <trkpt lat="29.5723518" lon="103.36173"><ele>1682</ele><time>2026-08-18T10:58:20.000Z</time></trkpt>
        <trkpt lat="29.5722613" lon="103.3617413"><ele>1682</ele><time>2026-08-18T10:58:54.000Z</time></trkpt>
        <trkpt lat="29.5721827" lon="103.3617869"><ele>1682</ele><time>2026-08-18T10:59:32.000Z</time></trkpt>
        <trkpt lat="29.5720945" lon="103.3618201"><ele>1686</ele><time>2026-08-18T11:00:02.000Z</time></trkpt>
        <trkpt lat="29.5720288" lon="103.3618085"><ele>1689</ele><time>2026-08-18T11:00:20.000Z</time></trkpt>
        <trkpt lat="29.5719472" lon="103.3618163"><ele>1689</ele><time>2026-08-18T11:01:26.000Z</time></trkpt>
        <trkpt lat="29.5718621" lon="103.3617819"><ele>1687</ele><time>2026-08-18T11:02:08.000Z</time></trkpt>
        <trkpt lat="29.5717709" lon="103.361798"><ele>1693</ele><time>2026-08-18T11:02:46.000Z</time></trkpt>
        <trkpt lat="29.5716877" lon="103.361849"><ele>1692</ele><time>2026-08-18T11:03:24.000Z</time></trkpt>
        <trkpt lat="29.57159" lon="103.3618702"><ele>1692</ele><time>2026-08-18T11:03:38.000Z</time></trkpt>
        <trkpt lat="29.5714978" lon="103.3618257"><ele>1690</ele><time>2026-08-18T11:03:50.000Z</time></trkpt>
        <trkpt lat="29.5714165" lon="103.3617582"><ele>1696</ele><time>2026-08-18T11:04:02.000Z</time></trkpt>
        <trkpt lat="29.5713277" lon="103.3617129"><ele>1696</ele><time>2026-08-18T11:04:14.000Z</time></trkpt>
        <trkpt lat="29.5712303" lon="103.3617177"><ele>1698</ele><time>2026-08-18T11:04:26.000Z</time></trkpt>
        <trkpt lat="29.5711421" lon="103.3616807"><ele>1698</ele><time>2026-08-18T11:04:38.000Z</time></trkpt>
        <trkpt lat="29.5710591" lon="103.3616313"><ele>1698</ele><time>2026-08-18T11:04:52.000Z</time></trkpt>
        <trkpt lat="29.5709761" lon="103.361571"><ele>1698</ele><time>2026-08-18T11:05:10.000Z</time></trkpt>
        <trkpt lat="29.5708925" lon="103.3615049"><ele>1693</ele><time>2026-08-18T11:05:26.000Z</time></trkpt>
        <trkpt lat="29.5708097" lon="103.3614518"><ele>1693</ele><time>2026-08-18T11:05:40.000Z</time></trkpt>
        <trkpt lat="29.5707228" lon="103.3614211"><ele>1693</ele><time>2026-08-18T11:05:52.000Z</time></trkpt>
        <trkpt lat="29.5706267" lon="103.3614042"><ele>1695</ele><time>2026-08-18T11:06:06.000Z</time></trkpt>
        <trkpt lat="29.5705274" lon="103.3613725"><ele>1695</ele><time>2026-08-18T11:06:20.000Z</time></trkpt>
        <trkpt lat="29.5704335" lon="103.3613405"><ele>1695</ele><time>2026-08-18T11:06:32.000Z</time></trkpt>
        <trkpt lat="29.5703453" lon="103.3612918"><ele>1696</ele><time>2026-08-18T11:06:44.000Z</time></trkpt>
        <trkpt lat="29.5702595" lon="103.361249"><ele>1699</ele><time>2026-08-18T11:06:56.000Z</time></trkpt>
        <trkpt lat="29.5701736" lon="103.361211"><ele>1699</ele><time>2026-08-18T11:07:08.000Z</time></trkpt>
        <trkpt lat="29.5700845" lon="103.3611904"><ele>1706</ele><time>2026-08-18T11:07:20.000Z</time></trkpt>
        <trkpt lat="29.5699926" lon="103.3611704"><ele>1706</ele><time>2026-08-18T11:07:36.000Z</time></trkpt>
        <trkpt lat="29.5699168" lon="103.3611088"><ele>1706</ele><time>2026-08-18T11:07:56.000Z</time></trkpt>
        <trkpt lat="29.5698437" lon="103.3610451"><ele>1704</ele><time>2026-08-18T11:08:20.000Z</time></trkpt>
        <trkpt lat="29.5697586" lon="103.3610199"><ele>1704</ele><time>2026-08-18T11:08:36.000Z</time></trkpt>
        <trkpt lat="29.5696831" lon="103.3609636"><ele>1714</ele><time>2026-08-18T11:08:54.000Z</time></trkpt>
        <trkpt lat="29.5696073" lon="103.3608866"><ele>1714</ele><time>2026-08-18T11:09:08.000Z</time></trkpt>
        <trkpt lat="29.5695347" lon="103.360812"><ele>1716</ele><time>2026-08-18T11:09:20.000Z</time></trkpt>
        <trkpt lat="29.5694493" lon="103.3607567"><ele>1716</ele><time>2026-08-18T11:09:34.000Z</time></trkpt>
        <trkpt lat="29.5693646" lon="103.3607116"><ele>1716</ele><time>2026-08-18T11:09:52.000Z</time></trkpt>
        <trkpt lat="29.5692957" lon="103.3606439"><ele>1717</ele><time>2026-08-18T11:10:08.000Z</time></trkpt>
        <trkpt lat="29.5692192" lon="103.3605897"><ele>1717</ele><time>2026-08-18T11:10:24.000Z</time></trkpt>
        <trkpt lat="29.5691498" lon="103.3605187"><ele>1717</ele><time>2026-08-18T11:10:38.000Z</time></trkpt>
        <trkpt lat="29.5690828" lon="103.3604394"><ele>1717</ele><time>2026-08-18T11:10:56.000Z</time></trkpt>
        <trkpt lat="29.5690072" lon="103.360375"><ele>1727</ele><time>2026-08-18T11:11:12.000Z</time></trkpt>
        <trkpt lat="29.5689177" lon="103.3603161"><ele>1727</ele><time>2026-08-18T11:11:28.000Z</time></trkpt>
        <trkpt lat="29.5688438" lon="103.3602472"><ele>1727</ele><time>2026-08-18T11:11:42.000Z</time></trkpt>
        <trkpt lat="29.5688178" lon="103.3602017"><ele>1727</ele><time>2026-08-18T11:11:46.000Z</time></trkpt>
        <trkpt lat="29.5687803" lon="103.3601243"><ele>1729</ele><time>2026-08-18T11:12:14.000Z</time></trkpt>
        <trkpt lat="29.5687426" lon="103.3600246"><ele>1739</ele><time>2026-08-18T11:12:32.000Z</time></trkpt>
        <trkpt lat="29.5687448" lon="103.3599138"><ele>1739</ele><time>2026-08-18T11:12:44.000Z</time></trkpt>
        <trkpt lat="29.5687428" lon="103.3597953"><ele>1735</ele><time>2026-08-18T11:13:00.000Z</time></trkpt>
        <trkpt lat="29.5687106" lon="103.3596873"><ele>1735</ele><time>2026-08-18T11:13:18.000Z</time></trkpt>
        <trkpt lat="29.5686222" lon="103.3596704"><ele>1735</ele><time>2026-08-18T11:13:34.000Z</time></trkpt>
        <trkpt lat="29.5685204" lon="103.3596585"><ele>1735</ele><time>2026-08-18T11:13:46.000Z</time></trkpt>
        <trkpt lat="29.5684206" lon="103.3596723"><ele>1747</ele><time>2026-08-18T11:14:02.000Z</time></trkpt>
        <trkpt lat="29.5683206" lon="103.3596845"><ele>1747</ele><time>2026-08-18T11:14:16.000Z</time></trkpt>
        <trkpt lat="29.5682191" lon="103.3596865"><ele>1747</ele><time>2026-08-18T11:14:54.000Z</time></trkpt>
        <trkpt lat="29.5681535" lon="103.359618"><ele>1752</ele><time>2026-08-18T11:15:06.000Z</time></trkpt>
        <trkpt lat="29.5680802" lon="103.3595512"><ele>1749</ele><time>2026-08-18T11:15:24.000Z</time></trkpt>
        <trkpt lat="29.5679867" lon="103.3595458"><ele>1749</ele><time>2026-08-18T11:15:38.000Z</time></trkpt>
        <trkpt lat="29.5678867" lon="103.3595634"><ele>1754</ele><time>2026-08-18T11:15:50.000Z</time></trkpt>
        <trkpt lat="29.5677884" lon="103.3595474"><ele>1754</ele><time>2026-08-18T11:16:02.000Z</time></trkpt>
        <trkpt lat="29.5677009" lon="103.3594966"><ele>1754</ele><time>2026-08-18T11:16:14.000Z</time></trkpt>
        <trkpt lat="29.5676305" lon="103.3594266"><ele>1759</ele><time>2026-08-18T11:16:28.000Z</time></trkpt>
        <trkpt lat="29.5675476" lon="103.3593718"><ele>1759</ele><time>2026-08-18T11:16:44.000Z</time></trkpt>
        <trkpt lat="29.5674562" lon="103.3593595"><ele>1759</ele><time>2026-08-18T11:17:02.000Z</time></trkpt>
        <trkpt lat="29.5673718" lon="103.3593958"><ele>1759</ele><time>2026-08-18T11:17:22.000Z</time></trkpt>
        <trkpt lat="29.5672807" lon="103.3594306"><ele>1770</ele><time>2026-08-18T11:17:44.000Z</time></trkpt>
        <trkpt lat="29.5671847" lon="103.3594591"><ele>1770</ele><time>2026-08-18T11:18:14.000Z</time></trkpt>
        <trkpt lat="29.5670917" lon="103.3594453"><ele>1770</ele><time>2026-08-18T11:18:42.000Z</time></trkpt>
        <trkpt lat="29.5670118" lon="103.3593899"><ele>1781</ele><time>2026-08-18T11:19:14.000Z</time></trkpt>
        <trkpt lat="29.5669195" lon="103.359354"><ele>1781</ele><time>2026-08-18T11:19:36.000Z</time></trkpt>
        <trkpt lat="29.5668285" lon="103.3593329"><ele>1781</ele><time>2026-08-18T11:19:54.000Z</time></trkpt>
        <trkpt lat="29.566757" lon="103.3592601"><ele>1788</ele><time>2026-08-18T11:20:10.000Z</time></trkpt>
        <trkpt lat="29.5666889" lon="103.359187"><ele>1788</ele><time>2026-08-18T11:20:24.000Z</time></trkpt>
        <trkpt lat="29.566626" lon="103.3591103"><ele>1788</ele><time>2026-08-18T11:20:38.000Z</time></trkpt>
        <trkpt lat="29.5665547" lon="103.3590409"><ele>1788</ele><time>2026-08-18T11:20:54.000Z</time></trkpt>
        <trkpt lat="29.566471" lon="103.3590014"><ele>1790</ele><time>2026-08-18T11:21:10.000Z</time></trkpt>
        <trkpt lat="29.5663959" lon="103.3589427"><ele>1790</ele><time>2026-08-18T11:21:38.000Z</time></trkpt>
        <trkpt lat="29.5663431" lon="103.3588579"><ele>1790</ele><time>2026-08-18T11:22:08.000Z</time></trkpt>
        <trkpt lat="29.566288" lon="103.3587727"><ele>1790</ele><time>2026-08-18T11:22:40.000Z</time></trkpt>
        <trkpt lat="29.566225" lon="103.3586934"><ele>1797</ele><time>2026-08-18T11:23:00.000Z</time></trkpt>
        <trkpt lat="29.5661799" lon="103.3585989"><ele>1797</ele><time>2026-08-18T11:23:38.000Z</time></trkpt>
        <trkpt lat="29.5661799" lon="103.3585989"><ele>1797</ele><time>2026-08-18T11:24:24.000Z</time></trkpt>
        <trkpt lat="29.5661579" lon="103.358497"><ele>1797</ele><time>2026-08-18T11:24:26.000Z</time></trkpt>
        <trkpt lat="29.5661579" lon="103.358497"><ele>1797</ele><time>2026-08-18T11:24:32.000Z</time></trkpt>
        <trkpt lat="29.5661684" lon="103.35839"><ele>1797</ele><time>2026-08-18T11:24:48.000Z</time></trkpt>
        <trkpt lat="29.5661932" lon="103.3582847"><ele>1797</ele><time>2026-08-18T11:25:14.000Z</time></trkpt>
        <trkpt lat="29.5661798" lon="103.3581851"><ele>1801</ele><time>2026-08-18T11:26:04.000Z</time></trkpt>
        <trkpt lat="29.5661402" lon="103.3580912"><ele>1801</ele><time>2026-08-18T11:26:48.000Z</time></trkpt>
        <trkpt lat="29.5661402" lon="103.3580912"><ele>1801</ele><time>2026-08-18T11:28:23.000Z</time></trkpt>
        <trkpt lat="29.5661402" lon="103.3580912"><ele>1801</ele><time>2026-08-18T11:31:35.000Z</time></trkpt>
        <trkpt lat="29.5661402" lon="103.3580912"><ele>1801</ele><time>2026-08-18T11:32:07.000Z</time></trkpt>
        <trkpt lat="29.5660949" lon="103.3579931"><ele>1801</ele><time>2026-08-18T11:34:09.000Z</time></trkpt>
        <trkpt lat="29.5660949" lon="103.3579931"><ele>1801</ele><time>2026-08-18T11:34:10.000Z</time></trkpt>
        <trkpt lat="29.5660312" lon="103.3579078"><ele>1804</ele><time>2026-08-18T11:34:32.000Z</time></trkpt>
        <trkpt lat="29.5659975" lon="103.3578093"><ele>1804</ele><time>2026-08-18T11:34:54.000Z</time></trkpt>
        <trkpt lat="29.5659743" lon="103.3577059"><ele>1804</ele><time>2026-08-18T11:35:18.000Z</time></trkpt>
        <trkpt lat="29.5659478" lon="103.3576047"><ele>1833</ele><time>2026-08-18T11:35:40.000Z</time></trkpt>
        <trkpt lat="29.5658907" lon="103.3575254"><ele>1833</ele><time>2026-08-18T11:36:12.000Z</time></trkpt>
        <trkpt lat="29.5658187" lon="103.3574575"><ele>1833</ele><time>2026-08-18T11:36:40.000Z</time></trkpt>
        <trkpt lat="29.5657347" lon="103.3574069"><ele>1833</ele><time>2026-08-18T11:37:04.000Z</time></trkpt>
        <trkpt lat="29.5656511" lon="103.3573528"><ele>1836</ele><time>2026-08-18T11:37:22.000Z</time></trkpt>
        <trkpt lat="29.5655938" lon="103.357265"><ele>1836</ele><time>2026-08-18T11:37:34.000Z</time></trkpt>
        <trkpt lat="29.5655466" lon="103.3571715"><ele>1836</ele><time>2026-08-18T11:37:58.000Z</time></trkpt>
        <trkpt lat="29.5654892" lon="103.3570878"><ele>1836</ele><time>2026-08-18T11:38:40.000Z</time></trkpt>
        <trkpt lat="29.5654369" lon="103.3570023"><ele>1838</ele><time>2026-08-18T11:39:22.000Z</time></trkpt>
        <trkpt lat="29.5653958" lon="103.3569089"><ele>1848</ele><time>2026-08-18T11:40:00.000Z</time></trkpt>
        <trkpt lat="29.5653353" lon="103.3568307"><ele>1848</ele><time>2026-08-18T11:41:08.000Z</time></trkpt>
        <trkpt lat="29.5652478" lon="103.356786"><ele>1853</ele><time>2026-08-18T11:41:42.000Z</time></trkpt>
        <trkpt lat="29.5651635" lon="103.3567369"><ele>1853</ele><time>2026-08-18T11:42:00.000Z</time></trkpt>
        <trkpt lat="29.5650842" lon="103.3566753"><ele>1867</ele><time>2026-08-18T11:42:52.000Z</time></trkpt>
        <trkpt lat="29.5649949" lon="103.3566153"><ele>1867</ele><time>2026-08-18T11:43:28.000Z</time></trkpt>
        <trkpt lat="29.5649018" lon="103.3565773"><ele>1867</ele><time>2026-08-18T11:43:40.000Z</time></trkpt>
        <trkpt lat="29.5648466" lon="103.3564931"><ele>1874</ele><time>2026-08-18T11:43:56.000Z</time></trkpt>
        <trkpt lat="29.5647762" lon="103.3564205"><ele>1874</ele><time>2026-08-18T11:44:32.000Z</time></trkpt>
        <trkpt lat="29.5647089" lon="103.3563464"><ele>1874</ele><time>2026-08-18T11:44:52.000Z</time></trkpt>
        <trkpt lat="29.5646467" lon="103.3562461"><ele>1871</ele><time>2026-08-18T11:45:10.000Z</time></trkpt>
        <trkpt lat="29.5645939" lon="103.3561422"><ele>1871</ele><time>2026-08-18T11:45:26.000Z</time></trkpt>
        <trkpt lat="29.5645807" lon="103.3560436"><ele>1885</ele><time>2026-08-18T11:45:52.000Z</time></trkpt>
        <trkpt lat="29.5645807" lon="103.3560436"><ele>1885</ele><time>2026-08-18T11:46:56.000Z</time></trkpt>
        <trkpt lat="29.5645049" lon="103.3560597"><ele>1885</ele><time>2026-08-18T11:47:43.000Z</time></trkpt>
        <trkpt lat="29.5645049" lon="103.3560597"><ele>1885</ele><time>2026-08-18T11:48:12.000Z</time></trkpt>
        <trkpt lat="29.5644642" lon="103.3561546"><ele>1885</ele><time>2026-08-18T11:48:36.000Z</time></trkpt>
        <trkpt lat="29.564366" lon="103.356163"><ele>1885</ele><time>2026-08-18T11:49:48.000Z</time></trkpt>
        <trkpt lat="29.5643734" lon="103.356266"><ele>1886</ele><time>2026-08-18T11:50:54.000Z</time></trkpt>
        <trkpt lat="29.5643217" lon="103.3563529"><ele>1886</ele><time>2026-08-18T11:51:16.000Z</time></trkpt>
        <trkpt lat="29.564256" lon="103.3564284"><ele>1897</ele><time>2026-08-18T11:52:02.000Z</time></trkpt>
        <trkpt lat="29.5641724" lon="103.3564607"><ele>1897</ele><time>2026-08-18T11:52:38.000Z</time></trkpt>
        <trkpt lat="29.5640818" lon="103.3564928"><ele>1897</ele><time>2026-08-18T11:53:17.000Z</time></trkpt>
        <trkpt lat="29.5640818" lon="103.3564928"><ele>1897</ele><time>2026-08-18T11:57:15.000Z</time></trkpt>
        <trkpt lat="29.5640415" lon="103.3563882"><ele>1897</ele><time>2026-08-18T11:57:31.000Z</time></trkpt>
        <trkpt lat="29.5640415" lon="103.3563882"><ele>1897</ele><time>2026-08-18T11:58:01.000Z</time></trkpt>
        <trkpt lat="29.564107" lon="103.3564624"><ele>1897</ele><time>2026-08-18T11:58:49.000Z</time></trkpt>
        <trkpt lat="29.5641166" lon="103.356375"><ele>1897</ele><time>2026-08-18T11:59:13.000Z</time></trkpt>
        <trkpt lat="29.5641006" lon="103.3562676"><ele>1897</ele><time>2026-08-18T11:59:31.000Z</time></trkpt>
        <trkpt lat="29.5640687" lon="103.3561551"><ele>1898</ele><time>2026-08-18T11:59:47.000Z</time></trkpt>
        <trkpt lat="29.5640507" lon="103.3560413"><ele>1898</ele><time>2026-08-18T12:00:03.000Z</time></trkpt>
        <trkpt lat="29.5640317" lon="103.3559241"><ele>1898</ele><time>2026-08-18T12:00:21.000Z</time></trkpt>
        <trkpt lat="29.5640241" lon="103.3558052"><ele>1897</ele><time>2026-08-18T12:00:39.000Z</time></trkpt>
        <trkpt lat="29.5639964" lon="103.3556957"><ele>1897</ele><time>2026-08-18T12:00:57.000Z</time></trkpt>
        <trkpt lat="29.5639742" lon="103.3555827"><ele>1892</ele><time>2026-08-18T12:01:13.000Z</time></trkpt>
        <trkpt lat="29.5639585" lon="103.3554773"><ele>1892</ele><time>2026-08-18T12:01:29.000Z</time></trkpt>
        <trkpt lat="29.5639328" lon="103.3553745"><ele>1888</ele><time>2026-08-18T12:01:45.000Z</time></trkpt>
        <trkpt lat="29.5639105" lon="103.3552689"><ele>1888</ele><time>2026-08-18T12:02:01.000Z</time></trkpt>
        <trkpt lat="29.5638723" lon="103.355167"><ele>1888</ele><time>2026-08-18T12:02:15.000Z</time></trkpt>
        <trkpt lat="29.5638062" lon="103.3550888"><ele>1883</ele><time>2026-08-18T12:02:29.000Z</time></trkpt>
        <trkpt lat="29.563738" lon="103.3550141"><ele>1888</ele><time>2026-08-18T12:02:43.000Z</time></trkpt>
        <trkpt lat="29.5636704" lon="103.3549415"><ele>1888</ele><time>2026-08-18T12:02:53.000Z</time></trkpt>
        <trkpt lat="29.5635948" lon="103.3548816"><ele>1888</ele><time>2026-08-18T12:03:03.000Z</time></trkpt>
        <trkpt lat="29.5635238" lon="103.3548041"><ele>1881</ele><time>2026-08-18T12:03:15.000Z</time></trkpt>
        <trkpt lat="29.5634787" lon="103.3546999"><ele>1881</ele><time>2026-08-18T12:03:27.000Z</time></trkpt>
        <trkpt lat="29.5634248" lon="103.3546003"><ele>1888</ele><time>2026-08-18T12:03:41.000Z</time></trkpt>
        <trkpt lat="29.5633385" lon="103.3545178"><ele>1884</ele><time>2026-08-18T12:03:53.000Z</time></trkpt>
        <trkpt lat="29.563277" lon="103.3544277"><ele>1884</ele><time>2026-08-18T12:04:05.000Z</time></trkpt>
        <trkpt lat="29.5632549" lon="103.3543275"><ele>1884</ele><time>2026-08-18T12:04:17.000Z</time></trkpt>
        <trkpt lat="29.5632244" lon="103.3542275"><ele>1879</ele><time>2026-08-18T12:04:31.000Z</time></trkpt>
        <trkpt lat="29.5632079" lon="103.3541173"><ele>1879</ele><time>2026-08-18T12:04:43.000Z</time></trkpt>
        <trkpt lat="29.5631633" lon="103.3540196"><ele>1852</ele><time>2026-08-18T12:04:55.000Z</time></trkpt>
        <trkpt lat="29.5631261" lon="103.3539183"><ele>1852</ele><time>2026-08-18T12:05:05.000Z</time></trkpt>
        <trkpt lat="29.5631206" lon="103.3538038"><ele>1852</ele><time>2026-08-18T12:05:17.000Z</time></trkpt>
        <trkpt lat="29.5630808" lon="103.3536954"><ele>1838</ele><time>2026-08-18T12:05:29.000Z</time></trkpt>
        <trkpt lat="29.563067" lon="103.353638"><ele>1838</ele><time>2026-08-18T12:05:39.000Z</time></trkpt>
        <trkpt lat="29.5630487" lon="103.3535391"><ele>1838</ele><time>2026-08-18T12:06:01.000Z</time></trkpt>
        <trkpt lat="29.5630603" lon="103.3534755"><ele>1838</ele><time>2026-08-18T12:06:11.000Z</time></trkpt>
        <trkpt lat="29.5630683" lon="103.353385"><ele>1842</ele><time>2026-08-18T12:06:31.000Z</time></trkpt>
        <trkpt lat="29.5630457" lon="103.3532894"><ele>1842</ele><time>2026-08-18T12:06:45.000Z</time></trkpt>
        <trkpt lat="29.5630123" lon="103.3531808"><ele>1840</ele><time>2026-08-18T12:06:59.000Z</time></trkpt>
        <trkpt lat="29.5629945" lon="103.3530649"><ele>1840</ele><time>2026-08-18T12:07:15.000Z</time></trkpt>
        <trkpt lat="29.5629571" lon="103.3529572"><ele>1840</ele><time>2026-08-18T12:07:25.000Z</time></trkpt>
        <trkpt lat="29.5629227" lon="103.3528411"><ele>1840</ele><time>2026-08-18T12:07:37.000Z</time></trkpt>
        <trkpt lat="29.562926" lon="103.352726"><ele>1840</ele><time>2026-08-18T12:07:57.000Z</time></trkpt>
        <trkpt lat="29.5629639" lon="103.3526644"><ele>1840</ele><time>2026-08-18T12:08:19.000Z</time></trkpt>
        <trkpt lat="29.5629639" lon="103.3526644"><ele>1840</ele><time>2026-08-18T12:09:04.000Z</time></trkpt>
        <trkpt lat="29.5629639" lon="103.3526644"><ele>1840</ele><time>2026-08-18T12:09:10.000Z</time></trkpt>
        <trkpt lat="29.5629639" lon="103.3526644"><ele>1840</ele><time>2026-08-18T12:09:42.000Z</time></trkpt>
        <trkpt lat="29.5629639" lon="103.3526644"><ele>1840</ele><time>2026-08-18T12:10:34.000Z</time></trkpt>
        <trkpt lat="29.5629639" lon="103.3526644"><ele>1840</ele><time>2026-08-18T12:11:06.000Z</time></trkpt>
        <trkpt lat="29.5629639" lon="103.3526644"><ele>1840</ele><time>2026-08-18T12:11:12.000Z</time></trkpt>
        <trkpt lat="29.5629639" lon="103.3526644"><ele>1840</ele><time>2026-08-18T12:12:35.000Z</time></trkpt>
        <trkpt lat="29.5629639" lon="103.3526644"><ele>1840</ele><time>2026-08-18T12:13:57.000Z</time></trkpt>
        <trkpt lat="29.5629639" lon="103.3526644"><ele>1840</ele><time>2026-08-18T12:14:38.000Z</time></trkpt>
        <trkpt lat="29.5629639" lon="103.3526644"><ele>1840</ele><time>2026-08-18T12:14:54.000Z</time></trkpt>
        <trkpt lat="29.5629639" lon="103.3526644"><ele>1840</ele><time>2026-08-18T12:15:26.000Z</time></trkpt>
        <trkpt lat="29.5629639" lon="103.3526644"><ele>1840</ele><time>2026-08-18T12:15:42.000Z</time></trkpt>
        <trkpt lat="29.5629639" lon="103.3526644"><ele>1840</ele><time>2026-08-18T12:16:14.000Z</time></trkpt>
        <trkpt lat="29.563011" lon="103.3525798"><ele>1834</ele><time>2026-08-18T12:17:33.000Z</time></trkpt>
        <trkpt lat="29.563011" lon="103.3525798"><ele>1834</ele><time>2026-08-18T12:17:58.000Z</time></trkpt>
        <trkpt lat="29.5630484" lon="103.3524836"><ele>1834</ele><time>2026-08-18T12:18:16.000Z</time></trkpt>
        <trkpt lat="29.5630932" lon="103.3523931"><ele>1834</ele><time>2026-08-18T12:18:32.000Z</time></trkpt>
        <trkpt lat="29.5631364" lon="103.3522919"><ele>1832</ele><time>2026-08-18T12:18:44.000Z</time></trkpt>
        <trkpt lat="29.5631151" lon="103.3521951"><ele>1832</ele><time>2026-08-18T12:18:56.000Z</time></trkpt>
        <trkpt lat="29.5630743" lon="103.3520996"><ele>1832</ele><time>2026-08-18T12:19:06.000Z</time></trkpt>
        <trkpt lat="29.5630381" lon="103.3520007"><ele>1829</ele><time>2026-08-18T12:19:18.000Z</time></trkpt>
        <trkpt lat="29.5630076" lon="103.3518988"><ele>1829</ele><time>2026-08-18T12:19:36.000Z</time></trkpt>
        <trkpt lat="29.5629859" lon="103.3517867"><ele>1827</ele><time>2026-08-18T12:19:50.000Z</time></trkpt>
        <trkpt lat="29.5629835" lon="103.3516745"><ele>1827</ele><time>2026-08-18T12:20:04.000Z</time></trkpt>
        <trkpt lat="29.5629654" lon="103.3515642"><ele>1827</ele><time>2026-08-18T12:20:18.000Z</time></trkpt>
        <trkpt lat="29.5629298" lon="103.3514604"><ele>1823</ele><time>2026-08-18T12:20:36.000Z</time></trkpt>
        <trkpt lat="29.5629382" lon="103.3513541"><ele>1823</ele><time>2026-08-18T12:20:50.000Z</time></trkpt>
        <trkpt lat="29.5629835" lon="103.3512604"><ele>1823</ele><time>2026-08-18T12:21:02.000Z</time></trkpt>
        <trkpt lat="29.5629899" lon="103.351162"><ele>1820</ele><time>2026-08-18T12:21:12.000Z</time></trkpt>
        <trkpt lat="29.562973" lon="103.3510549"><ele>1820</ele><time>2026-08-18T12:21:24.000Z</time></trkpt>
        <trkpt lat="29.5629404" lon="103.3509442"><ele>1816</ele><time>2026-08-18T12:21:36.000Z</time></trkpt>
        <trkpt lat="29.5629072" lon="103.3508315"><ele>1819</ele><time>2026-08-18T12:21:48.000Z</time></trkpt>
        <trkpt lat="29.5628481" lon="103.3507433"><ele>1819</ele><time>2026-08-18T12:22:02.000Z</time></trkpt>
        <trkpt lat="29.5628481" lon="103.3507433"><ele>1819</ele><time>2026-08-18T12:22:53.000Z</time></trkpt>
        <trkpt lat="29.5628481" lon="103.3507433"><ele>1819</ele><time>2026-08-18T12:24:15.000Z</time></trkpt>
        <trkpt lat="29.5628481" lon="103.3507433"><ele>1819</ele><time>2026-08-18T12:24:53.000Z</time></trkpt>
        <trkpt lat="29.5628481" lon="103.3507433"><ele>1819</ele><time>2026-08-18T12:29:38.000Z</time></trkpt>
        <trkpt lat="29.5628481" lon="103.3507433"><ele>1819</ele><time>2026-08-18T12:31:02.000Z</time></trkpt>
        <trkpt lat="29.5628481" lon="103.3507433"><ele>1819</ele><time>2026-08-18T12:32:03.000Z</time></trkpt>
        <trkpt lat="29.5628481" lon="103.3507433"><ele>1819</ele><time>2026-08-18T12:32:35.000Z</time></trkpt>
        <trkpt lat="29.5628481" lon="103.3507433"><ele>1819</ele><time>2026-08-18T12:35:37.000Z</time></trkpt>
        <trkpt lat="29.5628481" lon="103.3507433"><ele>1819</ele><time>2026-08-18T12:36:08.000Z</time></trkpt>
        <trkpt lat="29.5628481" lon="103.3507433"><ele>1819</ele><time>2026-08-18T12:37:15.000Z</time></trkpt>
        <trkpt lat="29.5628481" lon="103.3507433"><ele>1819</ele><time>2026-08-18T12:37:49.000Z</time></trkpt>
        <trkpt lat="29.5628481" lon="103.3507433"><ele>1819</ele><time>2026-08-18T12:50:27.000Z</time></trkpt>
        <trkpt lat="29.5628481" lon="103.3507433"><ele>1819</ele><time>2026-08-18T12:51:33.000Z</time></trkpt>
        <trkpt lat="29.5628481" lon="103.3507433"><ele>1819</ele><time>2026-08-18T12:53:51.000Z</time></trkpt>
        <trkpt lat="29.5628481" lon="103.3507433"><ele>1819</ele><time>2026-08-18T12:54:23.000Z</time></trkpt>
        <trkpt lat="29.5628481" lon="103.3507433"><ele>1819</ele><time>2026-08-18T13:00:41.000Z</time></trkpt>
        <trkpt lat="29.5628481" lon="103.3507433"><ele>1819</ele><time>2026-08-18T13:01:13.000Z</time></trkpt>
        <trkpt lat="29.5628481" lon="103.3507433"><ele>1819</ele><time>2026-08-18T13:08:27.000Z</time></trkpt>
        <trkpt lat="29.5628481" lon="103.3507433"><ele>1819</ele><time>2026-08-18T13:09:07.000Z</time></trkpt>
        <trkpt lat="29.5628481" lon="103.3507433"><ele>1819</ele><time>2026-08-18T13:13:31.000Z</time></trkpt>
        <trkpt lat="29.5628481" lon="103.3507433"><ele>1819</ele><time>2026-08-18T13:14:03.000Z</time></trkpt>
        <trkpt lat="29.5628208" lon="103.3506449"><ele>1817</ele><time>2026-08-18T13:16:41.000Z</time></trkpt>
        <trkpt lat="29.5628208" lon="103.3506449"><ele>1817</ele><time>2026-08-18T13:16:58.000Z</time></trkpt>
        <trkpt lat="29.562837" lon="103.3506338"><ele>1817</ele><time>2026-08-18T13:17:00.000Z</time></trkpt>
        <trkpt lat="29.562837" lon="103.3506338"><ele>1817</ele><time>2026-08-18T13:17:30.000Z</time></trkpt>
        <trkpt lat="29.562837" lon="103.3506338"><ele>1817</ele><time>2026-08-18T14:39:27.000Z</time></trkpt>
        <trkpt lat="29.562837" lon="103.3506338"><ele>1817</ele><time>2026-08-18T14:40:21.000Z</time></trkpt>
        <trkpt lat="29.562837" lon="103.3506338"><ele>1817</ele><time>2026-08-18T14:44:09.000Z</time></trkpt>
        <trkpt lat="29.562837" lon="103.3506338"><ele>1817</ele><time>2026-08-18T14:44:41.000Z</time></trkpt>
        <trkpt lat="29.562837" lon="103.3506338"><ele>1817</ele><time>2026-08-18T14:45:13.000Z</time></trkpt>
        <trkpt lat="29.562837" lon="103.3506338"><ele>1817</ele><time>2026-08-18T14:45:45.000Z</time></trkpt>
        <trkpt lat="29.5627808" lon="103.3506994"><ele>1819</ele><time>2026-08-18T15:28:07.000Z</time></trkpt>
        <trkpt lat="29.5627808" lon="103.3506994"><ele>1819</ele><time>2026-08-18T15:28:09.000Z</time></trkpt>
        <trkpt lat="29.5627717" lon="103.350615"><ele>1817</ele><time>2026-08-18T15:28:19.000Z</time></trkpt>
        <trkpt lat="29.5627672" lon="103.3505074"><ele>1817</ele><time>2026-08-18T15:28:37.000Z</time></trkpt>
        <trkpt lat="29.5627773" lon="103.3503872"><ele>1816</ele><time>2026-08-18T15:28:53.000Z</time></trkpt>
        <trkpt lat="29.5628166" lon="103.3502816"><ele>1816</ele><time>2026-08-18T15:29:05.000Z</time></trkpt>
        <trkpt lat="29.562855" lon="103.3501705"><ele>1816</ele><time>2026-08-18T15:29:21.000Z</time></trkpt>
        <trkpt lat="29.5628802" lon="103.3500576"><ele>1815</ele><time>2026-08-18T15:29:35.000Z</time></trkpt>
        <trkpt lat="29.5628964" lon="103.3499418"><ele>1815</ele><time>2026-08-18T15:29:53.000Z</time></trkpt>
        <trkpt lat="29.5628882" lon="103.3498331"><ele>1814</ele><time>2026-08-18T15:30:05.000Z</time></trkpt>
        <trkpt lat="29.5628835" lon="103.349795"><ele>1814</ele><time>2026-08-18T15:30:11.000Z</time></trkpt>
        <trkpt lat="29.5629118" lon="103.3497181"><ele>1814</ele><time>2026-08-18T15:30:33.000Z</time></trkpt>
        <trkpt lat="29.56295" lon="103.3496177"><ele>1812</ele><time>2026-08-18T15:30:49.000Z</time></trkpt>
        <trkpt lat="29.5630132" lon="103.3495257"><ele>1813</ele><time>2026-08-18T15:31:01.000Z</time></trkpt>
        <trkpt lat="29.5630743" lon="103.3494261"><ele>1813</ele><time>2026-08-18T15:31:13.000Z</time></trkpt>
        <trkpt lat="29.5631108" lon="103.3493168"><ele>1813</ele><time>2026-08-18T15:31:25.000Z</time></trkpt>
        <trkpt lat="29.563157" lon="103.3492173"><ele>1814</ele><time>2026-08-18T15:31:37.000Z</time></trkpt>
        <trkpt lat="29.5632059" lon="103.3491268"><ele>1816</ele><time>2026-08-18T15:31:47.000Z</time></trkpt>
        <trkpt lat="29.5632158" lon="103.3490279"><ele>1816</ele><time>2026-08-18T15:31:59.000Z</time></trkpt>
        <trkpt lat="29.5632243" lon="103.3489251"><ele>1819</ele><time>2026-08-18T15:32:13.000Z</time></trkpt>
        <trkpt lat="29.5632402" lon="103.3488134"><ele>1819</ele><time>2026-08-18T15:32:27.000Z</time></trkpt>
        <trkpt lat="29.5632315" lon="103.3487054"><ele>1822</ele><time>2026-08-18T15:32:39.000Z</time></trkpt>
        <trkpt lat="29.5632174" lon="103.3485867"><ele>1822</ele><time>2026-08-18T15:32:53.000Z</time></trkpt>
        <trkpt lat="29.5632279" lon="103.3484675"><ele>1825</ele><time>2026-08-18T15:33:05.000Z</time></trkpt>
        <trkpt lat="29.5632443" lon="103.3483579"><ele>1825</ele><time>2026-08-18T15:33:17.000Z</time></trkpt>
        <trkpt lat="29.5633029" lon="103.3482798"><ele>1825</ele><time>2026-08-18T15:33:31.000Z</time></trkpt>
        <trkpt lat="29.563364" lon="103.3481961"><ele>1825</ele><time>2026-08-18T15:33:45.000Z</time></trkpt>
        <trkpt lat="29.563408" lon="103.3481026"><ele>1832</ele><time>2026-08-18T15:33:57.000Z</time></trkpt>
        <trkpt lat="29.5634678" lon="103.3480102"><ele>1832</ele><time>2026-08-18T15:34:09.000Z</time></trkpt>
        <trkpt lat="29.5635368" lon="103.3479333"><ele>1813</ele><time>2026-08-18T15:34:19.000Z</time></trkpt>
        <trkpt lat="29.5635659" lon="103.3478382"><ele>1820</ele><time>2026-08-18T15:34:33.000Z</time></trkpt>
        <trkpt lat="29.5635722" lon="103.3477279"><ele>1820</ele><time>2026-08-18T15:34:47.000Z</time></trkpt>
        <trkpt lat="29.5635499" lon="103.3476226"><ele>1827</ele><time>2026-08-18T15:34:59.000Z</time></trkpt>
        <trkpt lat="29.5635484" lon="103.3475075"><ele>1827</ele><time>2026-08-18T15:35:15.000Z</time></trkpt>
        <trkpt lat="29.5635217" lon="103.3474019"><ele>1827</ele><time>2026-08-18T15:35:27.000Z</time></trkpt>
        <trkpt lat="29.563473" lon="103.3472966"><ele>1822</ele><time>2026-08-18T15:35:41.000Z</time></trkpt>
        <trkpt lat="29.5633971" lon="103.3472032"><ele>1836</ele><time>2026-08-18T15:35:55.000Z</time></trkpt>
        <trkpt lat="29.5633074" lon="103.3471375"><ele>1836</ele><time>2026-08-18T15:36:07.000Z</time></trkpt>
        <trkpt lat="29.5632209" lon="103.3470866"><ele>1836</ele><time>2026-08-18T15:36:19.000Z</time></trkpt>
        <trkpt lat="29.5631431" lon="103.3470194"><ele>1834</ele><time>2026-08-18T15:37:05.000Z</time></trkpt>
        <trkpt lat="29.5630758" lon="103.3469331"><ele>1834</ele><time>2026-08-18T15:37:17.000Z</time></trkpt>
        <trkpt lat="29.5630156" lon="103.3468505"><ele>1834</ele><time>2026-08-18T15:37:29.000Z</time></trkpt>
        <trkpt lat="29.5629659" lon="103.3467589"><ele>1828</ele><time>2026-08-18T15:37:41.000Z</time></trkpt>
        <trkpt lat="29.5629117" lon="103.3466672"><ele>1838</ele><time>2026-08-18T15:37:59.000Z</time></trkpt>
        <trkpt lat="29.5628552" lon="103.3465836"><ele>1838</ele><time>2026-08-18T15:38:09.000Z</time></trkpt>
        <trkpt lat="29.5627812" lon="103.3465167"><ele>1826</ele><time>2026-08-18T15:38:21.000Z</time></trkpt>
        <trkpt lat="29.5626893" lon="103.3464882"><ele>1826</ele><time>2026-08-18T15:38:29.000Z</time></trkpt>
        <trkpt lat="29.562602" lon="103.3464523"><ele>1836</ele><time>2026-08-18T15:38:37.000Z</time></trkpt>
        <trkpt lat="29.5625324" lon="103.3463894"><ele>1836</ele><time>2026-08-18T15:38:47.000Z</time></trkpt>
        <trkpt lat="29.5624522" lon="103.3463208"><ele>1836</ele><time>2026-08-18T15:38:59.000Z</time></trkpt>
        <trkpt lat="29.5623813" lon="103.3462308"><ele>1824</ele><time>2026-08-18T15:39:11.000Z</time></trkpt>
        <trkpt lat="29.562308" lon="103.3461476"><ele>1823</ele><time>2026-08-18T15:39:21.000Z</time></trkpt>
        <trkpt lat="29.5622544" lon="103.3460578"><ele>1823</ele><time>2026-08-18T15:39:31.000Z</time></trkpt>
        <trkpt lat="29.5622192" lon="103.3459536"><ele>1817</ele><time>2026-08-18T15:39:41.000Z</time></trkpt>
        <trkpt lat="29.5621807" lon="103.3458518"><ele>1817</ele><time>2026-08-18T15:39:53.000Z</time></trkpt>
        <trkpt lat="29.5621369" lon="103.3457597"><ele>1817</ele><time>2026-08-18T15:40:03.000Z</time></trkpt>
        <trkpt lat="29.5620651" lon="103.3456951"><ele>1822</ele><time>2026-08-18T15:40:13.000Z</time></trkpt>
        <trkpt lat="29.5619858" lon="103.345616"><ele>1813</ele><time>2026-08-18T15:40:25.000Z</time></trkpt>
        <trkpt lat="29.5618978" lon="103.3455777"><ele>1813</ele><time>2026-08-18T15:40:35.000Z</time></trkpt>
        <trkpt lat="29.5617996" lon="103.3455717"><ele>1822</ele><time>2026-08-18T15:40:51.000Z</time></trkpt>
        <trkpt lat="29.5617024" lon="103.3455848"><ele>1822</ele><time>2026-08-18T15:41:03.000Z</time></trkpt>
        <trkpt lat="29.5616034" lon="103.345579"><ele>1822</ele><time>2026-08-18T15:41:15.000Z</time></trkpt>
        <trkpt lat="29.5615296" lon="103.3455198"><ele>1822</ele><time>2026-08-18T15:41:31.000Z</time></trkpt>
        <trkpt lat="29.5614658" lon="103.3454421"><ele>1833</ele><time>2026-08-18T15:41:43.000Z</time></trkpt>
        <trkpt lat="29.5614066" lon="103.3453577"><ele>1833</ele><time>2026-08-18T15:41:55.000Z</time></trkpt>
        <trkpt lat="29.5613582" lon="103.3452602"><ele>1833</ele><time>2026-08-18T15:42:17.000Z</time></trkpt>
        <trkpt lat="29.5612931" lon="103.345187"><ele>1833</ele><time>2026-08-18T15:42:35.000Z</time></trkpt>
        <trkpt lat="29.5612149" lon="103.3451217"><ele>1856</ele><time>2026-08-18T15:43:09.000Z</time></trkpt>
        <trkpt lat="29.5612262" lon="103.3450774"><ele>1856</ele><time>2026-08-18T15:43:39.000Z</time></trkpt>
        <trkpt lat="29.5611594" lon="103.3450444"><ele>1856</ele><time>2026-08-18T15:44:49.000Z</time></trkpt>
        <trkpt lat="29.5611645" lon="103.3450014"><ele>1856</ele><time>2026-08-18T15:44:59.000Z</time></trkpt>
        <trkpt lat="29.5611645" lon="103.3450014"><ele>1856</ele><time>2026-08-18T15:45:50.000Z</time></trkpt>
        <trkpt lat="29.5610761" lon="103.3450694"><ele>1856</ele><time>2026-08-18T15:47:14.000Z</time></trkpt>
        <trkpt lat="29.5610761" lon="103.3450694"><ele>1856</ele><time>2026-08-18T15:50:19.000Z</time></trkpt>
        <trkpt lat="29.5610761" lon="103.3450694"><ele>1856</ele><time>2026-08-18T15:50:56.000Z</time></trkpt>
        <trkpt lat="29.5609862" lon="103.345047"><ele>1856</ele><time>2026-08-18T15:51:00.000Z</time></trkpt>
        <trkpt lat="29.5609862" lon="103.345047"><ele>1856</ele><time>2026-08-18T15:51:39.000Z</time></trkpt>
        <trkpt lat="29.5608967" lon="103.3450912"><ele>1879</ele><time>2026-08-18T15:52:11.000Z</time></trkpt>
        <trkpt lat="29.5608381" lon="103.3450252"><ele>1879</ele><time>2026-08-18T15:52:53.000Z</time></trkpt>
        <trkpt lat="29.5608263" lon="103.3449261"><ele>1879</ele><time>2026-08-18T15:53:37.000Z</time></trkpt>
        <trkpt lat="29.5608027" lon="103.3449118"><ele>1879</ele><time>2026-08-18T15:53:49.000Z</time></trkpt>
        <trkpt lat="29.5607411" lon="103.344858"><ele>1880</ele><time>2026-08-18T15:56:01.000Z</time></trkpt>
        <trkpt lat="29.5607376" lon="103.3447509"><ele>1880</ele><time>2026-08-18T15:56:23.000Z</time></trkpt>
        <trkpt lat="29.5606691" lon="103.3446707"><ele>1898</ele><time>2026-08-18T15:58:17.000Z</time></trkpt>
        <trkpt lat="29.5606678" lon="103.3446753"><ele>1898</ele><time>2026-08-18T15:58:19.000Z</time></trkpt>
        <trkpt lat="29.5606678" lon="103.3446753"><ele>1898</ele><time>2026-08-18T15:59:10.000Z</time></trkpt>
        <trkpt lat="29.5606678" lon="103.3446753"><ele>1898</ele><time>2026-08-18T15:59:44.000Z</time></trkpt>
        <trkpt lat="29.5606678" lon="103.3446753"><ele>1898</ele><time>2026-08-18T16:00:33.000Z</time></trkpt>
        <trkpt lat="29.5606678" lon="103.3446753"><ele>1898</ele><time>2026-08-18T16:00:40.000Z</time></trkpt>
        <trkpt lat="29.5606678" lon="103.3446753"><ele>1898</ele><time>2026-08-18T16:01:22.000Z</time></trkpt>
        <trkpt lat="29.5605699" lon="103.344668"><ele>1898</ele><time>2026-08-18T16:07:22.000Z</time></trkpt>
        <trkpt lat="29.5605699" lon="103.344668"><ele>1898</ele><time>2026-08-18T16:08:37.000Z</time></trkpt>
        <trkpt lat="29.5604811" lon="103.3446421"><ele>1898</ele><time>2026-08-18T16:08:59.000Z</time></trkpt>
        <trkpt lat="29.5604031" lon="103.3445875"><ele>1916</ele><time>2026-08-18T16:09:27.000Z</time></trkpt>
        <trkpt lat="29.5603375" lon="103.3445064"><ele>1923</ele><time>2026-08-18T16:09:51.000Z</time></trkpt>
        <trkpt lat="29.5602626" lon="103.344446"><ele>1923</ele><time>2026-08-18T16:10:39.000Z</time></trkpt>
        <trkpt lat="29.5601907" lon="103.3443685"><ele>1923</ele><time>2026-08-18T16:11:43.000Z</time></trkpt>
        <trkpt lat="29.5601907" lon="103.3443685"><ele>1923</ele><time>2026-08-18T16:13:04.000Z</time></trkpt>
        <trkpt lat="29.5601907" lon="103.3443685"><ele>1923</ele><time>2026-08-18T16:13:34.000Z</time></trkpt>
        <trkpt lat="29.5601907" lon="103.3443685"><ele>1923</ele><time>2026-08-18T16:16:31.000Z</time></trkpt>
        <trkpt lat="29.5601522" lon="103.3442593"><ele>1931</ele><time>2026-08-18T16:16:40.000Z</time></trkpt>
        <trkpt lat="29.5601522" lon="103.3442593"><ele>1931</ele><time>2026-08-18T16:16:47.000Z</time></trkpt>
        <trkpt lat="29.5601292" lon="103.3442497"><ele>1955</ele><time>2026-08-18T16:17:17.000Z</time></trkpt>
        <trkpt lat="29.5601135" lon="103.3441596"><ele>1955</ele><time>2026-08-18T16:18:13.000Z</time></trkpt>
        <trkpt lat="29.5601002" lon="103.3440301"><ele>1955</ele><time>2026-08-18T16:19:46.000Z</time></trkpt>
        <trkpt lat="29.5600749" lon="103.343999"><ele>1958</ele><time>2026-08-18T16:20:17.000Z</time></trkpt>
        <trkpt lat="29.5601441" lon="103.3439692"><ele>1934</ele><time>2026-08-18T16:21:16.000Z</time></trkpt>
        <trkpt lat="29.5601441" lon="103.3439692"><ele>1934</ele><time>2026-08-18T16:22:19.000Z</time></trkpt>
        <trkpt lat="29.5601441" lon="103.3439692"><ele>1934</ele><time>2026-08-18T16:22:29.000Z</time></trkpt>
        <trkpt lat="29.5601441" lon="103.3439692"><ele>1934</ele><time>2026-08-18T16:23:17.000Z</time></trkpt>
        <trkpt lat="29.5601019" lon="103.3438907"><ele>1958</ele><time>2026-08-18T16:23:37.000Z</time></trkpt>
        <trkpt lat="29.5601019" lon="103.3438907"><ele>1958</ele><time>2026-08-18T16:25:34.000Z</time></trkpt>
        <trkpt lat="29.5600367" lon="103.3438129"><ele>1958</ele><time>2026-08-18T16:26:06.000Z</time></trkpt>
        <trkpt lat="29.5600367" lon="103.3438129"><ele>1958</ele><time>2026-08-18T16:27:14.000Z</time></trkpt>
        <trkpt lat="29.5600367" lon="103.3438129"><ele>1958</ele><time>2026-08-18T16:27:55.000Z</time></trkpt>
        <trkpt lat="29.5600367" lon="103.3438129"><ele>1958</ele><time>2026-08-18T16:28:27.000Z</time></trkpt>
        <trkpt lat="29.559951" lon="103.3437569"><ele>1958</ele><time>2026-08-18T16:30:11.000Z</time></trkpt>
        <trkpt lat="29.559951" lon="103.3437569"><ele>1958</ele><time>2026-08-18T16:33:06.000Z</time></trkpt>
        <trkpt lat="29.5598607" lon="103.3437252"><ele>1980</ele><time>2026-08-18T16:33:32.000Z</time></trkpt>
        <trkpt lat="29.5598422" lon="103.3436105"><ele>1980</ele><time>2026-08-18T16:34:50.000Z</time></trkpt>
        <trkpt lat="29.5597649" lon="103.3435505"><ele>1980</ele><time>2026-08-18T16:35:16.000Z</time></trkpt>
        <trkpt lat="29.5596826" lon="103.343486"><ele>1980</ele><time>2026-08-18T16:35:44.000Z</time></trkpt>
        <trkpt lat="29.5596556" lon="103.3434594"><ele>1982</ele><time>2026-08-18T16:35:52.000Z</time></trkpt>
        <trkpt lat="29.5596674" lon="103.3435329"><ele>1980</ele><time>2026-08-18T16:36:50.000Z</time></trkpt>
        <trkpt lat="29.5596674" lon="103.3435329"><ele>1980</ele><time>2026-08-18T16:38:11.000Z</time></trkpt>
        <trkpt lat="29.5595958" lon="103.3435742"><ele>1980</ele><time>2026-08-18T16:38:13.000Z</time></trkpt>
        <trkpt lat="29.5595958" lon="103.3435742"><ele>1980</ele><time>2026-08-18T16:38:42.000Z</time></trkpt>
        <trkpt lat="29.5595025" lon="103.3435318"><ele>1999</ele><time>2026-08-18T16:39:32.000Z</time></trkpt>
        <trkpt lat="29.5594787" lon="103.3435243"><ele>1999</ele><time>2026-08-18T16:39:36.000Z</time></trkpt>
        <trkpt lat="29.5594787" lon="103.3435243"><ele>1999</ele><time>2026-08-18T16:42:13.000Z</time></trkpt>
        <trkpt lat="29.559429" lon="103.343624"><ele>1999</ele><time>2026-08-18T16:42:17.000Z</time></trkpt>
        <trkpt lat="29.559429" lon="103.343624"><ele>1999</ele><time>2026-08-18T16:42:22.000Z</time></trkpt>
        <trkpt lat="29.5593385" lon="103.343599"><ele>1999</ele><time>2026-08-18T16:43:02.000Z</time></trkpt>
        <trkpt lat="29.5593385" lon="103.343599"><ele>1999</ele><time>2026-08-18T16:46:38.000Z</time></trkpt>
        <trkpt lat="29.5593385" lon="103.343599"><ele>1999</ele><time>2026-08-18T16:46:48.000Z</time></trkpt>
        <trkpt lat="29.5593385" lon="103.343599"><ele>1999</ele><time>2026-08-18T16:47:20.000Z</time></trkpt>
        <trkpt lat="29.5593385" lon="103.343599"><ele>1999</ele><time>2026-08-18T16:47:42.000Z</time></trkpt>
        <trkpt lat="29.5593385" lon="103.343599"><ele>1999</ele><time>2026-08-18T16:49:23.000Z</time></trkpt>
        <trkpt lat="29.5593385" lon="103.343599"><ele>1999</ele><time>2026-08-18T16:49:45.000Z</time></trkpt>
        <trkpt lat="29.5593385" lon="103.343599"><ele>1999</ele><time>2026-08-18T16:50:33.000Z</time></trkpt>
        <trkpt lat="29.5592826" lon="103.3436814"><ele>2019</ele><time>2026-08-18T16:51:11.000Z</time></trkpt>
        <trkpt lat="29.5592826" lon="103.3436814"><ele>2019</ele><time>2026-08-18T16:51:56.000Z</time></trkpt>
        <trkpt lat="29.559258" lon="103.3437826"><ele>2019</ele><time>2026-08-18T16:52:28.000Z</time></trkpt>
        <trkpt lat="29.5591887" lon="103.3438543"><ele>2019</ele><time>2026-08-18T16:52:52.000Z</time></trkpt>
        <trkpt lat="29.5591642" lon="103.343789"><ele>2019</ele><time>2026-08-18T16:53:14.000Z</time></trkpt>
        <trkpt lat="29.5590821" lon="103.3437117"><ele>2019</ele><time>2026-08-18T16:54:44.000Z</time></trkpt>
        <trkpt lat="29.5590767" lon="103.3437304"><ele>2019</ele><time>2026-08-18T16:54:50.000Z</time></trkpt>
        <trkpt lat="29.5590416" lon="103.3436347"><ele>2019</ele><time>2026-08-18T16:57:16.000Z</time></trkpt>
        <trkpt lat="29.5589851" lon="103.343723"><ele>2031</ele><time>2026-08-18T16:57:44.000Z</time></trkpt>
        <trkpt lat="29.5589786" lon="103.3437732"><ele>2034</ele><time>2026-08-18T16:57:58.000Z</time></trkpt>
        <trkpt lat="29.558908" lon="103.3437797"><ele>2034</ele><time>2026-08-18T16:58:46.000Z</time></trkpt>
        <trkpt lat="29.5588815" lon="103.3438566"><ele>2034</ele><time>2026-08-18T16:59:04.000Z</time></trkpt>
        <trkpt lat="29.5589027" lon="103.3439584"><ele>2034</ele><time>2026-08-18T16:59:20.000Z</time></trkpt>
        <trkpt lat="29.5589278" lon="103.3440684"><ele>2038</ele><time>2026-08-18T16:59:38.000Z</time></trkpt>
        <trkpt lat="29.5589393" lon="103.3441848"><ele>2038</ele><time>2026-08-18T17:01:10.000Z</time></trkpt>
        <trkpt lat="29.5588543" lon="103.3442317"><ele>2038</ele><time>2026-08-18T17:01:30.000Z</time></trkpt>
        <trkpt lat="29.5588543" lon="103.3442317"><ele>2038</ele><time>2026-08-18T17:02:38.000Z</time></trkpt>
        <trkpt lat="29.5588706" lon="103.3443394"><ele>2021</ele><time>2026-08-18T17:02:43.000Z</time></trkpt>
        <trkpt lat="29.5588706" lon="103.3443394"><ele>2021</ele><time>2026-08-18T17:03:16.000Z</time></trkpt>
        <trkpt lat="29.5587818" lon="103.3442993"><ele>2038</ele><time>2026-08-18T17:04:26.000Z</time></trkpt>
        <trkpt lat="29.5587802" lon="103.3443008"><ele>2038</ele><time>2026-08-18T17:04:28.000Z</time></trkpt>
        <trkpt lat="29.5587133" lon="103.3442196"><ele>2056</ele><time>2026-08-18T17:05:34.000Z</time></trkpt>
        <trkpt lat="29.5585969" lon="103.3441898"><ele>2056</ele><time>2026-08-18T17:05:50.000Z</time></trkpt>
        <trkpt lat="29.5585524" lon="103.3441883"><ele>2056</ele><time>2026-08-18T17:06:04.000Z</time></trkpt>
        <trkpt lat="29.5585524" lon="103.3441883"><ele>2056</ele><time>2026-08-18T17:08:11.000Z</time></trkpt>
        <trkpt lat="29.5584786" lon="103.3441583"><ele>2056</ele><time>2026-08-18T17:08:35.000Z</time></trkpt>
        <trkpt lat="29.5584786" lon="103.3441583"><ele>2056</ele><time>2026-08-18T17:08:52.000Z</time></trkpt>
        <trkpt lat="29.5584786" lon="103.3441583"><ele>2056</ele><time>2026-08-18T17:10:16.000Z</time></trkpt>
        <trkpt lat="29.5583899" lon="103.3441014"><ele>2058</ele><time>2026-08-18T17:12:40.000Z</time></trkpt>
        <trkpt lat="29.5583899" lon="103.3441014"><ele>2058</ele><time>2026-08-18T17:12:50.000Z</time></trkpt>
        <trkpt lat="29.5582965" lon="103.3440771"><ele>2058</ele><time>2026-08-18T17:13:12.000Z</time></trkpt>
        <trkpt lat="29.5582846" lon="103.344075"><ele>2058</ele><time>2026-08-18T17:13:14.000Z</time></trkpt>
        <trkpt lat="29.558201" lon="103.3440987"><ele>2058</ele><time>2026-08-18T17:13:36.000Z</time></trkpt>
        <trkpt lat="29.5581632" lon="103.3441601"><ele>2073</ele><time>2026-08-18T17:13:42.000Z</time></trkpt>
        <trkpt lat="29.5581765" lon="103.344258"><ele>2073</ele><time>2026-08-18T17:13:56.000Z</time></trkpt>
        <trkpt lat="29.5581281" lon="103.3441397"><ele>2073</ele><time>2026-08-18T17:14:05.000Z</time></trkpt>
        <trkpt lat="29.5581787" lon="103.3441149"><ele>2073</ele><time>2026-08-18T17:14:53.000Z</time></trkpt>
        <trkpt lat="29.5580281" lon="103.3440815"><ele>2073</ele><time>2026-08-18T17:15:06.000Z</time></trkpt>
        <trkpt lat="29.5579044" lon="103.3440733"><ele>2071</ele><time>2026-08-18T17:15:20.000Z</time></trkpt>
        <trkpt lat="29.5578715" lon="103.3440294"><ele>2071</ele><time>2026-08-18T17:15:22.000Z</time></trkpt>
        <trkpt lat="29.5578187" lon="103.3440096"><ele>2067</ele><time>2026-08-18T17:15:32.000Z</time></trkpt>
        <trkpt lat="29.5577355" lon="103.3440329"><ele>2071</ele><time>2026-08-18T17:15:40.000Z</time></trkpt>
        <trkpt lat="29.557639" lon="103.344018"><ele>2067</ele><time>2026-08-18T17:16:42.000Z</time></trkpt>
        <trkpt lat="29.557645" lon="103.3440738"><ele>2071</ele><time>2026-08-18T17:16:46.000Z</time></trkpt>
        <trkpt lat="29.557645" lon="103.3440738"><ele>2071</ele><time>2026-08-18T17:18:27.000Z</time></trkpt>
        <trkpt lat="29.557645" lon="103.3440738"><ele>2071</ele><time>2026-08-18T17:19:12.000Z</time></trkpt>
        <trkpt lat="29.557645" lon="103.3440738"><ele>2071</ele><time>2026-08-18T17:20:14.000Z</time></trkpt>
        <trkpt lat="29.5576515" lon="103.3439517"><ele>2067</ele><time>2026-08-18T17:20:50.000Z</time></trkpt>
        <trkpt lat="29.5576515" lon="103.3439517"><ele>2067</ele><time>2026-08-18T17:21:01.000Z</time></trkpt>
        <trkpt lat="29.5575776" lon="103.3438705"><ele>2068</ele><time>2026-08-18T17:21:19.000Z</time></trkpt>
        <trkpt lat="29.5575109" lon="103.3437962"><ele>2068</ele><time>2026-08-18T17:21:37.000Z</time></trkpt>
        <trkpt lat="29.5574471" lon="103.3437187"><ele>2068</ele><time>2026-08-18T17:22:19.000Z</time></trkpt>
        <trkpt lat="29.5573718" lon="103.3436578"><ele>2068</ele><time>2026-08-18T17:22:31.000Z</time></trkpt>
        <trkpt lat="29.5572746" lon="103.3436519"><ele>2079</ele><time>2026-08-18T17:25:15.000Z</time></trkpt>
        <trkpt lat="29.5571869" lon="103.343621"><ele>2079</ele><time>2026-08-18T17:25:55.000Z</time></trkpt>
        <trkpt lat="29.5571869" lon="103.343621"><ele>2079</ele><time>2026-08-18T17:27:10.000Z</time></trkpt>
        <trkpt lat="29.5571869" lon="103.343621"><ele>2079</ele><time>2026-08-18T17:30:06.000Z</time></trkpt>
        <trkpt lat="29.5571869" lon="103.343621"><ele>2079</ele><time>2026-08-18T17:30:38.000Z</time></trkpt>
        <trkpt lat="29.5570875" lon="103.3436321"><ele>2079</ele><time>2026-08-18T17:32:48.000Z</time></trkpt>
        <trkpt lat="29.5570875" lon="103.3436321"><ele>2079</ele><time>2026-08-18T17:33:03.000Z</time></trkpt>
        <trkpt lat="29.5570875" lon="103.3436321"><ele>2079</ele><time>2026-08-18T17:34:01.000Z</time></trkpt>
        <trkpt lat="29.5570085" lon="103.3436819"><ele>2091</ele><time>2026-08-18T17:34:06.000Z</time></trkpt>
        <trkpt lat="29.5570085" lon="103.3436819"><ele>2091</ele><time>2026-08-18T17:34:19.000Z</time></trkpt>
        <trkpt lat="29.5570085" lon="103.3436819"><ele>2091</ele><time>2026-08-18T17:35:02.000Z</time></trkpt>
        <trkpt lat="29.5569213" lon="103.3437241"><ele>2091</ele><time>2026-08-18T17:35:14.000Z</time></trkpt>
        <trkpt lat="29.5569213" lon="103.3437241"><ele>2091</ele><time>2026-08-18T17:35:41.000Z</time></trkpt>
        <trkpt lat="29.5568342" lon="103.3437671"><ele>2099</ele><time>2026-08-18T17:36:13.000Z</time></trkpt>
        <trkpt lat="29.5567403" lon="103.3437313"><ele>2103</ele><time>2026-08-18T17:37:29.000Z</time></trkpt>
        <trkpt lat="29.5567285" lon="103.3437083"><ele>2103</ele><time>2026-08-18T17:37:35.000Z</time></trkpt>
        <trkpt lat="29.556672" lon="103.3437688"><ele>2114</ele><time>2026-08-18T17:38:15.000Z</time></trkpt>
        <trkpt lat="29.5565987" lon="103.3438597"><ele>2114</ele><time>2026-08-18T17:39:35.000Z</time></trkpt>
        <trkpt lat="29.5565987" lon="103.3438597"><ele>2114</ele><time>2026-08-18T17:40:24.000Z</time></trkpt>
        <trkpt lat="29.5565848" lon="103.3439711"><ele>2114</ele><time>2026-08-18T17:40:52.000Z</time></trkpt>
        <trkpt lat="29.5565848" lon="103.3439711"><ele>2114</ele><time>2026-08-18T17:41:31.000Z</time></trkpt>
        <trkpt lat="29.5565848" lon="103.3439711"><ele>2114</ele><time>2026-08-18T17:42:05.000Z</time></trkpt>
        <trkpt lat="29.5565384" lon="103.3440624"><ele>2125</ele><time>2026-08-18T17:42:06.000Z</time></trkpt>
        <trkpt lat="29.5565384" lon="103.3440624"><ele>2125</ele><time>2026-08-18T17:42:57.000Z</time></trkpt>
        <trkpt lat="29.5564732" lon="103.3441381"><ele>2133</ele><time>2026-08-18T17:43:51.000Z</time></trkpt>
        <trkpt lat="29.5564131" lon="103.344225"><ele>2133</ele><time>2026-08-18T17:44:41.000Z</time></trkpt>
        <trkpt lat="29.5563281" lon="103.3442541"><ele>2133</ele><time>2026-08-18T17:45:37.000Z</time></trkpt>
        <trkpt lat="29.5562789" lon="103.3443462"><ele>2134</ele><time>2026-08-18T17:46:25.000Z</time></trkpt>
        <trkpt lat="29.5562416" lon="103.3443575"><ele>2144</ele><time>2026-08-18T17:46:33.000Z</time></trkpt>
        <trkpt lat="29.5561904" lon="103.3444198"><ele>2144</ele><time>2026-08-18T17:47:13.000Z</time></trkpt>
        <trkpt lat="29.5561803" lon="103.3444363"><ele>2144</ele><time>2026-08-18T17:47:15.000Z</time></trkpt>
        <trkpt lat="29.5561331" lon="103.3444966"><ele>2144</ele><time>2026-08-18T17:47:31.000Z</time></trkpt>
        <trkpt lat="29.5561166" lon="103.3445226"><ele>2144</ele><time>2026-08-18T17:47:37.000Z</time></trkpt>
        <trkpt lat="29.5561166" lon="103.3445226"><ele>2144</ele><time>2026-08-18T17:49:18.000Z</time></trkpt>
        <trkpt lat="29.5561166" lon="103.3445226"><ele>2144</ele><time>2026-08-18T17:50:54.000Z</time></trkpt>
        <trkpt lat="29.5561166" lon="103.3445226"><ele>2144</ele><time>2026-08-18T17:51:38.000Z</time></trkpt>
        <trkpt lat="29.5561166" lon="103.3445226"><ele>2144</ele><time>2026-08-18T17:56:56.000Z</time></trkpt>
        <trkpt lat="29.5561166" lon="103.3445226"><ele>2144</ele><time>2026-08-18T17:57:28.000Z</time></trkpt>
        <trkpt lat="29.5561166" lon="103.3445226"><ele>2144</ele><time>2026-08-18T18:01:22.000Z</time></trkpt>
        <trkpt lat="29.5561166" lon="103.3445226"><ele>2144</ele><time>2026-08-18T18:01:54.000Z</time></trkpt>
        <trkpt lat="29.5561166" lon="103.3445226"><ele>2144</ele><time>2026-08-18T18:09:12.000Z</time></trkpt>
        <trkpt lat="29.5561166" lon="103.3445226"><ele>2144</ele><time>2026-08-18T18:09:44.000Z</time></trkpt>
        <trkpt lat="29.5560421" lon="103.3445778"><ele>2144</ele><time>2026-08-18T18:09:56.000Z</time></trkpt>
        <trkpt lat="29.5560421" lon="103.3445778"><ele>2144</ele><time>2026-08-18T18:12:11.000Z</time></trkpt>
        <trkpt lat="29.5559825" lon="103.3446745"><ele>2148</ele><time>2026-08-18T18:12:31.000Z</time></trkpt>
        <trkpt lat="29.5559516" lon="103.3447775"><ele>2161</ele><time>2026-08-18T18:13:01.000Z</time></trkpt>
        <trkpt lat="29.5559405" lon="103.3448086"><ele>2161</ele><time>2026-08-18T18:13:13.000Z</time></trkpt>
        <trkpt lat="29.5559405" lon="103.3448086"><ele>2161</ele><time>2026-08-18T18:14:10.000Z</time></trkpt>
        <trkpt lat="29.5559148" lon="103.3448902"><ele>2167</ele><time>2026-08-18T18:14:10.000Z</time></trkpt>
        <trkpt lat="29.5559148" lon="103.3448902"><ele>2167</ele><time>2026-08-18T18:14:31.000Z</time></trkpt>
        <trkpt lat="29.5558538" lon="103.3449769"><ele>2167</ele><time>2026-08-18T18:14:51.000Z</time></trkpt>
        <trkpt lat="29.5557643" lon="103.3449965"><ele>2167</ele><time>2026-08-18T18:15:13.000Z</time></trkpt>
        <trkpt lat="29.5557643" lon="103.3449965"><ele>2167</ele><time>2026-08-18T18:16:22.000Z</time></trkpt>
        <trkpt lat="29.5556654" lon="103.3449801"><ele>2176</ele><time>2026-08-18T18:16:30.000Z</time></trkpt>
        <trkpt lat="29.5556654" lon="103.3449801"><ele>2176</ele><time>2026-08-18T18:16:33.000Z</time></trkpt>
        <trkpt lat="29.5555722" lon="103.3449492"><ele>2176</ele><time>2026-08-18T18:17:17.000Z</time></trkpt>
        <trkpt lat="29.5555589" lon="103.3449526"><ele>2176</ele><time>2026-08-18T18:17:21.000Z</time></trkpt>
        <trkpt lat="29.5555312" lon="103.3450359"><ele>2176</ele><time>2026-08-18T18:18:21.000Z</time></trkpt>
        <trkpt lat="29.5554752" lon="103.3451217"><ele>2176</ele><time>2026-08-18T18:19:05.000Z</time></trkpt>
        <trkpt lat="29.5554752" lon="103.3451217"><ele>2176</ele><time>2026-08-18T18:20:30.000Z</time></trkpt>
        <trkpt lat="29.5553769" lon="103.3451203"><ele>2186</ele><time>2026-08-18T18:21:12.000Z</time></trkpt>
        <trkpt lat="29.5553769" lon="103.3451203"><ele>2186</ele><time>2026-08-18T18:21:13.000Z</time></trkpt>
        <trkpt lat="29.5553364" lon="103.3450178"><ele>2186</ele><time>2026-08-18T18:21:33.000Z</time></trkpt>
        <trkpt lat="29.5552493" lon="103.3449911"><ele>2186</ele><time>2026-08-18T18:22:03.000Z</time></trkpt>
        <trkpt lat="29.5551944" lon="103.3450588"><ele>2186</ele><time>2026-08-18T18:22:23.000Z</time></trkpt>
        <trkpt lat="29.5551103" lon="103.3451193"><ele>2195</ele><time>2026-08-18T18:22:39.000Z</time></trkpt>
        <trkpt lat="29.5551103" lon="103.3451193"><ele>2195</ele><time>2026-08-18T18:23:26.000Z</time></trkpt>
        <trkpt lat="29.5551103" lon="103.3451193"><ele>2195</ele><time>2026-08-18T18:24:04.000Z</time></trkpt>
        <trkpt lat="29.5551103" lon="103.3451193"><ele>2195</ele><time>2026-08-18T18:24:36.000Z</time></trkpt>
        <trkpt lat="29.5551103" lon="103.3451193"><ele>2195</ele><time>2026-08-18T18:32:48.000Z</time></trkpt>
        <trkpt lat="29.5551103" lon="103.3451193"><ele>2195</ele><time>2026-08-18T18:33:44.000Z</time></trkpt>
        <trkpt lat="29.5550019" lon="103.3451535"><ele>2200</ele><time>2026-08-18T18:34:32.000Z</time></trkpt>
        <trkpt lat="29.5550019" lon="103.3451535"><ele>2200</ele><time>2026-08-18T18:35:13.000Z</time></trkpt>
        <trkpt lat="29.5549085" lon="103.3451655"><ele>2200</ele><time>2026-08-18T18:35:35.000Z</time></trkpt>
        <trkpt lat="29.5548278" lon="103.3452105"><ele>2215</ele><time>2026-08-18T18:36:05.000Z</time></trkpt>
        <trkpt lat="29.554759" lon="103.3452766"><ele>2215</ele><time>2026-08-18T18:36:29.000Z</time></trkpt>
        <trkpt lat="29.5546852" lon="103.3453429"><ele>2215</ele><time>2026-08-18T18:37:05.000Z</time></trkpt>
        <trkpt lat="29.554599" lon="103.3453793"><ele>2215</ele><time>2026-08-18T18:37:33.000Z</time></trkpt>
        <trkpt lat="29.554599" lon="103.3453793"><ele>2215</ele><time>2026-08-18T18:38:14.000Z</time></trkpt>
        <trkpt lat="29.5545075" lon="103.3453962"><ele>2231</ele><time>2026-08-18T18:38:24.000Z</time></trkpt>
        <trkpt lat="29.5545075" lon="103.3453962"><ele>2231</ele><time>2026-08-18T18:38:37.000Z</time></trkpt>
        <trkpt lat="29.5544183" lon="103.3454224"><ele>2237</ele><time>2026-08-18T18:39:03.000Z</time></trkpt>
        <trkpt lat="29.5544183" lon="103.3454224"><ele>2237</ele><time>2026-08-18T18:39:40.000Z</time></trkpt>
        <trkpt lat="29.5543182" lon="103.3454312"><ele>2237</ele><time>2026-08-18T18:39:43.000Z</time></trkpt>
        <trkpt lat="29.5543182" lon="103.3454312"><ele>2237</ele><time>2026-08-18T18:40:29.000Z</time></trkpt>
        <trkpt lat="29.5542241" lon="103.3454427"><ele>2260</ele><time>2026-08-18T18:40:43.000Z</time></trkpt>
        <trkpt lat="29.5541284" lon="103.3454509"><ele>2260</ele><time>2026-08-18T18:41:27.000Z</time></trkpt>
        <trkpt lat="29.5540963" lon="103.3454839"><ele>2260</ele><time>2026-08-18T18:41:37.000Z</time></trkpt>
        <trkpt lat="29.5540214" lon="103.3454872"><ele>2274</ele><time>2026-08-18T18:41:59.000Z</time></trkpt>
        <trkpt lat="29.5539392" lon="103.3454539"><ele>2274</ele><time>2026-08-18T18:42:21.000Z</time></trkpt>
        <trkpt lat="29.5538612" lon="103.3453886"><ele>2281</ele><time>2026-08-18T18:42:43.000Z</time></trkpt>
        <trkpt lat="29.5537729" lon="103.3453424"><ele>2281</ele><time>2026-08-18T18:43:09.000Z</time></trkpt>
        <trkpt lat="29.5536833" lon="103.3453132"><ele>2282</ele><time>2026-08-18T18:43:29.000Z</time></trkpt>
        <trkpt lat="29.5535867" lon="103.3453129"><ele>2282</ele><time>2026-08-18T18:43:47.000Z</time></trkpt>
        <trkpt lat="29.5534924" lon="103.345328"><ele>2282</ele><time>2026-08-18T18:44:07.000Z</time></trkpt>
        <trkpt lat="29.5533944" lon="103.3453568"><ele>2304</ele><time>2026-08-18T18:44:25.000Z</time></trkpt>
        <trkpt lat="29.5532947" lon="103.3453816"><ele>2304</ele><time>2026-08-18T18:44:47.000Z</time></trkpt>
        <trkpt lat="29.5531958" lon="103.3453807"><ele>2304</ele><time>2026-08-18T18:45:05.000Z</time></trkpt>
        <trkpt lat="29.5530952" lon="103.3453875"><ele>2317</ele><time>2026-08-18T18:45:19.000Z</time></trkpt>
        <trkpt lat="29.5529981" lon="103.3453976"><ele>2317</ele><time>2026-08-18T18:45:33.000Z</time></trkpt>
        <trkpt lat="29.5529072" lon="103.3454189"><ele>2315</ele><time>2026-08-18T18:45:47.000Z</time></trkpt>
        <trkpt lat="29.5528102" lon="103.3454402"><ele>2315</ele><time>2026-08-18T18:46:01.000Z</time></trkpt>
        <trkpt lat="29.5527145" lon="103.3454298"><ele>2315</ele><time>2026-08-18T18:46:15.000Z</time></trkpt>
        <trkpt lat="29.5526166" lon="103.345425"><ele>2320</ele><time>2026-08-18T18:46:29.000Z</time></trkpt>
        <trkpt lat="29.5525188" lon="103.3454482"><ele>2320</ele><time>2026-08-18T18:46:43.000Z</time></trkpt>
        <trkpt lat="29.552432" lon="103.3454082"><ele>2325</ele><time>2026-08-18T18:46:57.000Z</time></trkpt>
        <trkpt lat="29.5524554" lon="103.3453316"><ele>2325</ele><time>2026-08-18T18:47:23.000Z</time></trkpt>
        <trkpt lat="29.5524342" lon="103.3452373"><ele>2325</ele><time>2026-08-18T18:47:37.000Z</time></trkpt>
        <trkpt lat="29.5523578" lon="103.3451779"><ele>2321</ele><time>2026-08-18T18:47:59.000Z</time></trkpt>
        <trkpt lat="29.5522672" lon="103.3451359"><ele>2315</ele><time>2026-08-18T18:48:11.000Z</time></trkpt>
        <trkpt lat="29.5521711" lon="103.3451241"><ele>2315</ele><time>2026-08-18T18:48:21.000Z</time></trkpt>
        <trkpt lat="29.5520812" lon="103.3450808"><ele>2308</ele><time>2026-08-18T18:48:35.000Z</time></trkpt>
        <trkpt lat="29.5519959" lon="103.3450366"><ele>2308</ele><time>2026-08-18T18:48:49.000Z</time></trkpt>
        <trkpt lat="29.5519973" lon="103.3449485"><ele>2308</ele><time>2026-08-18T18:49:01.000Z</time></trkpt>
        <trkpt lat="29.551975" lon="103.3448483"><ele>2296</ele><time>2026-08-18T18:49:15.000Z</time></trkpt>
        <trkpt lat="29.5519233" lon="103.3447649"><ele>2296</ele><time>2026-08-18T18:49:31.000Z</time></trkpt>
        <trkpt lat="29.5518644" lon="103.3446714"><ele>2296</ele><time>2026-08-18T18:49:45.000Z</time></trkpt>
        <trkpt lat="29.5518109" lon="103.3445751"><ele>2287</ele><time>2026-08-18T18:49:57.000Z</time></trkpt>
        <trkpt lat="29.5517562" lon="103.3444826"><ele>2287</ele><time>2026-08-18T18:50:11.000Z</time></trkpt>
        <trkpt lat="29.5516919" lon="103.3444036"><ele>2287</ele><time>2026-08-18T18:50:25.000Z</time></trkpt>
        <trkpt lat="29.5516217" lon="103.3443333"><ele>2287</ele><time>2026-08-18T18:50:37.000Z</time></trkpt>
        <trkpt lat="29.5515388" lon="103.3442616"><ele>2279</ele><time>2026-08-18T18:50:53.000Z</time></trkpt>
        <trkpt lat="29.5514492" lon="103.3441968"><ele>2279</ele><time>2026-08-18T18:51:09.000Z</time></trkpt>
        <trkpt lat="29.551354" lon="103.3441574"><ele>2279</ele><time>2026-08-18T18:51:23.000Z</time></trkpt>
        <trkpt lat="29.5512604" lon="103.3441536"><ele>2279</ele><time>2026-08-18T18:51:37.000Z</time></trkpt>
        <trkpt lat="29.5511586" lon="103.3441729"><ele>2286</ele><time>2026-08-18T18:51:53.000Z</time></trkpt>
        <trkpt lat="29.5510586" lon="103.3441558"><ele>2286</ele><time>2026-08-18T18:52:09.000Z</time></trkpt>
        <trkpt lat="29.5509629" lon="103.3441292"><ele>2295</ele><time>2026-08-18T18:52:25.000Z</time></trkpt>
        <trkpt lat="29.5508662" lon="103.3441123"><ele>2295</ele><time>2026-08-18T18:52:37.000Z</time></trkpt>
        <trkpt lat="29.5507687" lon="103.3440821"><ele>2295</ele><time>2026-08-18T18:52:51.000Z</time></trkpt>
        <trkpt lat="29.5507501" lon="103.3439891"><ele>2305</ele><time>2026-08-18T18:53:05.000Z</time></trkpt>
        <trkpt lat="29.5506897" lon="103.3439273"><ele>2302</ele><time>2026-08-18T18:53:19.000Z</time></trkpt>
        <trkpt lat="29.5506054" lon="103.3438893"><ele>2302</ele><time>2026-08-18T18:53:35.000Z</time></trkpt>
        <trkpt lat="29.5505416" lon="103.3438192"><ele>2302</ele><time>2026-08-18T18:53:47.000Z</time></trkpt>
        <trkpt lat="29.5504815" lon="103.3437274"><ele>2302</ele><time>2026-08-18T18:53:59.000Z</time></trkpt>
        <trkpt lat="29.5504016" lon="103.343652"><ele>2302</ele><time>2026-08-18T18:54:11.000Z</time></trkpt>
        <trkpt lat="29.5503305" lon="103.3435755"><ele>2302</ele><time>2026-08-18T18:54:23.000Z</time></trkpt>
        <trkpt lat="29.5502938" lon="103.3434794"><ele>2302</ele><time>2026-08-18T18:54:35.000Z</time></trkpt>
        <trkpt lat="29.5502645" lon="103.3433798"><ele>2298</ele><time>2026-08-18T18:54:49.000Z</time></trkpt>
        <trkpt lat="29.5502098" lon="103.3432902"><ele>2298</ele><time>2026-08-18T18:55:01.000Z</time></trkpt>
        <trkpt lat="29.5501333" lon="103.3432292"><ele>2310</ele><time>2026-08-18T18:55:13.000Z</time></trkpt>
        <trkpt lat="29.5500568" lon="103.3431635"><ele>2305</ele><time>2026-08-18T18:55:27.000Z</time></trkpt>
        <trkpt lat="29.5499911" lon="103.3430812"><ele>2305</ele><time>2026-08-18T18:55:43.000Z</time></trkpt>
        <trkpt lat="29.5499382" lon="103.3429943"><ele>2305</ele><time>2026-08-18T18:55:57.000Z</time></trkpt>
        <trkpt lat="29.5498992" lon="103.3429002"><ele>2294</ele><time>2026-08-18T18:56:13.000Z</time></trkpt>
        <trkpt lat="29.549864" lon="103.3427957"><ele>2294</ele><time>2026-08-18T18:56:27.000Z</time></trkpt>
        <trkpt lat="29.5498152" lon="103.3427042"><ele>2298</ele><time>2026-08-18T18:56:41.000Z</time></trkpt>
        <trkpt lat="29.5497559" lon="103.3426248"><ele>2287</ele><time>2026-08-18T18:56:53.000Z</time></trkpt>
        <trkpt lat="29.5496967" lon="103.3425425"><ele>2287</ele><time>2026-08-18T18:57:05.000Z</time></trkpt>
        <trkpt lat="29.5496262" lon="103.3424615"><ele>2287</ele><time>2026-08-18T18:57:17.000Z</time></trkpt>
        <trkpt lat="29.5495554" lon="103.3423742"><ele>2293</ele><time>2026-08-18T18:57:31.000Z</time></trkpt>
        <trkpt lat="29.5494884" lon="103.342296"><ele>2290</ele><time>2026-08-18T18:57:43.000Z</time></trkpt>
        <trkpt lat="29.549421" lon="103.3422181"><ele>2290</ele><time>2026-08-18T18:57:55.000Z</time></trkpt>
        <trkpt lat="29.5494119" lon="103.3421205"><ele>2290</ele><time>2026-08-18T18:58:15.000Z</time></trkpt>
        <trkpt lat="29.549488" lon="103.3420935"><ele>2290</ele><time>2026-08-18T18:58:31.000Z</time></trkpt>
        <trkpt lat="29.5495871" lon="103.3421254"><ele>2282</ele><time>2026-08-18T18:58:49.000Z</time></trkpt>
        <trkpt lat="29.5496375" lon="103.3422425"><ele>2282</ele><time>2026-08-18T18:59:05.000Z</time></trkpt>
        <trkpt lat="29.5496525" lon="103.3423099"><ele>2282</ele><time>2026-08-18T18:59:07.000Z</time></trkpt>
        <trkpt lat="29.5497112" lon="103.34227"><ele>2282</ele><time>2026-08-18T18:59:51.000Z</time></trkpt>
        <trkpt lat="29.5497112" lon="103.34227"><ele>2282</ele><time>2026-08-18T19:00:03.000Z</time></trkpt>
        <trkpt lat="29.5496911" lon="103.3422119"><ele>2282</ele><time>2026-08-18T19:00:48.000Z</time></trkpt>
        <trkpt lat="29.5496911" lon="103.3422119"><ele>2282</ele><time>2026-08-18T19:01:23.000Z</time></trkpt>
        <trkpt lat="29.5496911" lon="103.3422119"><ele>2282</ele><time>2026-08-18T19:01:27.000Z</time></trkpt>
        <trkpt lat="29.5496911" lon="103.3422119"><ele>2282</ele><time>2026-08-18T19:01:58.000Z</time></trkpt>
        <trkpt lat="29.5496911" lon="103.3422119"><ele>2282</ele><time>2026-08-18T19:02:30.000Z</time></trkpt>
        <trkpt lat="29.5496911" lon="103.3422119"><ele>2282</ele><time>2026-08-18T19:03:37.000Z</time></trkpt>
        <trkpt lat="29.5496911" lon="103.3422119"><ele>2282</ele><time>2026-08-18T19:04:09.000Z</time></trkpt>
        <trkpt lat="29.5495312" lon="103.3420985"><ele>2290</ele><time>2026-08-18T19:05:05.000Z</time></trkpt>
        <trkpt lat="29.5495312" lon="103.3420985"><ele>2290</ele><time>2026-08-18T19:05:22.000Z</time></trkpt>
        <trkpt lat="29.5494524" lon="103.3421384"><ele>2290</ele><time>2026-08-18T19:05:44.000Z</time></trkpt>
        <trkpt lat="29.5493713" lon="103.3421068"><ele>2290</ele><time>2026-08-18T19:06:12.000Z</time></trkpt>
        <trkpt lat="29.5493357" lon="103.3420148"><ele>2286</ele><time>2026-08-18T19:06:24.000Z</time></trkpt>
        <trkpt lat="29.5493357" lon="103.3420148"><ele>2286</ele><time>2026-08-18T19:07:24.000Z</time></trkpt>
        <trkpt lat="29.5493357" lon="103.3420148"><ele>2286</ele><time>2026-08-18T19:08:27.000Z</time></trkpt>
        <trkpt lat="29.5493357" lon="103.3420148"><ele>2286</ele><time>2026-08-18T19:08:58.000Z</time></trkpt>
        <trkpt lat="29.5493566" lon="103.3418884"><ele>2286</ele><time>2026-08-18T19:16:29.000Z</time></trkpt>
        <trkpt lat="29.5493566" lon="103.3418884"><ele>2286</ele><time>2026-08-18T19:16:44.000Z</time></trkpt>
        <trkpt lat="29.54933" lon="103.3417813"><ele>2282</ele><time>2026-08-18T19:17:02.000Z</time></trkpt>
        <trkpt lat="29.5492956" lon="103.3416757"><ele>2292</ele><time>2026-08-18T19:17:20.000Z</time></trkpt>
        <trkpt lat="29.5492617" lon="103.3415649"><ele>2292</ele><time>2026-08-18T19:17:36.000Z</time></trkpt>
        <trkpt lat="29.54923" lon="103.3414562"><ele>2289</ele><time>2026-08-18T19:17:58.000Z</time></trkpt>
        <trkpt lat="29.5491837" lon="103.3413632"><ele>2289</ele><time>2026-08-18T19:18:46.000Z</time></trkpt>
        <trkpt lat="29.5491111" lon="103.3412721"><ele>2289</ele><time>2026-08-18T19:19:32.000Z</time></trkpt>
        <trkpt lat="29.5490389" lon="103.3411968"><ele>2286</ele><time>2026-08-18T19:20:00.000Z</time></trkpt>
        <trkpt lat="29.5489529" lon="103.3411549"><ele>2301</ele><time>2026-08-18T19:20:18.000Z</time></trkpt>
        <trkpt lat="29.5488554" lon="103.3411448"><ele>2301</ele><time>2026-08-18T19:20:44.000Z</time></trkpt>
        <trkpt lat="29.5487606" lon="103.3411602"><ele>2301</ele><time>2026-08-18T19:21:18.000Z</time></trkpt>
        <trkpt lat="29.5487606" lon="103.3411602"><ele>2301</ele><time>2026-08-18T19:21:56.000Z</time></trkpt>
        <trkpt lat="29.5486641" lon="103.3411741"><ele>2316</ele><time>2026-08-18T19:21:57.000Z</time></trkpt>
        <trkpt lat="29.5486641" lon="103.3411741"><ele>2316</ele><time>2026-08-18T19:22:16.000Z</time></trkpt>
        <trkpt lat="29.5485675" lon="103.3411874"><ele>2316</ele><time>2026-08-18T19:22:58.000Z</time></trkpt>
        <trkpt lat="29.5484803" lon="103.3412276"><ele>2316</ele><time>2026-08-18T19:23:40.000Z</time></trkpt>
        <trkpt lat="29.5483892" lon="103.3412516"><ele>2335</ele><time>2026-08-18T19:24:06.000Z</time></trkpt>
        <trkpt lat="29.548302" lon="103.3411998"><ele>2331</ele><time>2026-08-18T19:25:26.000Z</time></trkpt>
        <trkpt lat="29.5481998" lon="103.3412179"><ele>2331</ele><time>2026-08-18T19:25:42.000Z</time></trkpt>
        <trkpt lat="29.5481053" lon="103.3411695"><ele>2339</ele><time>2026-08-18T19:25:58.000Z</time></trkpt>
        <trkpt lat="29.5480307" lon="103.3411748"><ele>2339</ele><time>2026-08-18T19:26:14.000Z</time></trkpt>
        <trkpt lat="29.5480307" lon="103.3411748"><ele>2339</ele><time>2026-08-18T19:26:45.000Z</time></trkpt>
        <trkpt lat="29.5480307" lon="103.3411748"><ele>2339</ele><time>2026-08-18T19:30:13.000Z</time></trkpt>
        <trkpt lat="29.5480307" lon="103.3411748"><ele>2339</ele><time>2026-08-18T19:30:53.000Z</time></trkpt>
        <trkpt lat="29.5479397" lon="103.3411677"><ele>2339</ele><time>2026-08-18T19:33:59.000Z</time></trkpt>
        <trkpt lat="29.5479397" lon="103.3411677"><ele>2339</ele><time>2026-08-18T19:34:24.000Z</time></trkpt>
        <trkpt lat="29.5478582" lon="103.3411232"><ele>2346</ele><time>2026-08-18T19:34:38.000Z</time></trkpt>
        <trkpt lat="29.54777" lon="103.3410972"><ele>2346</ele><time>2026-08-18T19:34:54.000Z</time></trkpt>
        <trkpt lat="29.5476823" lon="103.3410644"><ele>2346</ele><time>2026-08-18T19:35:10.000Z</time></trkpt>
        <trkpt lat="29.5475903" lon="103.3410583"><ele>2354</ele><time>2026-08-18T19:35:30.000Z</time></trkpt>
        <trkpt lat="29.5474999" lon="103.3410293"><ele>2354</ele><time>2026-08-18T19:35:54.000Z</time></trkpt>
        <trkpt lat="29.547414" lon="103.3409935"><ele>2354</ele><time>2026-08-18T19:36:26.000Z</time></trkpt>
        <trkpt lat="29.5473583" lon="103.340906"><ele>2379</ele><time>2026-08-18T19:36:50.000Z</time></trkpt>
        <trkpt lat="29.5473146" lon="103.3408098"><ele>2379</ele><time>2026-08-18T19:37:06.000Z</time></trkpt>
        <trkpt lat="29.5472693" lon="103.3407108"><ele>2379</ele><time>2026-08-18T19:37:22.000Z</time></trkpt>
        <trkpt lat="29.5472264" lon="103.3406111"><ele>2379</ele><time>2026-08-18T19:37:40.000Z</time></trkpt>
        <trkpt lat="29.5472121" lon="103.3405045"><ele>2379</ele><time>2026-08-18T19:38:08.000Z</time></trkpt>
        <trkpt lat="29.5472096" lon="103.3403844"><ele>2379</ele><time>2026-08-18T19:38:38.000Z</time></trkpt>
        <trkpt lat="29.5471775" lon="103.3402797"><ele>2379</ele><time>2026-08-18T19:39:36.000Z</time></trkpt>
        <trkpt lat="29.5471775" lon="103.3402797"><ele>2379</ele><time>2026-08-18T19:40:13.000Z</time></trkpt>
        <trkpt lat="29.5471631" lon="103.340168"><ele>2379</ele><time>2026-08-18T19:40:13.000Z</time></trkpt>
        <trkpt lat="29.5471631" lon="103.340168"><ele>2379</ele><time>2026-08-18T19:40:28.000Z</time></trkpt>
        <trkpt lat="29.5471709" lon="103.3401286"><ele>2379</ele><time>2026-08-18T19:40:34.000Z</time></trkpt>
        <trkpt lat="29.5471538" lon="103.3400527"><ele>2379</ele><time>2026-08-18T19:41:20.000Z</time></trkpt>
        <trkpt lat="29.5471538" lon="103.3400527"><ele>2379</ele><time>2026-08-18T19:42:15.000Z</time></trkpt>
        <trkpt lat="29.5471002" lon="103.3399651"><ele>2379</ele><time>2026-08-18T19:43:03.000Z</time></trkpt>
        <trkpt lat="29.5471002" lon="103.3399651"><ele>2379</ele><time>2026-08-18T19:43:10.000Z</time></trkpt>
        <trkpt lat="29.5471266" lon="103.3398598"><ele>2385</ele><time>2026-08-18T19:43:26.000Z</time></trkpt>
        <trkpt lat="29.5471189" lon="103.3397568"><ele>2385</ele><time>2026-08-18T19:43:48.000Z</time></trkpt>
        <trkpt lat="29.5470815" lon="103.3396601"><ele>2419</ele><time>2026-08-18T19:44:26.000Z</time></trkpt>
        <trkpt lat="29.5470009" lon="103.3396282"><ele>2419</ele><time>2026-08-18T19:44:58.000Z</time></trkpt>
        <trkpt lat="29.5470009" lon="103.3396282"><ele>2419</ele><time>2026-08-18T19:46:02.000Z</time></trkpt>
        <trkpt lat="29.546948" lon="103.3395461"><ele>2412</ele><time>2026-08-18T19:46:37.000Z</time></trkpt>
        <trkpt lat="29.546948" lon="103.3395461"><ele>2412</ele><time>2026-08-18T19:46:42.000Z</time></trkpt>
        <trkpt lat="29.5469214" lon="103.3394469"><ele>2412</ele><time>2026-08-18T19:47:00.000Z</time></trkpt>
        <trkpt lat="29.5468601" lon="103.339364"><ele>2412</ele><time>2026-08-18T19:47:26.000Z</time></trkpt>
        <trkpt lat="29.5468501" lon="103.3393429"><ele>2412</ele><time>2026-08-18T19:47:30.000Z</time></trkpt>
        <trkpt lat="29.5468501" lon="103.3393429"><ele>2412</ele><time>2026-08-18T19:48:01.000Z</time></trkpt>
        <trkpt lat="29.5468501" lon="103.3393429"><ele>2412</ele><time>2026-08-18T19:48:13.000Z</time></trkpt>
        <trkpt lat="29.5468501" lon="103.3393429"><ele>2412</ele><time>2026-08-18T19:49:21.000Z</time></trkpt>
        <trkpt lat="29.5468501" lon="103.3393429"><ele>2412</ele><time>2026-08-18T19:53:39.000Z</time></trkpt>
        <trkpt lat="29.5468501" lon="103.3393429"><ele>2412</ele><time>2026-08-18T19:54:17.000Z</time></trkpt>
        <trkpt lat="29.5468501" lon="103.3393429"><ele>2412</ele><time>2026-08-18T19:57:17.000Z</time></trkpt>
        <trkpt lat="29.5468501" lon="103.3393429"><ele>2412</ele><time>2026-08-18T19:58:17.000Z</time></trkpt>
        <trkpt lat="29.546779" lon="103.3392842"><ele>2435</ele><time>2026-08-18T20:00:45.000Z</time></trkpt>
        <trkpt lat="29.546779" lon="103.3392842"><ele>2435</ele><time>2026-08-18T20:01:14.000Z</time></trkpt>
        <trkpt lat="29.5467486" lon="103.3392324"><ele>2435</ele><time>2026-08-18T20:01:38.000Z</time></trkpt>
        <trkpt lat="29.5466953" lon="103.3391498"><ele>2435</ele><time>2026-08-18T20:02:22.000Z</time></trkpt>
        <trkpt lat="29.546631" lon="103.3390726"><ele>2435</ele><time>2026-08-18T20:02:46.000Z</time></trkpt>
        <trkpt lat="29.5465773" lon="103.3389863"><ele>2436</ele><time>2026-08-18T20:03:08.000Z</time></trkpt>
        <trkpt lat="29.5465247" lon="103.3388966"><ele>2456</ele><time>2026-08-18T20:03:38.000Z</time></trkpt>
        <trkpt lat="29.5465247" lon="103.3388966"><ele>2456</ele><time>2026-08-18T20:04:29.000Z</time></trkpt>
        <trkpt lat="29.5464503" lon="103.3388109"><ele>2456</ele><time>2026-08-18T20:04:31.000Z</time></trkpt>
        <trkpt lat="29.5464503" lon="103.3388109"><ele>2456</ele><time>2026-08-18T20:05:38.000Z</time></trkpt>
        <trkpt lat="29.5463613" lon="103.3387671"><ele>2456</ele><time>2026-08-18T20:06:04.000Z</time></trkpt>
        <trkpt lat="29.5463143" lon="103.3386771"><ele>2458</ele><time>2026-08-18T20:06:38.000Z</time></trkpt>
        <trkpt lat="29.5463143" lon="103.3386771"><ele>2458</ele><time>2026-08-18T20:07:23.000Z</time></trkpt>
        <trkpt lat="29.546259" lon="103.3385926"><ele>2458</ele><time>2026-08-18T20:07:23.000Z</time></trkpt>
        <trkpt lat="29.546259" lon="103.3385926"><ele>2458</ele><time>2026-08-18T20:07:30.000Z</time></trkpt>
        <trkpt lat="29.5462239" lon="103.3384958"><ele>2473</ele><time>2026-08-18T20:07:52.000Z</time></trkpt>
        <trkpt lat="29.5461946" lon="103.3383952"><ele>2480</ele><time>2026-08-18T20:08:20.000Z</time></trkpt>
        <trkpt lat="29.546196" lon="103.3382857"><ele>2480</ele><time>2026-08-18T20:08:54.000Z</time></trkpt>
        <trkpt lat="29.5462173" lon="103.3381777"><ele>2478</ele><time>2026-08-18T20:09:32.000Z</time></trkpt>
        <trkpt lat="29.5462173" lon="103.3381777"><ele>2478</ele><time>2026-08-18T20:10:09.000Z</time></trkpt>
        <trkpt lat="29.5462534" lon="103.3380713"><ele>2455</ele><time>2026-08-18T20:10:09.000Z</time></trkpt>
        <trkpt lat="29.5462534" lon="103.3380713"><ele>2455</ele><time>2026-08-18T20:10:16.000Z</time></trkpt>
        <trkpt lat="29.5462919" lon="103.337968"><ele>2455</ele><time>2026-08-18T20:10:34.000Z</time></trkpt>
        <trkpt lat="29.5463583" lon="103.3378864"><ele>2450</ele><time>2026-08-18T20:10:58.000Z</time></trkpt>
        <trkpt lat="29.5464106" lon="103.3377928"><ele>2450</ele><time>2026-08-18T20:11:12.000Z</time></trkpt>
        <trkpt lat="29.5464485" lon="103.3376903"><ele>2450</ele><time>2026-08-18T20:11:28.000Z</time></trkpt>
        <trkpt lat="29.5464827" lon="103.3375836"><ele>2465</ele><time>2026-08-18T20:11:48.000Z</time></trkpt>
        <trkpt lat="29.5465488" lon="103.3374983"><ele>2440</ele><time>2026-08-18T20:12:08.000Z</time></trkpt>
        <trkpt lat="29.5465488" lon="103.3374983"><ele>2440</ele><time>2026-08-18T20:12:53.000Z</time></trkpt>
        <trkpt lat="29.5466057" lon="103.3374027"><ele>2440</ele><time>2026-08-18T20:13:37.000Z</time></trkpt>
        <trkpt lat="29.5466057" lon="103.3374027"><ele>2440</ele><time>2026-08-18T20:13:46.000Z</time></trkpt>
        <trkpt lat="29.546637" lon="103.3372922"><ele>2444</ele><time>2026-08-18T20:14:04.000Z</time></trkpt>
        <trkpt lat="29.5466414" lon="103.3371856"><ele>2444</ele><time>2026-08-18T20:14:18.000Z</time></trkpt>
        <trkpt lat="29.5466414" lon="103.3371856"><ele>2444</ele><time>2026-08-18T20:15:13.000Z</time></trkpt>
        <trkpt lat="29.5466329" lon="103.3370806"><ele>2444</ele><time>2026-08-18T20:15:17.000Z</time></trkpt>
        <trkpt lat="29.5466329" lon="103.3370806"><ele>2444</ele><time>2026-08-18T20:15:22.000Z</time></trkpt>
        <trkpt lat="29.5466329" lon="103.3370806"><ele>2444</ele><time>2026-08-18T20:18:05.000Z</time></trkpt>
        <trkpt lat="29.5466329" lon="103.3370806"><ele>2444</ele><time>2026-08-18T20:18:32.000Z</time></trkpt>
        <trkpt lat="29.5466329" lon="103.3370806"><ele>2444</ele><time>2026-08-18T20:19:05.000Z</time></trkpt>
        <trkpt lat="29.5466329" lon="103.3370806"><ele>2444</ele><time>2026-08-18T20:19:27.000Z</time></trkpt>
        <trkpt lat="29.5466329" lon="103.3370806"><ele>2444</ele><time>2026-08-18T20:20:09.000Z</time></trkpt>
        <trkpt lat="29.5465377" lon="103.3370376"><ele>2444</ele><time>2026-08-18T20:23:25.000Z</time></trkpt>
        <trkpt lat="29.5465377" lon="103.3370376"><ele>2444</ele><time>2026-08-18T20:23:54.000Z</time></trkpt>
        <trkpt lat="29.5465091" lon="103.3369376"><ele>2465</ele><time>2026-08-18T20:24:14.000Z</time></trkpt>
        <trkpt lat="29.5464844" lon="103.3368232"><ele>2465</ele><time>2026-08-18T20:24:28.000Z</time></trkpt>
        <trkpt lat="29.5464753" lon="103.3367162"><ele>2465</ele><time>2026-08-18T20:24:38.000Z</time></trkpt>
        <trkpt lat="29.5464818" lon="103.3366067"><ele>2465</ele><time>2026-08-18T20:24:46.000Z</time></trkpt>
        <trkpt lat="29.5465056" lon="103.3364899"><ele>2458</ele><time>2026-08-18T20:24:54.000Z</time></trkpt>
        <trkpt lat="29.5465402" lon="103.3363749"><ele>2450</ele><time>2026-08-18T20:25:02.000Z</time></trkpt>
        <trkpt lat="29.5465316" lon="103.3362708"><ele>2450</ele><time>2026-08-18T20:25:12.000Z</time></trkpt>
        <trkpt lat="29.5465257" lon="103.3361661"><ele>2453</ele><time>2026-08-18T20:25:32.000Z</time></trkpt>
        <trkpt lat="29.5465804" lon="103.3360908"><ele>2443</ele><time>2026-08-18T20:25:58.000Z</time></trkpt>
        <trkpt lat="29.5466031" lon="103.3359941"><ele>2443</ele><time>2026-08-18T20:26:12.000Z</time></trkpt>
        <trkpt lat="29.5466381" lon="103.3358871"><ele>2429</ele><time>2026-08-18T20:26:26.000Z</time></trkpt>
        <trkpt lat="29.5466731" lon="103.3357793"><ele>2429</ele><time>2026-08-18T20:26:40.000Z</time></trkpt>
        <trkpt lat="29.5466917" lon="103.3356666"><ele>2413</ele><time>2026-08-18T20:26:58.000Z</time></trkpt>
        <trkpt lat="29.5467315" lon="103.3355572"><ele>2413</ele><time>2026-08-18T20:27:10.000Z</time></trkpt>
        <trkpt lat="29.5467669" lon="103.3354555"><ele>2413</ele><time>2026-08-18T20:27:22.000Z</time></trkpt>
        <trkpt lat="29.5467856" lon="103.3353532"><ele>2416</ele><time>2026-08-18T20:27:32.000Z</time></trkpt>
        <trkpt lat="29.5468163" lon="103.3352525"><ele>2412</ele><time>2026-08-18T20:27:50.000Z</time></trkpt>
        <trkpt lat="29.5468139" lon="103.3351422"><ele>2412</ele><time>2026-08-18T20:28:02.000Z</time></trkpt>
        <trkpt lat="29.5467753" lon="103.3350343"><ele>2422</ele><time>2026-08-18T20:28:14.000Z</time></trkpt>
        <trkpt lat="29.5466939" lon="103.3349562"><ele>2422</ele><time>2026-08-18T20:28:26.000Z</time></trkpt>
        <trkpt lat="29.5466071" lon="103.3348943"><ele>2422</ele><time>2026-08-18T20:28:38.000Z</time></trkpt>
        <trkpt lat="29.5465107" lon="103.3348455"><ele>2423</ele><time>2026-08-18T20:28:54.000Z</time></trkpt>
        <trkpt lat="29.5464183" lon="103.3348055"><ele>2423</ele><time>2026-08-18T20:29:10.000Z</time></trkpt>
        <trkpt lat="29.546326" lon="103.3347621"><ele>2423</ele><time>2026-08-18T20:29:26.000Z</time></trkpt>
        <trkpt lat="29.5462361" lon="103.3347707"><ele>2439</ele><time>2026-08-18T20:29:48.000Z</time></trkpt>
        <trkpt lat="29.5461389" lon="103.3347862"><ele>2439</ele><time>2026-08-18T20:30:10.000Z</time></trkpt>
        <trkpt lat="29.5460399" lon="103.334764"><ele>2439</ele><time>2026-08-18T20:30:30.000Z</time></trkpt>
        <trkpt lat="29.5459446" lon="103.3347454"><ele>2436</ele><time>2026-08-18T20:30:42.000Z</time></trkpt>
        <trkpt lat="29.5458899" lon="103.3346639"><ele>2436</ele><time>2026-08-18T20:31:12.000Z</time></trkpt>
        <trkpt lat="29.5458437" lon="103.3345695"><ele>2438</ele><time>2026-08-18T20:31:26.000Z</time></trkpt>
        <trkpt lat="29.5457695" lon="103.3344946"><ele>2438</ele><time>2026-08-18T20:31:40.000Z</time></trkpt>
        <trkpt lat="29.5456728" lon="103.3344447"><ele>2431</ele><time>2026-08-18T20:31:56.000Z</time></trkpt>
        <trkpt lat="29.5455782" lon="103.3343997"><ele>2431</ele><time>2026-08-18T20:32:08.000Z</time></trkpt>
        <trkpt lat="29.5454919" lon="103.3343536"><ele>2431</ele><time>2026-08-18T20:32:24.000Z</time></trkpt>
        <trkpt lat="29.5454092" lon="103.3343098"><ele>2429</ele><time>2026-08-18T20:32:42.000Z</time></trkpt>
        <trkpt lat="29.5453436" lon="103.3342316"><ele>2424</ele><time>2026-08-18T20:33:06.000Z</time></trkpt>
        <trkpt lat="29.5452617" lon="103.3341599"><ele>2424</ele><time>2026-08-18T20:33:20.000Z</time></trkpt>
        <trkpt lat="29.5451757" lon="103.3340995"><ele>2424</ele><time>2026-08-18T20:33:44.000Z</time></trkpt>
        <trkpt lat="29.5450853" lon="103.334071"><ele>2433</ele><time>2026-08-18T20:34:00.000Z</time></trkpt>
        <trkpt lat="29.544991" lon="103.3340689"><ele>2433</ele><time>2026-08-18T20:34:14.000Z</time></trkpt>
        <trkpt lat="29.544897" lon="103.3340669"><ele>2433</ele><time>2026-08-18T20:34:28.000Z</time></trkpt>
        <trkpt lat="29.5448214" lon="103.3341203"><ele>2438</ele><time>2026-08-18T20:34:44.000Z</time></trkpt>
        <trkpt lat="29.5447564" lon="103.3341985"><ele>2438</ele><time>2026-08-18T20:34:58.000Z</time></trkpt>
        <trkpt lat="29.5446805" lon="103.3342666"><ele>2438</ele><time>2026-08-18T20:35:12.000Z</time></trkpt>
        <trkpt lat="29.5445893" lon="103.3342536"><ele>2438</ele><time>2026-08-18T20:35:24.000Z</time></trkpt>
        <trkpt lat="29.5444981" lon="103.3342195"><ele>2431</ele><time>2026-08-18T20:35:36.000Z</time></trkpt>
        <trkpt lat="29.5444014" lon="103.3341916"><ele>2431</ele><time>2026-08-18T20:35:48.000Z</time></trkpt>
        <trkpt lat="29.5443071" lon="103.3341652"><ele>2431</ele><time>2026-08-18T20:36:02.000Z</time></trkpt>
        <trkpt lat="29.5442018" lon="103.3341557"><ele>2430</ele><time>2026-08-18T20:36:14.000Z</time></trkpt>
        <trkpt lat="29.5441063" lon="103.3341348"><ele>2430</ele><time>2026-08-18T20:36:28.000Z</time></trkpt>
        <trkpt lat="29.5440186" lon="103.3340798"><ele>2421</ele><time>2026-08-18T20:36:42.000Z</time></trkpt>
        <trkpt lat="29.5439892" lon="103.3340686"><ele>2421</ele><time>2026-08-18T20:36:46.000Z</time></trkpt>
        <trkpt lat="29.5439421" lon="103.3340065"><ele>2428</ele><time>2026-08-18T20:37:14.000Z</time></trkpt>
        <trkpt lat="29.5438734" lon="103.3339332"><ele>2428</ele><time>2026-08-18T20:37:28.000Z</time></trkpt>
        <trkpt lat="29.5437837" lon="103.3339249"><ele>2428</ele><time>2026-08-18T20:37:44.000Z</time></trkpt>
        <trkpt lat="29.543688" lon="103.3339458"><ele>2417</ele><time>2026-08-18T20:38:18.000Z</time></trkpt>
        <trkpt lat="29.5436414" lon="103.3338533"><ele>2417</ele><time>2026-08-18T20:39:50.000Z</time></trkpt>
        <trkpt lat="29.5435689" lon="103.3337737"><ele>2417</ele><time>2026-08-18T20:40:08.000Z</time></trkpt>
        <trkpt lat="29.5434949" lon="103.3337045"><ele>2433</ele><time>2026-08-18T20:40:54.000Z</time></trkpt>
        <trkpt lat="29.5434294" lon="103.3336249"><ele>2415</ele><time>2026-08-18T20:41:14.000Z</time></trkpt>
        <trkpt lat="29.5433934" lon="103.3335262"><ele>2415</ele><time>2026-08-18T20:41:28.000Z</time></trkpt>
        <trkpt lat="29.5433761" lon="103.3334122"><ele>2434</ele><time>2026-08-18T20:41:40.000Z</time></trkpt>
        <trkpt lat="29.5433439" lon="103.3333117"><ele>2434</ele><time>2026-08-18T20:41:54.000Z</time></trkpt>
        <trkpt lat="29.5433141" lon="103.3332077"><ele>2434</ele><time>2026-08-18T20:42:12.000Z</time></trkpt>
        <trkpt lat="29.5432649" lon="103.3331123"><ele>2434</ele><time>2026-08-18T20:42:38.000Z</time></trkpt>
        <trkpt lat="29.5432014" lon="103.3330336"><ele>2434</ele><time>2026-08-18T20:42:56.000Z</time></trkpt>
        <trkpt lat="29.5431113" lon="103.3329779"><ele>2426</ele><time>2026-08-18T20:43:12.000Z</time></trkpt>
        <trkpt lat="29.543015" lon="103.3329594"><ele>2426</ele><time>2026-08-18T20:43:24.000Z</time></trkpt>
        <trkpt lat="29.5429292" lon="103.3329202"><ele>2426</ele><time>2026-08-18T20:43:38.000Z</time></trkpt>
        <trkpt lat="29.5428591" lon="103.3328461"><ele>2423</ele><time>2026-08-18T20:43:50.000Z</time></trkpt>
        <trkpt lat="29.5428013" lon="103.3327606"><ele>2423</ele><time>2026-08-18T20:44:00.000Z</time></trkpt>
        <trkpt lat="29.542745" lon="103.332669"><ele>2423</ele><time>2026-08-18T20:44:16.000Z</time></trkpt>
        <trkpt lat="29.5426596" lon="103.3326379"><ele>2423</ele><time>2026-08-18T20:44:30.000Z</time></trkpt>
        <trkpt lat="29.5425804" lon="103.332574"><ele>2425</ele><time>2026-08-18T20:44:42.000Z</time></trkpt>
        <trkpt lat="29.5425543" lon="103.3324795"><ele>2425</ele><time>2026-08-18T20:44:56.000Z</time></trkpt>
        <trkpt lat="29.5425283" lon="103.3323672"><ele>2425</ele><time>2026-08-18T20:45:20.000Z</time></trkpt>
        <trkpt lat="29.5424835" lon="103.3322691"><ele>2429</ele><time>2026-08-18T20:45:32.000Z</time></trkpt>
        <trkpt lat="29.5424315" lon="103.3321717"><ele>2429</ele><time>2026-08-18T20:45:44.000Z</time></trkpt>
        <trkpt lat="29.5423487" lon="103.3321127"><ele>2423</ele><time>2026-08-18T20:45:58.000Z</time></trkpt>
        <trkpt lat="29.5422752" lon="103.3320397"><ele>2425</ele><time>2026-08-18T20:46:12.000Z</time></trkpt>
        <trkpt lat="29.5421869" lon="103.3320082"><ele>2425</ele><time>2026-08-18T20:46:28.000Z</time></trkpt>
        <trkpt lat="29.5420921" lon="103.3320061"><ele>2425</ele><time>2026-08-18T20:46:40.000Z</time></trkpt>
        <trkpt lat="29.5420431" lon="103.3320918"><ele>2425</ele><time>2026-08-18T20:46:58.000Z</time></trkpt>
        <trkpt lat="29.5419563" lon="103.3321068"><ele>2425</ele><time>2026-08-18T20:47:12.000Z</time></trkpt>
        <trkpt lat="29.5418556" lon="103.3321066"><ele>2425</ele><time>2026-08-18T20:47:24.000Z</time></trkpt>
        <trkpt lat="29.5417494" lon="103.3320974"><ele>2429</ele><time>2026-08-18T20:47:36.000Z</time></trkpt>
        <trkpt lat="29.5417213" lon="103.332015"><ele>2433</ele><time>2026-08-18T20:47:52.000Z</time></trkpt>
        <trkpt lat="29.5417213" lon="103.332015"><ele>2433</ele><time>2026-08-18T20:49:07.000Z</time></trkpt>
        <trkpt lat="29.5418023" lon="103.3318818"><ele>2433</ele><time>2026-08-18T20:49:08.000Z</time></trkpt>
        <trkpt lat="29.5418023" lon="103.3318818"><ele>2433</ele><time>2026-08-18T20:49:22.000Z</time></trkpt>
        <trkpt lat="29.5418506" lon="103.3317873"><ele>2426</ele><time>2026-08-18T20:49:32.000Z</time></trkpt>
        <trkpt lat="29.5418286" lon="103.3316891"><ele>2426</ele><time>2026-08-18T20:49:44.000Z</time></trkpt>
        <trkpt lat="29.5417502" lon="103.3316732"><ele>2433</ele><time>2026-08-18T20:49:52.000Z</time></trkpt>
        <trkpt lat="29.5416403" lon="103.3316872"><ele>2433</ele><time>2026-08-18T20:50:00.000Z</time></trkpt>
        <trkpt lat="29.5415343" lon="103.3317112"><ele>2433</ele><time>2026-08-18T20:50:08.000Z</time></trkpt>
        <trkpt lat="29.541426" lon="103.3317462"><ele>2433</ele><time>2026-08-18T20:50:18.000Z</time></trkpt>
        <trkpt lat="29.5413135" lon="103.33177"><ele>2433</ele><time>2026-08-18T20:50:28.000Z</time></trkpt>
        <trkpt lat="29.5412176" lon="103.3318032"><ele>2435</ele><time>2026-08-18T20:50:38.000Z</time></trkpt>
        <trkpt lat="29.5411206" lon="103.3318084"><ele>2432</ele><time>2026-08-18T20:50:54.000Z</time></trkpt>
        <trkpt lat="29.5410277" lon="103.3318042"><ele>2435</ele><time>2026-08-18T20:51:18.000Z</time></trkpt>
        <trkpt lat="29.5409348" lon="103.3317891"><ele>2434</ele><time>2026-08-18T20:51:42.000Z</time></trkpt>
        <trkpt lat="29.5408426" lon="103.3317627"><ele>2434</ele><time>2026-08-18T20:52:00.000Z</time></trkpt>
        <trkpt lat="29.5407494" lon="103.331739"><ele>2434</ele><time>2026-08-18T20:52:12.000Z</time></trkpt>
        <trkpt lat="29.5406556" lon="103.3317552"><ele>2434</ele><time>2026-08-18T20:52:24.000Z</time></trkpt>
        <trkpt lat="29.5405798" lon="103.3318224"><ele>2420</ele><time>2026-08-18T20:52:38.000Z</time></trkpt>
        <trkpt lat="29.540491" lon="103.3318809"><ele>2420</ele><time>2026-08-18T20:52:54.000Z</time></trkpt>
        <trkpt lat="29.5404066" lon="103.3319347"><ele>2428</ele><time>2026-08-18T20:53:06.000Z</time></trkpt>
        <trkpt lat="29.5403205" lon="103.3319782"><ele>2428</ele><time>2026-08-18T20:53:18.000Z</time></trkpt>
        <trkpt lat="29.5402616" lon="103.3320601"><ele>2428</ele><time>2026-08-18T20:53:36.000Z</time></trkpt>
        <trkpt lat="29.5401938" lon="103.3321289"><ele>2420</ele><time>2026-08-18T20:53:54.000Z</time></trkpt>
        <trkpt lat="29.5401076" lon="103.3321828"><ele>2427</ele><time>2026-08-18T20:54:08.000Z</time></trkpt>
        <trkpt lat="29.5400182" lon="103.3322347"><ele>2427</ele><time>2026-08-18T20:54:22.000Z</time></trkpt>
        <trkpt lat="29.5399304" lon="103.3322752"><ele>2427</ele><time>2026-08-18T20:54:36.000Z</time></trkpt>
        <trkpt lat="29.5399304" lon="103.3322752"><ele>2427</ele><time>2026-08-18T20:55:17.000Z</time></trkpt>
        <trkpt lat="29.5398411" lon="103.3323068"><ele>2440</ele><time>2026-08-18T20:56:32.000Z</time></trkpt>
        <trkpt lat="29.5398411" lon="103.3323068"><ele>2440</ele><time>2026-08-18T20:57:24.000Z</time></trkpt>
        <trkpt lat="29.5397718" lon="103.3323768"><ele>2430</ele><time>2026-08-18T20:57:46.000Z</time></trkpt>
        <trkpt lat="29.5396965" lon="103.3324347"><ele>2430</ele><time>2026-08-18T20:58:04.000Z</time></trkpt>
        <trkpt lat="29.5396259" lon="103.3325002"><ele>2430</ele><time>2026-08-18T20:58:24.000Z</time></trkpt>
        <trkpt lat="29.5395758" lon="103.3325311"><ele>2433</ele><time>2026-08-18T20:58:46.000Z</time></trkpt>
        <trkpt lat="29.5395129" lon="103.3325909"><ele>2433</ele><time>2026-08-18T20:59:14.000Z</time></trkpt>
        <trkpt lat="29.5394366" lon="103.332659"><ele>2423</ele><time>2026-08-18T20:59:38.000Z</time></trkpt>
        <trkpt lat="29.5393499" lon="103.3326964"><ele>2423</ele><time>2026-08-18T21:00:08.000Z</time></trkpt>
        <trkpt lat="29.5392803" lon="103.3327651"><ele>2414</ele><time>2026-08-18T21:00:28.000Z</time></trkpt>
        <trkpt lat="29.5392027" lon="103.3328278"><ele>2414</ele><time>2026-08-18T21:00:46.000Z</time></trkpt>
        <trkpt lat="29.5391193" lon="103.3328794"><ele>2414</ele><time>2026-08-18T21:01:02.000Z</time></trkpt>
        <trkpt lat="29.5390424" lon="103.3329423"><ele>2391</ele><time>2026-08-18T21:01:24.000Z</time></trkpt>
        <trkpt lat="29.5389604" lon="103.3330137"><ele>2385</ele><time>2026-08-18T21:01:42.000Z</time></trkpt>
        <trkpt lat="29.5388788" lon="103.3330771"><ele>2385</ele><time>2026-08-18T21:01:56.000Z</time></trkpt>
        <trkpt lat="29.5387893" lon="103.3331139"><ele>2385</ele><time>2026-08-18T21:02:10.000Z</time></trkpt>
        <trkpt lat="29.5386998" lon="103.3331429"><ele>2386</ele><time>2026-08-18T21:02:24.000Z</time></trkpt>
        <trkpt lat="29.5386115" lon="103.3331792"><ele>2386</ele><time>2026-08-18T21:02:38.000Z</time></trkpt>
        <trkpt lat="29.5385215" lon="103.3331927"><ele>2386</ele><time>2026-08-18T21:02:56.000Z</time></trkpt>
        <trkpt lat="29.538431" lon="103.3332023"><ele>2368</ele><time>2026-08-18T21:03:12.000Z</time></trkpt>
        <trkpt lat="29.5383407" lon="103.3332448"><ele>2368</ele><time>2026-08-18T21:03:26.000Z</time></trkpt>
        <trkpt lat="29.5382496" lon="103.3332991"><ele>2368</ele><time>2026-08-18T21:03:42.000Z</time></trkpt>
        <trkpt lat="29.5381575" lon="103.3333606"><ele>2375</ele><time>2026-08-18T21:03:54.000Z</time></trkpt>
        <trkpt lat="29.5380739" lon="103.3334165"><ele>2375</ele><time>2026-08-18T21:04:04.000Z</time></trkpt>
        <trkpt lat="29.5379795" lon="103.3334637"><ele>2375</ele><time>2026-08-18T21:04:16.000Z</time></trkpt>
        <trkpt lat="29.5378833" lon="103.3335029"><ele>2373</ele><time>2026-08-18T21:04:28.000Z</time></trkpt>
        <trkpt lat="29.5377998" lon="103.3335588"><ele>2373</ele><time>2026-08-18T21:04:44.000Z</time></trkpt>
        <trkpt lat="29.5377283" lon="103.3336365"><ele>2373</ele><time>2026-08-18T21:05:02.000Z</time></trkpt>
        <trkpt lat="29.5376562" lon="103.3337202"><ele>2373</ele><time>2026-08-18T21:05:20.000Z</time></trkpt>
        <trkpt lat="29.5375663" lon="103.3337651"><ele>2387</ele><time>2026-08-18T21:05:38.000Z</time></trkpt>
        <trkpt lat="29.5374723" lon="103.3337802"><ele>2387</ele><time>2026-08-18T21:06:00.000Z</time></trkpt>
        <trkpt lat="29.5373801" lon="103.3337891"><ele>2387</ele><time>2026-08-18T21:06:20.000Z</time></trkpt>
        <trkpt lat="29.5373141" lon="103.33385"><ele>2411</ele><time>2026-08-18T21:06:38.000Z</time></trkpt>
        <trkpt lat="29.5372732" lon="103.3339422"><ele>2411</ele><time>2026-08-18T21:07:02.000Z</time></trkpt>
        <trkpt lat="29.537244" lon="103.3340482"><ele>2374</ele><time>2026-08-18T21:07:28.000Z</time></trkpt>
        <trkpt lat="29.5371922" lon="103.3341342"><ele>2374</ele><time>2026-08-18T21:07:44.000Z</time></trkpt>
        <trkpt lat="29.5371176" lon="103.334191"><ele>2374</ele><time>2026-08-18T21:08:04.000Z</time></trkpt>
        <trkpt lat="29.5370274" lon="103.3342204"><ele>2402</ele><time>2026-08-18T21:08:26.000Z</time></trkpt>
        <trkpt lat="29.5369326" lon="103.3342359"><ele>2402</ele><time>2026-08-18T21:08:44.000Z</time></trkpt>
        <trkpt lat="29.5368425" lon="103.334277"><ele>2402</ele><time>2026-08-18T21:09:08.000Z</time></trkpt>
        <trkpt lat="29.5367544" lon="103.3343105"><ele>2391</ele><time>2026-08-18T21:09:30.000Z</time></trkpt>
        <trkpt lat="29.5366613" lon="103.3343462"><ele>2391</ele><time>2026-08-18T21:09:44.000Z</time></trkpt>
        <trkpt lat="29.5365689" lon="103.3343442"><ele>2391</ele><time>2026-08-18T21:10:00.000Z</time></trkpt>
        <trkpt lat="29.5364767" lon="103.3343315"><ele>2408</ele><time>2026-08-18T21:10:22.000Z</time></trkpt>
        <trkpt lat="29.5363903" lon="103.3343543"><ele>2408</ele><time>2026-08-18T21:10:42.000Z</time></trkpt>
        <trkpt lat="29.5362988" lon="103.3343371"><ele>2408</ele><time>2026-08-18T21:11:12.000Z</time></trkpt>
        <trkpt lat="29.536208" lon="103.3343145"><ele>2412</ele><time>2026-08-18T21:11:32.000Z</time></trkpt>
        <trkpt lat="29.5361214" lon="103.3342713"><ele>2450</ele><time>2026-08-18T21:12:00.000Z</time></trkpt>
        <trkpt lat="29.536049" lon="103.3342006"><ele>2450</ele><time>2026-08-18T21:12:28.000Z</time></trkpt>
        <trkpt lat="29.5359674" lon="103.3341399"><ele>2454</ele><time>2026-08-18T21:12:58.000Z</time></trkpt>
        <trkpt lat="29.5358775" lon="103.3340861"><ele>2454</ele><time>2026-08-18T21:14:12.000Z</time></trkpt>
        <trkpt lat="29.5357909" lon="103.3340425"><ele>2454</ele><time>2026-08-18T21:14:24.000Z</time></trkpt>
        <trkpt lat="29.5357143" lon="103.3339831"><ele>2491</ele><time>2026-08-18T21:14:40.000Z</time></trkpt>
        <trkpt lat="29.5356575" lon="103.3338976"><ele>2497</ele><time>2026-08-18T21:15:10.000Z</time></trkpt>
        <trkpt lat="29.5356015" lon="103.3338127"><ele>2497</ele><time>2026-08-18T21:15:42.000Z</time></trkpt>
        <trkpt lat="29.5355441" lon="103.3337257"><ele>2516</ele><time>2026-08-18T21:15:56.000Z</time></trkpt>
        <trkpt lat="29.535477" lon="103.3336503"><ele>2516</ele><time>2026-08-18T21:16:10.000Z</time></trkpt>
        <trkpt lat="29.535455" lon="103.3335479"><ele>2516</ele><time>2026-08-18T21:16:26.000Z</time></trkpt>
        <trkpt lat="29.5354569" lon="103.3334419"><ele>2514</ele><time>2026-08-18T21:17:14.000Z</time></trkpt>
        <trkpt lat="29.5354742" lon="103.333337"><ele>2514</ele><time>2026-08-18T21:17:26.000Z</time></trkpt>
        <trkpt lat="29.5354835" lon="103.3332253"><ele>2514</ele><time>2026-08-18T21:17:38.000Z</time></trkpt>
        <trkpt lat="29.5354689" lon="103.3331121"><ele>2513</ele><time>2026-08-18T21:17:50.000Z</time></trkpt>
        <trkpt lat="29.5354345" lon="103.3330052"><ele>2513</ele><time>2026-08-18T21:18:02.000Z</time></trkpt>
        <trkpt lat="29.5353918" lon="103.3329094"><ele>2524</ele><time>2026-08-18T21:18:12.000Z</time></trkpt>
        <trkpt lat="29.535319" lon="103.3328341"><ele>2524</ele><time>2026-08-18T21:18:22.000Z</time></trkpt>
        <trkpt lat="29.5352352" lon="103.3327661"><ele>2524</ele><time>2026-08-18T21:18:32.000Z</time></trkpt>
        <trkpt lat="29.535152" lon="103.3326912"><ele>2524</ele><time>2026-08-18T21:18:42.000Z</time></trkpt>
        <trkpt lat="29.5351017" lon="103.3325906"><ele>2526</ele><time>2026-08-18T21:18:52.000Z</time></trkpt>
        <trkpt lat="29.5350806" lon="103.3324751"><ele>2526</ele><time>2026-08-18T21:19:02.000Z</time></trkpt>
        <trkpt lat="29.5350713" lon="103.3323594"><ele>2526</ele><time>2026-08-18T21:19:12.000Z</time></trkpt>
        <trkpt lat="29.535072" lon="103.3322464"><ele>2526</ele><time>2026-08-18T21:19:22.000Z</time></trkpt>
        <trkpt lat="29.5350701" lon="103.332138"><ele>2526</ele><time>2026-08-18T21:19:32.000Z</time></trkpt>
        <trkpt lat="29.5350632" lon="103.3320289"><ele>2512</ele><time>2026-08-18T21:19:42.000Z</time></trkpt>
        <trkpt lat="29.5350629" lon="103.3319211"><ele>2512</ele><time>2026-08-18T21:19:52.000Z</time></trkpt>
        <trkpt lat="29.5350576" lon="103.3318163"><ele>2512</ele><time>2026-08-18T21:20:02.000Z</time></trkpt>
        <trkpt lat="29.5350436" lon="103.3317123"><ele>2511</ele><time>2026-08-18T21:20:12.000Z</time></trkpt>
        <trkpt lat="29.5350258" lon="103.3316027"><ele>2511</ele><time>2026-08-18T21:20:22.000Z</time></trkpt>
        <trkpt lat="29.5350139" lon="103.3314955"><ele>2514</ele><time>2026-08-18T21:20:32.000Z</time></trkpt>
        <trkpt lat="29.5349609" lon="103.3314123"><ele>2514</ele><time>2026-08-18T21:20:44.000Z</time></trkpt>
        <trkpt lat="29.5348709" lon="103.3313849"><ele>2514</ele><time>2026-08-18T21:20:58.000Z</time></trkpt>
        <trkpt lat="29.5347854" lon="103.3314341"><ele>2516</ele><time>2026-08-18T21:21:10.000Z</time></trkpt>
        <trkpt lat="29.5347464" lon="103.3315451"><ele>2521</ele><time>2026-08-18T21:21:22.000Z</time></trkpt>
        <trkpt lat="29.5347497" lon="103.331666"><ele>2521</ele><time>2026-08-18T21:21:34.000Z</time></trkpt>
        <trkpt lat="29.5347646" lon="103.3317851"><ele>2521</ele><time>2026-08-18T21:21:46.000Z</time></trkpt>
        <trkpt lat="29.5347892" lon="103.3318972"><ele>2524</ele><time>2026-08-18T21:21:58.000Z</time></trkpt>
        <trkpt lat="29.5348052" lon="103.3320067"><ele>2524</ele><time>2026-08-18T21:22:10.000Z</time></trkpt>
        <trkpt lat="29.5347988" lon="103.3321205"><ele>2545</ele><time>2026-08-18T21:22:24.000Z</time></trkpt>
        <trkpt lat="29.5347804" lon="103.332226"><ele>2545</ele><time>2026-08-18T21:22:36.000Z</time></trkpt>
        <trkpt lat="29.5347491" lon="103.3323357"><ele>2545</ele><time>2026-08-18T21:22:50.000Z</time></trkpt>
        <trkpt lat="29.5347386" lon="103.33245"><ele>2555</ele><time>2026-08-18T21:23:02.000Z</time></trkpt>
        <trkpt lat="29.5347451" lon="103.3325614"><ele>2555</ele><time>2026-08-18T21:23:16.000Z</time></trkpt>
        <trkpt lat="29.534767" lon="103.3326644"><ele>2548</ele><time>2026-08-18T21:23:28.000Z</time></trkpt>
        <trkpt lat="29.5348028" lon="103.3327601"><ele>2548</ele><time>2026-08-18T21:23:40.000Z</time></trkpt>
        <trkpt lat="29.5348434" lon="103.3328576"><ele>2548</ele><time>2026-08-18T21:23:54.000Z</time></trkpt>
        <trkpt lat="29.5348604" lon="103.3329593"><ele>2550</ele><time>2026-08-18T21:24:12.000Z</time></trkpt>
        <trkpt lat="29.5347956" lon="103.3329896"><ele>2550</ele><time>2026-08-18T21:24:40.000Z</time></trkpt>
        <trkpt lat="29.5347102" lon="103.333036"><ele>2550</ele><time>2026-08-18T21:25:16.000Z</time></trkpt>
        <trkpt lat="29.5346173" lon="103.3330739"><ele>2550</ele><time>2026-08-18T21:25:48.000Z</time></trkpt>
        <trkpt lat="29.5345899" lon="103.3330837"><ele>2550</ele><time>2026-08-18T21:25:50.000Z</time></trkpt>
        <trkpt lat="29.5345899" lon="103.3330837"><ele>2550</ele><time>2026-08-18T21:26:20.000Z</time></trkpt>
        <trkpt lat="29.5345899" lon="103.3330837"><ele>2550</ele><time>2026-08-18T21:27:37.000Z</time></trkpt>
        <trkpt lat="29.5345899" lon="103.3330837"><ele>2550</ele><time>2026-08-18T21:28:08.000Z</time></trkpt>
        <trkpt lat="29.5345899" lon="103.3330837"><ele>2550</ele><time>2026-08-18T21:29:13.000Z</time></trkpt>
        <trkpt lat="29.5345899" lon="103.3330837"><ele>2550</ele><time>2026-08-18T21:29:45.000Z</time></trkpt>
        <trkpt lat="29.5345025" lon="103.333075"><ele>2568</ele><time>2026-08-18T21:30:11.000Z</time></trkpt>
        <trkpt lat="29.5345025" lon="103.333075"><ele>2568</ele><time>2026-08-18T21:30:36.000Z</time></trkpt>
        <trkpt lat="29.5344171" lon="103.333126"><ele>2568</ele><time>2026-08-18T21:30:50.000Z</time></trkpt>
        <trkpt lat="29.5343233" lon="103.3331255"><ele>2568</ele><time>2026-08-18T21:31:14.000Z</time></trkpt>
        <trkpt lat="29.5342326" lon="103.3331435"><ele>2576</ele><time>2026-08-18T21:31:48.000Z</time></trkpt>
        <trkpt lat="29.5341471" lon="103.3331791"><ele>2576</ele><time>2026-08-18T21:32:22.000Z</time></trkpt>
        <trkpt lat="29.5340506" lon="103.3331884"><ele>2576</ele><time>2026-08-18T21:32:44.000Z</time></trkpt>
        <trkpt lat="29.5340506" lon="103.3331884"><ele>2576</ele><time>2026-08-18T21:33:25.000Z</time></trkpt>
        <trkpt lat="29.5339575" lon="103.3331998"><ele>2578</ele><time>2026-08-18T21:34:51.000Z</time></trkpt>
        <trkpt lat="29.5339575" lon="103.3331998"><ele>2578</ele><time>2026-08-18T21:35:00.000Z</time></trkpt>
        <trkpt lat="29.5338834" lon="103.333134"><ele>2584</ele><time>2026-08-18T21:35:32.000Z</time></trkpt>
        <trkpt lat="29.5338074" lon="103.3330745"><ele>2584</ele><time>2026-08-18T21:36:06.000Z</time></trkpt>
        <trkpt lat="29.533737" lon="103.3330061"><ele>2597</ele><time>2026-08-18T21:36:44.000Z</time></trkpt>
        <trkpt lat="29.5336574" lon="103.3329465"><ele>2597</ele><time>2026-08-18T21:37:22.000Z</time></trkpt>
        <trkpt lat="29.5336574" lon="103.3329465"><ele>2597</ele><time>2026-08-18T21:38:00.000Z</time></trkpt>
        <trkpt lat="29.5335804" lon="103.3328882"><ele>2600</ele><time>2026-08-18T21:38:02.000Z</time></trkpt>
        <trkpt lat="29.5335804" lon="103.3328882"><ele>2600</ele><time>2026-08-18T21:38:12.000Z</time></trkpt>
        <trkpt lat="29.533498" lon="103.3328313"><ele>2600</ele><time>2026-08-18T21:38:28.000Z</time></trkpt>
        <trkpt lat="29.5334242" lon="103.3327643"><ele>2617</ele><time>2026-08-18T21:39:04.000Z</time></trkpt>
        <trkpt lat="29.5333797" lon="103.3327291"><ele>2617</ele><time>2026-08-18T21:39:16.000Z</time></trkpt>
        <trkpt lat="29.5333077" lon="103.3326826"><ele>2617</ele><time>2026-08-18T21:40:02.000Z</time></trkpt>
        <trkpt lat="29.5332198" lon="103.3326053"><ele>2613</ele><time>2026-08-18T21:41:28.000Z</time></trkpt>
        <trkpt lat="29.5331523" lon="103.3325198"><ele>2618</ele><time>2026-08-18T21:41:34.000Z</time></trkpt>
        <trkpt lat="29.5331367" lon="103.332486"><ele>2618</ele><time>2026-08-18T21:41:40.000Z</time></trkpt>
        <trkpt lat="29.5330636" lon="103.3324382"><ele>2618</ele><time>2026-08-18T21:42:50.000Z</time></trkpt>
        <trkpt lat="29.5329868" lon="103.3323807"><ele>2618</ele><time>2026-08-18T21:43:04.000Z</time></trkpt>
        <trkpt lat="29.5329358" lon="103.3323236"><ele>2609</ele><time>2026-08-18T21:43:20.000Z</time></trkpt>
        <trkpt lat="29.5329358" lon="103.3323236"><ele>2609</ele><time>2026-08-18T21:44:09.000Z</time></trkpt>
        <trkpt lat="29.5329112" lon="103.3322254"><ele>2611</ele><time>2026-08-18T21:44:25.000Z</time></trkpt>
        <trkpt lat="29.5329112" lon="103.3322254"><ele>2611</ele><time>2026-08-18T21:44:32.000Z</time></trkpt>
        <trkpt lat="29.5328335" lon="103.3321714"><ele>2611</ele><time>2026-08-18T21:44:48.000Z</time></trkpt>
        <trkpt lat="29.5327816" lon="103.3320846"><ele>2611</ele><time>2026-08-18T21:45:24.000Z</time></trkpt>
        <trkpt lat="29.5327816" lon="103.3320846"><ele>2611</ele><time>2026-08-18T21:46:01.000Z</time></trkpt>
        <trkpt lat="29.5327816" lon="103.3320846"><ele>2611</ele><time>2026-08-18T21:46:15.000Z</time></trkpt>
        <trkpt lat="29.5327816" lon="103.3320846"><ele>2611</ele><time>2026-08-18T21:47:22.000Z</time></trkpt>
        <trkpt lat="29.5327816" lon="103.3320846"><ele>2611</ele><time>2026-08-18T21:55:45.000Z</time></trkpt>
        <trkpt lat="29.5327816" lon="103.3320846"><ele>2611</ele><time>2026-08-18T21:56:19.000Z</time></trkpt>
        <trkpt lat="29.5326968" lon="103.3320281"><ele>2609</ele><time>2026-08-18T21:56:29.000Z</time></trkpt>
        <trkpt lat="29.5326968" lon="103.3320281"><ele>2609</ele><time>2026-08-18T21:57:06.000Z</time></trkpt>
        <trkpt lat="29.5326228" lon="103.3319585"><ele>2640</ele><time>2026-08-18T21:58:00.000Z</time></trkpt>
        <trkpt lat="29.5325936" lon="103.3318548"><ele>2640</ele><time>2026-08-18T21:58:34.000Z</time></trkpt>
        <trkpt lat="29.5325647" lon="103.3317515"><ele>2655</ele><time>2026-08-18T21:59:24.000Z</time></trkpt>
        <trkpt lat="29.5325269" lon="103.3316542"><ele>2655</ele><time>2026-08-18T21:59:52.000Z</time></trkpt>
        <trkpt lat="29.5324885" lon="103.3315531"><ele>2655</ele><time>2026-08-18T22:00:44.000Z</time></trkpt>
        <trkpt lat="29.5324588" lon="103.331443"><ele>2663</ele><time>2026-08-18T22:01:24.000Z</time></trkpt>
        <trkpt lat="29.5324437" lon="103.3313346"><ele>2663</ele><time>2026-08-18T22:01:48.000Z</time></trkpt>
        <trkpt lat="29.5324087" lon="103.3312395"><ele>2666</ele><time>2026-08-18T22:02:16.000Z</time></trkpt>
        <trkpt lat="29.5324087" lon="103.3312395"><ele>2666</ele><time>2026-08-18T22:03:03.000Z</time></trkpt>
        <trkpt lat="29.5323125" lon="103.3312049"><ele>2678</ele><time>2026-08-18T22:04:19.000Z</time></trkpt>
        <trkpt lat="29.5323125" lon="103.3312049"><ele>2678</ele><time>2026-08-18T22:04:24.000Z</time></trkpt>
        <trkpt lat="29.5322645" lon="103.3312944"><ele>2682</ele><time>2026-08-18T22:04:42.000Z</time></trkpt>
        <trkpt lat="29.5322123" lon="103.3313892"><ele>2682</ele><time>2026-08-18T22:05:00.000Z</time></trkpt>
        <trkpt lat="29.5322076" lon="103.3313234"><ele>2682</ele><time>2026-08-18T22:05:38.000Z</time></trkpt>
        <trkpt lat="29.5322096" lon="103.3312147"><ele>2678</ele><time>2026-08-18T22:06:26.000Z</time></trkpt>
        <trkpt lat="29.5322135" lon="103.3310889"><ele>2678</ele><time>2026-08-18T22:06:50.000Z</time></trkpt>
        <trkpt lat="29.5322148" lon="103.330964"><ele>2693</ele><time>2026-08-18T22:07:18.000Z</time></trkpt>
        <trkpt lat="29.5321976" lon="103.3308517"><ele>2693</ele><time>2026-08-18T22:07:34.000Z</time></trkpt>
        <trkpt lat="29.5321838" lon="103.3307426"><ele>2693</ele><time>2026-08-18T22:07:48.000Z</time></trkpt>
        <trkpt lat="29.5321836" lon="103.3306327"><ele>2702</ele><time>2026-08-18T22:08:02.000Z</time></trkpt>
        <trkpt lat="29.5322016" lon="103.3305281"><ele>2702</ele><time>2026-08-18T22:08:22.000Z</time></trkpt>
        <trkpt lat="29.5322016" lon="103.3305281"><ele>2702</ele><time>2026-08-18T22:09:16.000Z</time></trkpt>
        <trkpt lat="29.5321903" lon="103.3304237"><ele>2702</ele><time>2026-08-18T22:09:47.000Z</time></trkpt>
        <trkpt lat="29.5321903" lon="103.3304237"><ele>2702</ele><time>2026-08-18T22:09:52.000Z</time></trkpt>
        <trkpt lat="29.5322011" lon="103.3303189"><ele>2696</ele><time>2026-08-18T22:10:50.000Z</time></trkpt>
        <trkpt lat="29.5322011" lon="103.3303189"><ele>2696</ele><time>2026-08-18T22:11:53.000Z</time></trkpt>
        <trkpt lat="29.5322011" lon="103.3303189"><ele>2696</ele><time>2026-08-18T22:12:36.000Z</time></trkpt>
        <trkpt lat="29.5322011" lon="103.3303189"><ele>2696</ele><time>2026-08-18T22:13:09.000Z</time></trkpt>
        <trkpt lat="29.532139" lon="103.3302409"><ele>2696</ele><time>2026-08-18T22:14:33.000Z</time></trkpt>
        <trkpt lat="29.532139" lon="103.3302409"><ele>2696</ele><time>2026-08-18T22:15:06.000Z</time></trkpt>
        <trkpt lat="29.53204" lon="103.3302447"><ele>2735</ele><time>2026-08-18T22:15:40.000Z</time></trkpt>
        <trkpt lat="29.5319398" lon="103.3302391"><ele>2735</ele><time>2026-08-18T22:16:16.000Z</time></trkpt>
        <trkpt lat="29.5319398" lon="103.3302391"><ele>2735</ele><time>2026-08-18T22:17:11.000Z</time></trkpt>
        <trkpt lat="29.5318533" lon="103.3301906"><ele>2735</ele><time>2026-08-18T22:21:05.000Z</time></trkpt>
        <trkpt lat="29.5318533" lon="103.3301906"><ele>2735</ele><time>2026-08-18T22:21:26.000Z</time></trkpt>
        <trkpt lat="29.5318085" lon="103.3300984"><ele>2761</ele><time>2026-08-18T22:22:02.000Z</time></trkpt>
        <trkpt lat="29.5317351" lon="103.330035"><ele>2761</ele><time>2026-08-18T22:22:32.000Z</time></trkpt>
        <trkpt lat="29.5316495" lon="103.3299938"><ele>2761</ele><time>2026-08-18T22:23:12.000Z</time></trkpt>
        <trkpt lat="29.531554" lon="103.329964"><ele>2761</ele><time>2026-08-18T22:24:34.000Z</time></trkpt>
        <trkpt lat="29.5314757" lon="103.3299123"><ele>2762</ele><time>2026-08-18T22:25:08.000Z</time></trkpt>
        <trkpt lat="29.5314016" lon="103.3298458"><ele>2768</ele><time>2026-08-18T22:25:46.000Z</time></trkpt>
        <trkpt lat="29.5313794" lon="103.3298128"><ele>2768</ele><time>2026-08-18T22:25:52.000Z</time></trkpt>
        <trkpt lat="29.5313794" lon="103.3298128"><ele>2768</ele><time>2026-08-18T22:27:21.000Z</time></trkpt>
        <trkpt lat="29.5313794" lon="103.3298128"><ele>2768</ele><time>2026-08-18T22:31:51.000Z</time></trkpt>
        <trkpt lat="29.5313794" lon="103.3298128"><ele>2768</ele><time>2026-08-18T22:32:30.000Z</time></trkpt>
        <trkpt lat="29.5313321" lon="103.3297437"><ele>2768</ele><time>2026-08-18T22:36:39.000Z</time></trkpt>
        <trkpt lat="29.5313321" lon="103.3297437"><ele>2768</ele><time>2026-08-18T22:36:52.000Z</time></trkpt>
        <trkpt lat="29.5313254" lon="103.3296934"><ele>2768</ele><time>2026-08-18T22:37:02.000Z</time></trkpt>
        <trkpt lat="29.5312739" lon="103.3296068"><ele>2768</ele><time>2026-08-18T22:37:46.000Z</time></trkpt>
        <trkpt lat="29.5312171" lon="103.3295228"><ele>2787</ele><time>2026-08-18T22:38:26.000Z</time></trkpt>
        <trkpt lat="29.5311567" lon="103.3294363"><ele>2787</ele><time>2026-08-18T22:38:44.000Z</time></trkpt>
        <trkpt lat="29.5311462" lon="103.329333"><ele>2787</ele><time>2026-08-18T22:39:02.000Z</time></trkpt>
        <trkpt lat="29.531156" lon="103.3292224"><ele>2790</ele><time>2026-08-18T22:39:24.000Z</time></trkpt>
        <trkpt lat="29.5311561" lon="103.3291071"><ele>2790</ele><time>2026-08-18T22:39:40.000Z</time></trkpt>
        <trkpt lat="29.5311507" lon="103.3289943"><ele>2786</ele><time>2026-08-18T22:40:00.000Z</time></trkpt>
        <trkpt lat="29.5311393" lon="103.3288816"><ele>2786</ele><time>2026-08-18T22:40:18.000Z</time></trkpt>
        <trkpt lat="29.5311629" lon="103.328777"><ele>2786</ele><time>2026-08-18T22:40:34.000Z</time></trkpt>
        <trkpt lat="29.5311935" lon="103.3286737"><ele>2796</ele><time>2026-08-18T22:41:10.000Z</time></trkpt>
        <trkpt lat="29.5312318" lon="103.3285768"><ele>2796</ele><time>2026-08-18T22:41:34.000Z</time></trkpt>
        <trkpt lat="29.5312664" lon="103.3284769"><ele>2774</ele><time>2026-08-18T22:42:34.000Z</time></trkpt>
        <trkpt lat="29.5312936" lon="103.3283763"><ele>2779</ele><time>2026-08-18T22:42:56.000Z</time></trkpt>
        <trkpt lat="29.5313037" lon="103.3282716"><ele>2779</ele><time>2026-08-18T22:43:42.000Z</time></trkpt>
        <trkpt lat="29.5313037" lon="103.3282716"><ele>2779</ele><time>2026-08-18T22:44:15.000Z</time></trkpt>
        <trkpt lat="29.5313332" lon="103.328168"><ele>2777</ele><time>2026-08-18T22:48:26.000Z</time></trkpt>
        <trkpt lat="29.5313332" lon="103.328168"><ele>2777</ele><time>2026-08-18T22:49:00.000Z</time></trkpt>
        <trkpt lat="29.531324" lon="103.3280591"><ele>2777</ele><time>2026-08-18T22:49:16.000Z</time></trkpt>
        <trkpt lat="29.5313326" lon="103.3279512"><ele>2777</ele><time>2026-08-18T22:49:30.000Z</time></trkpt>
        <trkpt lat="29.5313132" lon="103.3278394"><ele>2776</ele><time>2026-08-18T22:49:46.000Z</time></trkpt>
        <trkpt lat="29.531303" lon="103.3277308"><ele>2776</ele><time>2026-08-18T22:50:04.000Z</time></trkpt>
        <trkpt lat="29.5312927" lon="103.3276215"><ele>2768</ele><time>2026-08-18T22:50:24.000Z</time></trkpt>
        <trkpt lat="29.5312896" lon="103.3275134"><ele>2768</ele><time>2026-08-18T22:50:48.000Z</time></trkpt>
        <trkpt lat="29.5312864" lon="103.327405"><ele>2768</ele><time>2026-08-18T22:51:22.000Z</time></trkpt>
        <trkpt lat="29.531285" lon="103.3272994"><ele>2770</ele><time>2026-08-18T22:52:04.000Z</time></trkpt>
        <trkpt lat="29.531262" lon="103.3271925"><ele>2770</ele><time>2026-08-18T22:52:38.000Z</time></trkpt>
        <trkpt lat="29.531209" lon="103.3271081"><ele>2786</ele><time>2026-08-18T22:53:22.000Z</time></trkpt>
        <trkpt lat="29.5311263" lon="103.3270523"><ele>2798</ele><time>2026-08-18T22:54:02.000Z</time></trkpt>
        <trkpt lat="29.5310386" lon="103.3270092"><ele>2798</ele><time>2026-08-18T22:54:20.000Z</time></trkpt>
        <trkpt lat="29.5309498" lon="103.3269708"><ele>2820</ele><time>2026-08-18T22:54:36.000Z</time></trkpt>
        <trkpt lat="29.5308884" lon="103.3268918"><ele>2820</ele><time>2026-08-18T22:55:44.000Z</time></trkpt>
        <trkpt lat="29.5308109" lon="103.3268232"><ele>2820</ele><time>2026-08-18T22:56:30.000Z</time></trkpt>
        <trkpt lat="29.5307561" lon="103.3268375"><ele>2820</ele><time>2026-08-18T22:56:42.000Z</time></trkpt>
        <trkpt lat="29.5306707" lon="103.3268536"><ele>2830</ele><time>2026-08-18T22:57:18.000Z</time></trkpt>
        <trkpt lat="29.5306707" lon="103.3268536"><ele>2830</ele><time>2026-08-18T22:57:53.000Z</time></trkpt>
        <trkpt lat="29.5305865" lon="103.3269299"><ele>2830</ele><time>2026-08-18T23:00:28.000Z</time></trkpt>
        <trkpt lat="29.5305865" lon="103.3269299"><ele>2830</ele><time>2026-08-18T23:00:44.000Z</time></trkpt>
        <trkpt lat="29.5304972" lon="103.3269506"><ele>2830</ele><time>2026-08-18T23:01:16.000Z</time></trkpt>
        <trkpt lat="29.5304121" lon="103.3269879"><ele>2842</ele><time>2026-08-18T23:01:38.000Z</time></trkpt>
        <trkpt lat="29.5303237" lon="103.3270283"><ele>2842</ele><time>2026-08-18T23:02:00.000Z</time></trkpt>
        <trkpt lat="29.5302333" lon="103.3270847"><ele>2852</ele><time>2026-08-18T23:02:14.000Z</time></trkpt>
        <trkpt lat="29.5301515" lon="103.3271563"><ele>2852</ele><time>2026-08-18T23:02:28.000Z</time></trkpt>
        <trkpt lat="29.5300824" lon="103.3272339"><ele>2848</ele><time>2026-08-18T23:02:40.000Z</time></trkpt>
        <trkpt lat="29.5300167" lon="103.3273087"><ele>2848</ele><time>2026-08-18T23:03:00.000Z</time></trkpt>
        <trkpt lat="29.5299605" lon="103.3273987"><ele>2858</ele><time>2026-08-18T23:03:24.000Z</time></trkpt>
        <trkpt lat="29.5299605" lon="103.3273987"><ele>2858</ele><time>2026-08-18T23:05:04.000Z</time></trkpt>
        <trkpt lat="29.5299605" lon="103.3273987"><ele>2858</ele><time>2026-08-18T23:08:28.000Z</time></trkpt>
        <trkpt lat="29.5299605" lon="103.3273987"><ele>2858</ele><time>2026-08-18T23:10:04.000Z</time></trkpt>
        <trkpt lat="29.5299605" lon="103.3273987"><ele>2858</ele><time>2026-08-18T23:12:58.000Z</time></trkpt>
        <trkpt lat="29.5299605" lon="103.3273987"><ele>2858</ele><time>2026-08-18T23:13:46.000Z</time></trkpt>
        <trkpt lat="29.5299605" lon="103.3273987"><ele>2858</ele><time>2026-08-18T23:24:22.000Z</time></trkpt>
        <trkpt lat="29.5299605" lon="103.3273987"><ele>2858</ele><time>2026-08-18T23:25:30.000Z</time></trkpt>
        <trkpt lat="29.529895" lon="103.327471"><ele>2858</ele><time>2026-08-18T23:28:36.000Z</time></trkpt>
        <trkpt lat="29.529895" lon="103.327471"><ele>2858</ele><time>2026-08-18T23:29:06.000Z</time></trkpt>
        <trkpt lat="29.529967" lon="103.3273969"><ele>2858</ele><time>2026-08-18T23:29:30.000Z</time></trkpt>
        <trkpt lat="29.5299225" lon="103.3274699"><ele>2858</ele><time>2026-08-18T23:29:48.000Z</time></trkpt>
        <trkpt lat="29.5298695" lon="103.32758"><ele>2858</ele><time>2026-08-18T23:29:58.000Z</time></trkpt>
        <trkpt lat="29.5298313" lon="103.3276933"><ele>2865</ele><time>2026-08-18T23:30:08.000Z</time></trkpt>
        <trkpt lat="29.5297727" lon="103.3277938"><ele>2865</ele><time>2026-08-18T23:30:20.000Z</time></trkpt>
        <trkpt lat="29.529688" lon="103.3278553"><ele>2865</ele><time>2026-08-18T23:30:32.000Z</time></trkpt>
        <trkpt lat="29.5295867" lon="103.3278744"><ele>2865</ele><time>2026-08-18T23:30:46.000Z</time></trkpt>
        <trkpt lat="29.5294858" lon="103.3278615"><ele>2866</ele><time>2026-08-18T23:30:58.000Z</time></trkpt>
        <trkpt lat="29.5293913" lon="103.3278416"><ele>2866</ele><time>2026-08-18T23:31:10.000Z</time></trkpt>
        <trkpt lat="29.5292991" lon="103.3278635"><ele>2867</ele><time>2026-08-18T23:31:32.000Z</time></trkpt>
        <trkpt lat="29.5292577" lon="103.3279482"><ele>2869</ele><time>2026-08-18T23:31:56.000Z</time></trkpt>
        <trkpt lat="29.5292328" lon="103.3280583"><ele>2869</ele><time>2026-08-18T23:32:16.000Z</time></trkpt>
        <trkpt lat="29.5292177" lon="103.3281726"><ele>2869</ele><time>2026-08-18T23:33:04.000Z</time></trkpt>
        <trkpt lat="29.5292129" lon="103.328285"><ele>2866</ele><time>2026-08-18T23:33:30.000Z</time></trkpt>
        <trkpt lat="29.529197" lon="103.3283958"><ele>2866</ele><time>2026-08-18T23:34:12.000Z</time></trkpt>
        <trkpt lat="29.5291672" lon="103.3284983"><ele>2868</ele><time>2026-08-18T23:34:34.000Z</time></trkpt>
        <trkpt lat="29.5291459" lon="103.3286059"><ele>2868</ele><time>2026-08-18T23:35:02.000Z</time></trkpt>
        <trkpt lat="29.5291054" lon="103.3287008"><ele>2868</ele><time>2026-08-18T23:35:28.000Z</time></trkpt>
        <trkpt lat="29.5290757" lon="103.3288023"><ele>2864</ele><time>2026-08-18T23:35:46.000Z</time></trkpt>
        <trkpt lat="29.5290531" lon="103.3289125"><ele>2864</ele><time>2026-08-18T23:36:00.000Z</time></trkpt>
        <trkpt lat="29.5289946" lon="103.3290025"><ele>2873</ele><time>2026-08-18T23:36:20.000Z</time></trkpt>
        <trkpt lat="29.5289384" lon="103.3291004"><ele>2876</ele><time>2026-08-18T23:36:34.000Z</time></trkpt>
        <trkpt lat="29.528879" lon="103.3291918"><ele>2876</ele><time>2026-08-18T23:36:56.000Z</time></trkpt>
        <trkpt lat="29.5288214" lon="103.3292753"><ele>2876</ele><time>2026-08-18T23:37:12.000Z</time></trkpt>
        <trkpt lat="29.5287775" lon="103.3293689"><ele>2882</ele><time>2026-08-18T23:37:34.000Z</time></trkpt>
        <trkpt lat="29.5287375" lon="103.3294633"><ele>2896</ele><time>2026-08-18T23:37:52.000Z</time></trkpt>
        <trkpt lat="29.5286949" lon="103.329557"><ele>2896</ele><time>2026-08-18T23:38:10.000Z</time></trkpt>
        <trkpt lat="29.5286603" lon="103.3296566"><ele>2908</ele><time>2026-08-18T23:38:26.000Z</time></trkpt>
        <trkpt lat="29.5286449" lon="103.3297604"><ele>2908</ele><time>2026-08-18T23:38:44.000Z</time></trkpt>
        <trkpt lat="29.5286367" lon="103.3298711"><ele>2917</ele><time>2026-08-18T23:39:00.000Z</time></trkpt>
        <trkpt lat="29.528616" lon="103.3299783"><ele>2917</ele><time>2026-08-18T23:39:14.000Z</time></trkpt>
        <trkpt lat="29.5285716" lon="103.3300834"><ele>2917</ele><time>2026-08-18T23:39:30.000Z</time></trkpt>
        <trkpt lat="29.5284968" lon="103.3301508"><ele>2922</ele><time>2026-08-18T23:39:48.000Z</time></trkpt>
        <trkpt lat="29.5284231" lon="103.3302207"><ele>2922</ele><time>2026-08-18T23:40:02.000Z</time></trkpt>
        <trkpt lat="29.5284231" lon="103.3302207"><ele>2922</ele><time>2026-08-18T23:40:52.000Z</time></trkpt>
        <trkpt lat="29.5284231" lon="103.3302207"><ele>2922</ele><time>2026-08-18T23:42:42.000Z</time></trkpt>
        <trkpt lat="29.5284231" lon="103.3302207"><ele>2922</ele><time>2026-08-18T23:43:14.000Z</time></trkpt>
        <trkpt lat="29.5283645" lon="103.3303053"><ele>2922</ele><time>2026-08-18T23:44:22.000Z</time></trkpt>
        <trkpt lat="29.5283645" lon="103.3303053"><ele>2922</ele><time>2026-08-18T23:44:50.000Z</time></trkpt>
        <trkpt lat="29.5283566" lon="103.3304236"><ele>2920</ele><time>2026-08-18T23:45:04.000Z</time></trkpt>
        <trkpt lat="29.5283701" lon="103.3305282"><ele>2920</ele><time>2026-08-18T23:45:24.000Z</time></trkpt>
        <trkpt lat="29.5283741" lon="103.3305565"><ele>2920</ele><time>2026-08-18T23:45:26.000Z</time></trkpt>
        <trkpt lat="29.5283751" lon="103.3306377"><ele>2920</ele><time>2026-08-18T23:45:42.000Z</time></trkpt>
        <trkpt lat="29.5283749" lon="103.3306556"><ele>2920</ele><time>2026-08-18T23:45:44.000Z</time></trkpt>
        <trkpt lat="29.5283183" lon="103.3306984"><ele>2920</ele><time>2026-08-18T23:46:06.000Z</time></trkpt>
        <trkpt lat="29.5282956" lon="103.3307091"><ele>2920</ele><time>2026-08-18T23:46:08.000Z</time></trkpt>
        <trkpt lat="29.5282451" lon="103.3307691"><ele>2920</ele><time>2026-08-18T23:46:36.000Z</time></trkpt>
        <trkpt lat="29.5281702" lon="103.3308496"><ele>2913</ele><time>2026-08-18T23:46:52.000Z</time></trkpt>
        <trkpt lat="29.5281455" lon="103.3309536"><ele>2913</ele><time>2026-08-18T23:47:10.000Z</time></trkpt>
        <trkpt lat="29.5281315" lon="103.331063"><ele>2913</ele><time>2026-08-18T23:47:28.000Z</time></trkpt>
        <trkpt lat="29.528103" lon="103.3311727"><ele>2913</ele><time>2026-08-18T23:47:52.000Z</time></trkpt>
        <trkpt lat="29.5280466" lon="103.3312662"><ele>2915</ele><time>2026-08-18T23:48:22.000Z</time></trkpt>
        <trkpt lat="29.5280466" lon="103.3312662"><ele>2915</ele><time>2026-08-18T23:49:22.000Z</time></trkpt>
        <trkpt lat="29.5279642" lon="103.3313288"><ele>2915</ele><time>2026-08-18T23:54:50.000Z</time></trkpt>
        <trkpt lat="29.5279642" lon="103.3313288"><ele>2915</ele><time>2026-08-18T23:55:04.000Z</time></trkpt>
        <trkpt lat="29.5278831" lon="103.3313912"><ele>2932</ele><time>2026-08-18T23:55:26.000Z</time></trkpt>
        <trkpt lat="29.5278386" lon="103.3314806"><ele>2932</ele><time>2026-08-18T23:55:42.000Z</time></trkpt>
        <trkpt lat="29.5278005" lon="103.3315746"><ele>2944</ele><time>2026-08-18T23:56:00.000Z</time></trkpt>
        <trkpt lat="29.527776" lon="103.3316184"><ele>2944</ele><time>2026-08-18T23:56:08.000Z</time></trkpt>
        <trkpt lat="29.5277608" lon="103.3317022"><ele>2944</ele><time>2026-08-18T23:56:26.000Z</time></trkpt>
        <trkpt lat="29.5277693" lon="103.3318122"><ele>2949</ele><time>2026-08-18T23:56:42.000Z</time></trkpt>
        <trkpt lat="29.5277575" lon="103.3319288"><ele>2949</ele><time>2026-08-18T23:56:56.000Z</time></trkpt>
        <trkpt lat="29.5277456" lon="103.3320502"><ele>2949</ele><time>2026-08-18T23:57:20.000Z</time></trkpt>
        <trkpt lat="29.5276811" lon="103.3321186"><ele>2942</ele><time>2026-08-18T23:57:38.000Z</time></trkpt>
        <trkpt lat="29.5275963" lon="103.332176"><ele>2958</ele><time>2026-08-18T23:58:08.000Z</time></trkpt>
        <trkpt lat="29.5275977" lon="103.332264"><ele>2958</ele><time>2026-08-18T23:58:34.000Z</time></trkpt>
        <trkpt lat="29.5276404" lon="103.3323615"><ele>2931</ele><time>2026-08-18T23:58:58.000Z</time></trkpt>
        <trkpt lat="29.527586" lon="103.3324245"><ele>2948</ele><time>2026-08-18T23:59:18.000Z</time></trkpt>
        <trkpt lat="29.527546" lon="103.3324713"><ele>2948</ele><time>2026-08-18T23:59:30.000Z</time></trkpt>
        <trkpt lat="29.5274778" lon="103.3325302"><ele>2948</ele><time>2026-08-18T23:59:52.000Z</time></trkpt>
        <trkpt lat="29.5273798" lon="103.3325112"><ele>2948</ele><time>2026-08-19T00:00:14.000Z</time></trkpt>
        <trkpt lat="29.5272941" lon="103.3324342"><ele>2960</ele><time>2026-08-19T00:00:30.000Z</time></trkpt>
        <trkpt lat="29.5272516" lon="103.3323182"><ele>2959</ele><time>2026-08-19T00:00:40.000Z</time></trkpt>
        <trkpt lat="29.5271707" lon="103.3322647"><ele>2959</ele><time>2026-08-19T00:00:58.000Z</time></trkpt>
        <trkpt lat="29.5271163" lon="103.3323279"><ele>2959</ele><time>2026-08-19T00:01:16.000Z</time></trkpt>
        <trkpt lat="29.5270809" lon="103.3323674"><ele>2967</ele><time>2026-08-19T00:01:26.000Z</time></trkpt>
        <trkpt lat="29.5270838" lon="103.3324655"><ele>2960</ele><time>2026-08-19T00:01:48.000Z</time></trkpt>
        <trkpt lat="29.5271029" lon="103.3325074"><ele>2960</ele><time>2026-08-19T00:02:02.000Z</time></trkpt>
        <trkpt lat="29.5271029" lon="103.3325074"><ele>2960</ele><time>2026-08-19T00:02:54.000Z</time></trkpt>
        <trkpt lat="29.5271376" lon="103.3326125"><ele>2960</ele><time>2026-08-19T00:03:30.000Z</time></trkpt>
        <trkpt lat="29.5271376" lon="103.3326125"><ele>2960</ele><time>2026-08-19T00:03:38.000Z</time></trkpt>
        <trkpt lat="29.5271496" lon="103.3327273"><ele>2961</ele><time>2026-08-19T00:03:52.000Z</time></trkpt>
        <trkpt lat="29.5271445" lon="103.332839"><ele>2961</ele><time>2026-08-19T00:04:06.000Z</time></trkpt>
        <trkpt lat="29.5271083" lon="103.3329337"><ele>2962</ele><time>2026-08-19T00:04:22.000Z</time></trkpt>
        <trkpt lat="29.5270975" lon="103.3329544"><ele>2962</ele><time>2026-08-19T00:04:24.000Z</time></trkpt>
        <trkpt lat="29.5270975" lon="103.3329544"><ele>2962</ele><time>2026-08-19T00:05:12.000Z</time></trkpt>
        <trkpt lat="29.5270975" lon="103.3329544"><ele>2962</ele><time>2026-08-19T00:05:24.000Z</time></trkpt>
        <trkpt lat="29.5270975" lon="103.3329544"><ele>2962</ele><time>2026-08-19T00:05:56.000Z</time></trkpt>
        <trkpt lat="29.5271308" lon="103.3330357"><ele>2962</ele><time>2026-08-19T00:06:16.000Z</time></trkpt>
        <trkpt lat="29.5271308" lon="103.3330357"><ele>2962</ele><time>2026-08-19T00:06:24.000Z</time></trkpt>
        <trkpt lat="29.5271489" lon="103.3330781"><ele>2962</ele><time>2026-08-19T00:06:32.000Z</time></trkpt>
        <trkpt lat="29.5271947" lon="103.3331645"><ele>2962</ele><time>2026-08-19T00:06:44.000Z</time></trkpt>
        <trkpt lat="29.5271988" lon="103.333276"><ele>2968</ele><time>2026-08-19T00:07:00.000Z</time></trkpt>
        <trkpt lat="29.5271921" lon="103.3333043"><ele>2968</ele><time>2026-08-19T00:07:02.000Z</time></trkpt>
        <trkpt lat="29.5271419" lon="103.3333694"><ele>2968</ele><time>2026-08-19T00:07:10.000Z</time></trkpt>
        <trkpt lat="29.5271419" lon="103.3333694"><ele>2968</ele><time>2026-08-19T00:08:12.000Z</time></trkpt>
        <trkpt lat="29.5271419" lon="103.3333694"><ele>2968</ele><time>2026-08-19T00:09:04.000Z</time></trkpt>
        <trkpt lat="29.5271419" lon="103.3333694"><ele>2968</ele><time>2026-08-19T00:09:36.000Z</time></trkpt>
        <trkpt lat="29.5271419" lon="103.3333694"><ele>2968</ele><time>2026-08-19T00:10:06.000Z</time></trkpt>
        <trkpt lat="29.5271419" lon="103.3333694"><ele>2968</ele><time>2026-08-19T00:10:38.000Z</time></trkpt>
        <trkpt lat="29.5271419" lon="103.3333694"><ele>2968</ele><time>2026-08-19T00:12:40.000Z</time></trkpt>
        <trkpt lat="29.5271419" lon="103.3333694"><ele>2968</ele><time>2026-08-19T00:13:14.000Z</time></trkpt>
        <trkpt lat="29.527044" lon="103.3334461"><ele>2976</ele><time>2026-08-19T00:13:40.000Z</time></trkpt>
        <trkpt lat="29.527044" lon="103.3334461"><ele>2976</ele><time>2026-08-19T00:13:56.000Z</time></trkpt>
        <trkpt lat="29.526955" lon="103.3334879"><ele>2976</ele><time>2026-08-19T00:14:06.000Z</time></trkpt>
        <trkpt lat="29.5268513" lon="103.3334969"><ele>2976</ele><time>2026-08-19T00:14:18.000Z</time></trkpt>
        <trkpt lat="29.5267597" lon="103.3335196"><ele>2981</ele><time>2026-08-19T00:14:28.000Z</time></trkpt>
        <trkpt lat="29.526668" lon="103.333528"><ele>2981</ele><time>2026-08-19T00:14:42.000Z</time></trkpt>
        <trkpt lat="29.526613" lon="103.3336067"><ele>2981</ele><time>2026-08-19T00:15:56.000Z</time></trkpt>
        <trkpt lat="29.5265236" lon="103.3336273"><ele>2988</ele><time>2026-08-19T00:16:06.000Z</time></trkpt>
        <trkpt lat="29.5264477" lon="103.3336834"><ele>2988</ele><time>2026-08-19T00:16:22.000Z</time></trkpt>
        <trkpt lat="29.5263626" lon="103.3337412"><ele>2988</ele><time>2026-08-19T00:16:46.000Z</time></trkpt>
        <trkpt lat="29.5262818" lon="103.3338073"><ele>2987</ele><time>2026-08-19T00:17:02.000Z</time></trkpt>
        <trkpt lat="29.5261926" lon="103.33385"><ele>2980</ele><time>2026-08-19T00:17:22.000Z</time></trkpt>
        <trkpt lat="29.5261157" lon="103.333908"><ele>2980</ele><time>2026-08-19T00:17:42.000Z</time></trkpt>
        <trkpt lat="29.5260346" lon="103.3339639"><ele>2980</ele><time>2026-08-19T00:18:02.000Z</time></trkpt>
        <trkpt lat="29.5260086" lon="103.3339816"><ele>2980</ele><time>2026-08-19T00:18:04.000Z</time></trkpt>
        <trkpt lat="29.5259378" lon="103.3340126"><ele>2983</ele><time>2026-08-19T00:18:46.000Z</time></trkpt>
        <trkpt lat="29.5258581" lon="103.3340583"><ele>2990</ele><time>2026-08-19T00:19:42.000Z</time></trkpt>
        <trkpt lat="29.5257755" lon="103.3341092"><ele>2990</ele><time>2026-08-19T00:20:00.000Z</time></trkpt>
        <trkpt lat="29.5256925" lon="103.3341624"><ele>3000</ele><time>2026-08-19T00:20:28.000Z</time></trkpt>
        <trkpt lat="29.5256476" lon="103.3342496"><ele>3000</ele><time>2026-08-19T00:20:48.000Z</time></trkpt>
        <trkpt lat="29.5255915" lon="103.3343304"><ele>3007</ele><time>2026-08-19T00:21:02.000Z</time></trkpt>
        <trkpt lat="29.5255057" lon="103.3343745"><ele>3007</ele><time>2026-08-19T00:21:20.000Z</time></trkpt>
        <trkpt lat="29.5254977" lon="103.3344786"><ele>3007</ele><time>2026-08-19T00:22:44.000Z</time></trkpt>
        <trkpt lat="29.5254405" lon="103.3345612"><ele>3007</ele><time>2026-08-19T00:23:04.000Z</time></trkpt>
        <trkpt lat="29.5253625" lon="103.334638"><ele>3009</ele><time>2026-08-19T00:23:20.000Z</time></trkpt>
        <trkpt lat="29.5252818" lon="103.3347023"><ele>3009</ele><time>2026-08-19T00:24:02.000Z</time></trkpt>
        <trkpt lat="29.5252034" lon="103.3347604"><ele>3009</ele><time>2026-08-19T00:24:22.000Z</time></trkpt>
        <trkpt lat="29.5251253" lon="103.3348459"><ele>3014</ele><time>2026-08-19T00:24:38.000Z</time></trkpt>
        <trkpt lat="29.5250363" lon="103.3348664"><ele>3027</ele><time>2026-08-19T00:25:18.000Z</time></trkpt>
        <trkpt lat="29.5250363" lon="103.3348664"><ele>3027</ele><time>2026-08-19T00:26:08.000Z</time></trkpt>
        <trkpt lat="29.5249371" lon="103.3348472"><ele>3014</ele><time>2026-08-19T00:27:28.000Z</time></trkpt>
        <trkpt lat="29.5249371" lon="103.3348472"><ele>3014</ele><time>2026-08-19T00:27:40.000Z</time></trkpt>
        <trkpt lat="29.5248517" lon="103.3348008"><ele>3019</ele><time>2026-08-19T00:27:52.000Z</time></trkpt>
        <trkpt lat="29.524829" lon="103.3347914"><ele>3019</ele><time>2026-08-19T00:27:56.000Z</time></trkpt>
        <trkpt lat="29.5247548" lon="103.3347764"><ele>3019</ele><time>2026-08-19T00:28:12.000Z</time></trkpt>
        <trkpt lat="29.5246662" lon="103.3348062"><ele>3019</ele><time>2026-08-19T00:28:44.000Z</time></trkpt>
        <trkpt lat="29.5246662" lon="103.3348062"><ele>3019</ele><time>2026-08-19T00:30:03.000Z</time></trkpt>
        <trkpt lat="29.5246662" lon="103.3348062"><ele>3019</ele><time>2026-08-19T00:32:23.000Z</time></trkpt>
        <trkpt lat="29.5246662" lon="103.3348062"><ele>3019</ele><time>2026-08-19T00:33:08.000Z</time></trkpt>
        <trkpt lat="29.5246662" lon="103.3348062"><ele>3019</ele><time>2026-08-19T00:35:02.000Z</time></trkpt>
        <trkpt lat="29.5246662" lon="103.3348062"><ele>3019</ele><time>2026-08-19T00:35:35.000Z</time></trkpt>
        <trkpt lat="29.5246662" lon="103.3348062"><ele>3019</ele><time>2026-08-19T00:35:56.000Z</time></trkpt>
        <trkpt lat="29.5246662" lon="103.3348062"><ele>3019</ele><time>2026-08-19T00:36:28.000Z</time></trkpt>
        <trkpt lat="29.5246662" lon="103.3348062"><ele>3019</ele><time>2026-08-19T00:37:26.000Z</time></trkpt>
        <trkpt lat="29.5246662" lon="103.3348062"><ele>3019</ele><time>2026-08-19T00:38:02.000Z</time></trkpt>
        <trkpt lat="29.5245705" lon="103.3348591"><ele>3024</ele><time>2026-08-19T00:41:25.000Z</time></trkpt>
        <trkpt lat="29.5245705" lon="103.3348591"><ele>3024</ele><time>2026-08-19T00:41:54.000Z</time></trkpt>
        <trkpt lat="29.5244825" lon="103.3349232"><ele>3034</ele><time>2026-08-19T00:42:06.000Z</time></trkpt>
        <trkpt lat="29.5243903" lon="103.3349807"><ele>3034</ele><time>2026-08-19T00:42:20.000Z</time></trkpt>
        <trkpt lat="29.5242947" lon="103.3350077"><ele>3047</ele><time>2026-08-19T00:42:34.000Z</time></trkpt>
        <trkpt lat="29.5241995" lon="103.3350035"><ele>3047</ele><time>2026-08-19T00:42:50.000Z</time></trkpt>
        <trkpt lat="29.5240995" lon="103.3350019"><ele>3047</ele><time>2026-08-19T00:43:04.000Z</time></trkpt>
        <trkpt lat="29.5240029" lon="103.3349716"><ele>3058</ele><time>2026-08-19T00:43:18.000Z</time></trkpt>
        <trkpt lat="29.5239118" lon="103.3349698"><ele>3058</ele><time>2026-08-19T00:43:40.000Z</time></trkpt>
        <trkpt lat="29.5238176" lon="103.3349543"><ele>3058</ele><time>2026-08-19T00:43:56.000Z</time></trkpt>
        <trkpt lat="29.5237242" lon="103.3349445"><ele>3072</ele><time>2026-08-19T00:44:10.000Z</time></trkpt>
        <trkpt lat="29.5236317" lon="103.3349544"><ele>3072</ele><time>2026-08-19T00:44:22.000Z</time></trkpt>
        <trkpt lat="29.5235394" lon="103.3349429"><ele>3072</ele><time>2026-08-19T00:44:40.000Z</time></trkpt>
        <trkpt lat="29.5234475" lon="103.3349145"><ele>3066</ele><time>2026-08-19T00:44:56.000Z</time></trkpt>
        <trkpt lat="29.5233565" lon="103.3348636"><ele>3066</ele><time>2026-08-19T00:45:10.000Z</time></trkpt>
        <trkpt lat="29.5232632" lon="103.334827"><ele>3068</ele><time>2026-08-19T00:45:28.000Z</time></trkpt>
        <trkpt lat="29.5231707" lon="103.3347812"><ele>3064</ele><time>2026-08-19T00:45:44.000Z</time></trkpt>
        <trkpt lat="29.5230796" lon="103.3347702"><ele>3064</ele><time>2026-08-19T00:46:00.000Z</time></trkpt>
        <trkpt lat="29.5229884" lon="103.3347879"><ele>3064</ele><time>2026-08-19T00:46:16.000Z</time></trkpt>
        <trkpt lat="29.5228927" lon="103.3348083"><ele>3064</ele><time>2026-08-19T00:46:36.000Z</time></trkpt>
        <trkpt lat="29.5228927" lon="103.3348083"><ele>3064</ele><time>2026-08-19T00:47:35.000Z</time></trkpt>
        <trkpt lat="29.5227994" lon="103.3348254"><ele>3064</ele><time>2026-08-19T00:49:22.000Z</time></trkpt>
        <trkpt lat="29.5227994" lon="103.3348254"><ele>3064</ele><time>2026-08-19T00:49:32.000Z</time></trkpt>
        <trkpt lat="29.5227626" lon="103.3349307"><ele>3063</ele><time>2026-08-19T00:49:46.000Z</time></trkpt>
        <trkpt lat="29.5227321" lon="103.3350432"><ele>3063</ele><time>2026-08-19T00:49:58.000Z</time></trkpt>
        <trkpt lat="29.5227413" lon="103.3351531"><ele>3069</ele><time>2026-08-19T00:50:12.000Z</time></trkpt>
        <trkpt lat="29.5227644" lon="103.3352658"><ele>3069</ele><time>2026-08-19T00:50:26.000Z</time></trkpt>
        <trkpt lat="29.5227815" lon="103.3353827"><ele>3069</ele><time>2026-08-19T00:50:44.000Z</time></trkpt>
        <trkpt lat="29.5227919" lon="103.3354928"><ele>3075</ele><time>2026-08-19T00:51:10.000Z</time></trkpt>
        <trkpt lat="29.5228073" lon="103.3355969"><ele>3075</ele><time>2026-08-19T00:51:24.000Z</time></trkpt>
        <trkpt lat="29.5228448" lon="103.3357066"><ele>3071</ele><time>2026-08-19T00:51:42.000Z</time></trkpt>
        <trkpt lat="29.522855" lon="103.3357286"><ele>3071</ele><time>2026-08-19T00:51:44.000Z</time></trkpt>
        <trkpt lat="29.5228486" lon="103.3358039"><ele>3071</ele><time>2026-08-19T00:52:08.000Z</time></trkpt>
        <trkpt lat="29.522848" lon="103.3358728"><ele>3071</ele><time>2026-08-19T00:52:26.000Z</time></trkpt>
        <trkpt lat="29.5227879" lon="103.3359343"><ele>3071</ele><time>2026-08-19T00:52:56.000Z</time></trkpt>
        <trkpt lat="29.5227262" lon="103.335965"><ele>3071</ele><time>2026-08-19T00:53:14.000Z</time></trkpt>
        <trkpt lat="29.5227262" lon="103.335965"><ele>3071</ele><time>2026-08-19T00:54:56.000Z</time></trkpt>
        <trkpt lat="29.5227262" lon="103.335965"><ele>3071</ele><time>2026-08-19T00:58:36.000Z</time></trkpt>
        <trkpt lat="29.5227262" lon="103.335965"><ele>3071</ele><time>2026-08-19T00:59:23.000Z</time></trkpt>
        <trkpt lat="29.5227262" lon="103.335965"><ele>3071</ele><time>2026-08-19T00:59:44.000Z</time></trkpt>
        <trkpt lat="29.5227262" lon="103.335965"><ele>3071</ele><time>2026-08-19T01:00:17.000Z</time></trkpt>
        <trkpt lat="29.5227262" lon="103.335965"><ele>3071</ele><time>2026-08-19T01:01:39.000Z</time></trkpt>
        <trkpt lat="29.5227262" lon="103.335965"><ele>3071</ele><time>2026-08-19T01:02:10.000Z</time></trkpt>
        <trkpt lat="29.5227262" lon="103.335965"><ele>3071</ele><time>2026-08-19T01:02:34.000Z</time></trkpt>
        <trkpt lat="29.5227262" lon="103.335965"><ele>3071</ele><time>2026-08-19T01:03:06.000Z</time></trkpt>
        <trkpt lat="29.5227262" lon="103.335965"><ele>3071</ele><time>2026-08-19T01:04:40.000Z</time></trkpt>
        <trkpt lat="29.5227262" lon="103.335965"><ele>3071</ele><time>2026-08-19T01:05:12.000Z</time></trkpt>
        <trkpt lat="29.5227262" lon="103.335965"><ele>3071</ele><time>2026-08-19T01:05:58.000Z</time></trkpt>
        <trkpt lat="29.5227262" lon="103.335965"><ele>3071</ele><time>2026-08-19T01:06:30.000Z</time></trkpt>
        <trkpt lat="29.5227262" lon="103.335965"><ele>3071</ele><time>2026-08-19T01:06:32.000Z</time></trkpt>
        <trkpt lat="29.5227262" lon="103.335965"><ele>3071</ele><time>2026-08-19T01:07:16.000Z</time></trkpt>
        <trkpt lat="29.5227262" lon="103.335965"><ele>3071</ele><time>2026-08-19T01:07:24.000Z</time></trkpt>
        <trkpt lat="29.5227262" lon="103.335965"><ele>3071</ele><time>2026-08-19T01:07:56.000Z</time></trkpt>
        <trkpt lat="29.5227262" lon="103.335965"><ele>3071</ele><time>2026-08-19T01:08:36.000Z</time></trkpt>
        <trkpt lat="29.5227262" lon="103.335965"><ele>3071</ele><time>2026-08-19T01:09:56.000Z</time></trkpt>
        <trkpt lat="29.5227262" lon="103.335965"><ele>3071</ele><time>2026-08-19T01:10:14.000Z</time></trkpt>
        <trkpt lat="29.5227262" lon="103.335965"><ele>3071</ele><time>2026-08-19T01:10:46.000Z</time></trkpt>
        <trkpt lat="29.5227262" lon="103.335965"><ele>3071</ele><time>2026-08-19T01:11:02.000Z</time></trkpt>
        <trkpt lat="29.5227262" lon="103.335965"><ele>3071</ele><time>2026-08-19T01:11:34.000Z</time></trkpt>
        <trkpt lat="29.5227262" lon="103.335965"><ele>3071</ele><time>2026-08-19T01:13:06.000Z</time></trkpt>
        <trkpt lat="29.5227262" lon="103.335965"><ele>3071</ele><time>2026-08-19T01:13:53.000Z</time></trkpt>
        <trkpt lat="29.5227262" lon="103.335965"><ele>3071</ele><time>2026-08-19T01:14:16.000Z</time></trkpt>
        <trkpt lat="29.5227262" lon="103.335965"><ele>3071</ele><time>2026-08-19T01:14:50.000Z</time></trkpt>
        <trkpt lat="29.5227262" lon="103.335965"><ele>3071</ele><time>2026-08-19T01:16:02.000Z</time></trkpt>
        <trkpt lat="29.5227262" lon="103.335965"><ele>3071</ele><time>2026-08-19T01:16:34.000Z</time></trkpt>
        <trkpt lat="29.5227262" lon="103.335965"><ele>3071</ele><time>2026-08-19T01:19:35.000Z</time></trkpt>
        <trkpt lat="29.5227262" lon="103.335965"><ele>3071</ele><time>2026-08-19T01:20:27.000Z</time></trkpt>
        <trkpt lat="29.5228049" lon="103.3359131"><ele>3071</ele><time>2026-08-19T01:24:41.000Z</time></trkpt>
        <trkpt lat="29.5228049" lon="103.3359131"><ele>3071</ele><time>2026-08-19T01:25:37.000Z</time></trkpt>
        <trkpt lat="29.5228066" lon="103.3358046"><ele>3071</ele><time>2026-08-19T01:26:29.000Z</time></trkpt>
        <trkpt lat="29.5228096" lon="103.3357"><ele>3071</ele><time>2026-08-19T01:27:03.000Z</time></trkpt>
        <trkpt lat="29.5228257" lon="103.3355987"><ele>3075</ele><time>2026-08-19T01:28:23.000Z</time></trkpt>
        <trkpt lat="29.5228674" lon="103.3355046"><ele>3075</ele><time>2026-08-19T01:29:55.000Z</time></trkpt>
        <trkpt lat="29.5228202" lon="103.33541"><ele>3069</ele><time>2026-08-19T01:30:59.000Z</time></trkpt>
        <trkpt lat="29.5228288" lon="103.3353039"><ele>3069</ele><time>2026-08-19T01:31:39.000Z</time></trkpt>
        <trkpt lat="29.522823" lon="103.3351911"><ele>3069</ele><time>2026-08-19T01:31:55.000Z</time></trkpt>
        <trkpt lat="29.52281" lon="103.3350857"><ele>3063</ele><time>2026-08-19T01:32:27.000Z</time></trkpt>
        <trkpt lat="29.5228367" lon="103.334982"><ele>3063</ele><time>2026-08-19T01:32:57.000Z</time></trkpt>
        <trkpt lat="29.5228176" lon="103.3348825"><ele>3063</ele><time>2026-08-19T01:33:11.000Z</time></trkpt>
        <trkpt lat="29.5228561" lon="103.3348007"><ele>3064</ele><time>2026-08-19T01:33:31.000Z</time></trkpt>
        <trkpt lat="29.5229404" lon="103.334767"><ele>3064</ele><time>2026-08-19T01:33:51.000Z</time></trkpt>
        <trkpt lat="29.5230456" lon="103.3347603"><ele>3064</ele><time>2026-08-19T01:34:07.000Z</time></trkpt>
        <trkpt lat="29.5230597" lon="103.3347388"><ele>3064</ele><time>2026-08-19T01:34:21.000Z</time></trkpt>
        <trkpt lat="29.5231249" lon="103.3347435"><ele>3064</ele><time>2026-08-19T01:34:39.000Z</time></trkpt>
        <trkpt lat="29.523213" lon="103.3347774"><ele>3068</ele><time>2026-08-19T01:34:57.000Z</time></trkpt>
        <trkpt lat="29.5233024" lon="103.3348315"><ele>3068</ele><time>2026-08-19T01:35:11.000Z</time></trkpt>
        <trkpt lat="29.5234045" lon="103.3348574"><ele>3068</ele><time>2026-08-19T01:35:25.000Z</time></trkpt>
        <trkpt lat="29.5234971" lon="103.3348904"><ele>3072</ele><time>2026-08-19T01:35:39.000Z</time></trkpt>
        <trkpt lat="29.5235886" lon="103.3349224"><ele>3072</ele><time>2026-08-19T01:35:57.000Z</time></trkpt>
        <trkpt lat="29.5236751" lon="103.3349751"><ele>3072</ele><time>2026-08-19T01:36:11.000Z</time></trkpt>
        <trkpt lat="29.5237656" lon="103.3350326"><ele>3058</ele><time>2026-08-19T01:36:25.000Z</time></trkpt>
        <trkpt lat="29.5238493" lon="103.3350933"><ele>3058</ele><time>2026-08-19T01:36:39.000Z</time></trkpt>
        <trkpt lat="29.5239355" lon="103.3351342"><ele>3058</ele><time>2026-08-19T01:36:51.000Z</time></trkpt>
        <trkpt lat="29.5240194" lon="103.3351721"><ele>3065</ele><time>2026-08-19T01:37:03.000Z</time></trkpt>
        <trkpt lat="29.5241149" lon="103.3351986"><ele>3059</ele><time>2026-08-19T01:37:17.000Z</time></trkpt>
        <trkpt lat="29.5242012" lon="103.335165"><ele>3059</ele><time>2026-08-19T01:37:25.000Z</time></trkpt>
        <trkpt lat="29.5242632" lon="103.335099"><ele>3047</ele><time>2026-08-19T01:37:33.000Z</time></trkpt>
        <trkpt lat="29.5242632" lon="103.335099"><ele>3047</ele><time>2026-08-19T01:39:09.000Z</time></trkpt>
        <trkpt lat="29.5242632" lon="103.335099"><ele>3047</ele><time>2026-08-19T01:39:19.000Z</time></trkpt>
        <trkpt lat="29.5242632" lon="103.335099"><ele>3047</ele><time>2026-08-19T01:40:13.000Z</time></trkpt>
        <trkpt lat="29.5242632" lon="103.335099"><ele>3047</ele><time>2026-08-19T01:40:17.000Z</time></trkpt>
        <trkpt lat="29.5242632" lon="103.335099"><ele>3047</ele><time>2026-08-19T01:41:05.000Z</time></trkpt>
        <trkpt lat="29.5242632" lon="103.335099"><ele>3047</ele><time>2026-08-19T01:41:53.000Z</time></trkpt>
        <trkpt lat="29.5242632" lon="103.335099"><ele>3047</ele><time>2026-08-19T01:42:25.000Z</time></trkpt>
        <trkpt lat="29.5242632" lon="103.335099"><ele>3047</ele><time>2026-08-19T01:47:53.000Z</time></trkpt>
        <trkpt lat="29.5242632" lon="103.335099"><ele>3047</ele><time>2026-08-19T01:48:53.000Z</time></trkpt>
        <trkpt lat="29.5242632" lon="103.335099"><ele>3047</ele><time>2026-08-19T01:53:15.000Z</time></trkpt>
        <trkpt lat="29.5242632" lon="103.335099"><ele>3047</ele><time>2026-08-19T01:53:48.000Z</time></trkpt>
        <trkpt lat="29.5242632" lon="103.335099"><ele>3047</ele><time>2026-08-19T01:56:39.000Z</time></trkpt>
        <trkpt lat="29.5242632" lon="103.335099"><ele>3047</ele><time>2026-08-19T01:57:13.000Z</time></trkpt>
        <trkpt lat="29.5242632" lon="103.335099"><ele>3047</ele><time>2026-08-19T01:58:12.000Z</time></trkpt>
        <trkpt lat="29.5242632" lon="103.335099"><ele>3047</ele><time>2026-08-19T01:58:45.000Z</time></trkpt>
        <trkpt lat="29.5242632" lon="103.335099"><ele>3047</ele><time>2026-08-19T02:01:15.000Z</time></trkpt>
        <trkpt lat="29.5242632" lon="103.335099"><ele>3047</ele><time>2026-08-19T02:01:47.000Z</time></trkpt>
        <trkpt lat="29.5242632" lon="103.335099"><ele>3047</ele><time>2026-08-19T02:06:46.000Z</time></trkpt>
        <trkpt lat="29.5242632" lon="103.335099"><ele>3047</ele><time>2026-08-19T02:07:18.000Z</time></trkpt>
        <trkpt lat="29.5242668" lon="103.3349684"><ele>3047</ele><time>2026-08-19T02:08:51.000Z</time></trkpt>
        <trkpt lat="29.5242668" lon="103.3349684"><ele>3047</ele><time>2026-08-19T02:09:05.000Z</time></trkpt>
        <trkpt lat="29.5242668" lon="103.3349684"><ele>3047</ele><time>2026-08-19T02:09:37.000Z</time></trkpt>
        <trkpt lat="29.5242668" lon="103.3349684"><ele>3047</ele><time>2026-08-19T03:18:57.000Z</time></trkpt>
        <trkpt lat="29.5242668" lon="103.3349684"><ele>3047</ele><time>2026-08-19T03:19:51.000Z</time></trkpt>
        <trkpt lat="29.5242668" lon="103.3349684"><ele>3047</ele><time>2026-08-19T03:20:17.000Z</time></trkpt>
        <trkpt lat="29.5242668" lon="103.3349684"><ele>3047</ele><time>2026-08-19T03:20:49.000Z</time></trkpt>
        <trkpt lat="29.5242668" lon="103.3349684"><ele>3047</ele><time>2026-08-19T03:21:51.000Z</time></trkpt>
        <trkpt lat="29.5242668" lon="103.3349684"><ele>3047</ele><time>2026-08-19T03:22:23.000Z</time></trkpt>
        <trkpt lat="29.5242668" lon="103.3349684"><ele>3047</ele><time>2026-08-19T03:22:27.000Z</time></trkpt>
        <trkpt lat="29.5242668" lon="103.3349684"><ele>3047</ele><time>2026-08-19T03:22:59.000Z</time></trkpt>
        <trkpt lat="29.5242668" lon="103.3349684"><ele>3047</ele><time>2026-08-19T03:25:45.000Z</time></trkpt>
        <trkpt lat="29.5242668" lon="103.3349684"><ele>3047</ele><time>2026-08-19T03:26:17.000Z</time></trkpt>
        <trkpt lat="29.5242668" lon="103.3349684"><ele>3047</ele><time>2026-08-19T03:30:51.000Z</time></trkpt>
        <trkpt lat="29.5242668" lon="103.3349684"><ele>3047</ele><time>2026-08-19T03:31:23.000Z</time></trkpt>
        <trkpt lat="29.5242205" lon="103.3348662"><ele>3047</ele><time>2026-08-19T03:37:29.000Z</time></trkpt>
        <trkpt lat="29.5242205" lon="103.3348662"><ele>3047</ele><time>2026-08-19T03:38:03.000Z</time></trkpt>
        <trkpt lat="29.5242205" lon="103.3347615"><ele>3034</ele><time>2026-08-19T03:38:15.000Z</time></trkpt>
        <trkpt lat="29.5241751" lon="103.3351258"><ele>3047</ele><time>2026-08-19T03:38:31.000Z</time></trkpt>
        <trkpt lat="29.5242414" lon="103.335301"><ele>3059</ele><time>2026-08-19T03:38:37.000Z</time></trkpt>
        <trkpt lat="29.524196" lon="103.3353725"><ele>3059</ele><time>2026-08-19T03:38:43.000Z</time></trkpt>
        <trkpt lat="29.5240901" lon="103.3352888"><ele>3059</ele><time>2026-08-19T03:40:03.000Z</time></trkpt>
        <trkpt lat="29.5240395" lon="103.3351975"><ele>3059</ele><time>2026-08-19T03:40:51.000Z</time></trkpt>
        <trkpt lat="29.523979" lon="103.3351043"><ele>3058</ele><time>2026-08-19T03:40:59.000Z</time></trkpt>
        <trkpt lat="29.5239413" lon="103.3350043"><ele>3058</ele><time>2026-08-19T03:41:07.000Z</time></trkpt>
        <trkpt lat="29.5239021" lon="103.3349012"><ele>3058</ele><time>2026-08-19T03:41:15.000Z</time></trkpt>
        <trkpt lat="29.5238973" lon="103.3348332"><ele>3042</ele><time>2026-08-19T03:41:23.000Z</time></trkpt>
        <trkpt lat="29.5238234" lon="103.3348407"><ele>3042</ele><time>2026-08-19T03:41:35.000Z</time></trkpt>
        <trkpt lat="29.523759" lon="103.3348616"><ele>3058</ele><time>2026-08-19T03:41:43.000Z</time></trkpt>
        <trkpt lat="29.5236682" lon="103.3348935"><ele>3072</ele><time>2026-08-19T03:41:57.000Z</time></trkpt>
        <trkpt lat="29.5237093" lon="103.3349453"><ele>3072</ele><time>2026-08-19T03:42:13.000Z</time></trkpt>
        <trkpt lat="29.5238152" lon="103.3349648"><ele>3058</ele><time>2026-08-19T03:42:21.000Z</time></trkpt>
        <trkpt lat="29.5239283" lon="103.3349702"><ele>3058</ele><time>2026-08-19T03:42:29.000Z</time></trkpt>
        <trkpt lat="29.5240462" lon="103.3349674"><ele>3047</ele><time>2026-08-19T03:42:37.000Z</time></trkpt>
        <trkpt lat="29.5241519" lon="103.3349579"><ele>3047</ele><time>2026-08-19T03:42:47.000Z</time></trkpt>
        <trkpt lat="29.5242489" lon="103.3349504"><ele>3047</ele><time>2026-08-19T03:42:57.000Z</time></trkpt>
        <trkpt lat="29.5243441" lon="103.3349226"><ele>3034</ele><time>2026-08-19T03:43:07.000Z</time></trkpt>
        <trkpt lat="29.5244419" lon="103.334905"><ele>3034</ele><time>2026-08-19T03:43:17.000Z</time></trkpt>
        <trkpt lat="29.5245461" lon="103.3348892"><ele>3034</ele><time>2026-08-19T03:43:27.000Z</time></trkpt>
        <trkpt lat="29.5246427" lon="103.334888"><ele>3028</ele><time>2026-08-19T03:43:35.000Z</time></trkpt>
        <trkpt lat="29.5247009" lon="103.3349598"><ele>3028</ele><time>2026-08-19T03:43:45.000Z</time></trkpt>
        <trkpt lat="29.5247779" lon="103.3350078"><ele>3028</ele><time>2026-08-19T03:44:07.000Z</time></trkpt>
        <trkpt lat="29.5248693" lon="103.3350685"><ele>3027</ele><time>2026-08-19T03:44:17.000Z</time></trkpt>
        <trkpt lat="29.5249152" lon="103.3350823"><ele>3027</ele><time>2026-08-19T03:44:21.000Z</time></trkpt>
        <trkpt lat="29.5249152" lon="103.3350823"><ele>3027</ele><time>2026-08-19T03:44:51.000Z</time></trkpt>
        <trkpt lat="29.5248363" lon="103.3351253"><ele>3028</ele><time>2026-08-19T03:44:53.000Z</time></trkpt>
        <trkpt lat="29.5248363" lon="103.3351253"><ele>3028</ele><time>2026-08-19T03:45:01.000Z</time></trkpt>
        <trkpt lat="29.5248685" lon="103.3349285"><ele>3027</ele><time>2026-08-19T03:45:09.000Z</time></trkpt>
        <trkpt lat="29.5248106" lon="103.3348872"><ele>3028</ele><time>2026-08-19T03:45:28.000Z</time></trkpt>
        <trkpt lat="29.5247159" lon="103.3349162"><ele>3028</ele><time>2026-08-19T03:45:36.000Z</time></trkpt>
        <trkpt lat="29.524616" lon="103.3349417"><ele>3028</ele><time>2026-08-19T03:45:46.000Z</time></trkpt>
        <trkpt lat="29.524512" lon="103.3349388"><ele>3034</ele><time>2026-08-19T03:45:56.000Z</time></trkpt>
        <trkpt lat="29.524405" lon="103.3349398"><ele>3034</ele><time>2026-08-19T03:46:10.000Z</time></trkpt>
        <trkpt lat="29.5243079" lon="103.3349465"><ele>3034</ele><time>2026-08-19T03:46:20.000Z</time></trkpt>
        <trkpt lat="29.5242086" lon="103.3349491"><ele>3047</ele><time>2026-08-19T03:46:30.000Z</time></trkpt>
        <trkpt lat="29.5241131" lon="103.3349563"><ele>3047</ele><time>2026-08-19T03:46:40.000Z</time></trkpt>
        <trkpt lat="29.5240203" lon="103.3349587"><ele>3058</ele><time>2026-08-19T03:46:50.000Z</time></trkpt>
        <trkpt lat="29.5239272" lon="103.334936"><ele>3058</ele><time>2026-08-19T03:47:04.000Z</time></trkpt>
        <trkpt lat="29.5238848" lon="103.3349371"><ele>3058</ele><time>2026-08-19T03:47:08.000Z</time></trkpt>
        <trkpt lat="29.5238846" lon="103.3350202"><ele>3058</ele><time>2026-08-19T03:47:32.000Z</time></trkpt>
        <trkpt lat="29.5239374" lon="103.3351179"><ele>3058</ele><time>2026-08-19T03:48:00.000Z</time></trkpt>
        <trkpt lat="29.5240343" lon="103.3351952"><ele>3059</ele><time>2026-08-19T03:48:12.000Z</time></trkpt>
        <trkpt lat="29.5241371" lon="103.3352479"><ele>3059</ele><time>2026-08-19T03:48:18.000Z</time></trkpt>
        <trkpt lat="29.5242007" lon="103.335264"><ele>3059</ele><time>2026-08-19T03:48:24.000Z</time></trkpt>
        <trkpt lat="29.5242007" lon="103.335264"><ele>3059</ele><time>2026-08-19T03:48:54.000Z</time></trkpt>
        <trkpt lat="29.5241137" lon="103.3352093"><ele>3059</ele><time>2026-08-19T03:51:40.000Z</time></trkpt>
        <trkpt lat="29.5241137" lon="103.3352093"><ele>3059</ele><time>2026-08-19T03:52:26.000Z</time></trkpt>
        <trkpt lat="29.5241137" lon="103.3352093"><ele>3059</ele><time>2026-08-19T03:53:12.000Z</time></trkpt>
        <trkpt lat="29.5240203" lon="103.3352047"><ele>3065</ele><time>2026-08-19T03:53:22.000Z</time></trkpt>
        <trkpt lat="29.5240203" lon="103.3352047"><ele>3065</ele><time>2026-08-19T03:53:50.000Z</time></trkpt>
        <trkpt lat="29.5240203" lon="103.3352047"><ele>3065</ele><time>2026-08-19T03:55:08.000Z</time></trkpt>
        <trkpt lat="29.5240203" lon="103.3352047"><ele>3065</ele><time>2026-08-19T03:57:50.000Z</time></trkpt>
        <trkpt lat="29.5240203" lon="103.3352047"><ele>3065</ele><time>2026-08-19T03:58:33.000Z</time></trkpt>
        <trkpt lat="29.5241228" lon="103.3352535"><ele>3059</ele><time>2026-08-19T04:01:48.000Z</time></trkpt>
        <trkpt lat="29.5241228" lon="103.3352535"><ele>3059</ele><time>2026-08-19T04:02:05.000Z</time></trkpt>
        <trkpt lat="29.5241228" lon="103.3352535"><ele>3059</ele><time>2026-08-19T04:02:40.000Z</time></trkpt>
        <trkpt lat="29.5240235" lon="103.3352075"><ele>3065</ele><time>2026-08-19T04:02:42.000Z</time></trkpt>
        <trkpt lat="29.5240235" lon="103.3352075"><ele>3065</ele><time>2026-08-19T04:02:48.000Z</time></trkpt>
        <trkpt lat="29.5240235" lon="103.3352075"><ele>3065</ele><time>2026-08-19T04:03:24.000Z</time></trkpt>
        <trkpt lat="29.5241197" lon="103.335203"><ele>3059</ele><time>2026-08-19T04:05:09.000Z</time></trkpt>
        <trkpt lat="29.5241197" lon="103.335203"><ele>3059</ele><time>2026-08-19T04:05:18.000Z</time></trkpt>
        <trkpt lat="29.5240348" lon="103.3351367"><ele>3047</ele><time>2026-08-19T04:05:22.000Z</time></trkpt>
        <trkpt lat="29.5240348" lon="103.3351367"><ele>3047</ele><time>2026-08-19T04:06:02.000Z</time></trkpt>
        <trkpt lat="29.5240069" lon="103.3351033"><ele>3058</ele><time>2026-08-19T04:10:24.000Z</time></trkpt>
        <trkpt lat="29.5240069" lon="103.3351033"><ele>3058</ele><time>2026-08-19T04:12:54.000Z</time></trkpt>
        <trkpt lat="29.5239842" lon="103.3351094"><ele>3058</ele><time>2026-08-19T04:13:00.000Z</time></trkpt>
        <trkpt lat="29.5239842" lon="103.3351094"><ele>3058</ele><time>2026-08-19T04:13:21.000Z</time></trkpt>
        <trkpt lat="29.5239842" lon="103.3351094"><ele>3058</ele><time>2026-08-19T04:24:22.000Z</time></trkpt>
        <trkpt lat="29.5239842" lon="103.3351094"><ele>3058</ele><time>2026-08-19T04:24:54.000Z</time></trkpt>
        <trkpt lat="29.52385" lon="103.3351828"><ele>3065</ele><time>2026-08-19T04:35:53.000Z</time></trkpt>
        <trkpt lat="29.52385" lon="103.3351828"><ele>3065</ele><time>2026-08-19T04:35:55.000Z</time></trkpt>
        <trkpt lat="29.5237532" lon="103.3352203"><ele>3065</ele><time>2026-08-19T04:36:01.000Z</time></trkpt>
        <trkpt lat="29.5236587" lon="103.3352293"><ele>3067</ele><time>2026-08-19T04:36:09.000Z</time></trkpt>
        <trkpt lat="29.5237493" lon="103.3352608"><ele>3067</ele><time>2026-08-19T04:36:21.000Z</time></trkpt>
        <trkpt lat="29.5238605" lon="103.3352975"><ele>3065</ele><time>2026-08-19T04:36:25.000Z</time></trkpt>
        <trkpt lat="29.5240034" lon="103.33534"><ele>3065</ele><time>2026-08-19T04:36:29.000Z</time></trkpt>
        <trkpt lat="29.5239876" lon="103.3353835"><ele>3065</ele><time>2026-08-19T04:36:38.000Z</time></trkpt>
        <trkpt lat="29.5238577" lon="103.3353796"><ele>3065</ele><time>2026-08-19T04:36:42.000Z</time></trkpt>
        <trkpt lat="29.5236689" lon="103.3353598"><ele>3067</ele><time>2026-08-19T04:36:50.000Z</time></trkpt>
        <trkpt lat="29.5236797" lon="103.33534"><ele>3067</ele><time>2026-08-19T04:36:54.000Z</time></trkpt>
        <trkpt lat="29.5236797" lon="103.33534"><ele>3067</ele><time>2026-08-19T04:37:24.000Z</time></trkpt>
        <trkpt lat="29.5236797" lon="103.33534"><ele>3067</ele><time>2026-08-19T04:38:40.000Z</time></trkpt>
        <trkpt lat="29.5236797" lon="103.33534"><ele>3067</ele><time>2026-08-19T04:39:12.000Z</time></trkpt>
        <trkpt lat="29.5236797" lon="103.33534"><ele>3067</ele><time>2026-08-19T04:51:23.000Z</time></trkpt>
        <trkpt lat="29.5236797" lon="103.33534"><ele>3067</ele><time>2026-08-19T04:51:56.000Z</time></trkpt>
        <trkpt lat="29.5236797" lon="103.33534"><ele>3067</ele><time>2026-08-19T04:53:07.000Z</time></trkpt>
        <trkpt lat="29.5236797" lon="103.33534"><ele>3067</ele><time>2026-08-19T04:54:02.000Z</time></trkpt>
        <trkpt lat="29.5239448" lon="103.3352157"><ele>3065</ele><time>2026-08-19T04:55:24.000Z</time></trkpt>
        <trkpt lat="29.5239448" lon="103.3352157"><ele>3065</ele><time>2026-08-19T04:55:53.000Z</time></trkpt>
        <trkpt lat="29.5239448" lon="103.3352157"><ele>3065</ele><time>2026-08-19T04:55:56.000Z</time></trkpt>
        <trkpt lat="29.5239448" lon="103.3352157"><ele>3065</ele><time>2026-08-19T05:00:07.000Z</time></trkpt>
        <trkpt lat="29.5239448" lon="103.3352157"><ele>3065</ele><time>2026-08-19T05:00:39.000Z</time></trkpt>
        <trkpt lat="29.5239448" lon="103.3352157"><ele>3065</ele><time>2026-08-19T06:53:58.000Z</time></trkpt>
        <trkpt lat="29.5239448" lon="103.3352157"><ele>3065</ele><time>2026-08-19T06:54:32.000Z</time></trkpt>
        <trkpt lat="29.5239448" lon="103.3352157"><ele>3065</ele><time>2026-08-19T06:54:34.000Z</time></trkpt>
        <trkpt lat="29.5239448" lon="103.3352157"><ele>3065</ele><time>2026-08-19T06:55:06.000Z</time></trkpt>
        <trkpt lat="29.5239811" lon="103.3350673"><ele>3058</ele><time>2026-08-19T07:07:19.000Z</time></trkpt>
        <trkpt lat="29.5239811" lon="103.3350673"><ele>3058</ele><time>2026-08-19T07:07:29.000Z</time></trkpt>
        <trkpt lat="29.5239811" lon="103.3350673"><ele>3058</ele><time>2026-08-19T07:08:03.000Z</time></trkpt>
        <trkpt lat="29.5239596" lon="103.3352131"><ele>3065</ele><time>2026-08-19T07:38:05.000Z</time></trkpt>
        <trkpt lat="29.5239596" lon="103.3352131"><ele>3065</ele><time>2026-08-19T07:38:07.000Z</time></trkpt>
        <trkpt lat="29.5239596" lon="103.3352131"><ele>3065</ele><time>2026-08-19T07:38:43.000Z</time></trkpt>
        <trkpt lat="29.5239596" lon="103.3352131"><ele>3065</ele><time>2026-08-19T08:05:10.000Z</time></trkpt>
        <trkpt lat="29.5239596" lon="103.3352131"><ele>3065</ele><time>2026-08-19T08:05:42.000Z</time></trkpt>
        <trkpt lat="29.5239596" lon="103.3352131"><ele>3065</ele><time>2026-08-19T08:37:34.000Z</time></trkpt>
        <trkpt lat="29.5239596" lon="103.3352131"><ele>3065</ele><time>2026-08-19T08:38:21.000Z</time></trkpt>
        <trkpt lat="29.5239596" lon="103.3352131"><ele>3065</ele><time>2026-08-19T08:52:48.000Z</time></trkpt>
        <trkpt lat="29.5239596" lon="103.3352131"><ele>3065</ele><time>2026-08-19T08:53:20.000Z</time></trkpt>
        <trkpt lat="29.5239596" lon="103.3352131"><ele>3065</ele><time>2026-08-19T08:54:52.000Z</time></trkpt>
        <trkpt lat="29.5239596" lon="103.3352131"><ele>3065</ele><time>2026-08-19T08:55:24.000Z</time></trkpt>
        <trkpt lat="29.5239462" lon="103.3353761"><ele>3065</ele><time>2026-08-19T09:16:20.000Z</time></trkpt>
        <trkpt lat="29.5239462" lon="103.3353761"><ele>3065</ele><time>2026-08-19T09:38:42.000Z</time></trkpt>
        <trkpt lat="29.5239634" lon="103.3352075"><ele>3065</ele><time>2026-08-19T09:38:47.000Z</time></trkpt>
        <trkpt lat="29.5239634" lon="103.3352075"><ele>3065</ele><time>2026-08-19T09:39:12.000Z</time></trkpt>
        <trkpt lat="29.5238569" lon="103.335295"><ele>3065</ele><time>2026-08-19T10:10:35.000Z</time></trkpt>
        <trkpt lat="29.5238569" lon="103.335295"><ele>3065</ele><time>2026-08-19T10:10:44.000Z</time></trkpt>
        <trkpt lat="29.5238569" lon="103.335295"><ele>3065</ele><time>2026-08-19T10:11:08.000Z</time></trkpt>
        <trkpt lat="29.5239691" lon="103.335233"><ele>3065</ele><time>2026-08-19T11:38:57.000Z</time></trkpt>
        <trkpt lat="29.5239691" lon="103.335233"><ele>3065</ele><time>2026-08-19T11:39:27.000Z</time></trkpt>
        <trkpt lat="29.5239691" lon="103.335233"><ele>3065</ele><time>2026-08-19T11:39:45.000Z</time></trkpt>
        <trkpt lat="29.5239691" lon="103.335233"><ele>3065</ele><time>2026-08-19T13:12:34.000Z</time></trkpt>
        <trkpt lat="29.5239691" lon="103.335233"><ele>3065</ele><time>2026-08-19T13:14:03.000Z</time></trkpt>
        <trkpt lat="29.524" lon="103.3348982"><ele>3058</ele><time>2026-08-19T13:26:14.000Z</time></trkpt>
        <trkpt lat="29.524" lon="103.3348982"><ele>3058</ele><time>2026-08-19T13:29:37.000Z</time></trkpt>
        <trkpt lat="29.5239329" lon="103.3350122"><ele>3058</ele><time>2026-08-19T13:29:47.000Z</time></trkpt>
        <trkpt lat="29.5239957" lon="103.3350517"><ele>3058</ele><time>2026-08-19T13:30:36.000Z</time></trkpt>
        <trkpt lat="29.5239755" lon="103.3350293"><ele>3058</ele><time>2026-08-19T13:30:52.000Z</time></trkpt>
        <trkpt lat="29.5239296" lon="103.3352278"><ele>3065</ele><time>2026-08-19T13:31:41.000Z</time></trkpt>
        <trkpt lat="29.5239014" lon="103.3352605"><ele>3065</ele><time>2026-08-19T13:31:44.000Z</time></trkpt>
        <trkpt lat="29.5239014" lon="103.3352605"><ele>3065</ele><time>2026-08-19T13:32:18.000Z</time></trkpt>
        <trkpt lat="29.5239014" lon="103.3352605"><ele>3065</ele><time>2026-08-19T13:41:56.000Z</time></trkpt>
        <trkpt lat="29.5239014" lon="103.3352605"><ele>3065</ele><time>2026-08-19T13:42:33.000Z</time></trkpt>
        <trkpt lat="29.5239014" lon="103.3352605"><ele>3065</ele><time>2026-08-19T13:53:12.000Z</time></trkpt>
        <trkpt lat="29.5239014" lon="103.3352605"><ele>3065</ele><time>2026-08-19T13:53:46.000Z</time></trkpt>
        <trkpt lat="29.5239014" lon="103.3352605"><ele>3065</ele><time>2026-08-19T13:55:10.000Z</time></trkpt>
        <trkpt lat="29.5239014" lon="103.3352605"><ele>3065</ele><time>2026-08-19T13:56:34.000Z</time></trkpt>
        <trkpt lat="29.5239014" lon="103.3352605"><ele>3065</ele><time>2026-08-19T13:57:10.000Z</time></trkpt>
        <trkpt lat="29.5239014" lon="103.3352605"><ele>3065</ele><time>2026-08-19T13:58:44.000Z</time></trkpt>
        <trkpt lat="29.5239014" lon="103.3352605"><ele>3065</ele><time>2026-08-19T13:59:04.000Z</time></trkpt>
        <trkpt lat="29.5239014" lon="103.3352605"><ele>3065</ele><time>2026-08-19T14:00:46.000Z</time></trkpt>
        <trkpt lat="29.5239014" lon="103.3352605"><ele>3065</ele><time>2026-08-19T14:01:22.000Z</time></trkpt>
        <trkpt lat="29.5239014" lon="103.3352605"><ele>3065</ele><time>2026-08-19T14:02:34.000Z</time></trkpt>
        <trkpt lat="29.5239228" lon="103.3351281"><ele>3058</ele><time>2026-08-19T14:09:02.000Z</time></trkpt>
        <trkpt lat="29.5239228" lon="103.3351281"><ele>3058</ele><time>2026-08-19T14:09:10.000Z</time></trkpt>
        <trkpt lat="29.5239144" lon="103.3350802"><ele>3058</ele><time>2026-08-19T14:09:16.000Z</time></trkpt>
        <trkpt lat="29.523891" lon="103.3349865"><ele>3058</ele><time>2026-08-19T14:09:28.000Z</time></trkpt>
        <trkpt lat="29.5239381" lon="103.3349046"><ele>3058</ele><time>2026-08-19T14:09:44.000Z</time></trkpt>
        <trkpt lat="29.5240338" lon="103.3349141"><ele>3047</ele><time>2026-08-19T14:09:54.000Z</time></trkpt>
        <trkpt lat="29.5241457" lon="103.3349352"><ele>3047</ele><time>2026-08-19T14:10:04.000Z</time></trkpt>
        <trkpt lat="29.5242571" lon="103.334947"><ele>3047</ele><time>2026-08-19T14:10:14.000Z</time></trkpt>
        <trkpt lat="29.5243661" lon="103.3349328"><ele>3034</ele><time>2026-08-19T14:10:24.000Z</time></trkpt>
        <trkpt lat="29.5244719" lon="103.3349058"><ele>3034</ele><time>2026-08-19T14:10:34.000Z</time></trkpt>
        <trkpt lat="29.5245776" lon="103.334886"><ele>3034</ele><time>2026-08-19T14:10:44.000Z</time></trkpt>
        <trkpt lat="29.5246828" lon="103.3349073"><ele>3028</ele><time>2026-08-19T14:10:54.000Z</time></trkpt>
        <trkpt lat="29.5247643" lon="103.3349772"><ele>3028</ele><time>2026-08-19T14:11:06.000Z</time></trkpt>
        <trkpt lat="29.5248129" lon="103.334905"><ele>3028</ele><time>2026-08-19T14:11:30.000Z</time></trkpt>
        <trkpt lat="29.5248311" lon="103.3347856"><ele>3019</ele><time>2026-08-19T14:11:35.000Z</time></trkpt>
        <trkpt lat="29.5248081" lon="103.3349547"><ele>3028</ele><time>2026-08-19T14:12:10.000Z</time></trkpt>
        <trkpt lat="29.5248081" lon="103.3349547"><ele>3028</ele><time>2026-08-19T14:12:58.000Z</time></trkpt>
        <trkpt lat="29.5248081" lon="103.3349547"><ele>3028</ele><time>2026-08-19T14:13:03.000Z</time></trkpt>
        <trkpt lat="29.5248081" lon="103.3349547"><ele>3028</ele><time>2026-08-19T14:13:35.000Z</time></trkpt>
        <trkpt lat="29.5247424" lon="103.334868"><ele>3028</ele><time>2026-08-19T14:26:11.000Z</time></trkpt>
        <trkpt lat="29.5247424" lon="103.334868"><ele>3028</ele><time>2026-08-19T14:26:23.000Z</time></trkpt>
        <trkpt lat="29.5247424" lon="103.334868"><ele>3028</ele><time>2026-08-19T14:27:19.000Z</time></trkpt>
        <trkpt lat="29.5246426" lon="103.3349282"><ele>3028</ele><time>2026-08-19T14:27:49.000Z</time></trkpt>
        <trkpt lat="29.5246426" lon="103.3349282"><ele>3028</ele><time>2026-08-19T14:28:11.000Z</time></trkpt>
        <trkpt lat="29.5245527" lon="103.3348957"><ele>3034</ele><time>2026-08-19T14:28:25.000Z</time></trkpt>
        <trkpt lat="29.5244601" lon="103.334887"><ele>3034</ele><time>2026-08-19T14:28:47.000Z</time></trkpt>
        <trkpt lat="29.5243702" lon="103.3349166"><ele>3034</ele><time>2026-08-19T14:29:01.000Z</time></trkpt>
        <trkpt lat="29.5242786" lon="103.3349536"><ele>3047</ele><time>2026-08-19T14:29:17.000Z</time></trkpt>
        <trkpt lat="29.5241873" lon="103.3349543"><ele>3047</ele><time>2026-08-19T14:29:37.000Z</time></trkpt>
        <trkpt lat="29.5240918" lon="103.3349639"><ele>3047</ele><time>2026-08-19T14:29:53.000Z</time></trkpt>
        <trkpt lat="29.5239992" lon="103.3349743"><ele>3058</ele><time>2026-08-19T14:30:09.000Z</time></trkpt>
        <trkpt lat="29.5239121" lon="103.3349526"><ele>3058</ele><time>2026-08-19T14:30:23.000Z</time></trkpt>
        <trkpt lat="29.5238239" lon="103.3349212"><ele>3058</ele><time>2026-08-19T14:30:49.000Z</time></trkpt>
        <trkpt lat="29.5237345" lon="103.3348984"><ele>3072</ele><time>2026-08-19T14:31:11.000Z</time></trkpt>
        <trkpt lat="29.5236435" lon="103.3348951"><ele>3072</ele><time>2026-08-19T14:31:33.000Z</time></trkpt>
        <trkpt lat="29.5235527" lon="103.3349042"><ele>3072</ele><time>2026-08-19T14:31:51.000Z</time></trkpt>
        <trkpt lat="29.5234568" lon="103.3349031"><ele>3066</ele><time>2026-08-19T14:32:15.000Z</time></trkpt>
        <trkpt lat="29.5233606" lon="103.3348815"><ele>3066</ele><time>2026-08-19T14:32:33.000Z</time></trkpt>
        <trkpt lat="29.5232635" lon="103.3348506"><ele>3068</ele><time>2026-08-19T14:32:53.000Z</time></trkpt>
        <trkpt lat="29.5231741" lon="103.3348133"><ele>3064</ele><time>2026-08-19T14:33:11.000Z</time></trkpt>
        <trkpt lat="29.5230938" lon="103.3347487"><ele>3064</ele><time>2026-08-19T14:33:31.000Z</time></trkpt>
        <trkpt lat="29.5230012" lon="103.3347166"><ele>3064</ele><time>2026-08-19T14:33:51.000Z</time></trkpt>
        <trkpt lat="29.5229005" lon="103.3347156"><ele>3064</ele><time>2026-08-19T14:34:05.000Z</time></trkpt>
        <trkpt lat="29.5228041" lon="103.3347472"><ele>3064</ele><time>2026-08-19T14:34:25.000Z</time></trkpt>
        <trkpt lat="29.522713" lon="103.3347981"><ele>3064</ele><time>2026-08-19T14:34:35.000Z</time></trkpt>
        <trkpt lat="29.5226771" lon="103.334901"><ele>3063</ele><time>2026-08-19T14:34:45.000Z</time></trkpt>
        <trkpt lat="29.522703" lon="103.3350081"><ele>3063</ele><time>2026-08-19T14:34:55.000Z</time></trkpt>
        <trkpt lat="29.5227191" lon="103.3351281"><ele>3063</ele><time>2026-08-19T14:35:09.000Z</time></trkpt>
        <trkpt lat="29.5227263" lon="103.3352456"><ele>3069</ele><time>2026-08-19T14:35:23.000Z</time></trkpt>
        <trkpt lat="29.5227444" lon="103.3353606"><ele>3069</ele><time>2026-08-19T14:35:35.000Z</time></trkpt>
        <trkpt lat="29.5227563" lon="103.3354689"><ele>3075</ele><time>2026-08-19T14:35:47.000Z</time></trkpt>
        <trkpt lat="29.5227326" lon="103.3355723"><ele>3075</ele><time>2026-08-19T14:36:03.000Z</time></trkpt>
        <trkpt lat="29.5227558" lon="103.3356781"><ele>3075</ele><time>2026-08-19T14:36:29.000Z</time></trkpt>
        <trkpt lat="29.5227713" lon="103.3357884"><ele>3071</ele><time>2026-08-19T14:36:59.000Z</time></trkpt>
        <trkpt lat="29.522753" lon="103.3358923"><ele>3071</ele><time>2026-08-19T14:37:13.000Z</time></trkpt>
        <trkpt lat="29.522753" lon="103.3358923"><ele>3071</ele><time>2026-08-19T14:37:55.000Z</time></trkpt>
        <trkpt lat="29.5226509" lon="103.3359003"><ele>3071</ele><time>2026-08-19T14:38:11.000Z</time></trkpt>
        <trkpt lat="29.5226509" lon="103.3359003"><ele>3071</ele><time>2026-08-19T14:38:27.000Z</time></trkpt>
        <trkpt lat="29.5226091" lon="103.3358772"><ele>3066</ele><time>2026-08-19T14:38:45.000Z</time></trkpt>
        <trkpt lat="29.5226091" lon="103.3358772"><ele>3066</ele><time>2026-08-19T14:39:31.000Z</time></trkpt>
        <trkpt lat="29.5226808" lon="103.3359497"><ele>3071</ele><time>2026-08-19T14:41:07.000Z</time></trkpt>
        <trkpt lat="29.5226808" lon="103.3359497"><ele>3071</ele><time>2026-08-19T14:41:21.000Z</time></trkpt>
        <trkpt lat="29.5227824" lon="103.3359722"><ele>3071</ele><time>2026-08-19T14:41:33.000Z</time></trkpt>
        <trkpt lat="29.5228752" lon="103.3359741"><ele>3066</ele><time>2026-08-19T14:41:43.000Z</time></trkpt>
        <trkpt lat="29.5229584" lon="103.3359317"><ele>3071</ele><time>2026-08-19T14:41:53.000Z</time></trkpt>
        <trkpt lat="29.5229792" lon="103.3358776"><ele>3071</ele><time>2026-08-19T14:42:05.000Z</time></trkpt>
        <trkpt lat="29.5229792" lon="103.3358776"><ele>3071</ele><time>2026-08-19T14:42:35.000Z</time></trkpt>
        <trkpt lat="29.5229965" lon="103.3359655"><ele>3071</ele><time>2026-08-19T14:43:57.000Z</time></trkpt>
        <trkpt lat="29.5229965" lon="103.3359655"><ele>3071</ele><time>2026-08-19T14:44:07.000Z</time></trkpt>
        <trkpt lat="29.5230483" lon="103.3360591"><ele>3069</ele><time>2026-08-19T14:44:15.000Z</time></trkpt>
        <trkpt lat="29.5230838" lon="103.3361587"><ele>3069</ele><time>2026-08-19T14:44:23.000Z</time></trkpt>
        <trkpt lat="29.5231109" lon="103.3362601"><ele>3070</ele><time>2026-08-19T14:44:31.000Z</time></trkpt>
        <trkpt lat="29.5231354" lon="103.3363773"><ele>3070</ele><time>2026-08-19T14:44:41.000Z</time></trkpt>
        <trkpt lat="29.5231561" lon="103.3364847"><ele>3070</ele><time>2026-08-19T14:44:49.000Z</time></trkpt>
        <trkpt lat="29.5231735" lon="103.3366035"><ele>3072</ele><time>2026-08-19T14:44:59.000Z</time></trkpt>
        <trkpt lat="29.5231925" lon="103.3367193"><ele>3072</ele><time>2026-08-19T14:45:09.000Z</time></trkpt>
        <trkpt lat="29.5231339" lon="103.3367868"><ele>3072</ele><time>2026-08-19T14:45:17.000Z</time></trkpt>
        <trkpt lat="29.5230702" lon="103.3368821"><ele>3063</ele><time>2026-08-19T14:45:27.000Z</time></trkpt>
        <trkpt lat="29.5230693" lon="103.336982"><ele>3063</ele><time>2026-08-19T14:45:33.000Z</time></trkpt>
        <trkpt lat="29.5230883" lon="103.3370851"><ele>3054</ele><time>2026-08-19T14:45:41.000Z</time></trkpt>
        <trkpt lat="29.523046" lon="103.3371655"><ele>3054</ele><time>2026-08-19T14:45:59.000Z</time></trkpt>
        <trkpt lat="29.5230232" lon="103.3372085"><ele>3054</ele><time>2026-08-19T14:46:11.000Z</time></trkpt>
        <trkpt lat="29.5230232" lon="103.3372085"><ele>3054</ele><time>2026-08-19T14:47:11.000Z</time></trkpt>
        <trkpt lat="29.5230232" lon="103.3372085"><ele>3054</ele><time>2026-08-19T14:49:05.000Z</time></trkpt>
        <trkpt lat="29.5230232" lon="103.3372085"><ele>3054</ele><time>2026-08-19T14:49:47.000Z</time></trkpt>
        <trkpt lat="29.5230232" lon="103.3372085"><ele>3054</ele><time>2026-08-19T14:50:07.000Z</time></trkpt>
        <trkpt lat="29.5230232" lon="103.3372085"><ele>3054</ele><time>2026-08-19T14:50:39.000Z</time></trkpt>
        <trkpt lat="29.5230232" lon="103.3372085"><ele>3054</ele><time>2026-08-19T14:51:25.000Z</time></trkpt>
        <trkpt lat="29.5230232" lon="103.3372085"><ele>3054</ele><time>2026-08-19T14:52:23.000Z</time></trkpt>
        <trkpt lat="29.5230232" lon="103.3372085"><ele>3054</ele><time>2026-08-19T14:52:25.000Z</time></trkpt>
        <trkpt lat="29.5230232" lon="103.3372085"><ele>3054</ele><time>2026-08-19T14:55:29.000Z</time></trkpt>
        <trkpt lat="29.5230232" lon="103.3372085"><ele>3054</ele><time>2026-08-19T14:57:49.000Z</time></trkpt>
        <trkpt lat="29.5230232" lon="103.3372085"><ele>3054</ele><time>2026-08-19T15:00:19.000Z</time></trkpt>
        <trkpt lat="29.5230702" lon="103.3370972"><ele>3054</ele><time>2026-08-19T15:00:25.000Z</time></trkpt>
        <trkpt lat="29.5230702" lon="103.3370972"><ele>3054</ele><time>2026-08-19T15:01:19.000Z</time></trkpt>
        <trkpt lat="29.5230642" lon="103.337083"><ele>3063</ele><time>2026-08-19T15:01:37.000Z</time></trkpt>
        <trkpt lat="29.5230642" lon="103.337083"><ele>3063</ele><time>2026-08-19T15:02:07.000Z</time></trkpt>
        <trkpt lat="29.5230642" lon="103.337083"><ele>3063</ele><time>2026-08-19T15:03:07.000Z</time></trkpt>
        <trkpt lat="29.5230642" lon="103.337083"><ele>3063</ele><time>2026-08-19T15:03:39.000Z</time></trkpt>
        <trkpt lat="29.5230775" lon="103.3369776"><ele>3063</ele><time>2026-08-19T15:12:39.000Z</time></trkpt>
        <trkpt lat="29.5230775" lon="103.3369776"><ele>3063</ele><time>2026-08-19T15:13:07.000Z</time></trkpt>
        <trkpt lat="29.5230756" lon="103.3368723"><ele>3063</ele><time>2026-08-19T15:13:25.000Z</time></trkpt>
        <trkpt lat="29.5230634" lon="103.3367575"><ele>3072</ele><time>2026-08-19T15:13:39.000Z</time></trkpt>
        <trkpt lat="29.5230759" lon="103.3366428"><ele>3072</ele><time>2026-08-19T15:13:51.000Z</time></trkpt>
        <trkpt lat="29.523057" lon="103.3365374"><ele>3072</ele><time>2026-08-19T15:14:09.000Z</time></trkpt>
        <trkpt lat="29.5230381" lon="103.3364269"><ele>3070</ele><time>2026-08-19T15:14:21.000Z</time></trkpt>
        <trkpt lat="29.5230351" lon="103.3363095"><ele>3070</ele><time>2026-08-19T15:14:33.000Z</time></trkpt>
        <trkpt lat="29.5230221" lon="103.3361946"><ele>3069</ele><time>2026-08-19T15:14:47.000Z</time></trkpt>
        <trkpt lat="29.5230194" lon="103.3360838"><ele>3069</ele><time>2026-08-19T15:15:01.000Z</time></trkpt>
        <trkpt lat="29.5230023" lon="103.335967"><ele>3071</ele><time>2026-08-19T15:15:15.000Z</time></trkpt>
        <trkpt lat="29.5229584" lon="103.3358732"><ele>3071</ele><time>2026-08-19T15:15:41.000Z</time></trkpt>
        <trkpt lat="29.5229584" lon="103.3358732"><ele>3071</ele><time>2026-08-19T15:16:19.000Z</time></trkpt>
        <trkpt lat="29.5229584" lon="103.3358732"><ele>3071</ele><time>2026-08-19T15:16:25.000Z</time></trkpt>
        <trkpt lat="29.5229584" lon="103.3358732"><ele>3071</ele><time>2026-08-19T15:16:59.000Z</time></trkpt>
        <trkpt lat="29.5228533" lon="103.3358635"><ele>3071</ele><time>2026-08-19T15:17:07.000Z</time></trkpt>
        <trkpt lat="29.5228533" lon="103.3358635"><ele>3071</ele><time>2026-08-19T15:17:33.000Z</time></trkpt>
        <trkpt lat="29.522848" lon="103.3357579"><ele>3071</ele><time>2026-08-19T15:17:43.000Z</time></trkpt>
        <trkpt lat="29.5228305" lon="103.3356548"><ele>3075</ele><time>2026-08-19T15:17:55.000Z</time></trkpt>
        <trkpt lat="29.522807" lon="103.3355332"><ele>3075</ele><time>2026-08-19T15:18:07.000Z</time></trkpt>
        <trkpt lat="29.5227665" lon="103.3354274"><ele>3075</ele><time>2026-08-19T15:18:17.000Z</time></trkpt>
        <trkpt lat="29.5226991" lon="103.3353524"><ele>3069</ele><time>2026-08-19T15:18:29.000Z</time></trkpt>
        <trkpt lat="29.5226276" lon="103.3353285"><ele>3055</ele><time>2026-08-19T15:18:39.000Z</time></trkpt>
        <trkpt lat="29.5226276" lon="103.3353285"><ele>3055</ele><time>2026-08-19T15:19:09.000Z</time></trkpt>
        <trkpt lat="29.5226769" lon="103.3352563"><ele>3069</ele><time>2026-08-19T15:20:11.000Z</time></trkpt>
        <trkpt lat="29.5226769" lon="103.3352563"><ele>3069</ele><time>2026-08-19T15:20:37.000Z</time></trkpt>
        <trkpt lat="29.5227033" lon="103.3351496"><ele>3069</ele><time>2026-08-19T15:20:49.000Z</time></trkpt>
        <trkpt lat="29.5227176" lon="103.3350365"><ele>3063</ele><time>2026-08-19T15:21:01.000Z</time></trkpt>
        <trkpt lat="29.5227309" lon="103.3349231"><ele>3063</ele><time>2026-08-19T15:21:11.000Z</time></trkpt>
        <trkpt lat="29.522716" lon="103.3348139"><ele>3064</ele><time>2026-08-19T15:21:23.000Z</time></trkpt>
        <trkpt lat="29.5227693" lon="103.3347454"><ele>3064</ele><time>2026-08-19T15:21:33.000Z</time></trkpt>
        <trkpt lat="29.5228681" lon="103.3347197"><ele>3064</ele><time>2026-08-19T15:21:45.000Z</time></trkpt>
        <trkpt lat="29.5229756" lon="103.334708"><ele>3064</ele><time>2026-08-19T15:21:55.000Z</time></trkpt>
        <trkpt lat="29.5230813" lon="103.3347372"><ele>3064</ele><time>2026-08-19T15:22:05.000Z</time></trkpt>
        <trkpt lat="29.5231801" lon="103.3347862"><ele>3064</ele><time>2026-08-19T15:22:15.000Z</time></trkpt>
        <trkpt lat="29.5232725" lon="103.3348272"><ele>3068</ele><time>2026-08-19T15:22:25.000Z</time></trkpt>
        <trkpt lat="29.5233676" lon="103.3348526"><ele>3068</ele><time>2026-08-19T15:22:35.000Z</time></trkpt>
        <trkpt lat="29.5234651" lon="103.3348847"><ele>3066</ele><time>2026-08-19T15:22:47.000Z</time></trkpt>
        <trkpt lat="29.5235612" lon="103.3349305"><ele>3072</ele><time>2026-08-19T15:23:01.000Z</time></trkpt>
        <trkpt lat="29.5236449" lon="103.3349934"><ele>3072</ele><time>2026-08-19T15:23:13.000Z</time></trkpt>
        <trkpt lat="29.5237376" lon="103.3350372"><ele>3072</ele><time>2026-08-19T15:23:27.000Z</time></trkpt>
        <trkpt lat="29.5238186" lon="103.335089"><ele>3058</ele><time>2026-08-19T15:23:37.000Z</time></trkpt>
        <trkpt lat="29.5238998" lon="103.3351359"><ele>3058</ele><time>2026-08-19T15:23:47.000Z</time></trkpt>
        <trkpt lat="29.5239882" lon="103.3351643"><ele>3065</ele><time>2026-08-19T15:23:57.000Z</time></trkpt>
        <trkpt lat="29.5240603" lon="103.3352222"><ele>3059</ele><time>2026-08-19T15:24:25.000Z</time></trkpt>
        <trkpt lat="29.5240515" lon="103.3352117"><ele>3059</ele><time>2026-08-19T15:24:29.000Z</time></trkpt>
        <trkpt lat="29.5240515" lon="103.3352117"><ele>3059</ele><time>2026-08-19T15:24:59.000Z</time></trkpt>
        <trkpt lat="29.5240515" lon="103.3352117"><ele>3059</ele><time>2026-08-19T15:26:15.000Z</time></trkpt>
        <trkpt lat="29.5240515" lon="103.3352117"><ele>3059</ele><time>2026-08-19T15:26:47.000Z</time></trkpt>
        <trkpt lat="29.5240515" lon="103.3352117"><ele>3059</ele><time>2026-08-19T15:27:25.000Z</time></trkpt>
        <trkpt lat="29.5240515" lon="103.3352117"><ele>3059</ele><time>2026-08-19T15:28:07.000Z</time></trkpt>
        <trkpt lat="29.5240515" lon="103.3352117"><ele>3059</ele><time>2026-08-19T15:30:28.000Z</time></trkpt>
        <trkpt lat="29.5240515" lon="103.3352117"><ele>3059</ele><time>2026-08-19T15:31:04.000Z</time></trkpt>
        <trkpt lat="29.5240515" lon="103.3352117"><ele>3059</ele><time>2026-08-19T15:31:12.000Z</time></trkpt>
        <trkpt lat="29.5240515" lon="103.3352117"><ele>3059</ele><time>2026-08-19T15:31:44.000Z</time></trkpt>
        <trkpt lat="29.5240515" lon="103.3352117"><ele>3059</ele><time>2026-08-19T15:36:50.000Z</time></trkpt>
        <trkpt lat="29.5240515" lon="103.3352117"><ele>3059</ele><time>2026-08-19T15:37:24.000Z</time></trkpt>
        <trkpt lat="29.5240515" lon="103.3352117"><ele>3059</ele><time>2026-08-19T15:37:34.000Z</time></trkpt>
        <trkpt lat="29.5240515" lon="103.3352117"><ele>3059</ele><time>2026-08-19T15:38:06.000Z</time></trkpt>
        <trkpt lat="29.5240515" lon="103.3352117"><ele>3059</ele><time>2026-08-19T15:42:26.000Z</time></trkpt>
        <trkpt lat="29.5240515" lon="103.3352117"><ele>3059</ele><time>2026-08-19T15:42:58.000Z</time></trkpt>
        <trkpt lat="29.5240515" lon="103.3352117"><ele>3059</ele><time>2026-08-19T15:58:48.000Z</time></trkpt>
        <trkpt lat="29.5240515" lon="103.3352117"><ele>3059</ele><time>2026-08-19T15:59:20.000Z</time></trkpt>
        <trkpt lat="29.5240515" lon="103.3352117"><ele>3059</ele><time>2026-08-19T16:01:16.000Z</time></trkpt>
        <trkpt lat="29.5240515" lon="103.3352117"><ele>3059</ele><time>2026-08-19T16:02:06.000Z</time></trkpt>
        <trkpt lat="29.5240515" lon="103.3352117"><ele>3059</ele><time>2026-08-19T16:02:09.000Z</time></trkpt>
        <trkpt lat="29.5240515" lon="103.3352117"><ele>3059</ele><time>2026-08-19T16:02:41.000Z</time></trkpt>
        <trkpt lat="29.5240515" lon="103.3352117"><ele>3059</ele><time>2026-08-19T16:09:18.000Z</time></trkpt>
        <trkpt lat="29.5240515" lon="103.3352117"><ele>3059</ele><time>2026-08-19T16:09:50.000Z</time></trkpt>
        <trkpt lat="29.5240515" lon="103.3352117"><ele>3059</ele><time>2026-08-19T16:13:20.000Z</time></trkpt>
        <trkpt lat="29.5240515" lon="103.3352117"><ele>3059</ele><time>2026-08-19T16:14:09.000Z</time></trkpt>
        <trkpt lat="29.5239397" lon="103.3350749"><ele>3058</ele><time>2026-08-19T16:15:53.000Z</time></trkpt>
        <trkpt lat="29.5239397" lon="103.3350749"><ele>3058</ele><time>2026-08-19T16:16:21.000Z</time></trkpt>
        <trkpt lat="29.5239397" lon="103.3350749"><ele>3058</ele><time>2026-08-19T16:16:43.000Z</time></trkpt>
        <trkpt lat="29.5239397" lon="103.3350749"><ele>3058</ele><time>2026-08-19T16:19:19.000Z</time></trkpt>
        <trkpt lat="29.5239397" lon="103.3350749"><ele>3058</ele><time>2026-08-19T16:19:59.000Z</time></trkpt>
        <trkpt lat="29.5239397" lon="103.3350749"><ele>3058</ele><time>2026-08-19T16:22:22.000Z</time></trkpt>
        <trkpt lat="29.5239397" lon="103.3350749"><ele>3058</ele><time>2026-08-19T16:23:04.000Z</time></trkpt>
        <trkpt lat="29.5239827" lon="103.3351666"><ele>3065</ele><time>2026-08-19T16:24:37.000Z</time></trkpt>
        <trkpt lat="29.5239827" lon="103.3351666"><ele>3065</ele><time>2026-08-19T16:24:41.000Z</time></trkpt>
        <trkpt lat="29.5239827" lon="103.3351666"><ele>3065</ele><time>2026-08-19T16:25:09.000Z</time></trkpt>
        <trkpt lat="29.5239827" lon="103.3351666"><ele>3065</ele><time>2026-08-19T16:38:25.000Z</time></trkpt>
        <trkpt lat="29.5239827" lon="103.3351666"><ele>3065</ele><time>2026-08-19T16:38:57.000Z</time></trkpt>
        <trkpt lat="29.5239827" lon="103.3351666"><ele>3065</ele><time>2026-08-19T16:39:01.000Z</time></trkpt>
        <trkpt lat="29.5239827" lon="103.3351666"><ele>3065</ele><time>2026-08-19T16:39:33.000Z</time></trkpt>
        <trkpt lat="29.5239827" lon="103.3351666"><ele>3065</ele><time>2026-08-19T16:39:55.000Z</time></trkpt>
        <trkpt lat="29.5239827" lon="103.3351666"><ele>3065</ele><time>2026-08-19T16:40:27.000Z</time></trkpt>
        <trkpt lat="29.5239827" lon="103.3351666"><ele>3065</ele><time>2026-08-19T16:44:25.000Z</time></trkpt>
        <trkpt lat="29.5239827" lon="103.3351666"><ele>3065</ele><time>2026-08-19T16:44:59.000Z</time></trkpt>
        <trkpt lat="29.5238928" lon="103.3351706"><ele>3065</ele><time>2026-08-19T16:45:59.000Z</time></trkpt>
        <trkpt lat="29.5238928" lon="103.3351706"><ele>3065</ele><time>2026-08-19T16:46:13.000Z</time></trkpt>
        <trkpt lat="29.5239042" lon="103.3351701"><ele>3065</ele><time>2026-08-19T16:46:15.000Z</time></trkpt>
        <trkpt lat="29.5239042" lon="103.3351701"><ele>3065</ele><time>2026-08-19T16:47:03.000Z</time></trkpt>
        <trkpt lat="29.5239042" lon="103.3351701"><ele>3065</ele><time>2026-08-19T16:49:55.000Z</time></trkpt>
        <trkpt lat="29.5239042" lon="103.3351701"><ele>3065</ele><time>2026-08-19T16:50:49.000Z</time></trkpt>
        <trkpt lat="29.5239042" lon="103.3351701"><ele>3065</ele><time>2026-08-19T16:52:09.000Z</time></trkpt>
        <trkpt lat="29.5239042" lon="103.3351701"><ele>3065</ele><time>2026-08-19T17:00:27.000Z</time></trkpt>
        <trkpt lat="29.5239042" lon="103.3351701"><ele>3065</ele><time>2026-08-19T17:00:43.000Z</time></trkpt>
        <trkpt lat="29.5239042" lon="103.3351701"><ele>3065</ele><time>2026-08-19T17:01:17.000Z</time></trkpt>
        <trkpt lat="29.5239042" lon="103.3351701"><ele>3065</ele><time>2026-08-19T17:02:53.000Z</time></trkpt>
        <trkpt lat="29.5239042" lon="103.3351701"><ele>3065</ele><time>2026-08-19T17:03:25.000Z</time></trkpt>
        <trkpt lat="29.5239042" lon="103.3351701"><ele>3065</ele><time>2026-08-19T17:03:43.000Z</time></trkpt>
        <trkpt lat="29.5239042" lon="103.3351701"><ele>3065</ele><time>2026-08-19T17:04:35.000Z</time></trkpt>
        <trkpt lat="29.523994" lon="103.3351785"><ele>3065</ele><time>2026-08-19T17:04:55.000Z</time></trkpt>
        <trkpt lat="29.523994" lon="103.3351785"><ele>3065</ele><time>2026-08-19T17:05:39.000Z</time></trkpt>
        <trkpt lat="29.5240455" lon="103.3351958"><ele>3059</ele><time>2026-08-19T17:05:51.000Z</time></trkpt>
        <trkpt lat="29.5240455" lon="103.3351958"><ele>3059</ele><time>2026-08-19T17:06:21.000Z</time></trkpt>
        <trkpt lat="29.5240455" lon="103.3351958"><ele>3059</ele><time>2026-08-19T17:06:59.000Z</time></trkpt>
        <trkpt lat="29.5240455" lon="103.3351958"><ele>3059</ele><time>2026-08-19T17:08:03.000Z</time></trkpt>
        <trkpt lat="29.5239389" lon="103.3351851"><ele>3065</ele><time>2026-08-19T17:08:07.000Z</time></trkpt>
        <trkpt lat="29.5239389" lon="103.3351851"><ele>3065</ele><time>2026-08-19T17:08:23.000Z</time></trkpt>
        <trkpt lat="29.5238969" lon="103.335195"><ele>3065</ele><time>2026-08-19T17:08:27.000Z</time></trkpt>
        <trkpt lat="29.5239876" lon="103.3352119"><ele>3065</ele><time>2026-08-19T17:09:07.000Z</time></trkpt>
        <trkpt lat="29.5239461" lon="103.3351705"><ele>3065</ele><time>2026-08-19T17:09:19.000Z</time></trkpt>
        <trkpt lat="29.5238615" lon="103.3351205"><ele>3058</ele><time>2026-08-19T17:09:31.000Z</time></trkpt>
        <trkpt lat="29.5237653" lon="103.3350546"><ele>3058</ele><time>2026-08-19T17:09:43.000Z</time></trkpt>
        <trkpt lat="29.5236729" lon="103.3349917"><ele>3072</ele><time>2026-08-19T17:09:53.000Z</time></trkpt>
        <trkpt lat="29.5235814" lon="103.3349472"><ele>3072</ele><time>2026-08-19T17:10:03.000Z</time></trkpt>
        <trkpt lat="29.5234955" lon="103.3349008"><ele>3072</ele><time>2026-08-19T17:10:13.000Z</time></trkpt>
        <trkpt lat="29.5234094" lon="103.3348589"><ele>3068</ele><time>2026-08-19T17:10:25.000Z</time></trkpt>
        <trkpt lat="29.523323" lon="103.3348273"><ele>3068</ele><time>2026-08-19T17:10:37.000Z</time></trkpt>
        <trkpt lat="29.5232305" lon="103.3348022"><ele>3068</ele><time>2026-08-19T17:10:49.000Z</time></trkpt>
        <trkpt lat="29.5231374" lon="103.3347716"><ele>3064</ele><time>2026-08-19T17:10:59.000Z</time></trkpt>
        <trkpt lat="29.5230405" lon="103.3347482"><ele>3064</ele><time>2026-08-19T17:11:11.000Z</time></trkpt>
        <trkpt lat="29.5229487" lon="103.3347297"><ele>3064</ele><time>2026-08-19T17:11:27.000Z</time></trkpt>
        <trkpt lat="29.5228542" lon="103.3347412"><ele>3064</ele><time>2026-08-19T17:11:41.000Z</time></trkpt>
        <trkpt lat="29.522756" lon="103.3347715"><ele>3064</ele><time>2026-08-19T17:12:03.000Z</time></trkpt>
        <trkpt lat="29.5228574" lon="103.3347743"><ele>3064</ele><time>2026-08-19T17:13:21.000Z</time></trkpt>
        <trkpt lat="29.5229526" lon="103.3347455"><ele>3064</ele><time>2026-08-19T17:13:33.000Z</time></trkpt>
        <trkpt lat="29.5228921" lon="103.3347146"><ele>3064</ele><time>2026-08-19T17:13:45.000Z</time></trkpt>
        <trkpt lat="29.5227934" lon="103.3347217"><ele>3064</ele><time>2026-08-19T17:13:55.000Z</time></trkpt>
        <trkpt lat="29.5226896" lon="103.3347339"><ele>3064</ele><time>2026-08-19T17:14:05.000Z</time></trkpt>
        <trkpt lat="29.5225798" lon="103.3347545"><ele>3056</ele><time>2026-08-19T17:14:17.000Z</time></trkpt>
        <trkpt lat="29.5224897" lon="103.3347177"><ele>3056</ele><time>2026-08-19T17:14:29.000Z</time></trkpt>
        <trkpt lat="29.522464" lon="103.3347022"><ele>3056</ele><time>2026-08-19T17:14:31.000Z</time></trkpt>
        <trkpt lat="29.5223941" lon="103.334734"><ele>3056</ele><time>2026-08-19T17:14:59.000Z</time></trkpt>
        <trkpt lat="29.5223015" lon="103.3347313"><ele>3047</ele><time>2026-08-19T17:15:09.000Z</time></trkpt>
        <trkpt lat="29.5222031" lon="103.334697"><ele>3047</ele><time>2026-08-19T17:15:51.000Z</time></trkpt>
        <trkpt lat="29.5221133" lon="103.334643"><ele>3047</ele><time>2026-08-19T17:15:59.000Z</time></trkpt>
        <trkpt lat="29.522027" lon="103.3345851"><ele>3046</ele><time>2026-08-19T17:16:09.000Z</time></trkpt>
        <trkpt lat="29.521956" lon="103.3345146"><ele>3045</ele><time>2026-08-19T17:16:19.000Z</time></trkpt>
        <trkpt lat="29.5218719" lon="103.334464"><ele>3045</ele><time>2026-08-19T17:16:31.000Z</time></trkpt>
        <trkpt lat="29.5217861" lon="103.3344072"><ele>3033</ele><time>2026-08-19T17:16:43.000Z</time></trkpt>
        <trkpt lat="29.5216996" lon="103.3343464"><ele>3033</ele><time>2026-08-19T17:16:57.000Z</time></trkpt>
        <trkpt lat="29.5216368" lon="103.3342583"><ele>3035</ele><time>2026-08-19T17:17:11.000Z</time></trkpt>
        <trkpt lat="29.521557" lon="103.3341961"><ele>3035</ele><time>2026-08-19T17:17:29.000Z</time></trkpt>
        <trkpt lat="29.5214684" lon="103.3341952"><ele>3030</ele><time>2026-08-19T17:17:51.000Z</time></trkpt>
        <trkpt lat="29.5213837" lon="103.3342397"><ele>3030</ele><time>2026-08-19T17:18:03.000Z</time></trkpt>
        <trkpt lat="29.5212892" lon="103.3342895"><ele>3030</ele><time>2026-08-19T17:18:17.000Z</time></trkpt>
        <trkpt lat="29.5212011" lon="103.3343579"><ele>3026</ele><time>2026-08-19T17:18:31.000Z</time></trkpt>
        <trkpt lat="29.5211111" lon="103.3344152"><ele>3026</ele><time>2026-08-19T17:18:45.000Z</time></trkpt>
        <trkpt lat="29.521014" lon="103.3344395"><ele>3026</ele><time>2026-08-19T17:18:57.000Z</time></trkpt>
        <trkpt lat="29.5209151" lon="103.334465"><ele>3028</ele><time>2026-08-19T17:19:09.000Z</time></trkpt>
        <trkpt lat="29.5208204" lon="103.3344803"><ele>3028</ele><time>2026-08-19T17:19:25.000Z</time></trkpt>
        <trkpt lat="29.5207213" lon="103.3345082"><ele>3028</ele><time>2026-08-19T17:19:39.000Z</time></trkpt>
        <trkpt lat="29.5206236" lon="103.3344866"><ele>2986</ele><time>2026-08-19T17:19:51.000Z</time></trkpt>
        <trkpt lat="29.520532" lon="103.3344698"><ele>2986</ele><time>2026-08-19T17:20:11.000Z</time></trkpt>
        <trkpt lat="29.5204368" lon="103.334463"><ele>2986</ele><time>2026-08-19T17:20:23.000Z</time></trkpt>
        <trkpt lat="29.5203381" lon="103.3344343"><ele>2969</ele><time>2026-08-19T17:20:37.000Z</time></trkpt>
        <trkpt lat="29.5203203" lon="103.3344267"><ele>2969</ele><time>2026-08-19T17:20:39.000Z</time></trkpt>
        <trkpt lat="29.520262" lon="103.3343965"><ele>2969</ele><time>2026-08-19T17:20:59.000Z</time></trkpt>
        <trkpt lat="29.5201778" lon="103.3343524"><ele>2969</ele><time>2026-08-19T17:21:19.000Z</time></trkpt>
        <trkpt lat="29.5200931" lon="103.334302"><ele>2941</ele><time>2026-08-19T17:21:35.000Z</time></trkpt>
        <trkpt lat="29.5200001" lon="103.3342535"><ele>2941</ele><time>2026-08-19T17:21:51.000Z</time></trkpt>
        <trkpt lat="29.5199081" lon="103.3342149"><ele>2941</ele><time>2026-08-19T17:22:05.000Z</time></trkpt>
        <trkpt lat="29.5198388" lon="103.3341378"><ele>2917</ele><time>2026-08-19T17:22:19.000Z</time></trkpt>
        <trkpt lat="29.5197898" lon="103.3340452"><ele>2917</ele><time>2026-08-19T17:22:29.000Z</time></trkpt>
        <trkpt lat="29.5197301" lon="103.3339544"><ele>2917</ele><time>2026-08-19T17:22:41.000Z</time></trkpt>
        <trkpt lat="29.5196751" lon="103.3338611"><ele>2917</ele><time>2026-08-19T17:22:51.000Z</time></trkpt>
        <trkpt lat="29.5196165" lon="103.3337744"><ele>2917</ele><time>2026-08-19T17:23:01.000Z</time></trkpt>
        <trkpt lat="29.5195559" lon="103.3336927"><ele>2917</ele><time>2026-08-19T17:23:17.000Z</time></trkpt>
        <trkpt lat="29.5195016" lon="103.3336065"><ele>2917</ele><time>2026-08-19T17:23:35.000Z</time></trkpt>
        <trkpt lat="29.5194256" lon="103.3335445"><ele>2917</ele><time>2026-08-19T17:23:57.000Z</time></trkpt>
        <trkpt lat="29.5193399" lon="103.3335015"><ele>2917</ele><time>2026-08-19T17:24:59.000Z</time></trkpt>
        <trkpt lat="29.5192596" lon="103.3334516"><ele>2939</ele><time>2026-08-19T17:25:29.000Z</time></trkpt>
        <trkpt lat="29.5192596" lon="103.3334516"><ele>2939</ele><time>2026-08-19T17:26:39.000Z</time></trkpt>
        <trkpt lat="29.5191991" lon="103.3333734"><ele>2939</ele><time>2026-08-19T17:26:49.000Z</time></trkpt>
        <trkpt lat="29.5191991" lon="103.3333734"><ele>2939</ele><time>2026-08-19T17:26:57.000Z</time></trkpt>
        <trkpt lat="29.5191991" lon="103.3333734"><ele>2939</ele><time>2026-08-19T17:28:19.000Z</time></trkpt>
        <trkpt lat="29.5191991" lon="103.3333734"><ele>2939</ele><time>2026-08-19T17:30:05.000Z</time></trkpt>
        <trkpt lat="29.5191991" lon="103.3333734"><ele>2939</ele><time>2026-08-19T17:30:39.000Z</time></trkpt>
        <trkpt lat="29.5191598" lon="103.33328"><ele>2939</ele><time>2026-08-19T17:30:55.000Z</time></trkpt>
        <trkpt lat="29.5191598" lon="103.33328"><ele>2939</ele><time>2026-08-19T17:31:09.000Z</time></trkpt>
        <trkpt lat="29.5191263" lon="103.3331833"><ele>2985</ele><time>2026-08-19T17:31:23.000Z</time></trkpt>
        <trkpt lat="29.5191201" lon="103.3330717"><ele>2985</ele><time>2026-08-19T17:31:45.000Z</time></trkpt>
        <trkpt lat="29.5190471" lon="103.3330032"><ele>2985</ele><time>2026-08-19T17:32:05.000Z</time></trkpt>
        <trkpt lat="29.5189553" lon="103.3329595"><ele>2950</ele><time>2026-08-19T17:32:21.000Z</time></trkpt>
        <trkpt lat="29.5188703" lon="103.3329054"><ele>2979</ele><time>2026-08-19T17:32:41.000Z</time></trkpt>
        <trkpt lat="29.5187754" lon="103.3328841"><ele>2979</ele><time>2026-08-19T17:33:03.000Z</time></trkpt>
        <trkpt lat="29.5186858" lon="103.3328544"><ele>2976</ele><time>2026-08-19T17:33:25.000Z</time></trkpt>
        <trkpt lat="29.5185826" lon="103.3328252"><ele>2976</ele><time>2026-08-19T17:33:39.000Z</time></trkpt>
        <trkpt lat="29.5184973" lon="103.3327538"><ele>2976</ele><time>2026-08-19T17:33:53.000Z</time></trkpt>
        <trkpt lat="29.5184271" lon="103.3326659"><ele>2962</ele><time>2026-08-19T17:34:05.000Z</time></trkpt>
        <trkpt lat="29.5183475" lon="103.3325907"><ele>2993</ele><time>2026-08-19T17:34:19.000Z</time></trkpt>
        <trkpt lat="29.5182741" lon="103.3325098"><ele>2993</ele><time>2026-08-19T17:34:37.000Z</time></trkpt>
        <trkpt lat="29.5182092" lon="103.332426"><ele>2993</ele><time>2026-08-19T17:34:49.000Z</time></trkpt>
        <trkpt lat="29.5181193" lon="103.33239"><ele>2981</ele><time>2026-08-19T17:35:03.000Z</time></trkpt>
        <trkpt lat="29.5180231" lon="103.3323853"><ele>2981</ele><time>2026-08-19T17:35:17.000Z</time></trkpt>
        <trkpt lat="29.517936" lon="103.332439"><ele>2981</ele><time>2026-08-19T17:35:33.000Z</time></trkpt>
        <trkpt lat="29.5178458" lon="103.3324948"><ele>2959</ele><time>2026-08-19T17:35:47.000Z</time></trkpt>
        <trkpt lat="29.5177632" lon="103.3325587"><ele>2959</ele><time>2026-08-19T17:35:59.000Z</time></trkpt>
        <trkpt lat="29.5176875" lon="103.3326276"><ele>2959</ele><time>2026-08-19T17:36:11.000Z</time></trkpt>
        <trkpt lat="29.5176188" lon="103.3327148"><ele>2933</ele><time>2026-08-19T17:36:23.000Z</time></trkpt>
        <trkpt lat="29.5175605" lon="103.332811"><ele>2933</ele><time>2026-08-19T17:36:35.000Z</time></trkpt>
        <trkpt lat="29.5174908" lon="103.3328797"><ele>2933</ele><time>2026-08-19T17:36:45.000Z</time></trkpt>
        <trkpt lat="29.5174159" lon="103.3329367"><ele>2853</ele><time>2026-08-19T17:36:55.000Z</time></trkpt>
        <trkpt lat="29.5173312" lon="103.3330039"><ele>2859</ele><time>2026-08-19T17:37:07.000Z</time></trkpt>
        <trkpt lat="29.5172554" lon="103.3330826"><ele>2859</ele><time>2026-08-19T17:37:19.000Z</time></trkpt>
        <trkpt lat="29.5171647" lon="103.3331395"><ele>2859</ele><time>2026-08-19T17:37:29.000Z</time></trkpt>
        <trkpt lat="29.5170643" lon="103.3331585"><ele>2862</ele><time>2026-08-19T17:37:39.000Z</time></trkpt>
        <trkpt lat="29.5169708" lon="103.3331367"><ele>2862</ele><time>2026-08-19T17:37:49.000Z</time></trkpt>
        <trkpt lat="29.5168754" lon="103.333079"><ele>2862</ele><time>2026-08-19T17:38:01.000Z</time></trkpt>
        <trkpt lat="29.5167849" lon="103.3330467"><ele>2855</ele><time>2026-08-19T17:38:17.000Z</time></trkpt>
        <trkpt lat="29.5167054" lon="103.3329918"><ele>2855</ele><time>2026-08-19T17:38:39.000Z</time></trkpt>
        <trkpt lat="29.5166395" lon="103.332908"><ele>2892</ele><time>2026-08-19T17:38:57.000Z</time></trkpt>
        <trkpt lat="29.5165803" lon="103.3328174"><ele>2892</ele><time>2026-08-19T17:39:19.000Z</time></trkpt>
        <trkpt lat="29.5165175" lon="103.3327359"><ele>2899</ele><time>2026-08-19T17:39:37.000Z</time></trkpt>
        <trkpt lat="29.5164513" lon="103.3326635"><ele>2899</ele><time>2026-08-19T17:39:53.000Z</time></trkpt>
        <trkpt lat="29.5163878" lon="103.332587"><ele>2965</ele><time>2026-08-19T17:40:15.000Z</time></trkpt>
        <trkpt lat="29.5163295" lon="103.3324951"><ele>2965</ele><time>2026-08-19T17:40:35.000Z</time></trkpt>
        <trkpt lat="29.5162779" lon="103.3323879"><ele>2965</ele><time>2026-08-19T17:40:49.000Z</time></trkpt>
        <trkpt lat="29.5162198" lon="103.3322928"><ele>3033</ele><time>2026-08-19T17:41:01.000Z</time></trkpt>
        <trkpt lat="29.516154" lon="103.3322154"><ele>3033</ele><time>2026-08-19T17:41:19.000Z</time></trkpt>
        <trkpt lat="29.5161005" lon="103.3321284"><ele>3033</ele><time>2026-08-19T17:41:35.000Z</time></trkpt>
        <trkpt lat="29.5160462" lon="103.3320316"><ele>3032</ele><time>2026-08-19T17:41:51.000Z</time></trkpt>
        <trkpt lat="29.5159983" lon="103.3319384"><ele>3032</ele><time>2026-08-19T17:42:05.000Z</time></trkpt>
        <trkpt lat="29.5159532" lon="103.3318401"><ele>3036</ele><time>2026-08-19T17:42:17.000Z</time></trkpt>
        <trkpt lat="29.5159157" lon="103.3317439"><ele>3030</ele><time>2026-08-19T17:42:27.000Z</time></trkpt>
        <trkpt lat="29.5158518" lon="103.3316539"><ele>3030</ele><time>2026-08-19T17:42:39.000Z</time></trkpt>
        <trkpt lat="29.5157845" lon="103.3315721"><ele>3030</ele><time>2026-08-19T17:42:49.000Z</time></trkpt>
        <trkpt lat="29.5157228" lon="103.331486"><ele>3033</ele><time>2026-08-19T17:42:59.000Z</time></trkpt>
        <trkpt lat="29.5156416" lon="103.331411"><ele>3040</ele><time>2026-08-19T17:43:11.000Z</time></trkpt>
        <trkpt lat="29.5155526" lon="103.3313637"><ele>3040</ele><time>2026-08-19T17:43:21.000Z</time></trkpt>
        <trkpt lat="29.5154562" lon="103.3313368"><ele>3040</ele><time>2026-08-19T17:43:33.000Z</time></trkpt>
        <trkpt lat="29.5153621" lon="103.3313254"><ele>3047</ele><time>2026-08-19T17:43:45.000Z</time></trkpt>
        <trkpt lat="29.5152674" lon="103.3313496"><ele>3047</ele><time>2026-08-19T17:43:55.000Z</time></trkpt>
        <trkpt lat="29.5151751" lon="103.3313761"><ele>3047</ele><time>2026-08-19T17:44:05.000Z</time></trkpt>
        <trkpt lat="29.5150837" lon="103.331381"><ele>3042</ele><time>2026-08-19T17:44:19.000Z</time></trkpt>
        <trkpt lat="29.5151318" lon="103.3313639"><ele>3042</ele><time>2026-08-19T17:44:31.000Z</time></trkpt>
        <trkpt lat="29.5151318" lon="103.3313639"><ele>3042</ele><time>2026-08-19T17:45:21.000Z</time></trkpt>
        <trkpt lat="29.5150924" lon="103.3314213"><ele>3042</ele><time>2026-08-19T17:51:07.000Z</time></trkpt>
        <trkpt lat="29.5150924" lon="103.3314213"><ele>3042</ele><time>2026-08-19T17:51:13.000Z</time></trkpt>
        <trkpt lat="29.5149904" lon="103.3314522"><ele>3042</ele><time>2026-08-19T17:51:23.000Z</time></trkpt>
        <trkpt lat="29.5148927" lon="103.3314169"><ele>3042</ele><time>2026-08-19T17:51:35.000Z</time></trkpt>
        <trkpt lat="29.5148004" lon="103.3313756"><ele>3040</ele><time>2026-08-19T17:51:47.000Z</time></trkpt>
        <trkpt lat="29.5147139" lon="103.3313086"><ele>3040</ele><time>2026-08-19T17:52:01.000Z</time></trkpt>
        <trkpt lat="29.5146301" lon="103.3312536"><ele>3040</ele><time>2026-08-19T17:52:11.000Z</time></trkpt>
        <trkpt lat="29.514537" lon="103.3312268"><ele>3034</ele><time>2026-08-19T17:52:23.000Z</time></trkpt>
        <trkpt lat="29.5144406" lon="103.3312046"><ele>3034</ele><time>2026-08-19T17:52:33.000Z</time></trkpt>
        <trkpt lat="29.5143476" lon="103.3312095"><ele>3034</ele><time>2026-08-19T17:52:45.000Z</time></trkpt>
        <trkpt lat="29.5142462" lon="103.3312092"><ele>3025</ele><time>2026-08-19T17:52:59.000Z</time></trkpt>
        <trkpt lat="29.5141519" lon="103.3311808"><ele>3025</ele><time>2026-08-19T17:53:09.000Z</time></trkpt>
        <trkpt lat="29.5140556" lon="103.3311466"><ele>3025</ele><time>2026-08-19T17:53:21.000Z</time></trkpt>
        <trkpt lat="29.5139527" lon="103.3311234"><ele>3035</ele><time>2026-08-19T17:53:33.000Z</time></trkpt>
        <trkpt lat="29.5138601" lon="103.3311355"><ele>3035</ele><time>2026-08-19T17:53:43.000Z</time></trkpt>
        <trkpt lat="29.5137629" lon="103.3311811"><ele>3035</ele><time>2026-08-19T17:53:55.000Z</time></trkpt>
        <trkpt lat="29.5136972" lon="103.3312658"><ele>3033</ele><time>2026-08-19T17:54:07.000Z</time></trkpt>
        <trkpt lat="29.5136693" lon="103.3313707"><ele>3033</ele><time>2026-08-19T17:54:19.000Z</time></trkpt>
        <trkpt lat="29.5136527" lon="103.3314677"><ele>3033</ele><time>2026-08-19T17:54:29.000Z</time></trkpt>
        <trkpt lat="29.5136121" lon="103.3315649"><ele>3022</ele><time>2026-08-19T17:54:47.000Z</time></trkpt>
        <trkpt lat="29.5135737" lon="103.3316623"><ele>3022</ele><time>2026-08-19T17:54:57.000Z</time></trkpt>
        <trkpt lat="29.5135062" lon="103.3317353"><ele>3022</ele><time>2026-08-19T17:55:05.000Z</time></trkpt>
        <trkpt lat="29.5134117" lon="103.3317905"><ele>3011</ele><time>2026-08-19T17:55:17.000Z</time></trkpt>
        <trkpt lat="29.513335" lon="103.3318117"><ele>2975</ele><time>2026-08-19T17:55:25.000Z</time></trkpt>
        <trkpt lat="29.5132462" lon="103.3317869"><ele>3011</ele><time>2026-08-19T17:55:41.000Z</time></trkpt>
        <trkpt lat="29.5131662" lon="103.3318157"><ele>2970</ele><time>2026-08-19T17:55:57.000Z</time></trkpt>
        <trkpt lat="29.5131204" lon="103.3318964"><ele>2970</ele><time>2026-08-19T17:56:47.000Z</time></trkpt>
        <trkpt lat="29.5130579" lon="103.3319799"><ele>2970</ele><time>2026-08-19T17:57:11.000Z</time></trkpt>
        <trkpt lat="29.5129855" lon="103.3320476"><ele>2970</ele><time>2026-08-19T17:57:35.000Z</time></trkpt>
        <trkpt lat="29.5129981" lon="103.332134"><ele>2916</ele><time>2026-08-19T17:58:01.000Z</time></trkpt>
        <trkpt lat="29.5130538" lon="103.332234"><ele>2916</ele><time>2026-08-19T17:58:21.000Z</time></trkpt>
        <trkpt lat="29.513065" lon="103.3322906"><ele>2916</ele><time>2026-08-19T17:58:47.000Z</time></trkpt>
        <trkpt lat="29.513065" lon="103.3322906"><ele>2916</ele><time>2026-08-19T17:59:41.000Z</time></trkpt>
        <trkpt lat="29.5129901" lon="103.3323507"><ele>2916</ele><time>2026-08-19T17:59:55.000Z</time></trkpt>
        <trkpt lat="29.5129901" lon="103.3323507"><ele>2916</ele><time>2026-08-19T18:00:35.000Z</time></trkpt>
        <trkpt lat="29.5129335" lon="103.332434"><ele>2890</ele><time>2026-08-19T18:01:01.000Z</time></trkpt>
        <trkpt lat="29.5128718" lon="103.3325285"><ele>2893</ele><time>2026-08-19T18:02:03.000Z</time></trkpt>
        <trkpt lat="29.512807" lon="103.3326081"><ele>2893</ele><time>2026-08-19T18:02:33.000Z</time></trkpt>
        <trkpt lat="29.512721" lon="103.3326548"><ele>2854</ele><time>2026-08-19T18:02:57.000Z</time></trkpt>
        <trkpt lat="29.512721" lon="103.3326548"><ele>2854</ele><time>2026-08-19T18:03:51.000Z</time></trkpt>
        <trkpt lat="29.512721" lon="103.3326548"><ele>2854</ele><time>2026-08-19T18:04:15.000Z</time></trkpt>
        <trkpt lat="29.512721" lon="103.3326548"><ele>2854</ele><time>2026-08-19T18:05:21.000Z</time></trkpt>
        <trkpt lat="29.5126176" lon="103.3326525"><ele>2854</ele><time>2026-08-19T18:05:25.000Z</time></trkpt>
        <trkpt lat="29.5126176" lon="103.3326525"><ele>2854</ele><time>2026-08-19T18:05:41.000Z</time></trkpt>
        <trkpt lat="29.5125252" lon="103.3326337"><ele>2899</ele><time>2026-08-19T18:05:59.000Z</time></trkpt>
        <trkpt lat="29.5124415" lon="103.33268"><ele>2854</ele><time>2026-08-19T18:06:37.000Z</time></trkpt>
        <trkpt lat="29.5123478" lon="103.3327064"><ele>2852</ele><time>2026-08-19T18:07:17.000Z</time></trkpt>
        <trkpt lat="29.5122562" lon="103.3327107"><ele>2852</ele><time>2026-08-19T18:07:35.000Z</time></trkpt>
        <trkpt lat="29.512159" lon="103.3327227"><ele>2852</ele><time>2026-08-19T18:07:53.000Z</time></trkpt>
        <trkpt lat="29.5121205" lon="103.3327295"><ele>2852</ele><time>2026-08-19T18:07:59.000Z</time></trkpt>
        <trkpt lat="29.512058" lon="103.3326837"><ele>2865</ele><time>2026-08-19T18:08:19.000Z</time></trkpt>
        <trkpt lat="29.512058" lon="103.3326837"><ele>2865</ele><time>2026-08-19T18:10:23.000Z</time></trkpt>
        <trkpt lat="29.5119722" lon="103.3326361"><ele>2926</ele><time>2026-08-19T18:10:33.000Z</time></trkpt>
        <trkpt lat="29.5119722" lon="103.3326361"><ele>2926</ele><time>2026-08-19T18:11:05.000Z</time></trkpt>
        <trkpt lat="29.5119722" lon="103.3326361"><ele>2926</ele><time>2026-08-19T18:11:05.000Z</time></trkpt>
        <trkpt lat="29.511905" lon="103.3325588"><ele>2926</ele><time>2026-08-19T18:11:05.000Z</time></trkpt>
        <trkpt lat="29.511905" lon="103.3325588"><ele>2926</ele><time>2026-08-19T18:11:23.000Z</time></trkpt>
        <trkpt lat="29.5118263" lon="103.332503"><ele>2926</ele><time>2026-08-19T18:11:43.000Z</time></trkpt>
        <trkpt lat="29.5117345" lon="103.3324712"><ele>2979</ele><time>2026-08-19T18:12:01.000Z</time></trkpt>
        <trkpt lat="29.5116381" lon="103.332461"><ele>2979</ele><time>2026-08-19T18:12:19.000Z</time></trkpt>
        <trkpt lat="29.511541" lon="103.3324349"><ele>2979</ele><time>2026-08-19T18:12:33.000Z</time></trkpt>
        <trkpt lat="29.5114385" lon="103.3324109"><ele>2981</ele><time>2026-08-19T18:12:47.000Z</time></trkpt>
        <trkpt lat="29.5113322" lon="103.3324179"><ele>2981</ele><time>2026-08-19T18:12:59.000Z</time></trkpt>
        <trkpt lat="29.5112322" lon="103.332423"><ele>2979</ele><time>2026-08-19T18:13:09.000Z</time></trkpt>
        <trkpt lat="29.511139" lon="103.3324602"><ele>2979</ele><time>2026-08-19T18:13:21.000Z</time></trkpt>
        <trkpt lat="29.511042" lon="103.3324674"><ele>2979</ele><time>2026-08-19T18:13:37.000Z</time></trkpt>
        <trkpt lat="29.5109524" lon="103.3324887"><ele>2970</ele><time>2026-08-19T18:13:49.000Z</time></trkpt>
        <trkpt lat="29.510907" lon="103.3324982"><ele>2970</ele><time>2026-08-19T18:13:59.000Z</time></trkpt>
        <trkpt lat="29.5108251" lon="103.3325069"><ele>2970</ele><time>2026-08-19T18:14:27.000Z</time></trkpt>
        <trkpt lat="29.5107275" lon="103.3325185"><ele>2970</ele><time>2026-08-19T18:14:37.000Z</time></trkpt>
        <trkpt lat="29.5106273" lon="103.332551"><ele>2951</ele><time>2026-08-19T18:14:47.000Z</time></trkpt>
        <trkpt lat="29.5105335" lon="103.3325291"><ele>2951</ele><time>2026-08-19T18:14:57.000Z</time></trkpt>
        <trkpt lat="29.510442" lon="103.3325105"><ele>2951</ele><time>2026-08-19T18:15:13.000Z</time></trkpt>
        <trkpt lat="29.5103477" lon="103.3324937"><ele>2935</ele><time>2026-08-19T18:15:35.000Z</time></trkpt>
        <trkpt lat="29.5102571" lon="103.3324742"><ele>2935</ele><time>2026-08-19T18:16:31.000Z</time></trkpt>
        <trkpt lat="29.5101742" lon="103.3324322"><ele>2935</ele><time>2026-08-19T18:17:13.000Z</time></trkpt>
        <trkpt lat="29.5100884" lon="103.3324004"><ele>2919</ele><time>2026-08-19T18:17:43.000Z</time></trkpt>
        <trkpt lat="29.5099916" lon="103.3323729"><ele>2919</ele><time>2026-08-19T18:19:01.000Z</time></trkpt>
        <trkpt lat="29.5099159" lon="103.3323135"><ele>2964</ele><time>2026-08-19T18:19:49.000Z</time></trkpt>
        <trkpt lat="29.5099848" lon="103.3322793"><ele>2964</ele><time>2026-08-19T18:20:27.000Z</time></trkpt>
        <trkpt lat="29.5100039" lon="103.332182"><ele>2964</ele><time>2026-08-19T18:20:43.000Z</time></trkpt>
        <trkpt lat="29.5100317" lon="103.3320783"><ele>2999</ele><time>2026-08-19T18:20:53.000Z</time></trkpt>
        <trkpt lat="29.5100945" lon="103.3320368"><ele>2999</ele><time>2026-08-19T18:21:03.000Z</time></trkpt>
        <trkpt lat="29.5100864" lon="103.3319463"><ele>2999</ele><time>2026-08-19T18:21:31.000Z</time></trkpt>
        <trkpt lat="29.5100957" lon="103.3318375"><ele>2999</ele><time>2026-08-19T18:21:47.000Z</time></trkpt>
        <trkpt lat="29.5101012" lon="103.3318158"><ele>2999</ele><time>2026-08-19T18:21:51.000Z</time></trkpt>
        <trkpt lat="29.5100608" lon="103.3317458"><ele>3022</ele><time>2026-08-19T18:22:17.000Z</time></trkpt>
        <trkpt lat="29.5100187" lon="103.3316534"><ele>3022</ele><time>2026-08-19T18:22:29.000Z</time></trkpt>
        <trkpt lat="29.5099778" lon="103.3315506"><ele>3022</ele><time>2026-08-19T18:22:49.000Z</time></trkpt>
        <trkpt lat="29.5099499" lon="103.3314369"><ele>3032</ele><time>2026-08-19T18:23:03.000Z</time></trkpt>
        <trkpt lat="29.5099239" lon="103.3313312"><ele>3032</ele><time>2026-08-19T18:23:15.000Z</time></trkpt>
        <trkpt lat="29.5099239" lon="103.3313312"><ele>3032</ele><time>2026-08-19T18:24:07.000Z</time></trkpt>
        <trkpt lat="29.5099599" lon="103.3312248"><ele>3042</ele><time>2026-08-19T18:24:11.000Z</time></trkpt>
        <trkpt lat="29.5099599" lon="103.3312248"><ele>3042</ele><time>2026-08-19T18:25:53.000Z</time></trkpt>
        <trkpt lat="29.5100274" lon="103.3311501"><ele>3042</ele><time>2026-08-19T18:26:09.000Z</time></trkpt>
        <trkpt lat="29.5100733" lon="103.331057"><ele>3042</ele><time>2026-08-19T18:26:37.000Z</time></trkpt>
        <trkpt lat="29.5101173" lon="103.3309658"><ele>3042</ele><time>2026-08-19T18:26:59.000Z</time></trkpt>
        <trkpt lat="29.5101756" lon="103.3308722"><ele>3057</ele><time>2026-08-19T18:27:23.000Z</time></trkpt>
        <trkpt lat="29.5102624" lon="103.330857"><ele>3057</ele><time>2026-08-19T18:27:43.000Z</time></trkpt>
        <trkpt lat="29.5103557" lon="103.3308429"><ele>3057</ele><time>2026-08-19T18:27:59.000Z</time></trkpt>
        <trkpt lat="29.5104499" lon="103.3308291"><ele>3066</ele><time>2026-08-19T18:28:13.000Z</time></trkpt>
        <trkpt lat="29.5105213" lon="103.3307607"><ele>3066</ele><time>2026-08-19T18:28:51.000Z</time></trkpt>
        <trkpt lat="29.510609" lon="103.3307276"><ele>3066</ele><time>2026-08-19T18:29:15.000Z</time></trkpt>
        <trkpt lat="29.5106153" lon="103.3306405"><ele>3063</ele><time>2026-08-19T18:29:35.000Z</time></trkpt>
        <trkpt lat="29.5106549" lon="103.3305573"><ele>3063</ele><time>2026-08-19T18:29:55.000Z</time></trkpt>
        <trkpt lat="29.5106687" lon="103.3305212"><ele>3063</ele><time>2026-08-19T18:29:59.000Z</time></trkpt>
        <trkpt lat="29.510713" lon="103.3304576"><ele>3059</ele><time>2026-08-19T18:30:47.000Z</time></trkpt>
        <trkpt lat="29.5107496" lon="103.3303665"><ele>3050</ele><time>2026-08-19T18:31:03.000Z</time></trkpt>
        <trkpt lat="29.5107357" lon="103.3302592"><ele>3050</ele><time>2026-08-19T18:31:35.000Z</time></trkpt>
        <trkpt lat="29.5107001" lon="103.3301521"><ele>3050</ele><time>2026-08-19T18:31:55.000Z</time></trkpt>
        <trkpt lat="29.5106662" lon="103.3300488"><ele>3043</ele><time>2026-08-19T18:32:09.000Z</time></trkpt>
        <trkpt lat="29.5106218" lon="103.3299491"><ele>3043</ele><time>2026-08-19T18:32:25.000Z</time></trkpt>
        <trkpt lat="29.5105596" lon="103.3298544"><ele>3043</ele><time>2026-08-19T18:32:39.000Z</time></trkpt>
        <trkpt lat="29.5104903" lon="103.3297645"><ele>3043</ele><time>2026-08-19T18:32:53.000Z</time></trkpt>
        <trkpt lat="29.5104577" lon="103.3296836"><ele>3043</ele><time>2026-08-19T18:33:05.000Z</time></trkpt>
        <trkpt lat="29.510388" lon="103.3296239"><ele>3042</ele><time>2026-08-19T18:33:29.000Z</time></trkpt>
        <trkpt lat="29.5103181" lon="103.3295537"><ele>3038</ele><time>2026-08-19T18:33:45.000Z</time></trkpt>
        <trkpt lat="29.510259" lon="103.3294721"><ele>3038</ele><time>2026-08-19T18:33:57.000Z</time></trkpt>
        <trkpt lat="29.5102391" lon="103.3293647"><ele>3038</ele><time>2026-08-19T18:34:17.000Z</time></trkpt>
        <trkpt lat="29.5101849" lon="103.3292817"><ele>3032</ele><time>2026-08-19T18:34:29.000Z</time></trkpt>
        <trkpt lat="29.5101674" lon="103.3291838"><ele>3032</ele><time>2026-08-19T18:34:43.000Z</time></trkpt>
        <trkpt lat="29.5101053" lon="103.3291049"><ele>3036</ele><time>2026-08-19T18:34:59.000Z</time></trkpt>
        <trkpt lat="29.5100503" lon="103.3290566"><ele>3036</ele><time>2026-08-19T18:35:13.000Z</time></trkpt>
        <trkpt lat="29.5099833" lon="103.3289871"><ele>3032</ele><time>2026-08-19T18:35:27.000Z</time></trkpt>
        <trkpt lat="29.5099833" lon="103.3289871"><ele>3032</ele><time>2026-08-19T18:36:19.000Z</time></trkpt>
        <trkpt lat="29.5099266" lon="103.3288982"><ele>3032</ele><time>2026-08-19T18:36:21.000Z</time></trkpt>
        <trkpt lat="29.5099266" lon="103.3288982"><ele>3032</ele><time>2026-08-19T18:36:49.000Z</time></trkpt>
        <trkpt lat="29.5099228" lon="103.3287864"><ele>3032</ele><time>2026-08-19T18:37:05.000Z</time></trkpt>
        <trkpt lat="29.5098529" lon="103.3287231"><ele>3021</ele><time>2026-08-19T18:37:25.000Z</time></trkpt>
        <trkpt lat="29.5097942" lon="103.3286313"><ele>3021</ele><time>2026-08-19T18:37:41.000Z</time></trkpt>
        <trkpt lat="29.5097904" lon="103.3285215"><ele>3021</ele><time>2026-08-19T18:37:59.000Z</time></trkpt>
        <trkpt lat="29.5097819" lon="103.3284143"><ele>3020</ele><time>2026-08-19T18:38:15.000Z</time></trkpt>
        <trkpt lat="29.5097857" lon="103.3283046"><ele>3020</ele><time>2026-08-19T18:38:45.000Z</time></trkpt>
        <trkpt lat="29.5097379" lon="103.3282099"><ele>3020</ele><time>2026-08-19T18:39:09.000Z</time></trkpt>
        <trkpt lat="29.5096631" lon="103.3281445"><ele>3020</ele><time>2026-08-19T18:39:23.000Z</time></trkpt>
        <trkpt lat="29.5095699" lon="103.32811"><ele>3010</ele><time>2026-08-19T18:39:47.000Z</time></trkpt>
        <trkpt lat="29.5094723" lon="103.328106"><ele>3010</ele><time>2026-08-19T18:40:07.000Z</time></trkpt>
        <trkpt lat="29.5093752" lon="103.3281291"><ele>3010</ele><time>2026-08-19T18:40:35.000Z</time></trkpt>
        <trkpt lat="29.5092798" lon="103.328122"><ele>3005</ele><time>2026-08-19T18:41:19.000Z</time></trkpt>
        <trkpt lat="29.5091824" lon="103.328124"><ele>3005</ele><time>2026-08-19T18:41:43.000Z</time></trkpt>
        <trkpt lat="29.5090909" lon="103.3281445"><ele>3005</ele><time>2026-08-19T18:41:59.000Z</time></trkpt>
        <trkpt lat="29.5090148" lon="103.3282039"><ele>3003</ele><time>2026-08-19T18:42:19.000Z</time></trkpt>
        <trkpt lat="29.5089386" lon="103.3282765"><ele>3003</ele><time>2026-08-19T18:42:43.000Z</time></trkpt>
        <trkpt lat="29.5088481" lon="103.328329"><ele>3003</ele><time>2026-08-19T18:43:13.000Z</time></trkpt>
        <trkpt lat="29.5087599" lon="103.3283695"><ele>3003</ele><time>2026-08-19T18:43:27.000Z</time></trkpt>
        <trkpt lat="29.5086656" lon="103.3283718"><ele>3011</ele><time>2026-08-19T18:43:43.000Z</time></trkpt>
        <trkpt lat="29.5085718" lon="103.328351"><ele>3011</ele><time>2026-08-19T18:43:59.000Z</time></trkpt>
        <trkpt lat="29.5084735" lon="103.3283241"><ele>3011</ele><time>2026-08-19T18:44:15.000Z</time></trkpt>
        <trkpt lat="29.5084411" lon="103.328312"><ele>2994</ele><time>2026-08-19T18:44:19.000Z</time></trkpt>
        <trkpt lat="29.5083748" lon="103.3283348"><ele>2994</ele><time>2026-08-19T18:44:39.000Z</time></trkpt>
        <trkpt lat="29.5083036" lon="103.3282748"><ele>2994</ele><time>2026-08-19T18:44:53.000Z</time></trkpt>
        <trkpt lat="29.5082487" lon="103.3281948"><ele>2994</ele><time>2026-08-19T18:45:03.000Z</time></trkpt>
        <trkpt lat="29.5081809" lon="103.3281194"><ele>2989</ele><time>2026-08-19T18:45:15.000Z</time></trkpt>
        <trkpt lat="29.5081133" lon="103.3280403"><ele>2989</ele><time>2026-08-19T18:45:35.000Z</time></trkpt>
        <trkpt lat="29.5080741" lon="103.3279411"><ele>2989</ele><time>2026-08-19T18:46:13.000Z</time></trkpt>
        <trkpt lat="29.5080301" lon="103.3278411"><ele>2984</ele><time>2026-08-19T18:46:27.000Z</time></trkpt>
        <trkpt lat="29.5079958" lon="103.3277312"><ele>2984</ele><time>2026-08-19T18:46:43.000Z</time></trkpt>
        <trkpt lat="29.5079753" lon="103.3276422"><ele>2984</ele><time>2026-08-19T18:46:55.000Z</time></trkpt>
        <trkpt lat="29.5079269" lon="103.3275379"><ele>2984</ele><time>2026-08-19T18:47:15.000Z</time></trkpt>
        <trkpt lat="29.5079142" lon="103.3275084"><ele>2963</ele><time>2026-08-19T18:47:17.000Z</time></trkpt>
        <trkpt lat="29.5078491" lon="103.3275352"><ele>2963</ele><time>2026-08-19T18:47:33.000Z</time></trkpt>
        <trkpt lat="29.5077734" lon="103.3276015"><ele>2963</ele><time>2026-08-19T18:47:57.000Z</time></trkpt>
        <trkpt lat="29.5077033" lon="103.327692"><ele>2959</ele><time>2026-08-19T18:48:19.000Z</time></trkpt>
        <trkpt lat="29.5076169" lon="103.3277203"><ele>2947</ele><time>2026-08-19T18:48:29.000Z</time></trkpt>
        <trkpt lat="29.5075133" lon="103.3276928"><ele>2947</ele><time>2026-08-19T18:48:45.000Z</time></trkpt>
        <trkpt lat="29.5074654" lon="103.3275973"><ele>2943</ele><time>2026-08-19T18:48:55.000Z</time></trkpt>
        <trkpt lat="29.5074452" lon="103.3274744"><ele>2943</ele><time>2026-08-19T18:49:09.000Z</time></trkpt>
        <trkpt lat="29.5074091" lon="103.3273689"><ele>2943</ele><time>2026-08-19T18:49:21.000Z</time></trkpt>
        <trkpt lat="29.5073492" lon="103.3272891"><ele>2925</ele><time>2026-08-19T18:49:33.000Z</time></trkpt>
        <trkpt lat="29.50728" lon="103.3272209"><ele>2925</ele><time>2026-08-19T18:49:43.000Z</time></trkpt>
        <trkpt lat="29.5072013" lon="103.3271583"><ele>2925</ele><time>2026-08-19T18:49:53.000Z</time></trkpt>
        <trkpt lat="29.5071205" lon="103.3270822"><ele>2934</ele><time>2026-08-19T18:50:05.000Z</time></trkpt>
        <trkpt lat="29.5070641" lon="103.3270117"><ele>2916</ele><time>2026-08-19T18:50:21.000Z</time></trkpt>
        <trkpt lat="29.5070255" lon="103.3269081"><ele>2916</ele><time>2026-08-19T18:50:45.000Z</time></trkpt>
        <trkpt lat="29.5070359" lon="103.3267874"><ele>2928</ele><time>2026-08-19T18:50:55.000Z</time></trkpt>
        <trkpt lat="29.5070795" lon="103.326685"><ele>2928</ele><time>2026-08-19T18:51:07.000Z</time></trkpt>
        <trkpt lat="29.507172" lon="103.3266318"><ele>2957</ele><time>2026-08-19T18:51:19.000Z</time></trkpt>
        <trkpt lat="29.5072731" lon="103.3266381"><ele>2957</ele><time>2026-08-19T18:51:29.000Z</time></trkpt>
        <trkpt lat="29.5073592" lon="103.3266213"><ele>2957</ele><time>2026-08-19T18:51:45.000Z</time></trkpt>
        <trkpt lat="29.5073592" lon="103.3266213"><ele>2957</ele><time>2026-08-19T18:52:15.000Z</time></trkpt>
        <trkpt lat="29.5073592" lon="103.3266213"><ele>2957</ele><time>2026-08-19T18:53:55.000Z</time></trkpt>
        <trkpt lat="29.5073592" lon="103.3266213"><ele>2957</ele><time>2026-08-19T18:54:27.000Z</time></trkpt>
        <trkpt lat="29.5073884" lon="103.3265165"><ele>2970</ele><time>2026-08-19T18:58:57.000Z</time></trkpt>
        <trkpt lat="29.5073884" lon="103.3265165"><ele>2970</ele><time>2026-08-19T19:00:29.000Z</time></trkpt>
        <trkpt lat="29.5074251" lon="103.3264499"><ele>2970</ele><time>2026-08-19T19:00:39.000Z</time></trkpt>
        <trkpt lat="29.5075157" lon="103.3264097"><ele>2970</ele><time>2026-08-19T19:00:49.000Z</time></trkpt>
        <trkpt lat="29.5076056" lon="103.3263548"><ele>2970</ele><time>2026-08-19T19:01:03.000Z</time></trkpt>
        <trkpt lat="29.507676" lon="103.3262782"><ele>2966</ele><time>2026-08-19T19:01:15.000Z</time></trkpt>
        <trkpt lat="29.5077488" lon="103.3261783"><ele>2958</ele><time>2026-08-19T19:01:29.000Z</time></trkpt>
        <trkpt lat="29.5077853" lon="103.3260627"><ele>2958</ele><time>2026-08-19T19:01:51.000Z</time></trkpt>
        <trkpt lat="29.5077314" lon="103.3259801"><ele>2958</ele><time>2026-08-19T19:02:39.000Z</time></trkpt>
        <trkpt lat="29.5077279" lon="103.3259262"><ele>2950</ele><time>2026-08-19T19:02:47.000Z</time></trkpt>
        <trkpt lat="29.5077279" lon="103.3259262"><ele>2950</ele><time>2026-08-19T19:03:23.000Z</time></trkpt>
        <trkpt lat="29.5076334" lon="103.3259277"><ele>2961</ele><time>2026-08-19T19:03:23.000Z</time></trkpt>
        <trkpt lat="29.5076334" lon="103.3259277"><ele>2961</ele><time>2026-08-19T19:03:49.000Z</time></trkpt>
        <trkpt lat="29.5075727" lon="103.3258446"><ele>2961</ele><time>2026-08-19T19:04:21.000Z</time></trkpt>
        <trkpt lat="29.5075146" lon="103.3257479"><ele>2961</ele><time>2026-08-19T19:04:33.000Z</time></trkpt>
        <trkpt lat="29.5074364" lon="103.3256846"><ele>2955</ele><time>2026-08-19T19:04:43.000Z</time></trkpt>
        <trkpt lat="29.5073751" lon="103.325603"><ele>2955</ele><time>2026-08-19T19:05:29.000Z</time></trkpt>
        <trkpt lat="29.5073711" lon="103.3255821"><ele>2955</ele><time>2026-08-19T19:05:35.000Z</time></trkpt>
        <trkpt lat="29.5073711" lon="103.3255821"><ele>2955</ele><time>2026-08-19T19:06:05.000Z</time></trkpt>
        <trkpt lat="29.5073021" lon="103.3255709"><ele>2954</ele><time>2026-08-19T19:13:03.000Z</time></trkpt>
        <trkpt lat="29.5073021" lon="103.3255709"><ele>2954</ele><time>2026-08-19T19:13:31.000Z</time></trkpt>
        <trkpt lat="29.5072167" lon="103.3255163"><ele>2954</ele><time>2026-08-19T19:13:45.000Z</time></trkpt>
        <trkpt lat="29.5071237" lon="103.3255016"><ele>2954</ele><time>2026-08-19T19:13:57.000Z</time></trkpt>
        <trkpt lat="29.5070779" lon="103.3254198"><ele>2949</ele><time>2026-08-19T19:14:13.000Z</time></trkpt>
        <trkpt lat="29.5070779" lon="103.3253068"><ele>2939</ele><time>2026-08-19T19:14:29.000Z</time></trkpt>
        <trkpt lat="29.5070832" lon="103.3252065"><ele>2939</ele><time>2026-08-19T19:14:41.000Z</time></trkpt>
        <trkpt lat="29.5071035" lon="103.3250954"><ele>2938</ele><time>2026-08-19T19:15:05.000Z</time></trkpt>
        <trkpt lat="29.5071043" lon="103.3250277"><ele>2938</ele><time>2026-08-19T19:15:07.000Z</time></trkpt>
        <trkpt lat="29.5070947" lon="103.3249313"><ele>2938</ele><time>2026-08-19T19:15:35.000Z</time></trkpt>
        <trkpt lat="29.5071133" lon="103.3248153"><ele>2934</ele><time>2026-08-19T19:15:49.000Z</time></trkpt>
        <trkpt lat="29.5071387" lon="103.324696"><ele>2934</ele><time>2026-08-19T19:15:59.000Z</time></trkpt>
        <trkpt lat="29.5071518" lon="103.3245859"><ele>2934</ele><time>2026-08-19T19:16:09.000Z</time></trkpt>
        <trkpt lat="29.5071493" lon="103.3244734"><ele>2932</ele><time>2026-08-19T19:16:21.000Z</time></trkpt>
        <trkpt lat="29.5071815" lon="103.3243668"><ele>2932</ele><time>2026-08-19T19:16:35.000Z</time></trkpt>
        <trkpt lat="29.5072179" lon="103.3242667"><ele>2932</ele><time>2026-08-19T19:16:49.000Z</time></trkpt>
        <trkpt lat="29.5072753" lon="103.3241785"><ele>2932</ele><time>2026-08-19T19:16:57.000Z</time></trkpt>
        <trkpt lat="29.5072728" lon="103.3241488"><ele>2932</ele><time>2026-08-19T19:17:01.000Z</time></trkpt>
        <trkpt lat="29.5072868" lon="103.3240674"><ele>2932</ele><time>2026-08-19T19:17:17.000Z</time></trkpt>
        <trkpt lat="29.5073304" lon="103.3239825"><ele>2934</ele><time>2026-08-19T19:17:29.000Z</time></trkpt>
        <trkpt lat="29.5073724" lon="103.323877"><ele>2927</ele><time>2026-08-19T19:17:41.000Z</time></trkpt>
        <trkpt lat="29.5073951" lon="103.3237673"><ele>2927</ele><time>2026-08-19T19:17:53.000Z</time></trkpt>
        <trkpt lat="29.5073602" lon="103.3236742"><ele>2943</ele><time>2026-08-19T19:18:07.000Z</time></trkpt>
        <trkpt lat="29.5073356" lon="103.3236231"><ele>2943</ele><time>2026-08-19T19:18:15.000Z</time></trkpt>
        <trkpt lat="29.5072599" lon="103.3235928"><ele>2943</ele><time>2026-08-19T19:18:25.000Z</time></trkpt>
        <trkpt lat="29.5071755" lon="103.323546"><ele>2943</ele><time>2026-08-19T19:18:37.000Z</time></trkpt>
        <trkpt lat="29.5070819" lon="103.3235253"><ele>2944</ele><time>2026-08-19T19:18:51.000Z</time></trkpt>
        <trkpt lat="29.50698" lon="103.323505"><ele>2944</ele><time>2026-08-19T19:19:07.000Z</time></trkpt>
        <trkpt lat="29.5069123" lon="103.3234365"><ele>2947</ele><time>2026-08-19T19:19:21.000Z</time></trkpt>
        <trkpt lat="29.506846" lon="103.3233645"><ele>2947</ele><time>2026-08-19T19:20:05.000Z</time></trkpt>
        <trkpt lat="29.5067867" lon="103.3232783"><ele>2945</ele><time>2026-08-19T19:20:37.000Z</time></trkpt>
        <trkpt lat="29.5067107" lon="103.3231923"><ele>2944</ele><time>2026-08-19T19:21:31.000Z</time></trkpt>
        <trkpt lat="29.5066394" lon="103.3231157"><ele>2944</ele><time>2026-08-19T19:21:47.000Z</time></trkpt>
        <trkpt lat="29.5065643" lon="103.3230529"><ele>2944</ele><time>2026-08-19T19:22:01.000Z</time></trkpt>
        <trkpt lat="29.5064761" lon="103.3230019"><ele>2925</ele><time>2026-08-19T19:22:15.000Z</time></trkpt>
        <trkpt lat="29.5064102" lon="103.32292"><ele>2925</ele><time>2026-08-19T19:22:25.000Z</time></trkpt>
        <trkpt lat="29.5063992" lon="103.3228657"><ele>2928</ele><time>2026-08-19T19:22:33.000Z</time></trkpt>
        <trkpt lat="29.5063624" lon="103.3227914"><ele>2928</ele><time>2026-08-19T19:22:45.000Z</time></trkpt>
        <trkpt lat="29.5063264" lon="103.3226989"><ele>2928</ele><time>2026-08-19T19:22:59.000Z</time></trkpt>
        <trkpt lat="29.5062815" lon="103.3226039"><ele>2918</ele><time>2026-08-19T19:23:15.000Z</time></trkpt>
        <trkpt lat="29.5062336" lon="103.3225054"><ele>2896</ele><time>2026-08-19T19:23:29.000Z</time></trkpt>
        <trkpt lat="29.5061896" lon="103.3224106"><ele>2896</ele><time>2026-08-19T19:23:43.000Z</time></trkpt>
        <trkpt lat="29.5061899" lon="103.322308"><ele>2870</ele><time>2026-08-19T19:24:03.000Z</time></trkpt>
        <trkpt lat="29.5062148" lon="103.3222009"><ele>2870</ele><time>2026-08-19T19:24:19.000Z</time></trkpt>
        <trkpt lat="29.5062098" lon="103.3220944"><ele>2870</ele><time>2026-08-19T19:24:37.000Z</time></trkpt>
        <trkpt lat="29.5061703" lon="103.3219886"><ele>2863</ele><time>2026-08-19T19:24:51.000Z</time></trkpt>
        <trkpt lat="29.5061703" lon="103.3219886"><ele>2863</ele><time>2026-08-19T19:25:41.000Z</time></trkpt>
        <trkpt lat="29.5061703" lon="103.3219886"><ele>2863</ele><time>2026-08-19T19:26:05.000Z</time></trkpt>
        <trkpt lat="29.5061703" lon="103.3219886"><ele>2863</ele><time>2026-08-19T19:26:37.000Z</time></trkpt>
        <trkpt lat="29.5061703" lon="103.3219886"><ele>2863</ele><time>2026-08-19T19:27:45.000Z</time></trkpt>
        <trkpt lat="29.5061703" lon="103.3219886"><ele>2863</ele><time>2026-08-19T19:28:17.000Z</time></trkpt>
        <trkpt lat="29.5061288" lon="103.3218881"><ele>2863</ele><time>2026-08-19T19:31:55.000Z</time></trkpt>
        <trkpt lat="29.5061288" lon="103.3218881"><ele>2863</ele><time>2026-08-19T19:32:17.000Z</time></trkpt>
        <trkpt lat="29.5060896" lon="103.3217938"><ele>2867</ele><time>2026-08-19T19:32:37.000Z</time></trkpt>
        <trkpt lat="29.5060653" lon="103.3216835"><ele>2867</ele><time>2026-08-19T19:32:49.000Z</time></trkpt>
        <trkpt lat="29.5060746" lon="103.3215749"><ele>2867</ele><time>2026-08-19T19:33:53.000Z</time></trkpt>
        <trkpt lat="29.5059905" lon="103.3215344"><ele>2867</ele><time>2026-08-19T19:34:01.000Z</time></trkpt>
        <trkpt lat="29.5060128" lon="103.3214484"><ele>2859</ele><time>2026-08-19T19:34:11.000Z</time></trkpt>
        <trkpt lat="29.5059657" lon="103.3213581"><ele>2858</ele><time>2026-08-19T19:34:21.000Z</time></trkpt>
        <trkpt lat="29.5059379" lon="103.3213019"><ele>2858</ele><time>2026-08-19T19:34:27.000Z</time></trkpt>
        <trkpt lat="29.5059379" lon="103.3213019"><ele>2858</ele><time>2026-08-19T19:34:57.000Z</time></trkpt>
        <trkpt lat="29.5059379" lon="103.3213019"><ele>2858</ele><time>2026-08-19T19:35:11.000Z</time></trkpt>
        <trkpt lat="29.5059379" lon="103.3213019"><ele>2858</ele><time>2026-08-19T19:35:43.000Z</time></trkpt>
        <trkpt lat="29.5059122" lon="103.3212052"><ele>2851</ele><time>2026-08-19T19:37:33.000Z</time></trkpt>
        <trkpt lat="29.5059122" lon="103.3212052"><ele>2851</ele><time>2026-08-19T19:37:45.000Z</time></trkpt>
        <trkpt lat="29.5059385" lon="103.3211063"><ele>2851</ele><time>2026-08-19T19:37:55.000Z</time></trkpt>
        <trkpt lat="29.5059241" lon="103.3209985"><ele>2851</ele><time>2026-08-19T19:38:05.000Z</time></trkpt>
        <trkpt lat="29.5059104" lon="103.3209466"><ele>2844</ele><time>2026-08-19T19:38:11.000Z</time></trkpt>
        <trkpt lat="29.5058244" lon="103.3209246"><ele>2844</ele><time>2026-08-19T19:38:35.000Z</time></trkpt>
        <trkpt lat="29.5058269" lon="103.3208477"><ele>2844</ele><time>2026-08-19T19:38:45.000Z</time></trkpt>
        <trkpt lat="29.5058298" lon="103.3207459"><ele>2844</ele><time>2026-08-19T19:38:51.000Z</time></trkpt>
        <trkpt lat="29.5058421" lon="103.3206786"><ele>2843</ele><time>2026-08-19T19:38:59.000Z</time></trkpt>
        <trkpt lat="29.5058522" lon="103.3205715"><ele>2843</ele><time>2026-08-19T19:39:35.000Z</time></trkpt>
        <trkpt lat="29.5058658" lon="103.3205205"><ele>2843</ele><time>2026-08-19T19:39:41.000Z</time></trkpt>
        <trkpt lat="29.5058658" lon="103.3205205"><ele>2843</ele><time>2026-08-19T19:40:11.000Z</time></trkpt>
        <trkpt lat="29.5059297" lon="103.3204406"><ele>2843</ele><time>2026-08-19T19:41:39.000Z</time></trkpt>
        <trkpt lat="29.5059297" lon="103.3204406"><ele>2843</ele><time>2026-08-19T19:41:49.000Z</time></trkpt>
        <trkpt lat="29.5059681" lon="103.320331"><ele>2834</ele><time>2026-08-19T19:41:59.000Z</time></trkpt>
        <trkpt lat="29.5060443" lon="103.3202669"><ele>2836</ele><time>2026-08-19T19:42:07.000Z</time></trkpt>
        <trkpt lat="29.5061152" lon="103.3201987"><ele>2836</ele><time>2026-08-19T19:42:15.000Z</time></trkpt>
        <trkpt lat="29.5061511" lon="103.3200972"><ele>2830</ele><time>2026-08-19T19:42:23.000Z</time></trkpt>
        <trkpt lat="29.5061509" lon="103.3199813"><ele>2830</ele><time>2026-08-19T19:42:29.000Z</time></trkpt>
        <trkpt lat="29.5061234" lon="103.3198591"><ele>2823</ele><time>2026-08-19T19:42:35.000Z</time></trkpt>
        <trkpt lat="29.5061045" lon="103.3198205"><ele>2823</ele><time>2026-08-19T19:42:37.000Z</time></trkpt>
        <trkpt lat="29.5060725" lon="103.319746"><ele>2823</ele><time>2026-08-19T19:42:53.000Z</time></trkpt>
        <trkpt lat="29.5060491" lon="103.3196693"><ele>2823</ele><time>2026-08-19T19:43:09.000Z</time></trkpt>
        <trkpt lat="29.5060293" lon="103.3195661"><ele>2813</ele><time>2026-08-19T19:43:35.000Z</time></trkpt>
        <trkpt lat="29.506" lon="103.3194629"><ele>2813</ele><time>2026-08-19T19:43:47.000Z</time></trkpt>
        <trkpt lat="29.5059607" lon="103.3193443"><ele>2812</ele><time>2026-08-19T19:43:55.000Z</time></trkpt>
        <trkpt lat="29.5059277" lon="103.3192351"><ele>2810</ele><time>2026-08-19T19:43:59.000Z</time></trkpt>
        <trkpt lat="29.5058915" lon="103.3191092"><ele>2810</ele><time>2026-08-19T19:44:05.000Z</time></trkpt>
        <trkpt lat="29.5058515" lon="103.3189977"><ele>2813</ele><time>2026-08-19T19:44:13.000Z</time></trkpt>
        <trkpt lat="29.5057854" lon="103.3189124"><ele>2813</ele><time>2026-08-19T19:44:41.000Z</time></trkpt>
        <trkpt lat="29.5057545" lon="103.3188127"><ele>2813</ele><time>2026-08-19T19:44:47.000Z</time></trkpt>
        <trkpt lat="29.5056913" lon="103.3187237"><ele>2809</ele><time>2026-08-19T19:44:53.000Z</time></trkpt>
        <trkpt lat="29.5056243" lon="103.318649"><ele>2809</ele><time>2026-08-19T19:45:01.000Z</time></trkpt>
        <trkpt lat="29.5055947" lon="103.3186125"><ele>2809</ele><time>2026-08-19T19:45:07.000Z</time></trkpt>
        <trkpt lat="29.5055531" lon="103.3185444"><ele>2809</ele><time>2026-08-19T19:45:23.000Z</time></trkpt>
        <trkpt lat="29.5054753" lon="103.3184864"><ele>2809</ele><time>2026-08-19T19:45:35.000Z</time></trkpt>
        <trkpt lat="29.5053927" lon="103.3184254"><ele>2791</ele><time>2026-08-19T19:45:45.000Z</time></trkpt>
        <trkpt lat="29.5053529" lon="103.3183963"><ele>2791</ele><time>2026-08-19T19:45:53.000Z</time></trkpt>
        <trkpt lat="29.5053529" lon="103.3183963"><ele>2791</ele><time>2026-08-19T19:46:23.000Z</time></trkpt>
        <trkpt lat="29.5053529" lon="103.3183963"><ele>2791</ele><time>2026-08-19T19:46:29.000Z</time></trkpt>
        <trkpt lat="29.5053529" lon="103.3183963"><ele>2791</ele><time>2026-08-19T19:48:13.000Z</time></trkpt>
        <trkpt lat="29.5053073" lon="103.3183049"><ele>2791</ele><time>2026-08-19T19:48:23.000Z</time></trkpt>
        <trkpt lat="29.5053073" lon="103.3183049"><ele>2791</ele><time>2026-08-19T19:48:31.000Z</time></trkpt>
        <trkpt lat="29.5052778" lon="103.3181816"><ele>2795</ele><time>2026-08-19T19:48:37.000Z</time></trkpt>
        <trkpt lat="29.5052717" lon="103.3180489"><ele>2795</ele><time>2026-08-19T19:48:43.000Z</time></trkpt>
        <trkpt lat="29.5052785" lon="103.3179277"><ele>2795</ele><time>2026-08-19T19:48:51.000Z</time></trkpt>
        <trkpt lat="29.5052675" lon="103.3178148"><ele>2781</ele><time>2026-08-19T19:48:57.000Z</time></trkpt>
        <trkpt lat="29.5052518" lon="103.3177089"><ele>2781</ele><time>2026-08-19T19:49:05.000Z</time></trkpt>
        <trkpt lat="29.5052176" lon="103.3176111"><ele>2774</ele><time>2026-08-19T19:49:17.000Z</time></trkpt>
        <trkpt lat="29.5052046" lon="103.3175045"><ele>2774</ele><time>2026-08-19T19:49:27.000Z</time></trkpt>
        <trkpt lat="29.5052163" lon="103.3173964"><ele>2774</ele><time>2026-08-19T19:49:37.000Z</time></trkpt>
        <trkpt lat="29.5052166" lon="103.3173067"><ele>2763</ele><time>2026-08-19T19:49:49.000Z</time></trkpt>
        <trkpt lat="29.5052695" lon="103.317223"><ele>2763</ele><time>2026-08-19T19:50:05.000Z</time></trkpt>
        <trkpt lat="29.5053339" lon="103.3171344"><ele>2763</ele><time>2026-08-19T19:50:15.000Z</time></trkpt>
        <trkpt lat="29.5053826" lon="103.3170415"><ele>2758</ele><time>2026-08-19T19:50:25.000Z</time></trkpt>
        <trkpt lat="29.5053538" lon="103.3169353"><ele>2758</ele><time>2026-08-19T19:50:37.000Z</time></trkpt>
        <trkpt lat="29.5053091" lon="103.3168247"><ele>2758</ele><time>2026-08-19T19:50:47.000Z</time></trkpt>
        <trkpt lat="29.5053357" lon="103.3167329"><ele>2753</ele><time>2026-08-19T19:51:03.000Z</time></trkpt>
        <trkpt lat="29.5052999" lon="103.3166428"><ele>2753</ele><time>2026-08-19T19:51:13.000Z</time></trkpt>
        <trkpt lat="29.5052583" lon="103.316546"><ele>2753</ele><time>2026-08-19T19:51:23.000Z</time></trkpt>
        <trkpt lat="29.5052067" lon="103.3164555"><ele>2740</ele><time>2026-08-19T19:51:43.000Z</time></trkpt>
        <trkpt lat="29.5051567" lon="103.3164183"><ele>2740</ele><time>2026-08-19T19:51:55.000Z</time></trkpt>
        <trkpt lat="29.5050719" lon="103.3163799"><ele>2724</ele><time>2026-08-19T19:52:05.000Z</time></trkpt>
        <trkpt lat="29.5049751" lon="103.3163324"><ele>2724</ele><time>2026-08-19T19:52:17.000Z</time></trkpt>
        <trkpt lat="29.5049317" lon="103.3163057"><ele>2724</ele><time>2026-08-19T19:52:23.000Z</time></trkpt>
        <trkpt lat="29.5049317" lon="103.3163057"><ele>2724</ele><time>2026-08-19T19:52:53.000Z</time></trkpt>
        <trkpt lat="29.5049317" lon="103.3163057"><ele>2724</ele><time>2026-08-19T19:55:25.000Z</time></trkpt>
        <trkpt lat="29.5049317" lon="103.3163057"><ele>2724</ele><time>2026-08-19T19:55:57.000Z</time></trkpt>
        <trkpt lat="29.5049317" lon="103.3163057"><ele>2724</ele><time>2026-08-19T19:56:01.000Z</time></trkpt>
        <trkpt lat="29.5049317" lon="103.3163057"><ele>2724</ele><time>2026-08-19T19:56:51.000Z</time></trkpt>
        <trkpt lat="29.5049317" lon="103.3163057"><ele>2724</ele><time>2026-08-19T19:57:21.000Z</time></trkpt>
        <trkpt lat="29.5049317" lon="103.3163057"><ele>2724</ele><time>2026-08-19T19:57:53.000Z</time></trkpt>
        <trkpt lat="29.5049317" lon="103.3163057"><ele>2724</ele><time>2026-08-19T20:00:37.000Z</time></trkpt>
        <trkpt lat="29.5049317" lon="103.3163057"><ele>2724</ele><time>2026-08-19T20:01:09.000Z</time></trkpt>
        <trkpt lat="29.5049317" lon="103.3163057"><ele>2724</ele><time>2026-08-19T20:02:27.000Z</time></trkpt>
        <trkpt lat="29.5049317" lon="103.3163057"><ele>2724</ele><time>2026-08-19T20:02:59.000Z</time></trkpt>
        <trkpt lat="29.5049317" lon="103.3163057"><ele>2724</ele><time>2026-08-19T20:03:23.000Z</time></trkpt>
        <trkpt lat="29.5049317" lon="103.3163057"><ele>2724</ele><time>2026-08-19T20:03:55.000Z</time></trkpt>
        <trkpt lat="29.5048371" lon="103.3163079"><ele>2693</ele><time>2026-08-19T20:07:09.000Z</time></trkpt>
        <trkpt lat="29.5048371" lon="103.3163079"><ele>2693</ele><time>2026-08-19T20:07:47.000Z</time></trkpt>
        <trkpt lat="29.504785" lon="103.3162823"><ele>2693</ele><time>2026-08-19T20:07:57.000Z</time></trkpt>
        <trkpt lat="29.5047324" lon="103.3161867"><ele>2686</ele><time>2026-08-19T20:08:13.000Z</time></trkpt>
        <trkpt lat="29.5047174" lon="103.3161798"><ele>2686</ele><time>2026-08-19T20:08:17.000Z</time></trkpt>
        <trkpt lat="29.5046444" lon="103.31614"><ele>2686</ele><time>2026-08-19T20:09:13.000Z</time></trkpt>
        <trkpt lat="29.504562" lon="103.3160666"><ele>2667</ele><time>2026-08-19T20:09:27.000Z</time></trkpt>
        <trkpt lat="29.5045018" lon="103.315977"><ele>2667</ele><time>2026-08-19T20:09:37.000Z</time></trkpt>
        <trkpt lat="29.5044643" lon="103.3158771"><ele>2675</ele><time>2026-08-19T20:09:49.000Z</time></trkpt>
        <trkpt lat="29.504403" lon="103.3157936"><ele>2675</ele><time>2026-08-19T20:10:05.000Z</time></trkpt>
        <trkpt lat="29.5043773" lon="103.3157656"><ele>2675</ele><time>2026-08-19T20:10:09.000Z</time></trkpt>
        <trkpt lat="29.5043582" lon="103.3156886"><ele>2682</ele><time>2026-08-19T20:10:33.000Z</time></trkpt>
        <trkpt lat="29.5043452" lon="103.3156565"><ele>2682</ele><time>2026-08-19T20:10:41.000Z</time></trkpt>
        <trkpt lat="29.5043452" lon="103.3156565"><ele>2682</ele><time>2026-08-19T20:11:11.000Z</time></trkpt>
        <trkpt lat="29.5043452" lon="103.3156565"><ele>2682</ele><time>2026-08-19T20:11:37.000Z</time></trkpt>
        <trkpt lat="29.5043452" lon="103.3156565"><ele>2682</ele><time>2026-08-19T20:12:27.000Z</time></trkpt>
        <trkpt lat="29.504312" lon="103.3155637"><ele>2682</ele><time>2026-08-19T20:14:55.000Z</time></trkpt>
        <trkpt lat="29.504312" lon="103.3155637"><ele>2682</ele><time>2026-08-19T20:14:59.000Z</time></trkpt>
        <trkpt lat="29.5042682" lon="103.3154609"><ele>2678</ele><time>2026-08-19T20:15:11.000Z</time></trkpt>
        <trkpt lat="29.5042133" lon="103.3153698"><ele>2702</ele><time>2026-08-19T20:15:19.000Z</time></trkpt>
        <trkpt lat="29.5041702" lon="103.3152741"><ele>2702</ele><time>2026-08-19T20:15:27.000Z</time></trkpt>
        <trkpt lat="29.5041003" lon="103.3151849"><ele>2702</ele><time>2026-08-19T20:15:33.000Z</time></trkpt>
        <trkpt lat="29.5040103" lon="103.3151179"><ele>2714</ele><time>2026-08-19T20:15:39.000Z</time></trkpt>
        <trkpt lat="29.5039248" lon="103.3150569"><ele>2714</ele><time>2026-08-19T20:15:45.000Z</time></trkpt>
        <trkpt lat="29.5038486" lon="103.3149825"><ele>2714</ele><time>2026-08-19T20:15:51.000Z</time></trkpt>
        <trkpt lat="29.503752" lon="103.3149394"><ele>2714</ele><time>2026-08-19T20:15:59.000Z</time></trkpt>
        <trkpt lat="29.503646" lon="103.3149249"><ele>2702</ele><time>2026-08-19T20:16:07.000Z</time></trkpt>
        <trkpt lat="29.5035723" lon="103.3148619"><ele>2702</ele><time>2026-08-19T20:16:15.000Z</time></trkpt>
        <trkpt lat="29.5035345" lon="103.3147666"><ele>2719</ele><time>2026-08-19T20:16:23.000Z</time></trkpt>
        <trkpt lat="29.5035192" lon="103.3146531"><ele>2719</ele><time>2026-08-19T20:16:33.000Z</time></trkpt>
        <trkpt lat="29.5034912" lon="103.314545"><ele>2718</ele><time>2026-08-19T20:16:41.000Z</time></trkpt>
        <trkpt lat="29.503472" lon="103.3144396"><ele>2720</ele><time>2026-08-19T20:16:49.000Z</time></trkpt>
        <trkpt lat="29.5034412" lon="103.3143381"><ele>2720</ele><time>2026-08-19T20:16:59.000Z</time></trkpt>
        <trkpt lat="29.503392" lon="103.3142439"><ele>2713</ele><time>2026-08-19T20:17:09.000Z</time></trkpt>
        <trkpt lat="29.5033452" lon="103.3141347"><ele>2713</ele><time>2026-08-19T20:17:19.000Z</time></trkpt>
        <trkpt lat="29.5032906" lon="103.3140226"><ele>2713</ele><time>2026-08-19T20:17:29.000Z</time></trkpt>
        <trkpt lat="29.5032784" lon="103.3139967"><ele>2713</ele><time>2026-08-19T20:17:31.000Z</time></trkpt>
        <trkpt lat="29.5032784" lon="103.3139967"><ele>2713</ele><time>2026-08-19T20:18:41.000Z</time></trkpt>
        <trkpt lat="29.5032829" lon="103.3139047"><ele>2713</ele><time>2026-08-19T20:18:45.000Z</time></trkpt>
        <trkpt lat="29.5032829" lon="103.3139047"><ele>2713</ele><time>2026-08-19T20:18:49.000Z</time></trkpt>
        <trkpt lat="29.5032696" lon="103.3137889"><ele>2713</ele><time>2026-08-19T20:18:59.000Z</time></trkpt>
        <trkpt lat="29.5032708" lon="103.3136633"><ele>2684</ele><time>2026-08-19T20:19:07.000Z</time></trkpt>
        <trkpt lat="29.5032684" lon="103.3135715"><ele>2684</ele><time>2026-08-19T20:19:19.000Z</time></trkpt>
        <trkpt lat="29.5032684" lon="103.3135715"><ele>2684</ele><time>2026-08-19T20:20:33.000Z</time></trkpt>
        <trkpt lat="29.5032684" lon="103.3135715"><ele>2684</ele><time>2026-08-19T20:21:59.000Z</time></trkpt>
        <trkpt lat="29.5032684" lon="103.3135715"><ele>2684</ele><time>2026-08-19T20:22:31.000Z</time></trkpt>
        <trkpt lat="29.5032625" lon="103.3134532"><ele>2677</ele><time>2026-08-19T20:26:05.000Z</time></trkpt>
        <trkpt lat="29.5032625" lon="103.3134532"><ele>2677</ele><time>2026-08-19T20:26:17.000Z</time></trkpt>
        <trkpt lat="29.5032343" lon="103.3133775"><ele>2677</ele><time>2026-08-19T20:26:29.000Z</time></trkpt>
        <trkpt lat="29.5032249" lon="103.3132769"><ele>2677</ele><time>2026-08-19T20:26:37.000Z</time></trkpt>
        <trkpt lat="29.5032056" lon="103.3131738"><ele>2680</ele><time>2026-08-19T20:26:49.000Z</time></trkpt>
        <trkpt lat="29.5031723" lon="103.3131312"><ele>2675</ele><time>2026-08-19T20:26:57.000Z</time></trkpt>
        <trkpt lat="29.503078" lon="103.3131128"><ele>2675</ele><time>2026-08-19T20:27:51.000Z</time></trkpt>
        <trkpt lat="29.5029704" lon="103.3131131"><ele>2675</ele><time>2026-08-19T20:27:59.000Z</time></trkpt>
        <trkpt lat="29.5028678" lon="103.3130743"><ele>2678</ele><time>2026-08-19T20:28:13.000Z</time></trkpt>
        <trkpt lat="29.5028549" lon="103.313067"><ele>2678</ele><time>2026-08-19T20:28:15.000Z</time></trkpt>
        <trkpt lat="29.5028549" lon="103.313067"><ele>2678</ele><time>2026-08-19T20:28:45.000Z</time></trkpt>
        <trkpt lat="29.502908" lon="103.3129722"><ele>2678</ele><time>2026-08-19T20:28:59.000Z</time></trkpt>
        <trkpt lat="29.502908" lon="103.3129722"><ele>2678</ele><time>2026-08-19T20:29:07.000Z</time></trkpt>
        <trkpt lat="29.5029387" lon="103.3129555"><ele>2675</ele><time>2026-08-19T20:29:09.000Z</time></trkpt>
        <trkpt lat="29.5028813" lon="103.3129444"><ele>2678</ele><time>2026-08-19T20:29:25.000Z</time></trkpt>
        <trkpt lat="29.5028875" lon="103.3129077"><ele>2675</ele><time>2026-08-19T20:29:39.000Z</time></trkpt>
        <trkpt lat="29.502837" lon="103.3128442"><ele>2675</ele><time>2026-08-19T20:29:59.000Z</time></trkpt>
        <trkpt lat="29.5028098" lon="103.3127455"><ele>2675</ele><time>2026-08-19T20:30:15.000Z</time></trkpt>
        <trkpt lat="29.5028029" lon="103.3126866"><ele>2675</ele><time>2026-08-19T20:30:19.000Z</time></trkpt>
        <trkpt lat="29.502793" lon="103.3125843"><ele>2672</ele><time>2026-08-19T20:30:41.000Z</time></trkpt>
        <trkpt lat="29.5028083" lon="103.3124679"><ele>2672</ele><time>2026-08-19T20:30:53.000Z</time></trkpt>
        <trkpt lat="29.5028029" lon="103.3123411"><ele>2662</ele><time>2026-08-19T20:31:05.000Z</time></trkpt>
        <trkpt lat="29.5028326" lon="103.3122323"><ele>2662</ele><time>2026-08-19T20:31:13.000Z</time></trkpt>
        <trkpt lat="29.502864" lon="103.3121955"><ele>2662</ele><time>2026-08-19T20:31:19.000Z</time></trkpt>
        <trkpt lat="29.5029429" lon="103.3121307"><ele>2657</ele><time>2026-08-19T20:31:51.000Z</time></trkpt>
        <trkpt lat="29.5029527" lon="103.3120315"><ele>2630</ele><time>2026-08-19T20:31:59.000Z</time></trkpt>
        <trkpt lat="29.5029274" lon="103.3119173"><ele>2630</ele><time>2026-08-19T20:32:09.000Z</time></trkpt>
        <trkpt lat="29.5028982" lon="103.3118642"><ele>2648</ele><time>2026-08-19T20:32:15.000Z</time></trkpt>
        <trkpt lat="29.5028818" lon="103.3117667"><ele>2630</ele><time>2026-08-19T20:33:43.000Z</time></trkpt>
        <trkpt lat="29.5029026" lon="103.3116599"><ele>2630</ele><time>2026-08-19T20:34:39.000Z</time></trkpt>
        <trkpt lat="29.5029075" lon="103.3116158"><ele>2630</ele><time>2026-08-19T20:34:43.000Z</time></trkpt>
        <trkpt lat="29.5029574" lon="103.3115475"><ele>2621</ele><time>2026-08-19T20:35:41.000Z</time></trkpt>
        <trkpt lat="29.5029574" lon="103.3115475"><ele>2621</ele><time>2026-08-19T20:36:23.000Z</time></trkpt>
        <trkpt lat="29.5029967" lon="103.3114472"><ele>2610</ele><time>2026-08-19T20:36:31.000Z</time></trkpt>
        <trkpt lat="29.5029967" lon="103.3114472"><ele>2610</ele><time>2026-08-19T20:36:41.000Z</time></trkpt>
        <trkpt lat="29.5030348" lon="103.3113753"><ele>2610</ele><time>2026-08-19T20:36:51.000Z</time></trkpt>
        <trkpt lat="29.5030771" lon="103.3112648"><ele>2610</ele><time>2026-08-19T20:38:25.000Z</time></trkpt>
        <trkpt lat="29.5030828" lon="103.3112891"><ele>2610</ele><time>2026-08-19T20:38:29.000Z</time></trkpt>
        <trkpt lat="29.5030854" lon="103.3112051"><ele>2606</ele><time>2026-08-19T20:39:03.000Z</time></trkpt>
        <trkpt lat="29.5030977" lon="103.3111679"><ele>2606</ele><time>2026-08-19T20:39:09.000Z</time></trkpt>
        <trkpt lat="29.5031085" lon="103.3110483"><ele>2606</ele><time>2026-08-19T20:40:25.000Z</time></trkpt>
        <trkpt lat="29.5031281" lon="103.3110533"><ele>2606</ele><time>2026-08-19T20:40:29.000Z</time></trkpt>
        <trkpt lat="29.5032045" lon="103.3110219"><ele>2601</ele><time>2026-08-19T20:41:05.000Z</time></trkpt>
        <trkpt lat="29.5032828" lon="103.3109667"><ele>2594</ele><time>2026-08-19T20:41:41.000Z</time></trkpt>
        <trkpt lat="29.503355" lon="103.3108957"><ele>2594</ele><time>2026-08-19T20:41:51.000Z</time></trkpt>
        <trkpt lat="29.5033584" lon="103.3108812"><ele>2594</ele><time>2026-08-19T20:41:55.000Z</time></trkpt>
        <trkpt lat="29.5033956" lon="103.3108113"><ele>2594</ele><time>2026-08-19T20:43:59.000Z</time></trkpt>
        <trkpt lat="29.5034569" lon="103.3108222"><ele>2594</ele><time>2026-08-19T20:44:11.000Z</time></trkpt>
        <trkpt lat="29.5035501" lon="103.3107581"><ele>2584</ele><time>2026-08-19T20:44:39.000Z</time></trkpt>
        <trkpt lat="29.5035728" lon="103.310729"><ele>2584</ele><time>2026-08-19T20:44:43.000Z</time></trkpt>
        <trkpt lat="29.5035728" lon="103.310729"><ele>2584</ele><time>2026-08-19T20:45:13.000Z</time></trkpt>
        <trkpt lat="29.5035523" lon="103.3106231"><ele>2576</ele><time>2026-08-19T20:46:29.000Z</time></trkpt>
        <trkpt lat="29.5035523" lon="103.3106231"><ele>2576</ele><time>2026-08-19T20:46:41.000Z</time></trkpt>
        <trkpt lat="29.5035558" lon="103.3104927"><ele>2576</ele><time>2026-08-19T20:47:15.000Z</time></trkpt>
        <trkpt lat="29.5035802" lon="103.3104538"><ele>2576</ele><time>2026-08-19T20:47:21.000Z</time></trkpt>
        <trkpt lat="29.5035391" lon="103.3103843"><ele>2567</ele><time>2026-08-19T20:47:59.000Z</time></trkpt>
        <trkpt lat="29.5034733" lon="103.3103379"><ele>2567</ele><time>2026-08-19T20:48:09.000Z</time></trkpt>
        <trkpt lat="29.5033973" lon="103.3102666"><ele>2576</ele><time>2026-08-19T20:48:33.000Z</time></trkpt>
        <trkpt lat="29.503368" lon="103.3101932"><ele>2576</ele><time>2026-08-19T20:48:45.000Z</time></trkpt>
        <trkpt lat="29.5034024" lon="103.3100952"><ele>2564</ele><time>2026-08-19T20:48:59.000Z</time></trkpt>
        <trkpt lat="29.5034252" lon="103.3100456"><ele>2564</ele><time>2026-08-19T20:49:09.000Z</time></trkpt>
        <trkpt lat="29.5034175" lon="103.3099466"><ele>2564</ele><time>2026-08-19T20:49:31.000Z</time></trkpt>
        <trkpt lat="29.5033753" lon="103.3098532"><ele>2548</ele><time>2026-08-19T20:49:47.000Z</time></trkpt>
        <trkpt lat="29.5033629" lon="103.309828"><ele>2548</ele><time>2026-08-19T20:49:49.000Z</time></trkpt>
        <trkpt lat="29.5034153" lon="103.3097779"><ele>2548</ele><time>2026-08-19T20:49:59.000Z</time></trkpt>
        <trkpt lat="29.5034771" lon="103.3096848"><ele>2539</ele><time>2026-08-19T20:50:07.000Z</time></trkpt>
        <trkpt lat="29.5034867" lon="103.3096439"><ele>2539</ele><time>2026-08-19T20:50:15.000Z</time></trkpt>
        <trkpt lat="29.5034867" lon="103.3096439"><ele>2539</ele><time>2026-08-19T20:51:33.000Z</time></trkpt>
        <trkpt lat="29.5035449" lon="103.3095786"><ele>2524</ele><time>2026-08-19T20:58:47.000Z</time></trkpt>
        <trkpt lat="29.5035449" lon="103.3095786"><ele>2524</ele><time>2026-08-19T20:59:03.000Z</time></trkpt>
        <trkpt lat="29.5035404" lon="103.309468"><ele>2524</ele><time>2026-08-19T20:59:21.000Z</time></trkpt>
        <trkpt lat="29.5035599" lon="103.3093327"><ele>2524</ele><time>2026-08-19T20:59:43.000Z</time></trkpt>
        <trkpt lat="29.5035776" lon="103.3092012"><ele>2516</ele><time>2026-08-19T20:59:51.000Z</time></trkpt>
        <trkpt lat="29.5035921" lon="103.3090776"><ele>2516</ele><time>2026-08-19T20:59:59.000Z</time></trkpt>
        <trkpt lat="29.5035865" lon="103.3089551"><ele>2510</ele><time>2026-08-19T21:00:05.000Z</time></trkpt>
        <trkpt lat="29.5036029" lon="103.3088471"><ele>2510</ele><time>2026-08-19T21:00:13.000Z</time></trkpt>
        <trkpt lat="29.5036014" lon="103.3087387"><ele>2503</ele><time>2026-08-19T21:00:33.000Z</time></trkpt>
        <trkpt lat="29.5035631" lon="103.3086296"><ele>2503</ele><time>2026-08-19T21:01:33.000Z</time></trkpt>
        <trkpt lat="29.5034899" lon="103.3085371"><ele>2503</ele><time>2026-08-19T21:02:05.000Z</time></trkpt>
        <trkpt lat="29.5034819" lon="103.3084304"><ele>2491</ele><time>2026-08-19T21:02:13.000Z</time></trkpt>
        <trkpt lat="29.5035098" lon="103.3083221"><ele>2491</ele><time>2026-08-19T21:02:23.000Z</time></trkpt>
        <trkpt lat="29.5035987" lon="103.3082737"><ele>2491</ele><time>2026-08-19T21:02:33.000Z</time></trkpt>
        <trkpt lat="29.503657" lon="103.308263"><ele>2491</ele><time>2026-08-19T21:02:39.000Z</time></trkpt>
        <trkpt lat="29.503657" lon="103.308263"><ele>2491</ele><time>2026-08-19T21:03:09.000Z</time></trkpt>
        <trkpt lat="29.503657" lon="103.308263"><ele>2491</ele><time>2026-08-19T21:03:21.000Z</time></trkpt>
        <trkpt lat="29.503657" lon="103.308263"><ele>2491</ele><time>2026-08-19T21:03:55.000Z</time></trkpt>
        <trkpt lat="29.503657" lon="103.308263"><ele>2491</ele><time>2026-08-19T21:04:01.000Z</time></trkpt>
        <trkpt lat="29.503657" lon="103.308263"><ele>2491</ele><time>2026-08-19T21:04:41.000Z</time></trkpt>
        <trkpt lat="29.5037182" lon="103.308192"><ele>2480</ele><time>2026-08-19T21:04:43.000Z</time></trkpt>
        <trkpt lat="29.5037182" lon="103.308192"><ele>2480</ele><time>2026-08-19T21:04:55.000Z</time></trkpt>
        <trkpt lat="29.5037361" lon="103.3080863"><ele>2480</ele><time>2026-08-19T21:05:03.000Z</time></trkpt>
        <trkpt lat="29.5037483" lon="103.3080626"><ele>2480</ele><time>2026-08-19T21:05:07.000Z</time></trkpt>
        <trkpt lat="29.5038041" lon="103.3080077"><ele>2465</ele><time>2026-08-19T21:05:31.000Z</time></trkpt>
        <trkpt lat="29.5038273" lon="103.3079079"><ele>2445</ele><time>2026-08-19T21:05:49.000Z</time></trkpt>
        <trkpt lat="29.5038273" lon="103.3079079"><ele>2445</ele><time>2026-08-19T21:06:33.000Z</time></trkpt>
        <trkpt lat="29.5038273" lon="103.3079079"><ele>2445</ele><time>2026-08-19T21:06:37.000Z</time></trkpt>
        <trkpt lat="29.5038273" lon="103.3079079"><ele>2445</ele><time>2026-08-19T21:07:09.000Z</time></trkpt>
        <trkpt lat="29.5038241" lon="103.3077794"><ele>2445</ele><time>2026-08-19T21:07:15.000Z</time></trkpt>
        <trkpt lat="29.5038241" lon="103.3077794"><ele>2445</ele><time>2026-08-19T21:07:41.000Z</time></trkpt>
        <trkpt lat="29.5038241" lon="103.3077794"><ele>2445</ele><time>2026-08-19T21:08:13.000Z</time></trkpt>
        <trkpt lat="29.50385" lon="103.3076724"><ele>2445</ele><time>2026-08-19T21:08:13.000Z</time></trkpt>
        <trkpt lat="29.50385" lon="103.3076724"><ele>2445</ele><time>2026-08-19T21:08:37.000Z</time></trkpt>
        <trkpt lat="29.5038209" lon="103.3075716"><ele>2441</ele><time>2026-08-19T21:08:45.000Z</time></trkpt>
        <trkpt lat="29.5038354" lon="103.3075493"><ele>2441</ele><time>2026-08-19T21:08:49.000Z</time></trkpt>
        <trkpt lat="29.5038901" lon="103.3074913"><ele>2441</ele><time>2026-08-19T21:09:43.000Z</time></trkpt>
        <trkpt lat="29.5039708" lon="103.3074283"><ele>2441</ele><time>2026-08-19T21:09:55.000Z</time></trkpt>
        <trkpt lat="29.5040437" lon="103.3073447"><ele>2421</ele><time>2026-08-19T21:11:57.000Z</time></trkpt>
        <trkpt lat="29.504086" lon="103.3072301"><ele>2421</ele><time>2026-08-19T21:12:05.000Z</time></trkpt>
        <trkpt lat="29.5040546" lon="103.3072975"><ele>2421</ele><time>2026-08-19T21:12:13.000Z</time></trkpt>
        <trkpt lat="29.5040546" lon="103.3072975"><ele>2421</ele><time>2026-08-19T21:12:43.000Z</time></trkpt>
        <trkpt lat="29.5040723" lon="103.307223"><ele>2421</ele><time>2026-08-19T21:15:13.000Z</time></trkpt>
        <trkpt lat="29.5040723" lon="103.307223"><ele>2421</ele><time>2026-08-19T21:15:47.000Z</time></trkpt>
        <trkpt lat="29.5041306" lon="103.3071306"><ele>2421</ele><time>2026-08-19T21:16:35.000Z</time></trkpt>
        <trkpt lat="29.5041519" lon="103.3070256"><ele>2407</ele><time>2026-08-19T21:17:53.000Z</time></trkpt>
        <trkpt lat="29.5041894" lon="103.3069246"><ele>2407</ele><time>2026-08-19T21:18:35.000Z</time></trkpt>
        <trkpt lat="29.5042348" lon="103.3068225"><ele>2407</ele><time>2026-08-19T21:19:27.000Z</time></trkpt>
        <trkpt lat="29.5042816" lon="103.3067692"><ele>2395</ele><time>2026-08-19T21:19:43.000Z</time></trkpt>
        <trkpt lat="29.5043419" lon="103.3067014"><ele>2382</ele><time>2026-08-19T21:20:19.000Z</time></trkpt>
        <trkpt lat="29.5044026" lon="103.3066125"><ele>2382</ele><time>2026-08-19T21:21:05.000Z</time></trkpt>
        <trkpt lat="29.5044112" lon="103.3065801"><ele>2382</ele><time>2026-08-19T21:21:09.000Z</time></trkpt>
        <trkpt lat="29.5044112" lon="103.3065801"><ele>2382</ele><time>2026-08-19T21:21:39.000Z</time></trkpt>
        <trkpt lat="29.5044892" lon="103.3065263"><ele>2386</ele><time>2026-08-19T21:21:41.000Z</time></trkpt>
        <trkpt lat="29.5044892" lon="103.3065263"><ele>2386</ele><time>2026-08-19T21:22:35.000Z</time></trkpt>
        <trkpt lat="29.5044835" lon="103.306532"><ele>2382</ele><time>2026-08-19T21:22:39.000Z</time></trkpt>
        <trkpt lat="29.5045498" lon="103.3064756"><ele>2386</ele><time>2026-08-19T21:23:07.000Z</time></trkpt>
        <trkpt lat="29.504618" lon="103.3064233"><ele>2377</ele><time>2026-08-19T21:23:27.000Z</time></trkpt>
        <trkpt lat="29.5046497" lon="103.3063291"><ele>2377</ele><time>2026-08-19T21:23:57.000Z</time></trkpt>
        <trkpt lat="29.5046418" lon="103.3062915"><ele>2377</ele><time>2026-08-19T21:24:03.000Z</time></trkpt>
        <trkpt lat="29.504695" lon="103.3062209"><ele>2371</ele><time>2026-08-19T21:24:45.000Z</time></trkpt>
        <trkpt lat="29.504724" lon="103.3061239"><ele>2371</ele><time>2026-08-19T21:25:11.000Z</time></trkpt>
        <trkpt lat="29.504744" lon="103.3060323"><ele>2371</ele><time>2026-08-19T21:25:27.000Z</time></trkpt>
        <trkpt lat="29.5047449" lon="103.3059201"><ele>2365</ele><time>2026-08-19T21:25:53.000Z</time></trkpt>
        <trkpt lat="29.5047297" lon="103.3058419"><ele>2365</ele><time>2026-08-19T21:26:11.000Z</time></trkpt>
        <trkpt lat="29.5046855" lon="103.3057576"><ele>2365</ele><time>2026-08-19T21:26:59.000Z</time></trkpt>
        <trkpt lat="29.5047208" lon="103.3056843"><ele>2359</ele><time>2026-08-19T21:27:21.000Z</time></trkpt>
        <trkpt lat="29.5047845" lon="103.3055989"><ele>2359</ele><time>2026-08-19T21:27:37.000Z</time></trkpt>
        <trkpt lat="29.504835" lon="103.3054967"><ele>2359</ele><time>2026-08-19T21:27:49.000Z</time></trkpt>
        <trkpt lat="29.5048291" lon="103.3053864"><ele>2356</ele><time>2026-08-19T21:28:03.000Z</time></trkpt>
        <trkpt lat="29.5048733" lon="103.3052884"><ele>2352</ele><time>2026-08-19T21:28:19.000Z</time></trkpt>
        <trkpt lat="29.5049516" lon="103.3052301"><ele>2352</ele><time>2026-08-19T21:28:29.000Z</time></trkpt>
        <trkpt lat="29.5050274" lon="103.3051619"><ele>2352</ele><time>2026-08-19T21:28:41.000Z</time></trkpt>
        <trkpt lat="29.5050274" lon="103.3051619"><ele>2352</ele><time>2026-08-19T21:30:29.000Z</time></trkpt>
        <trkpt lat="29.5051204" lon="103.3051299"><ele>2354</ele><time>2026-08-19T21:30:43.000Z</time></trkpt>
        <trkpt lat="29.5051204" lon="103.3051299"><ele>2354</ele><time>2026-08-19T21:30:53.000Z</time></trkpt>
        <trkpt lat="29.5051001" lon="103.3051729"><ele>2352</ele><time>2026-08-19T21:30:59.000Z</time></trkpt>
        <trkpt lat="29.505061" lon="103.3050789"><ele>2354</ele><time>2026-08-19T21:32:27.000Z</time></trkpt>
        <trkpt lat="29.5050924" lon="103.3049776"><ele>2354</ele><time>2026-08-19T21:32:49.000Z</time></trkpt>
        <trkpt lat="29.5050635" lon="103.3048742"><ele>2354</ele><time>2026-08-19T21:33:13.000Z</time></trkpt>
        <trkpt lat="29.505041" lon="103.3047717"><ele>2359</ele><time>2026-08-19T21:33:31.000Z</time></trkpt>
        <trkpt lat="29.5050534" lon="103.3047034"><ele>2359</ele><time>2026-08-19T21:33:41.000Z</time></trkpt>
        <trkpt lat="29.5050458" lon="103.3046026"><ele>2359</ele><time>2026-08-19T21:33:55.000Z</time></trkpt>
        <trkpt lat="29.5050395" lon="103.3044877"><ele>2361</ele><time>2026-08-19T21:34:09.000Z</time></trkpt>
        <trkpt lat="29.505104" lon="103.3044172"><ele>2361</ele><time>2026-08-19T21:34:21.000Z</time></trkpt>
        <trkpt lat="29.5051984" lon="103.3043938"><ele>2357</ele><time>2026-08-19T21:34:39.000Z</time></trkpt>
        <trkpt lat="29.5052737" lon="103.3043242"><ele>2357</ele><time>2026-08-19T21:34:51.000Z</time></trkpt>
        <trkpt lat="29.5053247" lon="103.304224"><ele>2353</ele><time>2026-08-19T21:35:05.000Z</time></trkpt>
        <trkpt lat="29.5053656" lon="103.3041235"><ele>2353</ele><time>2026-08-19T21:35:19.000Z</time></trkpt>
        <trkpt lat="29.5053916" lon="103.3040085"><ele>2348</ele><time>2026-08-19T21:35:35.000Z</time></trkpt>
        <trkpt lat="29.5054357" lon="103.3039117"><ele>2336</ele><time>2026-08-19T21:35:47.000Z</time></trkpt>
        <trkpt lat="29.5054766" lon="103.3038175"><ele>2336</ele><time>2026-08-19T21:36:01.000Z</time></trkpt>
        <trkpt lat="29.505481" lon="103.3037133"><ele>2330</ele><time>2026-08-19T21:36:25.000Z</time></trkpt>
        <trkpt lat="29.505477" lon="103.3036823"><ele>2330</ele><time>2026-08-19T21:36:27.000Z</time></trkpt>
        <trkpt lat="29.505477" lon="103.3036823"><ele>2330</ele><time>2026-08-19T21:36:57.000Z</time></trkpt>
        <trkpt lat="29.505477" lon="103.3036823"><ele>2330</ele><time>2026-08-19T21:38:35.000Z</time></trkpt>
        <trkpt lat="29.505477" lon="103.3036823"><ele>2330</ele><time>2026-08-19T21:39:49.000Z</time></trkpt>
        <trkpt lat="29.505477" lon="103.3036823"><ele>2330</ele><time>2026-08-19T21:39:53.000Z</time></trkpt>
        <trkpt lat="29.505477" lon="103.3036823"><ele>2330</ele><time>2026-08-19T21:42:15.000Z</time></trkpt>
        <trkpt lat="29.5053885" lon="103.3036474"><ele>2336</ele><time>2026-08-19T21:42:19.000Z</time></trkpt>
        <trkpt lat="29.5053885" lon="103.3036474"><ele>2336</ele><time>2026-08-19T21:43:03.000Z</time></trkpt>
        <trkpt lat="29.5053157" lon="103.30358"><ele>2336</ele><time>2026-08-19T21:43:15.000Z</time></trkpt>
        <trkpt lat="29.5052517" lon="103.3034941"><ele>2336</ele><time>2026-08-19T21:43:29.000Z</time></trkpt>
        <trkpt lat="29.5052159" lon="103.3033824"><ele>2328</ele><time>2026-08-19T21:43:41.000Z</time></trkpt>
        <trkpt lat="29.5052051" lon="103.3032645"><ele>2328</ele><time>2026-08-19T21:43:55.000Z</time></trkpt>
        <trkpt lat="29.5051798" lon="103.303157"><ele>2320</ele><time>2026-08-19T21:44:11.000Z</time></trkpt>
        <trkpt lat="29.5051089" lon="103.3031056"><ele>2326</ele><time>2026-08-19T21:44:23.000Z</time></trkpt>
        <trkpt lat="29.5050151" lon="103.3030922"><ele>2326</ele><time>2026-08-19T21:44:37.000Z</time></trkpt>
        <trkpt lat="29.5049097" lon="103.3031075"><ele>2326</ele><time>2026-08-19T21:44:51.000Z</time></trkpt>
        <trkpt lat="29.5048077" lon="103.3031441"><ele>2335</ele><time>2026-08-19T21:45:07.000Z</time></trkpt>
        <trkpt lat="29.5047071" lon="103.3031955"><ele>2349</ele><time>2026-08-19T21:45:19.000Z</time></trkpt>
        <trkpt lat="29.5046165" lon="103.3032535"><ele>2349</ele><time>2026-08-19T21:45:33.000Z</time></trkpt>
        <trkpt lat="29.5045184" lon="103.3033028"><ele>2353</ele><time>2026-08-19T21:45:49.000Z</time></trkpt>
        <trkpt lat="29.5044596" lon="103.3032481"><ele>2353</ele><time>2026-08-19T21:46:01.000Z</time></trkpt>
        <trkpt lat="29.5044655" lon="103.3031392"><ele>2336</ele><time>2026-08-19T21:46:13.000Z</time></trkpt>
        <trkpt lat="29.5045081" lon="103.3030222"><ele>2336</ele><time>2026-08-19T21:46:27.000Z</time></trkpt>
        <trkpt lat="29.5045622" lon="103.3029118"><ele>2325</ele><time>2026-08-19T21:46:39.000Z</time></trkpt>
        <trkpt lat="29.5046261" lon="103.3028191"><ele>2325</ele><time>2026-08-19T21:46:51.000Z</time></trkpt>
        <trkpt lat="29.504683" lon="103.3027184"><ele>2325</ele><time>2026-08-19T21:47:05.000Z</time></trkpt>
        <trkpt lat="29.5047384" lon="103.3026182"><ele>2323</ele><time>2026-08-19T21:47:17.000Z</time></trkpt>
        <trkpt lat="29.5047585" lon="103.3025054"><ele>2323</ele><time>2026-08-19T21:47:29.000Z</time></trkpt>
        <trkpt lat="29.5047373" lon="103.3023973"><ele>2323</ele><time>2026-08-19T21:47:39.000Z</time></trkpt>
        <trkpt lat="29.5046636" lon="103.3023183"><ele>2303</ele><time>2026-08-19T21:47:55.000Z</time></trkpt>
        <trkpt lat="29.5045704" lon="103.3022807"><ele>2297</ele><time>2026-08-19T21:48:09.000Z</time></trkpt>
        <trkpt lat="29.5045263" lon="103.3021922"><ele>2297</ele><time>2026-08-19T21:48:45.000Z</time></trkpt>
        <trkpt lat="29.5044748" lon="103.3020994"><ele>2297</ele><time>2026-08-19T21:48:55.000Z</time></trkpt>
        <trkpt lat="29.5044384" lon="103.3019919"><ele>2301</ele><time>2026-08-19T21:49:05.000Z</time></trkpt>
        <trkpt lat="29.5043894" lon="103.301891"><ele>2301</ele><time>2026-08-19T21:49:15.000Z</time></trkpt>
        <trkpt lat="29.5043327" lon="103.3017978"><ele>2308</ele><time>2026-08-19T21:49:25.000Z</time></trkpt>
        <trkpt lat="29.5042607" lon="103.3017084"><ele>2313</ele><time>2026-08-19T21:49:37.000Z</time></trkpt>
        <trkpt lat="29.5041956" lon="103.3016141"><ele>2313</ele><time>2026-08-19T21:49:49.000Z</time></trkpt>
        <trkpt lat="29.5041385" lon="103.3015268"><ele>2320</ele><time>2026-08-19T21:49:59.000Z</time></trkpt>
        <trkpt lat="29.5040793" lon="103.3014402"><ele>2320</ele><time>2026-08-19T21:50:11.000Z</time></trkpt>
        <trkpt lat="29.5040318" lon="103.301342"><ele>2320</ele><time>2026-08-19T21:50:23.000Z</time></trkpt>
        <trkpt lat="29.5039931" lon="103.301237"><ele>2316</ele><time>2026-08-19T21:50:33.000Z</time></trkpt>
        <trkpt lat="29.5039532" lon="103.301134"><ele>2316</ele><time>2026-08-19T21:50:43.000Z</time></trkpt>
        <trkpt lat="29.5039036" lon="103.3010386"><ele>2316</ele><time>2026-08-19T21:50:55.000Z</time></trkpt>
        <trkpt lat="29.5038461" lon="103.3009529"><ele>2308</ele><time>2026-08-19T21:51:07.000Z</time></trkpt>
        <trkpt lat="29.5037917" lon="103.3008685"><ele>2308</ele><time>2026-08-19T21:52:35.000Z</time></trkpt>
        <trkpt lat="29.503791" lon="103.3008581"><ele>2308</ele><time>2026-08-19T21:52:39.000Z</time></trkpt>
        <trkpt lat="29.5037499" lon="103.3007595"><ele>2310</ele><time>2026-08-19T21:52:59.000Z</time></trkpt>
        <trkpt lat="29.5037068" lon="103.3006496"><ele>2309</ele><time>2026-08-19T21:53:11.000Z</time></trkpt>
        <trkpt lat="29.5036944" lon="103.3006154"><ele>2309</ele><time>2026-08-19T21:53:17.000Z</time></trkpt>
        <trkpt lat="29.5036944" lon="103.3006154"><ele>2309</ele><time>2026-08-19T21:53:47.000Z</time></trkpt>
        <trkpt lat="29.5036944" lon="103.3006154"><ele>2309</ele><time>2026-08-19T21:54:05.000Z</time></trkpt>
        <trkpt lat="29.5036944" lon="103.3006154"><ele>2309</ele><time>2026-08-19T21:54:37.000Z</time></trkpt>
        <trkpt lat="29.5036944" lon="103.3006154"><ele>2309</ele><time>2026-08-19T21:55:29.000Z</time></trkpt>
        <trkpt lat="29.5036944" lon="103.3006154"><ele>2309</ele><time>2026-08-19T21:56:01.000Z</time></trkpt>
        <trkpt lat="29.5037398" lon="103.3007344"><ele>2310</ele><time>2026-08-19T21:56:11.000Z</time></trkpt>
        <trkpt lat="29.5037398" lon="103.3007344"><ele>2310</ele><time>2026-08-19T21:56:21.000Z</time></trkpt>
        <trkpt lat="29.5038028" lon="103.3008266"><ele>2308</ele><time>2026-08-19T21:56:31.000Z</time></trkpt>
        <trkpt lat="29.5038583" lon="103.300926"><ele>2308</ele><time>2026-08-19T21:56:43.000Z</time></trkpt>
        <trkpt lat="29.5039177" lon="103.3010247"><ele>2316</ele><time>2026-08-19T21:56:53.000Z</time></trkpt>
        <trkpt lat="29.5039782" lon="103.3011246"><ele>2316</ele><time>2026-08-19T21:57:03.000Z</time></trkpt>
        <trkpt lat="29.5040227" lon="103.3012205"><ele>2316</ele><time>2026-08-19T21:57:11.000Z</time></trkpt>
        <trkpt lat="29.5040583" lon="103.3013196"><ele>2320</ele><time>2026-08-19T21:57:19.000Z</time></trkpt>
        <trkpt lat="29.5040873" lon="103.3014193"><ele>2320</ele><time>2026-08-19T21:57:29.000Z</time></trkpt>
        <trkpt lat="29.504128" lon="103.3015174"><ele>2320</ele><time>2026-08-19T21:57:39.000Z</time></trkpt>
        <trkpt lat="29.5041908" lon="103.301615"><ele>2313</ele><time>2026-08-19T21:57:51.000Z</time></trkpt>
        <trkpt lat="29.5042632" lon="103.3016953"><ele>2313</ele><time>2026-08-19T21:58:01.000Z</time></trkpt>
        <trkpt lat="29.5043314" lon="103.3017794"><ele>2308</ele><time>2026-08-19T21:58:11.000Z</time></trkpt>
        <trkpt lat="29.5043916" lon="103.3018609"><ele>2301</ele><time>2026-08-19T21:58:21.000Z</time></trkpt>
        <trkpt lat="29.5044454" lon="103.3019544"><ele>2301</ele><time>2026-08-19T21:58:31.000Z</time></trkpt>
        <trkpt lat="29.5044853" lon="103.3020602"><ele>2301</ele><time>2026-08-19T21:58:41.000Z</time></trkpt>
        <trkpt lat="29.5045138" lon="103.3021692"><ele>2297</ele><time>2026-08-19T21:59:01.000Z</time></trkpt>
        <trkpt lat="29.5045636" lon="103.302257"><ele>2297</ele><time>2026-08-19T21:59:17.000Z</time></trkpt>
        <trkpt lat="29.5045736" lon="103.302319"><ele>2297</ele><time>2026-08-19T21:59:29.000Z</time></trkpt>
        <trkpt lat="29.5046587" lon="103.3023065"><ele>2303</ele><time>2026-08-19T22:00:51.000Z</time></trkpt>
        <trkpt lat="29.5047227" lon="103.3023917"><ele>2323</ele><time>2026-08-19T22:00:59.000Z</time></trkpt>
        <trkpt lat="29.504772" lon="103.3024859"><ele>2323</ele><time>2026-08-19T22:01:07.000Z</time></trkpt>
        <trkpt lat="29.5047894" lon="103.3025875"><ele>2323</ele><time>2026-08-19T22:01:15.000Z</time></trkpt>
        <trkpt lat="29.5047502" lon="103.3026969"><ele>2325</ele><time>2026-08-19T22:01:25.000Z</time></trkpt>
        <trkpt lat="29.5046754" lon="103.3027824"><ele>2325</ele><time>2026-08-19T22:01:35.000Z</time></trkpt>
        <trkpt lat="29.5046077" lon="103.3028691"><ele>2325</ele><time>2026-08-19T22:01:45.000Z</time></trkpt>
        <trkpt lat="29.5046443" lon="103.3028486"><ele>2325</ele><time>2026-08-19T22:02:01.000Z</time></trkpt>
        <trkpt lat="29.5046654" lon="103.3028245"><ele>2325</ele><time>2026-08-19T22:02:03.000Z</time></trkpt>
        <trkpt lat="29.5046654" lon="103.3028245"><ele>2325</ele><time>2026-08-19T22:02:33.000Z</time></trkpt>
        <trkpt lat="29.5046654" lon="103.3028245"><ele>2325</ele><time>2026-08-19T22:03:11.000Z</time></trkpt>
        <trkpt lat="29.5046654" lon="103.3028245"><ele>2325</ele><time>2026-08-19T22:03:43.000Z</time></trkpt>
        <trkpt lat="29.5046654" lon="103.3028245"><ele>2325</ele><time>2026-08-19T22:04:15.000Z</time></trkpt>
        <trkpt lat="29.5046654" lon="103.3028245"><ele>2325</ele><time>2026-08-19T22:04:47.000Z</time></trkpt>
        <trkpt lat="29.5045925" lon="103.3028714"><ele>2325</ele><time>2026-08-19T22:12:57.000Z</time></trkpt>
        <trkpt lat="29.5045925" lon="103.3028714"><ele>2325</ele><time>2026-08-19T22:13:03.000Z</time></trkpt>
        <trkpt lat="29.5045806" lon="103.3028824"><ele>2325</ele><time>2026-08-19T22:13:07.000Z</time></trkpt>
        <trkpt lat="29.5045313" lon="103.3028081"><ele>2325</ele><time>2026-08-19T22:13:27.000Z</time></trkpt>
        <trkpt lat="29.5044706" lon="103.302728"><ele>2325</ele><time>2026-08-19T22:13:43.000Z</time></trkpt>
        <trkpt lat="29.5044166" lon="103.3026295"><ele>2308</ele><time>2026-08-19T22:13:59.000Z</time></trkpt>
        <trkpt lat="29.5043575" lon="103.3025346"><ele>2308</ele><time>2026-08-19T22:14:23.000Z</time></trkpt>
        <trkpt lat="29.5043023" lon="103.3024401"><ele>2301</ele><time>2026-08-19T22:14:37.000Z</time></trkpt>
        <trkpt lat="29.5042243" lon="103.3023889"><ele>2301</ele><time>2026-08-19T22:15:31.000Z</time></trkpt>
        <trkpt lat="29.504146" lon="103.3023348"><ele>2291</ele><time>2026-08-19T22:16:01.000Z</time></trkpt>
        <trkpt lat="29.504081" lon="103.3022531"><ele>2291</ele><time>2026-08-19T22:16:25.000Z</time></trkpt>
        <trkpt lat="29.5040224" lon="103.3021696"><ele>2291</ele><time>2026-08-19T22:16:45.000Z</time></trkpt>
        <trkpt lat="29.5039681" lon="103.3020751"><ele>2297</ele><time>2026-08-19T22:17:29.000Z</time></trkpt>
        <trkpt lat="29.5038789" lon="103.3020514"><ele>2297</ele><time>2026-08-19T22:19:09.000Z</time></trkpt>
        <trkpt lat="29.5038735" lon="103.3020515"><ele>2297</ele><time>2026-08-19T22:19:11.000Z</time></trkpt>
        <trkpt lat="29.5037954" lon="103.301997"><ele>2297</ele><time>2026-08-19T22:19:35.000Z</time></trkpt>
        <trkpt lat="29.5037703" lon="103.3019968"><ele>2297</ele><time>2026-08-19T22:19:43.000Z</time></trkpt>
        <trkpt lat="29.5037199" lon="103.3019391"><ele>2293</ele><time>2026-08-19T22:20:31.000Z</time></trkpt>
        <trkpt lat="29.5037031" lon="103.3019126"><ele>2293</ele><time>2026-08-19T22:20:37.000Z</time></trkpt>
        <trkpt lat="29.5036384" lon="103.3018689"><ele>2293</ele><time>2026-08-19T22:21:01.000Z</time></trkpt>
        <trkpt lat="29.5035673" lon="103.3017884"><ele>2304</ele><time>2026-08-19T22:21:15.000Z</time></trkpt>
        <trkpt lat="29.5034971" lon="103.3017732"><ele>2304</ele><time>2026-08-19T22:21:35.000Z</time></trkpt>
        <trkpt lat="29.5034389" lon="103.3017057"><ele>2303</ele><time>2026-08-19T22:22:01.000Z</time></trkpt>
        <trkpt lat="29.5033645" lon="103.3016245"><ele>2303</ele><time>2026-08-19T22:22:35.000Z</time></trkpt>
        <trkpt lat="29.5033144" lon="103.3015279"><ele>2303</ele><time>2026-08-19T22:22:45.000Z</time></trkpt>
        <trkpt lat="29.5032545" lon="103.3014475"><ele>2310</ele><time>2026-08-19T22:23:05.000Z</time></trkpt>
        <trkpt lat="29.5031691" lon="103.3014192"><ele>2314</ele><time>2026-08-19T22:23:29.000Z</time></trkpt>
        <trkpt lat="29.5030756" lon="103.3013912"><ele>2314</ele><time>2026-08-19T22:23:55.000Z</time></trkpt>
        <trkpt lat="29.5029813" lon="103.301356"><ele>2314</ele><time>2026-08-19T22:24:25.000Z</time></trkpt>
        <trkpt lat="29.5028863" lon="103.3013369"><ele>2310</ele><time>2026-08-19T22:24:47.000Z</time></trkpt>
        <trkpt lat="29.5028478" lon="103.3013398"><ele>2310</ele><time>2026-08-19T22:24:57.000Z</time></trkpt>
        <trkpt lat="29.5027758" lon="103.3013573"><ele>2310</ele><time>2026-08-19T22:25:31.000Z</time></trkpt>
        <trkpt lat="29.5026931" lon="103.3013386"><ele>2310</ele><time>2026-08-19T22:25:43.000Z</time></trkpt>
        <trkpt lat="29.5026064" lon="103.3012817"><ele>2308</ele><time>2026-08-19T22:25:59.000Z</time></trkpt>
        <trkpt lat="29.5025375" lon="103.301189"><ele>2308</ele><time>2026-08-19T22:26:15.000Z</time></trkpt>
        <trkpt lat="29.5024806" lon="103.3011462"><ele>2308</ele><time>2026-08-19T22:26:27.000Z</time></trkpt>
        <trkpt lat="29.5024082" lon="103.3011025"><ele>2308</ele><time>2026-08-19T22:26:47.000Z</time></trkpt>
        <trkpt lat="29.5023181" lon="103.301096"><ele>2285</ele><time>2026-08-19T22:27:21.000Z</time></trkpt>
        <trkpt lat="29.502222" lon="103.3010746"><ele>2285</ele><time>2026-08-19T22:27:41.000Z</time></trkpt>
        <trkpt lat="29.5021435" lon="103.3010113"><ele>2285</ele><time>2026-08-19T22:27:55.000Z</time></trkpt>
        <trkpt lat="29.5020781" lon="103.3009317"><ele>2267</ele><time>2026-08-19T22:28:11.000Z</time></trkpt>
        <trkpt lat="29.5020258" lon="103.3008412"><ele>2267</ele><time>2026-08-19T22:28:31.000Z</time></trkpt>
        <trkpt lat="29.5019824" lon="103.300747"><ele>2267</ele><time>2026-08-19T22:28:47.000Z</time></trkpt>
        <trkpt lat="29.5019661" lon="103.3006431"><ele>2259</ele><time>2026-08-19T22:29:05.000Z</time></trkpt>
        <trkpt lat="29.5019036" lon="103.3005688"><ele>2259</ele><time>2026-08-19T22:29:21.000Z</time></trkpt>
        <trkpt lat="29.5018225" lon="103.3005139"><ele>2259</ele><time>2026-08-19T22:29:35.000Z</time></trkpt>
        <trkpt lat="29.501743" lon="103.3004431"><ele>2258</ele><time>2026-08-19T22:29:47.000Z</time></trkpt>
        <trkpt lat="29.50169" lon="103.3003916"><ele>2262</ele><time>2026-08-19T22:29:57.000Z</time></trkpt>
        <trkpt lat="29.5016056" lon="103.3003597"><ele>2262</ele><time>2026-08-19T22:30:15.000Z</time></trkpt>
        <trkpt lat="29.501515" lon="103.3003439"><ele>2261</ele><time>2026-08-19T22:30:31.000Z</time></trkpt>
        <trkpt lat="29.5014463" lon="103.3002841"><ele>2261</ele><time>2026-08-19T22:30:53.000Z</time></trkpt>
        <trkpt lat="29.501365" lon="103.3002402"><ele>2261</ele><time>2026-08-19T22:31:17.000Z</time></trkpt>
        <trkpt lat="29.5012781" lon="103.300199"><ele>2261</ele><time>2026-08-19T22:31:47.000Z</time></trkpt>
        <trkpt lat="29.5011916" lon="103.3001601"><ele>2268</ele><time>2026-08-19T22:32:23.000Z</time></trkpt>
        <trkpt lat="29.5011004" lon="103.3001166"><ele>2265</ele><time>2026-08-19T22:32:35.000Z</time></trkpt>
        <trkpt lat="29.5010032" lon="103.3000854"><ele>2265</ele><time>2026-08-19T22:32:49.000Z</time></trkpt>
        <trkpt lat="29.5009645" lon="103.3000829"><ele>2255</ele><time>2026-08-19T22:32:55.000Z</time></trkpt>
        <trkpt lat="29.5008833" lon="103.3000652"><ele>2255</ele><time>2026-08-19T22:33:09.000Z</time></trkpt>
        <trkpt lat="29.5008141" lon="103.3000007"><ele>2255</ele><time>2026-08-19T22:33:25.000Z</time></trkpt>
        <trkpt lat="29.5007881" lon="103.2999824"><ele>2255</ele><time>2026-08-19T22:33:31.000Z</time></trkpt>
        <trkpt lat="29.500732" lon="103.2999221"><ele>2255</ele><time>2026-08-19T22:33:49.000Z</time></trkpt>
        <trkpt lat="29.5006707" lon="103.2998409"><ele>2244</ele><time>2026-08-19T22:34:07.000Z</time></trkpt>
        <trkpt lat="29.500605" lon="103.2997581"><ele>2244</ele><time>2026-08-19T22:34:19.000Z</time></trkpt>
        <trkpt lat="29.5005568" lon="103.2996642"><ele>2244</ele><time>2026-08-19T22:34:31.000Z</time></trkpt>
        <trkpt lat="29.5004846" lon="103.2995955"><ele>2244</ele><time>2026-08-19T22:34:53.000Z</time></trkpt>
        <trkpt lat="29.5004521" lon="103.2995022"><ele>2232</ele><time>2026-08-19T22:35:11.000Z</time></trkpt>
        <trkpt lat="29.5004075" lon="103.2994515"><ele>2233</ele><time>2026-08-19T22:35:23.000Z</time></trkpt>
        <trkpt lat="29.5003453" lon="103.299383"><ele>2233</ele><time>2026-08-19T22:35:43.000Z</time></trkpt>
        <trkpt lat="29.5002883" lon="103.2992994"><ele>2225</ele><time>2026-08-19T22:36:35.000Z</time></trkpt>
        <trkpt lat="29.5002129" lon="103.2992409"><ele>2225</ele><time>2026-08-19T22:36:51.000Z</time></trkpt>
        <trkpt lat="29.5001276" lon="103.299199"><ele>2227</ele><time>2026-08-19T22:37:13.000Z</time></trkpt>
        <trkpt lat="29.5000259" lon="103.2992178"><ele>2227</ele><time>2026-08-19T22:37:53.000Z</time></trkpt>
        <trkpt lat="29.4999834" lon="103.299229"><ele>2227</ele><time>2026-08-19T22:37:57.000Z</time></trkpt>
        <trkpt lat="29.4998919" lon="103.2992605"><ele>2227</ele><time>2026-08-19T22:38:11.000Z</time></trkpt>
        <trkpt lat="29.4998719" lon="103.2992694"><ele>2227</ele><time>2026-08-19T22:38:13.000Z</time></trkpt>
        <trkpt lat="29.4998402" lon="103.2991761"><ele>2211</ele><time>2026-08-19T22:39:03.000Z</time></trkpt>
        <trkpt lat="29.4998353" lon="103.2991592"><ele>2211</ele><time>2026-08-19T22:39:07.000Z</time></trkpt>
        <trkpt lat="29.4997899" lon="103.299102"><ele>2211</ele><time>2026-08-19T22:39:53.000Z</time></trkpt>
        <trkpt lat="29.4997552" lon="103.2990793"><ele>2211</ele><time>2026-08-19T22:40:01.000Z</time></trkpt>
        <trkpt lat="29.4997355" lon="103.2989863"><ele>2218</ele><time>2026-08-19T22:40:27.000Z</time></trkpt>
        <trkpt lat="29.4996925" lon="103.2988908"><ele>2218</ele><time>2026-08-19T22:40:47.000Z</time></trkpt>
        <trkpt lat="29.499651" lon="103.2987912"><ele>2218</ele><time>2026-08-19T22:41:11.000Z</time></trkpt>
        <trkpt lat="29.4995839" lon="103.298705"><ele>2212</ele><time>2026-08-19T22:41:33.000Z</time></trkpt>
        <trkpt lat="29.4995131" lon="103.2986314"><ele>2212</ele><time>2026-08-19T22:41:47.000Z</time></trkpt>
        <trkpt lat="29.4995053" lon="103.2985365"><ele>2212</ele><time>2026-08-19T22:42:17.000Z</time></trkpt>
        <trkpt lat="29.499484" lon="103.2984338"><ele>2209</ele><time>2026-08-19T22:42:29.000Z</time></trkpt>
        <trkpt lat="29.4994585" lon="103.2983254"><ele>2209</ele><time>2026-08-19T22:42:43.000Z</time></trkpt>
        <trkpt lat="29.49942" lon="103.2982183"><ele>2209</ele><time>2026-08-19T22:42:55.000Z</time></trkpt>
        <trkpt lat="29.4993617" lon="103.2981349"><ele>2211</ele><time>2026-08-19T22:43:09.000Z</time></trkpt>
        <trkpt lat="29.4993176" lon="103.2980858"><ele>2211</ele><time>2026-08-19T22:43:19.000Z</time></trkpt>
        <trkpt lat="29.4992623" lon="103.2980186"><ele>2202</ele><time>2026-08-19T22:43:37.000Z</time></trkpt>
        <trkpt lat="29.4991918" lon="103.2979528"><ele>2202</ele><time>2026-08-19T22:43:53.000Z</time></trkpt>
        <trkpt lat="29.4991142" lon="103.2978957"><ele>2209</ele><time>2026-08-19T22:44:15.000Z</time></trkpt>
        <trkpt lat="29.4990266" lon="103.2978642"><ele>2189</ele><time>2026-08-19T22:44:39.000Z</time></trkpt>
        <trkpt lat="29.4989532" lon="103.2977995"><ele>2189</ele><time>2026-08-19T22:44:55.000Z</time></trkpt>
        <trkpt lat="29.498905" lon="103.2977053"><ele>2189</ele><time>2026-08-19T22:45:05.000Z</time></trkpt>
        <trkpt lat="29.4988793" lon="103.2976008"><ele>2185</ele><time>2026-08-19T22:45:37.000Z</time></trkpt>
        <trkpt lat="29.4989275" lon="103.2975157"><ele>2185</ele><time>2026-08-19T22:46:19.000Z</time></trkpt>
        <trkpt lat="29.4989275" lon="103.2975157"><ele>2185</ele><time>2026-08-19T22:46:49.000Z</time></trkpt>
        <trkpt lat="29.4989275" lon="103.2975157"><ele>2185</ele><time>2026-08-19T22:46:55.000Z</time></trkpt>
        <trkpt lat="29.4989275" lon="103.2975157"><ele>2185</ele><time>2026-08-19T22:47:27.000Z</time></trkpt>
        <trkpt lat="29.4989275" lon="103.2975157"><ele>2185</ele><time>2026-08-19T22:48:25.000Z</time></trkpt>
        <trkpt lat="29.4989275" lon="103.2975157"><ele>2185</ele><time>2026-08-19T22:48:57.000Z</time></trkpt>
        <trkpt lat="29.4989529" lon="103.2974017"><ele>2185</ele><time>2026-08-19T22:49:13.000Z</time></trkpt>
        <trkpt lat="29.4989529" lon="103.2974017"><ele>2185</ele><time>2026-08-19T22:49:39.000Z</time></trkpt>
        <trkpt lat="29.4989686" lon="103.297294"><ele>2179</ele><time>2026-08-19T22:49:51.000Z</time></trkpt>
        <trkpt lat="29.4989668" lon="103.2971761"><ele>2179</ele><time>2026-08-19T22:50:03.000Z</time></trkpt>
        <trkpt lat="29.4989687" lon="103.2970614"><ele>2179</ele><time>2026-08-19T22:50:15.000Z</time></trkpt>
        <trkpt lat="29.4989563" lon="103.2969556"><ele>2179</ele><time>2026-08-19T22:50:25.000Z</time></trkpt>
        <trkpt lat="29.4989332" lon="103.2968552"><ele>2179</ele><time>2026-08-19T22:50:35.000Z</time></trkpt>
        <trkpt lat="29.4989163" lon="103.2967449"><ele>2174</ele><time>2026-08-19T22:50:47.000Z</time></trkpt>
        <trkpt lat="29.4989057" lon="103.2966306"><ele>2174</ele><time>2026-08-19T22:50:59.000Z</time></trkpt>
        <trkpt lat="29.4988925" lon="103.2965238"><ele>2160</ele><time>2026-08-19T22:51:07.000Z</time></trkpt>
        <trkpt lat="29.4988789" lon="103.2964197"><ele>2160</ele><time>2026-08-19T22:51:17.000Z</time></trkpt>
        <trkpt lat="29.498866" lon="103.2963012"><ele>2160</ele><time>2026-08-19T22:51:27.000Z</time></trkpt>
        <trkpt lat="29.4988588" lon="103.296171"><ele>2150</ele><time>2026-08-19T22:51:37.000Z</time></trkpt>
        <trkpt lat="29.4988519" lon="103.2960582"><ele>2150</ele><time>2026-08-19T22:51:45.000Z</time></trkpt>
        <trkpt lat="29.4988374" lon="103.2959483"><ele>2157</ele><time>2026-08-19T22:51:55.000Z</time></trkpt>
        <trkpt lat="29.4988272" lon="103.2958433"><ele>2157</ele><time>2026-08-19T22:52:05.000Z</time></trkpt>
        <trkpt lat="29.4988189" lon="103.295736"><ele>2157</ele><time>2026-08-19T22:52:15.000Z</time></trkpt>
        <trkpt lat="29.4988107" lon="103.2956432"><ele>2153</ele><time>2026-08-19T22:52:27.000Z</time></trkpt>
        <trkpt lat="29.498795" lon="103.2955335"><ele>2153</ele><time>2026-08-19T22:52:47.000Z</time></trkpt>
        <trkpt lat="29.4987771" lon="103.2954277"><ele>2153</ele><time>2026-08-19T22:52:57.000Z</time></trkpt>
        <trkpt lat="29.4987587" lon="103.2953105"><ele>2156</ele><time>2026-08-19T22:53:07.000Z</time></trkpt>
        <trkpt lat="29.4987639" lon="103.2951958"><ele>2156</ele><time>2026-08-19T22:53:19.000Z</time></trkpt>
        <trkpt lat="29.4987545" lon="103.2950738"><ele>2163</ele><time>2026-08-19T22:53:31.000Z</time></trkpt>
        <trkpt lat="29.4987405" lon="103.2949589"><ele>2154</ele><time>2026-08-19T22:53:39.000Z</time></trkpt>
        <trkpt lat="29.4987165" lon="103.2948343"><ele>2148</ele><time>2026-08-19T22:53:47.000Z</time></trkpt>
        <trkpt lat="29.4986833" lon="103.2947124"><ele>2148</ele><time>2026-08-19T22:53:55.000Z</time></trkpt>
        <trkpt lat="29.4986389" lon="103.2945941"><ele>2148</ele><time>2026-08-19T22:54:03.000Z</time></trkpt>
        <trkpt lat="29.4985751" lon="103.2944839"><ele>2146</ele><time>2026-08-19T22:54:11.000Z</time></trkpt>
        <trkpt lat="29.498504" lon="103.2944066"><ele>2146</ele><time>2026-08-19T22:54:17.000Z</time></trkpt>
        <trkpt lat="29.4984451" lon="103.2943549"><ele>2149</ele><time>2026-08-19T22:54:31.000Z</time></trkpt>
        <trkpt lat="29.4984271" lon="103.2942649"><ele>2142</ele><time>2026-08-19T22:55:03.000Z</time></trkpt>
        <trkpt lat="29.4984207" lon="103.2941623"><ele>2142</ele><time>2026-08-19T22:55:21.000Z</time></trkpt>
        <trkpt lat="29.4984184" lon="103.2940556"><ele>2142</ele><time>2026-08-19T22:55:37.000Z</time></trkpt>
        <trkpt lat="29.4984278" lon="103.2939389"><ele>2129</ele><time>2026-08-19T22:55:53.000Z</time></trkpt>
        <trkpt lat="29.4984353" lon="103.2938186"><ele>2129</ele><time>2026-08-19T22:56:09.000Z</time></trkpt>
        <trkpt lat="29.4984728" lon="103.2937126"><ele>2128</ele><time>2026-08-19T22:56:31.000Z</time></trkpt>
        <trkpt lat="29.4985492" lon="103.2936552"><ele>2128</ele><time>2026-08-19T22:56:47.000Z</time></trkpt>
        <trkpt lat="29.4986547" lon="103.2936431"><ele>2128</ele><time>2026-08-19T22:57:01.000Z</time></trkpt>
        <trkpt lat="29.4987628" lon="103.2936585"><ele>2129</ele><time>2026-08-19T22:57:15.000Z</time></trkpt>
        <trkpt lat="29.4988634" lon="103.2937"><ele>2129</ele><time>2026-08-19T22:57:27.000Z</time></trkpt>
        <trkpt lat="29.4989617" lon="103.2937388"><ele>2129</ele><time>2026-08-19T22:57:39.000Z</time></trkpt>
        <trkpt lat="29.4990598" lon="103.293752"><ele>2144</ele><time>2026-08-19T22:57:51.000Z</time></trkpt>
        <trkpt lat="29.4991411" lon="103.2937118"><ele>2148</ele><time>2026-08-19T22:58:01.000Z</time></trkpt>
        <trkpt lat="29.4992093" lon="103.2936401"><ele>2148</ele><time>2026-08-19T22:58:11.000Z</time></trkpt>
        <trkpt lat="29.4991791" lon="103.2935411"><ele>2148</ele><time>2026-08-19T22:58:51.000Z</time></trkpt>
        <trkpt lat="29.4990796" lon="103.293481"><ele>2148</ele><time>2026-08-19T22:58:55.000Z</time></trkpt>
        <trkpt lat="29.4989701" lon="103.2934405"><ele>2139</ele><time>2026-08-19T22:59:05.000Z</time></trkpt>
        <trkpt lat="29.4988796" lon="103.2933823"><ele>2139</ele><time>2026-08-19T22:59:15.000Z</time></trkpt>
        <trkpt lat="29.4987962" lon="103.2933149"><ele>2139</ele><time>2026-08-19T22:59:27.000Z</time></trkpt>
        <trkpt lat="29.4987152" lon="103.2932536"><ele>2131</ele><time>2026-08-19T22:59:39.000Z</time></trkpt>
        <trkpt lat="29.4987053" lon="103.2932347"><ele>2131</ele><time>2026-08-19T22:59:43.000Z</time></trkpt>
        <trkpt lat="29.4986471" lon="103.2931828"><ele>2131</ele><time>2026-08-19T22:59:55.000Z</time></trkpt>
        <trkpt lat="29.4985782" lon="103.293117"><ele>2131</ele><time>2026-08-19T23:00:07.000Z</time></trkpt>
        <trkpt lat="29.4985229" lon="103.29302"><ele>2131</ele><time>2026-08-19T23:00:19.000Z</time></trkpt>
        <trkpt lat="29.4984798" lon="103.2929177"><ele>2131</ele><time>2026-08-19T23:00:31.000Z</time></trkpt>
        <trkpt lat="29.4984626" lon="103.2928298"><ele>2124</ele><time>2026-08-19T23:00:55.000Z</time></trkpt>
        <trkpt lat="29.4984126" lon="103.2927516"><ele>2124</ele><time>2026-08-19T23:01:35.000Z</time></trkpt>
        <trkpt lat="29.4983639" lon="103.2926649"><ele>2124</ele><time>2026-08-19T23:01:53.000Z</time></trkpt>
        <trkpt lat="29.498322" lon="103.2925591"><ele>2102</ele><time>2026-08-19T23:02:07.000Z</time></trkpt>
        <trkpt lat="29.4982758" lon="103.2924523"><ele>2102</ele><time>2026-08-19T23:02:21.000Z</time></trkpt>
        <trkpt lat="29.4982218" lon="103.29236"><ele>2097</ele><time>2026-08-19T23:02:35.000Z</time></trkpt>
        <trkpt lat="29.4981609" lon="103.2922689"><ele>2096</ele><time>2026-08-19T23:02:49.000Z</time></trkpt>
        <trkpt lat="29.498112" lon="103.2921716"><ele>2096</ele><time>2026-08-19T23:03:05.000Z</time></trkpt>
        <trkpt lat="29.4980783" lon="103.2920648"><ele>2097</ele><time>2026-08-19T23:03:21.000Z</time></trkpt>
        <trkpt lat="29.4980529" lon="103.2919594"><ele>2097</ele><time>2026-08-19T23:03:35.000Z</time></trkpt>
        <trkpt lat="29.4980055" lon="103.2918713"><ele>2097</ele><time>2026-08-19T23:04:11.000Z</time></trkpt>
        <trkpt lat="29.49796" lon="103.2917758"><ele>2100</ele><time>2026-08-19T23:05:45.000Z</time></trkpt>
        <trkpt lat="29.4979064" lon="103.2916851"><ele>2105</ele><time>2026-08-19T23:06:05.000Z</time></trkpt>
        <trkpt lat="29.4978637" lon="103.2915838"><ele>2105</ele><time>2026-08-19T23:06:23.000Z</time></trkpt>
        <trkpt lat="29.4978108" lon="103.2914931"><ele>2101</ele><time>2026-08-19T23:06:39.000Z</time></trkpt>
        <trkpt lat="29.4977417" lon="103.2914265"><ele>2101</ele><time>2026-08-19T23:06:57.000Z</time></trkpt>
        <trkpt lat="29.4976547" lon="103.2913802"><ele>2101</ele><time>2026-08-19T23:07:13.000Z</time></trkpt>
        <trkpt lat="29.4975742" lon="103.291313"><ele>2093</ele><time>2026-08-19T23:07:33.000Z</time></trkpt>
        <trkpt lat="29.4975171" lon="103.2912198"><ele>2081</ele><time>2026-08-19T23:07:47.000Z</time></trkpt>
        <trkpt lat="29.4975019" lon="103.29111"><ele>2081</ele><time>2026-08-19T23:08:01.000Z</time></trkpt>
        <trkpt lat="29.4975188" lon="103.2910023"><ele>2081</ele><time>2026-08-19T23:08:13.000Z</time></trkpt>
        <trkpt lat="29.4975173" lon="103.2908966"><ele>2069</ele><time>2026-08-19T23:08:25.000Z</time></trkpt>
        <trkpt lat="29.4974759" lon="103.2908078"><ele>2069</ele><time>2026-08-19T23:08:39.000Z</time></trkpt>
        <trkpt lat="29.4974056" lon="103.2907384"><ele>2069</ele><time>2026-08-19T23:08:49.000Z</time></trkpt>
        <trkpt lat="29.4973088" lon="103.290718"><ele>2059</ele><time>2026-08-19T23:08:59.000Z</time></trkpt>
        <trkpt lat="29.4972179" lon="103.2907645"><ele>2059</ele><time>2026-08-19T23:09:09.000Z</time></trkpt>
        <trkpt lat="29.4971381" lon="103.2908429"><ele>2059</ele><time>2026-08-19T23:09:21.000Z</time></trkpt>
        <trkpt lat="29.4970519" lon="103.2909204"><ele>2059</ele><time>2026-08-19T23:09:35.000Z</time></trkpt>
        <trkpt lat="29.4969637" lon="103.2909976"><ele>2064</ele><time>2026-08-19T23:09:47.000Z</time></trkpt>
        <trkpt lat="29.4968741" lon="103.2910638"><ele>2064</ele><time>2026-08-19T23:09:59.000Z</time></trkpt>
        <trkpt lat="29.4967881" lon="103.2911248"><ele>2064</ele><time>2026-08-19T23:10:09.000Z</time></trkpt>
        <trkpt lat="29.4967059" lon="103.2911732"><ele>2064</ele><time>2026-08-19T23:10:19.000Z</time></trkpt>
        <trkpt lat="29.4966152" lon="103.2912171"><ele>2064</ele><time>2026-08-19T23:10:31.000Z</time></trkpt>
        <trkpt lat="29.4965272" lon="103.2912763"><ele>2067</ele><time>2026-08-19T23:10:43.000Z</time></trkpt>
        <trkpt lat="29.4964439" lon="103.2913373"><ele>2067</ele><time>2026-08-19T23:10:53.000Z</time></trkpt>
        <trkpt lat="29.4963637" lon="103.291402"><ele>2067</ele><time>2026-08-19T23:11:03.000Z</time></trkpt>
        <trkpt lat="29.4962792" lon="103.2914679"><ele>2067</ele><time>2026-08-19T23:11:15.000Z</time></trkpt>
        <trkpt lat="29.4961984" lon="103.2915324"><ele>2076</ele><time>2026-08-19T23:11:25.000Z</time></trkpt>
        <trkpt lat="29.4961216" lon="103.2915961"><ele>2076</ele><time>2026-08-19T23:11:37.000Z</time></trkpt>
        <trkpt lat="29.4960474" lon="103.2916662"><ele>2076</ele><time>2026-08-19T23:11:49.000Z</time></trkpt>
        <trkpt lat="29.4959686" lon="103.2917205"><ele>2080</ele><time>2026-08-19T23:11:59.000Z</time></trkpt>
        <trkpt lat="29.4958754" lon="103.2917505"><ele>2080</ele><time>2026-08-19T23:12:11.000Z</time></trkpt>
        <trkpt lat="29.4957825" lon="103.2917367"><ele>2080</ele><time>2026-08-19T23:12:21.000Z</time></trkpt>
        <trkpt lat="29.4957095" lon="103.291671"><ele>2080</ele><time>2026-08-19T23:12:31.000Z</time></trkpt>
        <trkpt lat="29.4956582" lon="103.2915634"><ele>2079</ele><time>2026-08-19T23:12:43.000Z</time></trkpt>
        <trkpt lat="29.4956401" lon="103.2914489"><ele>2075</ele><time>2026-08-19T23:12:53.000Z</time></trkpt>
        <trkpt lat="29.4956545" lon="103.2913369"><ele>2075</ele><time>2026-08-19T23:13:03.000Z</time></trkpt>
        <trkpt lat="29.4956828" lon="103.2912243"><ele>2072</ele><time>2026-08-19T23:13:13.000Z</time></trkpt>
        <trkpt lat="29.4956938" lon="103.2911093"><ele>2072</ele><time>2026-08-19T23:13:25.000Z</time></trkpt>
        <trkpt lat="29.4957242" lon="103.2909976"><ele>2065</ele><time>2026-08-19T23:13:39.000Z</time></trkpt>
        <trkpt lat="29.4957795" lon="103.2908998"><ele>2046</ele><time>2026-08-19T23:14:01.000Z</time></trkpt>
        <trkpt lat="29.4958458" lon="103.2908203"><ele>2046</ele><time>2026-08-19T23:14:15.000Z</time></trkpt>
        <trkpt lat="29.495918" lon="103.2907462"><ele>2046</ele><time>2026-08-19T23:14:31.000Z</time></trkpt>
        <trkpt lat="29.4959786" lon="103.2906671"><ele>2052</ele><time>2026-08-19T23:14:45.000Z</time></trkpt>
        <trkpt lat="29.4960105" lon="103.290559"><ele>2052</ele><time>2026-08-19T23:14:57.000Z</time></trkpt>
        <trkpt lat="29.4960229" lon="103.2904456"><ele>2052</ele><time>2026-08-19T23:15:07.000Z</time></trkpt>
        <trkpt lat="29.4960403" lon="103.2903257"><ele>2047</ele><time>2026-08-19T23:15:19.000Z</time></trkpt>
        <trkpt lat="29.49607" lon="103.2902168"><ele>2047</ele><time>2026-08-19T23:15:29.000Z</time></trkpt>
        <trkpt lat="29.4961139" lon="103.2901132"><ele>2039</ele><time>2026-08-19T23:15:39.000Z</time></trkpt>
        <trkpt lat="29.4961717" lon="103.2900295"><ele>2039</ele><time>2026-08-19T23:15:49.000Z</time></trkpt>
        <trkpt lat="29.4962495" lon="103.2899613"><ele>2039</ele><time>2026-08-19T23:16:01.000Z</time></trkpt>
        <trkpt lat="29.4963231" lon="103.2898953"><ele>2036</ele><time>2026-08-19T23:16:11.000Z</time></trkpt>
        <trkpt lat="29.4963904" lon="103.2898039"><ele>2029</ele><time>2026-08-19T23:16:23.000Z</time></trkpt>
        <trkpt lat="29.4964287" lon="103.2897046"><ele>2029</ele><time>2026-08-19T23:16:33.000Z</time></trkpt>
        <trkpt lat="29.4964311" lon="103.2895904"><ele>2029</ele><time>2026-08-19T23:16:47.000Z</time></trkpt>
        <trkpt lat="29.4964506" lon="103.2894738"><ele>2027</ele><time>2026-08-19T23:16:59.000Z</time></trkpt>
        <trkpt lat="29.4964916" lon="103.2893769"><ele>2027</ele><time>2026-08-19T23:17:09.000Z</time></trkpt>
        <trkpt lat="29.4965577" lon="103.2892966"><ele>2026</ele><time>2026-08-19T23:17:21.000Z</time></trkpt>
        <trkpt lat="29.4966048" lon="103.2891977"><ele>2026</ele><time>2026-08-19T23:17:51.000Z</time></trkpt>
        <trkpt lat="29.4966356" lon="103.2890935"><ele>2026</ele><time>2026-08-19T23:18:01.000Z</time></trkpt>
        <trkpt lat="29.4966767" lon="103.2889918"><ele>2024</ele><time>2026-08-19T23:18:11.000Z</time></trkpt>
        <trkpt lat="29.4967324" lon="103.2888911"><ele>2024</ele><time>2026-08-19T23:18:23.000Z</time></trkpt>
        <trkpt lat="29.4967361" lon="103.288852"><ele>2024</ele><time>2026-08-19T23:18:25.000Z</time></trkpt>
        <trkpt lat="29.4967865" lon="103.2887913"><ele>2024</ele><time>2026-08-19T23:18:53.000Z</time></trkpt>
        <trkpt lat="29.4968552" lon="103.28871"><ele>2022</ele><time>2026-08-19T23:19:17.000Z</time></trkpt>
        <trkpt lat="29.4969018" lon="103.2886095"><ele>2022</ele><time>2026-08-19T23:19:33.000Z</time></trkpt>
        <trkpt lat="29.4969032" lon="103.2885039"><ele>2022</ele><time>2026-08-19T23:19:47.000Z</time></trkpt>
        <trkpt lat="29.4968808" lon="103.2883955"><ele>2016</ele><time>2026-08-19T23:20:07.000Z</time></trkpt>
        <trkpt lat="29.4968305" lon="103.2883011"><ele>2016</ele><time>2026-08-19T23:20:23.000Z</time></trkpt>
        <trkpt lat="29.4967402" lon="103.2882627"><ele>2012</ele><time>2026-08-19T23:20:37.000Z</time></trkpt>
        <trkpt lat="29.4966336" lon="103.2882763"><ele>2012</ele><time>2026-08-19T23:20:53.000Z</time></trkpt>
        <trkpt lat="29.496528" lon="103.2882927"><ele>2012</ele><time>2026-08-19T23:21:11.000Z</time></trkpt>
        <trkpt lat="29.4964205" lon="103.2882997"><ele>2006</ele><time>2026-08-19T23:21:33.000Z</time></trkpt>
        <trkpt lat="29.4963977" lon="103.2883076"><ele>2006</ele><time>2026-08-19T23:21:35.000Z</time></trkpt>
        <trkpt lat="29.4963977" lon="103.2883076"><ele>2006</ele><time>2026-08-19T23:22:29.000Z</time></trkpt>
        <trkpt lat="29.4963112" lon="103.2882878"><ele>2006</ele><time>2026-08-19T23:25:19.000Z</time></trkpt>
        <trkpt lat="29.4963112" lon="103.2882878"><ele>2006</ele><time>2026-08-19T23:25:39.000Z</time></trkpt>
        <trkpt lat="29.4962206" lon="103.2883146"><ele>1999</ele><time>2026-08-19T23:25:57.000Z</time></trkpt>
        <trkpt lat="29.4961237" lon="103.288321"><ele>1999</ele><time>2026-08-19T23:26:13.000Z</time></trkpt>
        <trkpt lat="29.4960305" lon="103.2883194"><ele>1999</ele><time>2026-08-19T23:26:33.000Z</time></trkpt>
        <trkpt lat="29.4959448" lon="103.2883525"><ele>2000</ele><time>2026-08-19T23:26:47.000Z</time></trkpt>
        <trkpt lat="29.4958544" lon="103.288395"><ele>2000</ele><time>2026-08-19T23:26:59.000Z</time></trkpt>
        <trkpt lat="29.4957591" lon="103.2884195"><ele>2000</ele><time>2026-08-19T23:27:13.000Z</time></trkpt>
        <trkpt lat="29.4956613" lon="103.2884272"><ele>2008</ele><time>2026-08-19T23:27:27.000Z</time></trkpt>
        <trkpt lat="29.4955672" lon="103.2884046"><ele>2008</ele><time>2026-08-19T23:27:39.000Z</time></trkpt>
        <trkpt lat="29.495491" lon="103.2883452"><ele>2008</ele><time>2026-08-19T23:27:49.000Z</time></trkpt>
        <trkpt lat="29.4954082" lon="103.2882938"><ele>2017</ele><time>2026-08-19T23:28:01.000Z</time></trkpt>
        <trkpt lat="29.4953182" lon="103.2882706"><ele>2017</ele><time>2026-08-19T23:28:17.000Z</time></trkpt>
        <trkpt lat="29.4952145" lon="103.2882529"><ele>2017</ele><time>2026-08-19T23:28:31.000Z</time></trkpt>
        <trkpt lat="29.4951201" lon="103.2881971"><ele>2021</ele><time>2026-08-19T23:28:43.000Z</time></trkpt>
        <trkpt lat="29.4950383" lon="103.2881309"><ele>2002</ele><time>2026-08-19T23:28:55.000Z</time></trkpt>
        <trkpt lat="29.4949703" lon="103.2880485"><ele>2002</ele><time>2026-08-19T23:29:07.000Z</time></trkpt>
        <trkpt lat="29.4949149" lon="103.2879606"><ele>2002</ele><time>2026-08-19T23:29:21.000Z</time></trkpt>
        <trkpt lat="29.4948624" lon="103.2878699"><ele>1988</ele><time>2026-08-19T23:29:35.000Z</time></trkpt>
        <trkpt lat="29.4947837" lon="103.2878261"><ele>1998</ele><time>2026-08-19T23:29:57.000Z</time></trkpt>
        <trkpt lat="29.4947119" lon="103.2878775"><ele>1998</ele><time>2026-08-19T23:30:19.000Z</time></trkpt>
        <trkpt lat="29.4946718" lon="103.2879772"><ele>2009</ele><time>2026-08-19T23:30:31.000Z</time></trkpt>
        <trkpt lat="29.4946407" lon="103.2880978"><ele>2009</ele><time>2026-08-19T23:30:47.000Z</time></trkpt>
        <trkpt lat="29.4945696" lon="103.28817"><ele>2019</ele><time>2026-08-19T23:30:59.000Z</time></trkpt>
        <trkpt lat="29.4944856" lon="103.2881541"><ele>2019</ele><time>2026-08-19T23:31:21.000Z</time></trkpt>
        <trkpt lat="29.4943976" lon="103.2880934"><ele>2019</ele><time>2026-08-19T23:31:35.000Z</time></trkpt>
        <trkpt lat="29.4943021" lon="103.2880411"><ele>2020</ele><time>2026-08-19T23:31:51.000Z</time></trkpt>
        <trkpt lat="29.4942094" lon="103.2879919"><ele>2020</ele><time>2026-08-19T23:32:11.000Z</time></trkpt>
        <trkpt lat="29.4941183" lon="103.2879533"><ele>2020</ele><time>2026-08-19T23:32:23.000Z</time></trkpt>
        <trkpt lat="29.4940415" lon="103.2878961"><ele>2020</ele><time>2026-08-19T23:32:33.000Z</time></trkpt>
        <trkpt lat="29.4939693" lon="103.2878179"><ele>2017</ele><time>2026-08-19T23:32:45.000Z</time></trkpt>
        <trkpt lat="29.493915" lon="103.2877239"><ele>2017</ele><time>2026-08-19T23:32:59.000Z</time></trkpt>
        <trkpt lat="29.4938683" lon="103.287621"><ele>2014</ele><time>2026-08-19T23:33:13.000Z</time></trkpt>
        <trkpt lat="29.4938222" lon="103.2875185"><ele>2014</ele><time>2026-08-19T23:33:25.000Z</time></trkpt>
        <trkpt lat="29.4937727" lon="103.2874198"><ele>2014</ele><time>2026-08-19T23:33:37.000Z</time></trkpt>
        <trkpt lat="29.493705" lon="103.2873409"><ele>1996</ele><time>2026-08-19T23:33:51.000Z</time></trkpt>
        <trkpt lat="29.4936292" lon="103.2873863"><ele>2008</ele><time>2026-08-19T23:34:10.000Z</time></trkpt>
        <trkpt lat="29.4936076" lon="103.2875058"><ele>2008</ele><time>2026-08-19T23:34:24.000Z</time></trkpt>
        <trkpt lat="29.4935745" lon="103.2876225"><ele>2008</ele><time>2026-08-19T23:34:34.000Z</time></trkpt>
        <trkpt lat="29.4935023" lon="103.2876936"><ele>2015</ele><time>2026-08-19T23:34:44.000Z</time></trkpt>
        <trkpt lat="29.4934036" lon="103.2876891"><ele>2013</ele><time>2026-08-19T23:34:56.000Z</time></trkpt>
        <trkpt lat="29.4933193" lon="103.2876268"><ele>1997</ele><time>2026-08-19T23:35:06.000Z</time></trkpt>
        <trkpt lat="29.4932434" lon="103.2875383"><ele>1997</ele><time>2026-08-19T23:35:18.000Z</time></trkpt>
        <trkpt lat="29.4931836" lon="103.287439"><ele>1989</ele><time>2026-08-19T23:35:32.000Z</time></trkpt>
        <trkpt lat="29.4931473" lon="103.2873255"><ele>1980</ele><time>2026-08-19T23:35:44.000Z</time></trkpt>
        <trkpt lat="29.4931355" lon="103.2872143"><ele>1980</ele><time>2026-08-19T23:35:54.000Z</time></trkpt>
        <trkpt lat="29.4931243" lon="103.2871054"><ele>1980</ele><time>2026-08-19T23:36:06.000Z</time></trkpt>
        <trkpt lat="29.4931027" lon="103.2869999"><ele>1968</ele><time>2026-08-19T23:36:18.000Z</time></trkpt>
        <trkpt lat="29.4930722" lon="103.2868879"><ele>1968</ele><time>2026-08-19T23:36:34.000Z</time></trkpt>
        <trkpt lat="29.4930298" lon="103.2867896"><ele>1968</ele><time>2026-08-19T23:36:44.000Z</time></trkpt>
        <trkpt lat="29.4929828" lon="103.2866852"><ele>1968</ele><time>2026-08-19T23:36:56.000Z</time></trkpt>
        <trkpt lat="29.4929208" lon="103.2866015"><ele>1968</ele><time>2026-08-19T23:37:06.000Z</time></trkpt>
        <trkpt lat="29.49283" lon="103.2865642"><ele>1969</ele><time>2026-08-19T23:37:18.000Z</time></trkpt>
        <trkpt lat="29.4927361" lon="103.286579"><ele>1969</ele><time>2026-08-19T23:37:30.000Z</time></trkpt>
        <trkpt lat="29.4926385" lon="103.2866216"><ele>1968</ele><time>2026-08-19T23:37:44.000Z</time></trkpt>
        <trkpt lat="29.4925435" lon="103.2866917"><ele>1968</ele><time>2026-08-19T23:37:58.000Z</time></trkpt>
        <trkpt lat="29.49246" lon="103.2867553"><ele>1968</ele><time>2026-08-19T23:38:08.000Z</time></trkpt>
        <trkpt lat="29.4923738" lon="103.2868181"><ele>1971</ele><time>2026-08-19T23:38:22.000Z</time></trkpt>
        <trkpt lat="29.4922834" lon="103.2868684"><ele>1976</ele><time>2026-08-19T23:38:32.000Z</time></trkpt>
        <trkpt lat="29.4921945" lon="103.2869059"><ele>1976</ele><time>2026-08-19T23:38:44.000Z</time></trkpt>
        <trkpt lat="29.4920988" lon="103.2869109"><ele>1976</ele><time>2026-08-19T23:38:58.000Z</time></trkpt>
        <trkpt lat="29.4920048" lon="103.2868797"><ele>1983</ele><time>2026-08-19T23:39:12.000Z</time></trkpt>
        <trkpt lat="29.491918" lon="103.2868218"><ele>1983</ele><time>2026-08-19T23:39:26.000Z</time></trkpt>
        <trkpt lat="29.4918462" lon="103.2867428"><ele>1980</ele><time>2026-08-19T23:39:38.000Z</time></trkpt>
        <trkpt lat="29.4917959" lon="103.2866368"><ele>1978</ele><time>2026-08-19T23:39:50.000Z</time></trkpt>
        <trkpt lat="29.4917621" lon="103.2865291"><ele>1978</ele><time>2026-08-19T23:40:04.000Z</time></trkpt>
        <trkpt lat="29.4917306" lon="103.286425"><ele>1967</ele><time>2026-08-19T23:40:16.000Z</time></trkpt>
        <trkpt lat="29.4917099" lon="103.2863113"><ele>1967</ele><time>2026-08-19T23:40:28.000Z</time></trkpt>
        <trkpt lat="29.4916906" lon="103.2861993"><ele>1962</ele><time>2026-08-19T23:40:40.000Z</time></trkpt>
        <trkpt lat="29.4916507" lon="103.2861038"><ele>1962</ele><time>2026-08-19T23:40:54.000Z</time></trkpt>
        <trkpt lat="29.4915879" lon="103.2860207"><ele>1962</ele><time>2026-08-19T23:41:10.000Z</time></trkpt>
        <trkpt lat="29.491498" lon="103.2859685"><ele>1948</ele><time>2026-08-19T23:41:26.000Z</time></trkpt>
        <trkpt lat="29.4913981" lon="103.285947"><ele>1948</ele><time>2026-08-19T23:41:40.000Z</time></trkpt>
        <trkpt lat="29.4913019" lon="103.2859366"><ele>1948</ele><time>2026-08-19T23:41:52.000Z</time></trkpt>
        <trkpt lat="29.4912012" lon="103.2859406"><ele>1950</ele><time>2026-08-19T23:42:10.000Z</time></trkpt>
        <trkpt lat="29.4911082" lon="103.2859622"><ele>1950</ele><time>2026-08-19T23:42:18.000Z</time></trkpt>
        <trkpt lat="29.4910274" lon="103.2860223"><ele>1953</ele><time>2026-08-19T23:42:30.000Z</time></trkpt>
        <trkpt lat="29.4909613" lon="103.2861094"><ele>1946</ele><time>2026-08-19T23:42:44.000Z</time></trkpt>
        <trkpt lat="29.4908849" lon="103.2861859"><ele>1946</ele><time>2026-08-19T23:42:56.000Z</time></trkpt>
        <trkpt lat="29.4907951" lon="103.2862219"><ele>1946</ele><time>2026-08-19T23:43:08.000Z</time></trkpt>
        <trkpt lat="29.4906959" lon="103.2862068"><ele>1946</ele><time>2026-08-19T23:43:20.000Z</time></trkpt>
        <trkpt lat="29.4905962" lon="103.286214"><ele>1940</ele><time>2026-08-19T23:43:34.000Z</time></trkpt>
        <trkpt lat="29.4904985" lon="103.2862178"><ele>1940</ele><time>2026-08-19T23:43:48.000Z</time></trkpt>
        <trkpt lat="29.4904136" lon="103.2861798"><ele>1951</ele><time>2026-08-19T23:44:00.000Z</time></trkpt>
        <trkpt lat="29.4903448" lon="103.2861094"><ele>1951</ele><time>2026-08-19T23:44:12.000Z</time></trkpt>
        <trkpt lat="29.4902764" lon="103.2860316"><ele>1951</ele><time>2026-08-19T23:44:22.000Z</time></trkpt>
        <trkpt lat="29.4901892" lon="103.2859781"><ele>1951</ele><time>2026-08-19T23:44:34.000Z</time></trkpt>
        <trkpt lat="29.4900995" lon="103.2859376"><ele>1953</ele><time>2026-08-19T23:44:48.000Z</time></trkpt>
        <trkpt lat="29.4900107" lon="103.2858974"><ele>1953</ele><time>2026-08-19T23:45:02.000Z</time></trkpt>
        <trkpt lat="29.4899386" lon="103.2858274"><ele>1953</ele><time>2026-08-19T23:45:14.000Z</time></trkpt>
        <trkpt lat="29.4898563" lon="103.2857726"><ele>1960</ele><time>2026-08-19T23:45:26.000Z</time></trkpt>
        <trkpt lat="29.4897819" lon="103.2857042"><ele>1960</ele><time>2026-08-19T23:45:38.000Z</time></trkpt>
        <trkpt lat="29.4897076" lon="103.2856362"><ele>1944</ele><time>2026-08-19T23:45:52.000Z</time></trkpt>
        <trkpt lat="29.4896281" lon="103.2855753"><ele>1944</ele><time>2026-08-19T23:46:08.000Z</time></trkpt>
        <trkpt lat="29.4895427" lon="103.2855095"><ele>1951</ele><time>2026-08-19T23:46:20.000Z</time></trkpt>
        <trkpt lat="29.4894632" lon="103.2854336"><ele>1951</ele><time>2026-08-19T23:46:34.000Z</time></trkpt>
        <trkpt lat="29.4893883" lon="103.2853632"><ele>1938</ele><time>2026-08-19T23:46:44.000Z</time></trkpt>
        <trkpt lat="29.489309" lon="103.2853006"><ele>1938</ele><time>2026-08-19T23:46:58.000Z</time></trkpt>
        <trkpt lat="29.4892094" lon="103.2852932"><ele>1935</ele><time>2026-08-19T23:47:12.000Z</time></trkpt>
        <trkpt lat="29.4891126" lon="103.2853345"><ele>1935</ele><time>2026-08-19T23:47:24.000Z</time></trkpt>
        <trkpt lat="29.4890193" lon="103.2853953"><ele>1934</ele><time>2026-08-19T23:47:36.000Z</time></trkpt>
        <trkpt lat="29.4889237" lon="103.2854332"><ele>1933</ele><time>2026-08-19T23:47:48.000Z</time></trkpt>
        <trkpt lat="29.4888298" lon="103.2854016"><ele>1934</ele><time>2026-08-19T23:48:00.000Z</time></trkpt>
        <trkpt lat="29.4887397" lon="103.2853398"><ele>1922</ele><time>2026-08-19T23:48:12.000Z</time></trkpt>
        <trkpt lat="29.4886792" lon="103.285239"><ele>1922</ele><time>2026-08-19T23:48:24.000Z</time></trkpt>
        <trkpt lat="29.4886111" lon="103.2851482"><ele>1922</ele><time>2026-08-19T23:48:38.000Z</time></trkpt>
        <trkpt lat="29.4885269" lon="103.2851298"><ele>1918</ele><time>2026-08-19T23:48:52.000Z</time></trkpt>
        <trkpt lat="29.4884471" lon="103.2851875"><ele>1913</ele><time>2026-08-19T23:49:06.000Z</time></trkpt>
        <trkpt lat="29.4883872" lon="103.2852873"><ele>1913</ele><time>2026-08-19T23:49:20.000Z</time></trkpt>
        <trkpt lat="29.4883231" lon="103.2853878"><ele>1913</ele><time>2026-08-19T23:49:34.000Z</time></trkpt>
        <trkpt lat="29.4882529" lon="103.2854838"><ele>1912</ele><time>2026-08-19T23:49:46.000Z</time></trkpt>
        <trkpt lat="29.48816" lon="103.2855295"><ele>1910</ele><time>2026-08-19T23:49:58.000Z</time></trkpt>
        <trkpt lat="29.4880809" lon="103.2854754"><ele>1910</ele><time>2026-08-19T23:50:08.000Z</time></trkpt>
        <trkpt lat="29.4880212" lon="103.2853833"><ele>1909</ele><time>2026-08-19T23:50:20.000Z</time></trkpt>
        <trkpt lat="29.4879502" lon="103.285303"><ele>1909</ele><time>2026-08-19T23:50:34.000Z</time></trkpt>
        <trkpt lat="29.4878684" lon="103.285248"><ele>1904</ele><time>2026-08-19T23:50:48.000Z</time></trkpt>
        <trkpt lat="29.4877647" lon="103.2852402"><ele>1904</ele><time>2026-08-19T23:51:04.000Z</time></trkpt>
        <trkpt lat="29.487677" lon="103.285285"><ele>1904</ele><time>2026-08-19T23:51:16.000Z</time></trkpt>
        <trkpt lat="29.4876224" lon="103.28538"><ele>1910</ele><time>2026-08-19T23:51:32.000Z</time></trkpt>
        <trkpt lat="29.4876101" lon="103.2854957"><ele>1917</ele><time>2026-08-19T23:51:44.000Z</time></trkpt>
        <trkpt lat="29.4875937" lon="103.2856155"><ele>1917</ele><time>2026-08-19T23:51:58.000Z</time></trkpt>
        <trkpt lat="29.4875386" lon="103.2856988"><ele>1911</ele><time>2026-08-19T23:52:10.000Z</time></trkpt>
        <trkpt lat="29.4874584" lon="103.2856913"><ele>1917</ele><time>2026-08-19T23:52:20.000Z</time></trkpt>
        <trkpt lat="29.4873788" lon="103.2856251"><ele>1917</ele><time>2026-08-19T23:52:32.000Z</time></trkpt>
        <trkpt lat="29.4873177" lon="103.2855241"><ele>1917</ele><time>2026-08-19T23:52:46.000Z</time></trkpt>
        <trkpt lat="29.4872625" lon="103.2854215"><ele>1917</ele><time>2026-08-19T23:52:56.000Z</time></trkpt>
        <trkpt lat="29.4872008" lon="103.2853345"><ele>1912</ele><time>2026-08-19T23:53:08.000Z</time></trkpt>
        <trkpt lat="29.4871386" lon="103.2852511"><ele>1912</ele><time>2026-08-19T23:53:20.000Z</time></trkpt>
        <trkpt lat="29.487057" lon="103.2851964"><ele>1911</ele><time>2026-08-19T23:53:36.000Z</time></trkpt>
        <trkpt lat="29.4869579" lon="103.2851965"><ele>1911</ele><time>2026-08-19T23:53:52.000Z</time></trkpt>
        <trkpt lat="29.4868653" lon="103.2852522"><ele>1911</ele><time>2026-08-19T23:54:08.000Z</time></trkpt>
        <trkpt lat="29.4867782" lon="103.2853123"><ele>1892</ele><time>2026-08-19T23:54:22.000Z</time></trkpt>
        <trkpt lat="29.4866926" lon="103.2852983"><ele>1892</ele><time>2026-08-19T23:54:38.000Z</time></trkpt>
        <trkpt lat="29.4866774" lon="103.2852093"><ele>1892</ele><time>2026-08-19T23:54:58.000Z</time></trkpt>
        <trkpt lat="29.4867435" lon="103.2851339"><ele>1893</ele><time>2026-08-19T23:55:12.000Z</time></trkpt>
        <trkpt lat="29.4868411" lon="103.2850955"><ele>1902</ele><time>2026-08-19T23:55:22.000Z</time></trkpt>
        <trkpt lat="29.4869379" lon="103.2850555"><ele>1902</ele><time>2026-08-19T23:55:32.000Z</time></trkpt>
        <trkpt lat="29.4870284" lon="103.2850104"><ele>1902</ele><time>2026-08-19T23:55:44.000Z</time></trkpt>
        <trkpt lat="29.487091" lon="103.2849338"><ele>1904</ele><time>2026-08-19T23:55:58.000Z</time></trkpt>
        <trkpt lat="29.4871106" lon="103.2848279"><ele>1897</ele><time>2026-08-19T23:56:14.000Z</time></trkpt>
        <trkpt lat="29.4870701" lon="103.2847321"><ele>1898</ele><time>2026-08-19T23:56:30.000Z</time></trkpt>
        <trkpt lat="29.4869755" lon="103.2847084"><ele>1898</ele><time>2026-08-19T23:56:44.000Z</time></trkpt>
        <trkpt lat="29.4868943" lon="103.2847735"><ele>1898</ele><time>2026-08-19T23:57:00.000Z</time></trkpt>
        <trkpt lat="29.486806" lon="103.2848571"><ele>1898</ele><time>2026-08-19T23:57:12.000Z</time></trkpt>
        <trkpt lat="29.4867055" lon="103.2848916"><ele>1893</ele><time>2026-08-19T23:57:24.000Z</time></trkpt>
        <trkpt lat="29.4866065" lon="103.2848906"><ele>1893</ele><time>2026-08-19T23:57:36.000Z</time></trkpt>
        <trkpt lat="29.4865084" lon="103.2848552"><ele>1931</ele><time>2026-08-19T23:57:50.000Z</time></trkpt>
        <trkpt lat="29.4864111" lon="103.284818"><ele>1931</ele><time>2026-08-19T23:58:02.000Z</time></trkpt>
        <trkpt lat="29.486315" lon="103.2847889"><ele>1931</ele><time>2026-08-19T23:58:16.000Z</time></trkpt>
        <trkpt lat="29.4862239" lon="103.2847711"><ele>1931</ele><time>2026-08-19T23:58:26.000Z</time></trkpt>
        <trkpt lat="29.4861332" lon="103.2847594"><ele>1931</ele><time>2026-08-19T23:58:36.000Z</time></trkpt>
        <trkpt lat="29.4860411" lon="103.2847534"><ele>1931</ele><time>2026-08-19T23:58:50.000Z</time></trkpt>
        <trkpt lat="29.4859532" lon="103.284793"><ele>1925</ele><time>2026-08-19T23:59:04.000Z</time></trkpt>
        <trkpt lat="29.4859221" lon="103.2848873"><ele>1916</ele><time>2026-08-19T23:59:28.000Z</time></trkpt>
        <trkpt lat="29.4859343" lon="103.2849987"><ele>1916</ele><time>2026-08-19T23:59:38.000Z</time></trkpt>
        <trkpt lat="29.4859603" lon="103.2850975"><ele>1916</ele><time>2026-08-19T23:59:54.000Z</time></trkpt>
        <trkpt lat="29.4859603" lon="103.2850975"><ele>1916</ele><time>2026-08-20T00:00:52.000Z</time></trkpt>
        <trkpt lat="29.4859603" lon="103.2850975"><ele>1916</ele><time>2026-08-20T00:01:32.000Z</time></trkpt>
        <trkpt lat="29.4859603" lon="103.2850975"><ele>1916</ele><time>2026-08-20T00:02:42.000Z</time></trkpt>
        <trkpt lat="29.4859603" lon="103.2850975"><ele>1916</ele><time>2026-08-20T00:03:14.000Z</time></trkpt>
        <trkpt lat="29.4859603" lon="103.2850975"><ele>1916</ele><time>2026-08-20T00:03:48.000Z</time></trkpt>
        <trkpt lat="29.4858738" lon="103.2850963"><ele>1916</ele><time>2026-08-20T00:04:08.000Z</time></trkpt>
        <trkpt lat="29.4858738" lon="103.2850963"><ele>1916</ele><time>2026-08-20T00:04:24.000Z</time></trkpt>
        <trkpt lat="29.4857958" lon="103.2850217"><ele>1916</ele><time>2026-08-20T00:04:36.000Z</time></trkpt>
        <trkpt lat="29.4857216" lon="103.2849501"><ele>1916</ele><time>2026-08-20T00:04:46.000Z</time></trkpt>
        <trkpt lat="29.485646" lon="103.2848802"><ele>1910</ele><time>2026-08-20T00:04:58.000Z</time></trkpt>
        <trkpt lat="29.4855556" lon="103.2848171"><ele>1903</ele><time>2026-08-20T00:05:10.000Z</time></trkpt>
        <trkpt lat="29.4854624" lon="103.2847787"><ele>1903</ele><time>2026-08-20T00:05:20.000Z</time></trkpt>
        <trkpt lat="29.4853606" lon="103.2847642"><ele>1890</ele><time>2026-08-20T00:05:32.000Z</time></trkpt>
        <trkpt lat="29.4852653" lon="103.2847887"><ele>1890</ele><time>2026-08-20T00:05:42.000Z</time></trkpt>
        <trkpt lat="29.4851654" lon="103.2848011"><ele>1890</ele><time>2026-08-20T00:05:52.000Z</time></trkpt>
        <trkpt lat="29.4850574" lon="103.284804"><ele>1865</ele><time>2026-08-20T00:06:04.000Z</time></trkpt>
        <trkpt lat="29.4849618" lon="103.2848156"><ele>1865</ele><time>2026-08-20T00:06:14.000Z</time></trkpt>
        <trkpt lat="29.4848726" lon="103.2848346"><ele>1865</ele><time>2026-08-20T00:06:24.000Z</time></trkpt>
        <trkpt lat="29.4847796" lon="103.2848529"><ele>1856</ele><time>2026-08-20T00:06:34.000Z</time></trkpt>
        <trkpt lat="29.4846804" lon="103.2848801"><ele>1864</ele><time>2026-08-20T00:06:46.000Z</time></trkpt>
        <trkpt lat="29.4845838" lon="103.2849179"><ele>1864</ele><time>2026-08-20T00:06:56.000Z</time></trkpt>
        <trkpt lat="29.4844903" lon="103.2849545"><ele>1855</ele><time>2026-08-20T00:07:06.000Z</time></trkpt>
        <trkpt lat="29.4843981" lon="103.2849779"><ele>1855</ele><time>2026-08-20T00:07:16.000Z</time></trkpt>
        <trkpt lat="29.4842989" lon="103.2849838"><ele>1851</ele><time>2026-08-20T00:07:28.000Z</time></trkpt>
        <trkpt lat="29.4842053" lon="103.284985"><ele>1851</ele><time>2026-08-20T00:07:38.000Z</time></trkpt>
        <trkpt lat="29.4841122" lon="103.2850035"><ele>1851</ele><time>2026-08-20T00:07:46.000Z</time></trkpt>
        <trkpt lat="29.4840221" lon="103.2850359"><ele>1848</ele><time>2026-08-20T00:07:56.000Z</time></trkpt>
        <trkpt lat="29.4839365" lon="103.2850844"><ele>1848</ele><time>2026-08-20T00:08:06.000Z</time></trkpt>
        <trkpt lat="29.4838662" lon="103.2851653"><ele>1855</ele><time>2026-08-20T00:08:18.000Z</time></trkpt>
        <trkpt lat="29.4838155" lon="103.2852298"><ele>1855</ele><time>2026-08-20T00:08:30.000Z</time></trkpt>
        <trkpt lat="29.4838155" lon="103.2852298"><ele>1855</ele><time>2026-08-20T00:09:26.000Z</time></trkpt>
        <trkpt lat="29.4837298" lon="103.2851774"><ele>1855</ele><time>2026-08-20T00:11:28.000Z</time></trkpt>
        <trkpt lat="29.4837298" lon="103.2851774"><ele>1855</ele><time>2026-08-20T00:11:44.000Z</time></trkpt>
        <trkpt lat="29.4836575" lon="103.2851033"><ele>1853</ele><time>2026-08-20T00:11:54.000Z</time></trkpt>
        <trkpt lat="29.4835626" lon="103.285085"><ele>1853</ele><time>2026-08-20T00:12:08.000Z</time></trkpt>
        <trkpt lat="29.4834604" lon="103.2850813"><ele>1853</ele><time>2026-08-20T00:12:30.000Z</time></trkpt>
        <trkpt lat="29.4834604" lon="103.2850813"><ele>1853</ele><time>2026-08-20T00:13:58.000Z</time></trkpt>
        <trkpt lat="29.4833726" lon="103.2850502"><ele>1853</ele><time>2026-08-20T00:14:20.000Z</time></trkpt>
        <trkpt lat="29.4833726" lon="103.2850502"><ele>1853</ele><time>2026-08-20T00:15:32.000Z</time></trkpt>
        <trkpt lat="29.4833482" lon="103.2849488"><ele>1853</ele><time>2026-08-20T00:15:46.000Z</time></trkpt>
        <trkpt lat="29.4833105" lon="103.2848422"><ele>1842</ele><time>2026-08-20T00:16:00.000Z</time></trkpt>
        <trkpt lat="29.4832689" lon="103.2847373"><ele>1842</ele><time>2026-08-20T00:16:14.000Z</time></trkpt>
        <trkpt lat="29.4832356" lon="103.2846266"><ele>1842</ele><time>2026-08-20T00:16:28.000Z</time></trkpt>
        <trkpt lat="29.4832113" lon="103.2845165"><ele>1834</ele><time>2026-08-20T00:16:40.000Z</time></trkpt>
        <trkpt lat="29.483149" lon="103.2844374"><ele>1833</ele><time>2026-08-20T00:16:54.000Z</time></trkpt>
        <trkpt lat="29.4830558" lon="103.2844188"><ele>1833</ele><time>2026-08-20T00:17:06.000Z</time></trkpt>
        <trkpt lat="29.4829486" lon="103.2844167"><ele>1833</ele><time>2026-08-20T00:17:20.000Z</time></trkpt>
        <trkpt lat="29.482845" lon="103.2844115"><ele>1834</ele><time>2026-08-20T00:17:34.000Z</time></trkpt>
        <trkpt lat="29.48282" lon="103.2843296"><ele>1834</ele><time>2026-08-20T00:17:48.000Z</time></trkpt>
        <trkpt lat="29.4828588" lon="103.2842252"><ele>1830</ele><time>2026-08-20T00:18:04.000Z</time></trkpt>
        <trkpt lat="29.4829182" lon="103.2841239"><ele>1841</ele><time>2026-08-20T00:18:20.000Z</time></trkpt>
        <trkpt lat="29.4829205" lon="103.2840161"><ele>1854</ele><time>2026-08-20T00:18:36.000Z</time></trkpt>
        <trkpt lat="29.4829252" lon="103.283899"><ele>1854</ele><time>2026-08-20T00:18:50.000Z</time></trkpt>
        <trkpt lat="29.482978" lon="103.2838055"><ele>1854</ele><time>2026-08-20T00:19:02.000Z</time></trkpt>
        <trkpt lat="29.4830629" lon="103.2837663"><ele>1854</ele><time>2026-08-20T00:19:12.000Z</time></trkpt>
        <trkpt lat="29.4831654" lon="103.283748"><ele>1862</ele><time>2026-08-20T00:19:26.000Z</time></trkpt>
        <trkpt lat="29.4832619" lon="103.2837025"><ele>1863</ele><time>2026-08-20T00:19:38.000Z</time></trkpt>
        <trkpt lat="29.4833467" lon="103.2836107"><ele>1863</ele><time>2026-08-20T00:19:44.000Z</time></trkpt>
        <trkpt lat="29.4834253" lon="103.2834903"><ele>1863</ele><time>2026-08-20T00:19:48.000Z</time></trkpt>
        <trkpt lat="29.4835004" lon="103.2833775"><ele>1857</ele><time>2026-08-20T00:19:52.000Z</time></trkpt>
        <trkpt lat="29.4835522" lon="103.2832774"><ele>1857</ele><time>2026-08-20T00:20:02.000Z</time></trkpt>
        <trkpt lat="29.4835758" lon="103.2832053"><ele>1857</ele><time>2026-08-20T00:20:14.000Z</time></trkpt>
        <trkpt lat="29.4835913" lon="103.2831103"><ele>1866</ele><time>2026-08-20T00:20:34.000Z</time></trkpt>
        <trkpt lat="29.4836451" lon="103.2830338"><ele>1866</ele><time>2026-08-20T00:21:20.000Z</time></trkpt>
        <trkpt lat="29.4836451" lon="103.2830338"><ele>1866</ele><time>2026-08-20T00:21:58.000Z</time></trkpt>
        <trkpt lat="29.4836451" lon="103.2830338"><ele>1866</ele><time>2026-08-20T00:22:16.000Z</time></trkpt>
        <trkpt lat="29.4836451" lon="103.2830338"><ele>1866</ele><time>2026-08-20T00:22:48.000Z</time></trkpt>
        <trkpt lat="29.4836593" lon="103.2829219"><ele>1866</ele><time>2026-08-20T00:23:00.000Z</time></trkpt>
        <trkpt lat="29.4836593" lon="103.2829219"><ele>1866</ele><time>2026-08-20T00:23:06.000Z</time></trkpt>
        <trkpt lat="29.4836957" lon="103.2828068"><ele>1874</ele><time>2026-08-20T00:23:12.000Z</time></trkpt>
        <trkpt lat="29.4837084" lon="103.2826863"><ele>1874</ele><time>2026-08-20T00:23:18.000Z</time></trkpt>
        <trkpt lat="29.4836969" lon="103.2825683"><ele>1877</ele><time>2026-08-20T00:23:26.000Z</time></trkpt>
        <trkpt lat="29.4836602" lon="103.2824689"><ele>1877</ele><time>2026-08-20T00:23:42.000Z</time></trkpt>
        <trkpt lat="29.4836192" lon="103.2823663"><ele>1877</ele><time>2026-08-20T00:23:54.000Z</time></trkpt>
        <trkpt lat="29.4835265" lon="103.2823409"><ele>1877</ele><time>2026-08-20T00:24:06.000Z</time></trkpt>
        <trkpt lat="29.4834398" lon="103.2823185"><ele>1881</ele><time>2026-08-20T00:24:22.000Z</time></trkpt>
        <trkpt lat="29.4834398" lon="103.2823185"><ele>1881</ele><time>2026-08-20T00:25:24.000Z</time></trkpt>
      </trkseg>
  </trk>
</gpx>